<?xml version='1.0' encoding='UTF-8'?><gpx version="1.1" creator="JPX - https://github.com/jenetics/jpx" xmlns="http://www.topografix.com/GPX/1/1"><trk><trkseg><trkpt lat="45.3576859" lon="9.7829919"><ele>74.0</ele><time>2026-04-26T12:37:40.871Z</time></trkpt><trkpt lat="45.3576252" lon="9.7830262"><ele>74.0</ele><time>2026-04-26T12:37:54.078Z</time></trkpt><trkpt lat="45.357554" lon="9.7830326"><ele>74.0</ele><time>2026-04-26T12:37:59.918Z</time></trkpt><trkpt lat="45.3574759" lon="9.7830494"><ele>74.0</ele><time>2026-04-26T12:38:15.219Z</time></trkpt><trkpt lat="45.3574322" lon="9.7829665"><ele>74.0</ele><time>2026-04-26T12:38:22.448Z</time></trkpt><trkpt lat="45.35736" lon="9.7829521"><ele>74.0</ele><time>2026-04-26T12:38:25.268Z</time></trkpt><trkpt lat="45.3572974" lon="9.7829926"><ele>74.0</ele><time>2026-04-26T12:38:27.26Z</time></trkpt><trkpt lat="45.3572113" lon="9.783011"><ele>73.75</ele><time>2026-04-26T12:38:29.795Z</time></trkpt><trkpt lat="45.3571342" lon="9.7830262"><ele>73.5</ele><time>2026-04-26T12:38:33.799Z</time></trkpt><trkpt lat="45.3569057" lon="9.7830331"><ele>73.25</ele><time>2026-04-26T12:38:34.201Z</time></trkpt><trkpt lat="45.3567843" lon="9.7830988"><ele>73.0</ele><time>2026-04-26T12:38:35.089Z</time></trkpt><trkpt lat="45.3567294" lon="9.7831466"><ele>73.0</ele><time>2026-04-26T12:38:36.284Z</time></trkpt><trkpt lat="45.3566626" lon="9.7831907"><ele>73.0</ele><time>2026-04-26T12:38:38.132Z</time></trkpt><trkpt lat="45.356564" lon="9.7832406"><ele>73.0</ele><time>2026-04-26T12:38:40.458Z</time></trkpt><trkpt lat="45.3565122" lon="9.7831813"><ele>73.0</ele><time>2026-04-26T12:38:41.44Z</time></trkpt><trkpt lat="45.3564117" lon="9.7831831"><ele>73.0</ele><time>2026-04-26T12:38:43.58Z</time></trkpt><trkpt lat="45.3563456" lon="9.7831877"><ele>73.0</ele><time>2026-04-26T12:38:45.082Z</time></trkpt><trkpt lat="45.3562489" lon="9.7831702"><ele>73.0</ele><time>2026-04-26T12:38:47.194Z</time></trkpt><trkpt lat="45.356139" lon="9.7831853"><ele>73.0</ele><time>2026-04-26T12:38:49.742Z</time></trkpt><trkpt lat="45.3560523" lon="9.7831774"><ele>73.0</ele><time>2026-04-26T12:38:52.147Z</time></trkpt><trkpt lat="45.3560143" lon="9.7830591"><ele>73.0</ele><time>2026-04-26T12:38:54.563Z</time></trkpt><trkpt lat="45.3559979" lon="9.7829296"><ele>73.0</ele><time>2026-04-26T12:38:56.941Z</time></trkpt><trkpt lat="45.3559845" lon="9.7828069"><ele>73.0</ele><time>2026-04-26T12:38:59.015Z</time></trkpt><trkpt lat="45.355967" lon="9.782659"><ele>73.0</ele><time>2026-04-26T12:39:01.525Z</time></trkpt><trkpt lat="45.3559589" lon="9.7825076"><ele>73.0</ele><time>2026-04-26T12:39:03.901Z</time></trkpt><trkpt lat="45.3559467" lon="9.78237"><ele>73.0</ele><time>2026-04-26T12:39:05.932Z</time></trkpt><trkpt lat="45.3559333" lon="9.7822567"><ele>73.0</ele><time>2026-04-26T12:39:07.932Z</time></trkpt><trkpt lat="45.3559183" lon="9.7821317"><ele>73.0</ele><time>2026-04-26T12:39:09.932Z</time></trkpt><trkpt lat="45.3559033" lon="9.78201"><ele>73.0</ele><time>2026-04-26T12:39:11.932Z</time></trkpt><trkpt lat="45.355885" lon="9.7818967"><ele>73.0</ele><time>2026-04-26T12:39:13.932Z</time></trkpt><trkpt lat="45.35587" lon="9.7817783"><ele>73.0</ele><time>2026-04-26T12:39:15.932Z</time></trkpt><trkpt lat="45.3558533" lon="9.78166"><ele>73.0</ele><time>2026-04-26T12:39:17.932Z</time></trkpt><trkpt lat="45.3558467" lon="9.7815483"><ele>73.0</ele><time>2026-04-26T12:39:19.932Z</time></trkpt><trkpt lat="45.3558317" lon="9.78143"><ele>73.0</ele><time>2026-04-26T12:39:21.932Z</time></trkpt><trkpt lat="45.3558117" lon="9.78131"><ele>73.0</ele><time>2026-04-26T12:39:23.932Z</time></trkpt><trkpt lat="45.3557967" lon="9.7811917"><ele>73.0</ele><time>2026-04-26T12:39:25.933Z</time></trkpt><trkpt lat="45.35578" lon="9.7810767"><ele>73.0</ele><time>2026-04-26T12:39:27.932Z</time></trkpt><trkpt lat="45.3557483" lon="9.7809033"><ele>73.0</ele><time>2026-04-26T12:39:30.932Z</time></trkpt><trkpt lat="45.3557283" lon="9.7807983"><ele>73.0</ele><time>2026-04-26T12:39:32.932Z</time></trkpt><trkpt lat="45.3557083" lon="9.7807017"><ele>73.0</ele><time>2026-04-26T12:39:34.932Z</time></trkpt><trkpt lat="45.3556967" lon="9.7806117"><ele>73.0</ele><time>2026-04-26T12:39:36.932Z</time></trkpt><trkpt lat="45.3556817" lon="9.7805217"><ele>73.0</ele><time>2026-04-26T12:39:38.932Z</time></trkpt><trkpt lat="45.355665" lon="9.7804333"><ele>73.0</ele><time>2026-04-26T12:39:40.932Z</time></trkpt><trkpt lat="45.35565" lon="9.7803367"><ele>73.0</ele><time>2026-04-26T12:39:43.932Z</time></trkpt><trkpt lat="45.3556217" lon="9.78024"><ele>73.0</ele><time>2026-04-26T12:39:46.932Z</time></trkpt><trkpt lat="45.3556117" lon="9.7801483"><ele>72.83333333333333</ele><time>2026-04-26T12:39:48.931Z</time></trkpt><trkpt lat="45.3555883" lon="9.7800183"><ele>72.66666666666666</ele><time>2026-04-26T12:39:51.931Z</time></trkpt><trkpt lat="45.35558" lon="9.7799167"><ele>72.5</ele><time>2026-04-26T12:39:53.931Z</time></trkpt><trkpt lat="45.355565" lon="9.7798033"><ele>72.33333333333333</ele><time>2026-04-26T12:39:55.931Z</time></trkpt><trkpt lat="45.3555433" lon="9.7796917"><ele>72.16666666666667</ele><time>2026-04-26T12:39:57.931Z</time></trkpt><trkpt lat="45.3555167" lon="9.779585"><ele>72.0</ele><time>2026-04-26T12:39:59.931Z</time></trkpt><trkpt lat="45.3554883" lon="9.7794683"><ele>72.16666666666667</ele><time>2026-04-26T12:40:01.931Z</time></trkpt><trkpt lat="45.3554633" lon="9.7793533"><ele>72.33333333333333</ele><time>2026-04-26T12:40:03.931Z</time></trkpt><trkpt lat="45.355435" lon="9.77924"><ele>72.5</ele><time>2026-04-26T12:40:05.931Z</time></trkpt><trkpt lat="45.3554267" lon="9.7791217"><ele>72.66666666666666</ele><time>2026-04-26T12:40:07.931Z</time></trkpt><trkpt lat="45.3554267" lon="9.7790017"><ele>72.83333333333333</ele><time>2026-04-26T12:40:09.931Z</time></trkpt><trkpt lat="45.3554183" lon="9.7788767"><ele>73.0</ele><time>2026-04-26T12:40:11.931Z</time></trkpt><trkpt lat="45.3554117" lon="9.7787517"><ele>73.0</ele><time>2026-04-26T12:40:13.931Z</time></trkpt><trkpt lat="45.3554167" lon="9.7786317"><ele>73.0</ele><time>2026-04-26T12:40:15.931Z</time></trkpt><trkpt lat="45.3554333" lon="9.7785117"><ele>73.0</ele><time>2026-04-26T12:40:17.931Z</time></trkpt><trkpt lat="45.355465" lon="9.7783917"><ele>73.0</ele><time>2026-04-26T12:40:19.931Z</time></trkpt><trkpt lat="45.3555033" lon="9.7782667"><ele>73.0</ele><time>2026-04-26T12:40:21.931Z</time></trkpt><trkpt lat="45.3555683" lon="9.7781633"><ele>73.0</ele><time>2026-04-26T12:40:23.931Z</time></trkpt><trkpt lat="45.3556267" lon="9.7780667"><ele>73.0</ele><time>2026-04-26T12:40:25.931Z</time></trkpt><trkpt lat="45.3556783" lon="9.77796"><ele>73.0</ele><time>2026-04-26T12:40:27.931Z</time></trkpt><trkpt lat="45.3557067" lon="9.7778383"><ele>73.0</ele><time>2026-04-26T12:40:29.931Z</time></trkpt><trkpt lat="45.35571" lon="9.7777067"><ele>73.0</ele><time>2026-04-26T12:40:31.931Z</time></trkpt><trkpt lat="45.3557433" lon="9.777585"><ele>73.0</ele><time>2026-04-26T12:40:33.931Z</time></trkpt><trkpt lat="45.3557967" lon="9.7774683"><ele>73.0</ele><time>2026-04-26T12:40:35.931Z</time></trkpt><trkpt lat="45.3558467" lon="9.77735"><ele>73.0</ele><time>2026-04-26T12:40:37.931Z</time></trkpt><trkpt lat="45.3558967" lon="9.7772317"><ele>73.0</ele><time>2026-04-26T12:40:39.931Z</time></trkpt><trkpt lat="45.355955" lon="9.77712"><ele>73.0</ele><time>2026-04-26T12:40:41.931Z</time></trkpt><trkpt lat="45.3560083" lon="9.7770117"><ele>73.0</ele><time>2026-04-26T12:40:43.932Z</time></trkpt><trkpt lat="45.3560667" lon="9.7769017"><ele>73.0</ele><time>2026-04-26T12:40:45.931Z</time></trkpt><trkpt lat="45.35612" lon="9.7767833"><ele>73.0</ele><time>2026-04-26T12:40:47.931Z</time></trkpt><trkpt lat="45.3561717" lon="9.776665"><ele>73.0</ele><time>2026-04-26T12:40:49.931Z</time></trkpt><trkpt lat="45.35623" lon="9.7765567"><ele>73.0</ele><time>2026-04-26T12:40:51.931Z</time></trkpt><trkpt lat="45.3562883" lon="9.7764417"><ele>73.0</ele><time>2026-04-26T12:40:53.931Z</time></trkpt><trkpt lat="45.35635" lon="9.77633"><ele>73.0</ele><time>2026-04-26T12:40:55.931Z</time></trkpt><trkpt lat="45.3564067" lon="9.7762167"><ele>73.0</ele><time>2026-04-26T12:40:57.931Z</time></trkpt><trkpt lat="45.3564517" lon="9.7760967"><ele>73.0</ele><time>2026-04-26T12:40:59.931Z</time></trkpt><trkpt lat="45.3565017" lon="9.7759733"><ele>73.0</ele><time>2026-04-26T12:41:01.931Z</time></trkpt><trkpt lat="45.356535" lon="9.7758467"><ele>73.0</ele><time>2026-04-26T12:41:03.931Z</time></trkpt><trkpt lat="45.3565783" lon="9.775725"><ele>73.0</ele><time>2026-04-26T12:41:05.931Z</time></trkpt><trkpt lat="45.3566083" lon="9.7755967"><ele>73.0</ele><time>2026-04-26T12:41:07.931Z</time></trkpt><trkpt lat="45.35664" lon="9.7754667"><ele>73.0</ele><time>2026-04-26T12:41:09.931Z</time></trkpt><trkpt lat="45.35667" lon="9.7753333"><ele>73.0</ele><time>2026-04-26T12:41:11.931Z</time></trkpt><trkpt lat="45.3566983" lon="9.7752017"><ele>73.33333333333333</ele><time>2026-04-26T12:41:13.931Z</time></trkpt><trkpt lat="45.356725" lon="9.775075"><ele>73.66666666666666</ele><time>2026-04-26T12:41:15.931Z</time></trkpt><trkpt lat="45.3567467" lon="9.7749433"><ele>74.0</ele><time>2026-04-26T12:41:17.931Z</time></trkpt><trkpt lat="45.35677" lon="9.7748167"><ele>74.33333333333333</ele><time>2026-04-26T12:41:19.931Z</time></trkpt><trkpt lat="45.3567983" lon="9.7747017"><ele>74.66666666666667</ele><time>2026-04-26T12:41:21.931Z</time></trkpt><trkpt lat="45.3568783" lon="9.7746667"><ele>75.0</ele><time>2026-04-26T12:41:24.931Z</time></trkpt><trkpt lat="45.35695" lon="9.77468"><ele>75.0</ele><time>2026-04-26T12:41:27.931Z</time></trkpt><trkpt lat="45.3570133" lon="9.77467"><ele>75.0</ele><time>2026-04-26T12:41:30.931Z</time></trkpt><trkpt lat="45.35711" lon="9.774685"><ele>75.0</ele><time>2026-04-26T12:41:33.932Z</time></trkpt><trkpt lat="45.357195" lon="9.7746917"><ele>75.0</ele><time>2026-04-26T12:41:35.931Z</time></trkpt><trkpt lat="45.3572783" lon="9.7747017"><ele>75.0</ele><time>2026-04-26T12:41:37.931Z</time></trkpt><trkpt lat="45.35737" lon="9.7747083"><ele>75.0</ele><time>2026-04-26T12:41:39.931Z</time></trkpt><trkpt lat="45.3574617" lon="9.77471"><ele>74.8</ele><time>2026-04-26T12:41:41.931Z</time></trkpt><trkpt lat="45.35756" lon="9.7747183"><ele>74.6</ele><time>2026-04-26T12:41:43.931Z</time></trkpt><trkpt lat="45.357655" lon="9.774725"><ele>74.4</ele><time>2026-04-26T12:41:45.931Z</time></trkpt><trkpt lat="45.357755" lon="9.7747333"><ele>74.2</ele><time>2026-04-26T12:41:47.931Z</time></trkpt><trkpt lat="45.3578483" lon="9.77474"><ele>74.0</ele><time>2026-04-26T12:41:49.931Z</time></trkpt><trkpt lat="45.3579383" lon="9.774745"><ele>74.0</ele><time>2026-04-26T12:41:51.931Z</time></trkpt><trkpt lat="45.3580367" lon="9.7747583"><ele>74.0</ele><time>2026-04-26T12:41:53.931Z</time></trkpt><trkpt lat="45.3581317" lon="9.77477"><ele>74.0</ele><time>2026-04-26T12:41:55.931Z</time></trkpt><trkpt lat="45.35822" lon="9.774775"><ele>74.0</ele><time>2026-04-26T12:41:57.932Z</time></trkpt><trkpt lat="45.3583033" lon="9.7747867"><ele>74.0</ele><time>2026-04-26T12:41:59.931Z</time></trkpt><trkpt lat="45.3583767" lon="9.7747417"><ele>74.0</ele><time>2026-04-26T12:42:01.931Z</time></trkpt><trkpt lat="45.358385" lon="9.7746183"><ele>74.0</ele><time>2026-04-26T12:42:03.931Z</time></trkpt><trkpt lat="45.3583883" lon="9.77449"><ele>74.0</ele><time>2026-04-26T12:42:05.931Z</time></trkpt><trkpt lat="45.35839" lon="9.77436"><ele>74.0</ele><time>2026-04-26T12:42:07.932Z</time></trkpt><trkpt lat="45.3583883" lon="9.7742383"><ele>74.0</ele><time>2026-04-26T12:42:09.931Z</time></trkpt><trkpt lat="45.3583867" lon="9.77412"><ele>74.0</ele><time>2026-04-26T12:42:11.931Z</time></trkpt><trkpt lat="45.3583883" lon="9.773995"><ele>74.0</ele><time>2026-04-26T12:42:13.931Z</time></trkpt><trkpt lat="45.3583883" lon="9.7738783"><ele>74.0</ele><time>2026-04-26T12:42:15.931Z</time></trkpt><trkpt lat="45.3583867" lon="9.7737683"><ele>74.0</ele><time>2026-04-26T12:42:17.931Z</time></trkpt><trkpt lat="45.3583917" lon="9.77364"><ele>74.0</ele><time>2026-04-26T12:42:20.931Z</time></trkpt><trkpt lat="45.358385" lon="9.7735417"><ele>74.0</ele><time>2026-04-26T12:42:23.931Z</time></trkpt><trkpt lat="45.3583783" lon="9.7734017"><ele>74.0</ele><time>2026-04-26T12:42:26.932Z</time></trkpt><trkpt lat="45.358385" lon="9.7732817"><ele>74.0</ele><time>2026-04-26T12:42:28.931Z</time></trkpt><trkpt lat="45.35839" lon="9.7731533"><ele>74.0</ele><time>2026-04-26T12:42:30.931Z</time></trkpt><trkpt lat="45.3583983" lon="9.7730283"><ele>74.0</ele><time>2026-04-26T12:42:32.931Z</time></trkpt><trkpt lat="45.3584117" lon="9.7728967"><ele>74.0</ele><time>2026-04-26T12:42:34.931Z</time></trkpt><trkpt lat="45.3584183" lon="9.772765"><ele>74.0</ele><time>2026-04-26T12:42:36.931Z</time></trkpt><trkpt lat="45.3584217" lon="9.77263"><ele>74.0</ele><time>2026-04-26T12:42:38.931Z</time></trkpt><trkpt lat="45.3584267" lon="9.7724967"><ele>73.8</ele><time>2026-04-26T12:42:40.932Z</time></trkpt><trkpt lat="45.3584317" lon="9.7723583"><ele>73.60000000000001</ele><time>2026-04-26T12:42:42.931Z</time></trkpt><trkpt lat="45.3584433" lon="9.7722117"><ele>73.4</ele><time>2026-04-26T12:42:44.931Z</time></trkpt><trkpt lat="45.3584417" lon="9.7720733"><ele>73.2</ele><time>2026-04-26T12:42:46.931Z</time></trkpt><trkpt lat="45.3584433" lon="9.7719367"><ele>73.0</ele><time>2026-04-26T12:42:48.931Z</time></trkpt><trkpt lat="45.3584467" lon="9.7718017"><ele>72.8</ele><time>2026-04-26T12:42:50.931Z</time></trkpt><trkpt lat="45.3584483" lon="9.771665"><ele>72.6</ele><time>2026-04-26T12:42:52.931Z</time></trkpt><trkpt lat="45.3584567" lon="9.7715267"><ele>72.4</ele><time>2026-04-26T12:42:54.931Z</time></trkpt><trkpt lat="45.3584567" lon="9.7713833"><ele>72.2</ele><time>2026-04-26T12:42:56.931Z</time></trkpt><trkpt lat="45.3584617" lon="9.7712433"><ele>72.0</ele><time>2026-04-26T12:42:58.931Z</time></trkpt><trkpt lat="45.3584633" lon="9.7711033"><ele>72.0</ele><time>2026-04-26T12:43:00.931Z</time></trkpt><trkpt lat="45.3584717" lon="9.7709733"><ele>72.0</ele><time>2026-04-26T12:43:02.931Z</time></trkpt><trkpt lat="45.35848" lon="9.770835"><ele>72.0</ele><time>2026-04-26T12:43:04.93Z</time></trkpt><trkpt lat="45.3584867" lon="9.7706983"><ele>72.0</ele><time>2026-04-26T12:43:06.93Z</time></trkpt><trkpt lat="45.3584917" lon="9.7705617"><ele>72.0</ele><time>2026-04-26T12:43:08.93Z</time></trkpt><trkpt lat="45.3585" lon="9.7704233"><ele>72.0</ele><time>2026-04-26T12:43:10.93Z</time></trkpt><trkpt lat="45.3585017" lon="9.7702817"><ele>72.0</ele><time>2026-04-26T12:43:12.93Z</time></trkpt><trkpt lat="45.35851" lon="9.77014"><ele>72.0</ele><time>2026-04-26T12:43:14.931Z</time></trkpt><trkpt lat="45.3585117" lon="9.7699967"><ele>72.0</ele><time>2026-04-26T12:43:16.93Z</time></trkpt><trkpt lat="45.3585133" lon="9.769855"><ele>72.0</ele><time>2026-04-26T12:43:18.93Z</time></trkpt><trkpt lat="45.35852" lon="9.769715"><ele>72.0</ele><time>2026-04-26T12:43:20.93Z</time></trkpt><trkpt lat="45.3585283" lon="9.7695767"><ele>72.0</ele><time>2026-04-26T12:43:22.93Z</time></trkpt><trkpt lat="45.35854" lon="9.7694383"><ele>72.0</ele><time>2026-04-26T12:43:24.93Z</time></trkpt><trkpt lat="45.3585367" lon="9.7692983"><ele>72.0</ele><time>2026-04-26T12:43:26.93Z</time></trkpt><trkpt lat="45.3585433" lon="9.769155"><ele>72.0</ele><time>2026-04-26T12:43:28.93Z</time></trkpt><trkpt lat="45.358545" lon="9.7690167"><ele>72.2</ele><time>2026-04-26T12:43:30.93Z</time></trkpt><trkpt lat="45.3585483" lon="9.76887"><ele>72.4</ele><time>2026-04-26T12:43:32.93Z</time></trkpt><trkpt lat="45.3585517" lon="9.7687267"><ele>72.6</ele><time>2026-04-26T12:43:34.93Z</time></trkpt><trkpt lat="45.358555" lon="9.768575"><ele>72.8</ele><time>2026-04-26T12:43:36.93Z</time></trkpt><trkpt lat="45.358565" lon="9.768435"><ele>73.0</ele><time>2026-04-26T12:43:38.93Z</time></trkpt><trkpt lat="45.3585683" lon="9.76829"><ele>73.0</ele><time>2026-04-26T12:43:40.93Z</time></trkpt><trkpt lat="45.358575" lon="9.7681417"><ele>73.0</ele><time>2026-04-26T12:43:42.93Z</time></trkpt><trkpt lat="45.358585" lon="9.7679933"><ele>73.0</ele><time>2026-04-26T12:43:44.93Z</time></trkpt><trkpt lat="45.3585883" lon="9.7678467"><ele>73.0</ele><time>2026-04-26T12:43:46.93Z</time></trkpt><trkpt lat="45.35859" lon="9.7676983"><ele>73.0</ele><time>2026-04-26T12:43:48.93Z</time></trkpt><trkpt lat="45.3585983" lon="9.7675483"><ele>72.8</ele><time>2026-04-26T12:43:50.93Z</time></trkpt><trkpt lat="45.3586067" lon="9.7673983"><ele>72.6</ele><time>2026-04-26T12:43:52.93Z</time></trkpt><trkpt lat="45.3586133" lon="9.7672567"><ele>72.4</ele><time>2026-04-26T12:43:54.93Z</time></trkpt><trkpt lat="45.3586183" lon="9.7671133"><ele>72.2</ele><time>2026-04-26T12:43:56.93Z</time></trkpt><trkpt lat="45.3586217" lon="9.7669683"><ele>72.0</ele><time>2026-04-26T12:43:58.93Z</time></trkpt><trkpt lat="45.3586233" lon="9.7668233"><ele>72.0</ele><time>2026-04-26T12:44:00.93Z</time></trkpt><trkpt lat="45.35863" lon="9.7666883"><ele>72.0</ele><time>2026-04-26T12:44:02.93Z</time></trkpt><trkpt lat="45.3586233" lon="9.76654"><ele>72.0</ele><time>2026-04-26T12:44:04.93Z</time></trkpt><trkpt lat="45.3586267" lon="9.7663967"><ele>72.0</ele><time>2026-04-26T12:44:06.93Z</time></trkpt><trkpt lat="45.3586267" lon="9.76625"><ele>72.0</ele><time>2026-04-26T12:44:08.93Z</time></trkpt><trkpt lat="45.3586267" lon="9.7661033"><ele>72.2</ele><time>2026-04-26T12:44:10.93Z</time></trkpt><trkpt lat="45.35863" lon="9.7659517"><ele>72.4</ele><time>2026-04-26T12:44:12.93Z</time></trkpt><trkpt lat="45.3586383" lon="9.7658067"><ele>72.6</ele><time>2026-04-26T12:44:14.93Z</time></trkpt><trkpt lat="45.3586367" lon="9.7656567"><ele>72.8</ele><time>2026-04-26T12:44:16.93Z</time></trkpt><trkpt lat="45.3586383" lon="9.7655167"><ele>73.0</ele><time>2026-04-26T12:44:18.93Z</time></trkpt><trkpt lat="45.3586417" lon="9.7653717"><ele>73.0</ele><time>2026-04-26T12:44:20.93Z</time></trkpt><trkpt lat="45.358645" lon="9.765225"><ele>73.0</ele><time>2026-04-26T12:44:22.93Z</time></trkpt><trkpt lat="45.3586567" lon="9.7650883"><ele>73.0</ele><time>2026-04-26T12:44:24.93Z</time></trkpt><trkpt lat="45.3586583" lon="9.764945"><ele>73.0</ele><time>2026-04-26T12:44:26.93Z</time></trkpt><trkpt lat="45.35866" lon="9.7647917"><ele>73.0</ele><time>2026-04-26T12:44:28.93Z</time></trkpt><trkpt lat="45.358665" lon="9.7646467"><ele>72.6</ele><time>2026-04-26T12:44:30.931Z</time></trkpt><trkpt lat="45.35867" lon="9.7645067"><ele>72.19999999999999</ele><time>2026-04-26T12:44:32.93Z</time></trkpt><trkpt lat="45.3586867" lon="9.7643717"><ele>71.8</ele><time>2026-04-26T12:44:34.93Z</time></trkpt><trkpt lat="45.35869" lon="9.7642267"><ele>71.39999999999999</ele><time>2026-04-26T12:44:36.93Z</time></trkpt><trkpt lat="45.3586983" lon="9.764085"><ele>71.0</ele><time>2026-04-26T12:44:38.93Z</time></trkpt><trkpt lat="45.3586983" lon="9.76394"><ele>71.0</ele><time>2026-04-26T12:44:40.93Z</time></trkpt><trkpt lat="45.358705" lon="9.7637967"><ele>71.0</ele><time>2026-04-26T12:44:42.93Z</time></trkpt><trkpt lat="45.358705" lon="9.763655"><ele>71.0</ele><time>2026-04-26T12:44:44.93Z</time></trkpt><trkpt lat="45.3587083" lon="9.7635117"><ele>71.0</ele><time>2026-04-26T12:44:46.93Z</time></trkpt><trkpt lat="45.35871" lon="9.7633583"><ele>71.0</ele><time>2026-04-26T12:44:48.93Z</time></trkpt><trkpt lat="45.3587167" lon="9.763205"><ele>71.39999999999999</ele><time>2026-04-26T12:44:50.93Z</time></trkpt><trkpt lat="45.3587183" lon="9.7630517"><ele>71.8</ele><time>2026-04-26T12:44:52.93Z</time></trkpt><trkpt lat="45.3587217" lon="9.762905"><ele>72.19999999999999</ele><time>2026-04-26T12:44:54.93Z</time></trkpt><trkpt lat="45.358725" lon="9.7627617"><ele>72.6</ele><time>2026-04-26T12:44:56.931Z</time></trkpt><trkpt lat="45.3587283" lon="9.762615"><ele>73.0</ele><time>2026-04-26T12:44:58.93Z</time></trkpt><trkpt lat="45.3587367" lon="9.7624667"><ele>73.0</ele><time>2026-04-26T12:45:00.93Z</time></trkpt><trkpt lat="45.3587467" lon="9.76232"><ele>73.0</ele><time>2026-04-26T12:45:02.93Z</time></trkpt><trkpt lat="45.35875" lon="9.76217"><ele>73.0</ele><time>2026-04-26T12:45:04.93Z</time></trkpt><trkpt lat="45.3587517" lon="9.7620167"><ele>73.0</ele><time>2026-04-26T12:45:06.93Z</time></trkpt><trkpt lat="45.3587533" lon="9.7618617"><ele>73.0</ele><time>2026-04-26T12:45:08.93Z</time></trkpt><trkpt lat="45.3587533" lon="9.7617117"><ele>72.8</ele><time>2026-04-26T12:45:10.93Z</time></trkpt><trkpt lat="45.3587617" lon="9.7615633"><ele>72.6</ele><time>2026-04-26T12:45:12.93Z</time></trkpt><trkpt lat="45.3587633" lon="9.761415"><ele>72.4</ele><time>2026-04-26T12:45:14.93Z</time></trkpt><trkpt lat="45.358765" lon="9.7612683"><ele>72.2</ele><time>2026-04-26T12:45:16.93Z</time></trkpt><trkpt lat="45.3587633" lon="9.7611117"><ele>72.0</ele><time>2026-04-26T12:45:18.93Z</time></trkpt><trkpt lat="45.3587617" lon="9.7609567"><ele>72.0</ele><time>2026-04-26T12:45:20.93Z</time></trkpt><trkpt lat="45.3587617" lon="9.7608017"><ele>72.0</ele><time>2026-04-26T12:45:22.93Z</time></trkpt><trkpt lat="45.3587617" lon="9.7606483"><ele>72.0</ele><time>2026-04-26T12:45:24.931Z</time></trkpt><trkpt lat="45.3587683" lon="9.760495"><ele>72.0</ele><time>2026-04-26T12:45:26.93Z</time></trkpt><trkpt lat="45.35877" lon="9.760345"><ele>72.0</ele><time>2026-04-26T12:45:28.93Z</time></trkpt><trkpt lat="45.35877" lon="9.7601867"><ele>71.8</ele><time>2026-04-26T12:45:30.93Z</time></trkpt><trkpt lat="45.358775" lon="9.7600333"><ele>71.6</ele><time>2026-04-26T12:45:32.93Z</time></trkpt><trkpt lat="45.35878" lon="9.7598833"><ele>71.39999999999999</ele><time>2026-04-26T12:45:34.93Z</time></trkpt><trkpt lat="45.358785" lon="9.75974"><ele>71.2</ele><time>2026-04-26T12:45:36.93Z</time></trkpt><trkpt lat="45.3587883" lon="9.7595867"><ele>71.0</ele><time>2026-04-26T12:45:38.93Z</time></trkpt><trkpt lat="45.3587917" lon="9.7594317"><ele>71.2</ele><time>2026-04-26T12:45:40.93Z</time></trkpt><trkpt lat="45.3587983" lon="9.7592783"><ele>71.39999999999999</ele><time>2026-04-26T12:45:42.93Z</time></trkpt><trkpt lat="45.3588033" lon="9.7591267"><ele>71.6</ele><time>2026-04-26T12:45:44.93Z</time></trkpt><trkpt lat="45.358805" lon="9.758975"><ele>71.8</ele><time>2026-04-26T12:45:46.93Z</time></trkpt><trkpt lat="45.3588067" lon="9.758825"><ele>72.0</ele><time>2026-04-26T12:45:48.93Z</time></trkpt><trkpt lat="45.3588133" lon="9.75867"><ele>72.0</ele><time>2026-04-26T12:45:50.93Z</time></trkpt><trkpt lat="45.35882" lon="9.7585167"><ele>72.0</ele><time>2026-04-26T12:45:52.93Z</time></trkpt><trkpt lat="45.35883" lon="9.7583583"><ele>72.0</ele><time>2026-04-26T12:45:54.93Z</time></trkpt><trkpt lat="45.35884" lon="9.7581983"><ele>72.0</ele><time>2026-04-26T12:45:56.931Z</time></trkpt><trkpt lat="45.35885" lon="9.7580467"><ele>72.0</ele><time>2026-04-26T12:45:58.93Z</time></trkpt><trkpt lat="45.3588733" lon="9.7579017"><ele>72.2</ele><time>2026-04-26T12:46:00.93Z</time></trkpt><trkpt lat="45.358905" lon="9.7577717"><ele>72.4</ele><time>2026-04-26T12:46:02.93Z</time></trkpt><trkpt lat="45.3589333" lon="9.7576533"><ele>72.6</ele><time>2026-04-26T12:46:04.93Z</time></trkpt><trkpt lat="45.3589417" lon="9.757525"><ele>72.8</ele><time>2026-04-26T12:46:06.93Z</time></trkpt><trkpt lat="45.358955" lon="9.7573867"><ele>73.0</ele><time>2026-04-26T12:46:08.93Z</time></trkpt><trkpt lat="45.3589633" lon="9.75725"><ele>73.0</ele><time>2026-04-26T12:46:10.93Z</time></trkpt><trkpt lat="45.3589583" lon="9.7571183"><ele>73.0</ele><time>2026-04-26T12:46:12.93Z</time></trkpt><trkpt lat="45.3589633" lon="9.756985"><ele>73.0</ele><time>2026-04-26T12:46:14.93Z</time></trkpt><trkpt lat="45.3589683" lon="9.7568483"><ele>73.0</ele><time>2026-04-26T12:46:16.93Z</time></trkpt><trkpt lat="45.3589683" lon="9.7567067"><ele>73.0</ele><time>2026-04-26T12:46:18.929Z</time></trkpt><trkpt lat="45.3589733" lon="9.75656"><ele>73.0</ele><time>2026-04-26T12:46:20.929Z</time></trkpt><trkpt lat="45.3589733" lon="9.7564167"><ele>73.0</ele><time>2026-04-26T12:46:22.929Z</time></trkpt><trkpt lat="45.35898" lon="9.7562817"><ele>73.0</ele><time>2026-04-26T12:46:24.929Z</time></trkpt><trkpt lat="45.358985" lon="9.7561583"><ele>73.0</ele><time>2026-04-26T12:46:26.929Z</time></trkpt><trkpt lat="45.35899" lon="9.7560383"><ele>73.0</ele><time>2026-04-26T12:46:28.929Z</time></trkpt><trkpt lat="45.3589967" lon="9.755915"><ele>73.0</ele><time>2026-04-26T12:46:30.93Z</time></trkpt><trkpt lat="45.358995" lon="9.75579"><ele>73.0</ele><time>2026-04-26T12:46:32.929Z</time></trkpt><trkpt lat="45.3589933" lon="9.7556583"><ele>73.0</ele><time>2026-04-26T12:46:34.929Z</time></trkpt><trkpt lat="45.3589983" lon="9.7555283"><ele>73.0</ele><time>2026-04-26T12:46:36.929Z</time></trkpt><trkpt lat="45.3590033" lon="9.755395"><ele>73.0</ele><time>2026-04-26T12:46:38.929Z</time></trkpt><trkpt lat="45.359005" lon="9.7552517"><ele>72.8</ele><time>2026-04-26T12:46:40.929Z</time></trkpt><trkpt lat="45.3590033" lon="9.7551033"><ele>72.6</ele><time>2026-04-26T12:46:42.929Z</time></trkpt><trkpt lat="45.359005" lon="9.7549633"><ele>72.4</ele><time>2026-04-26T12:46:44.929Z</time></trkpt><trkpt lat="45.359005" lon="9.75483"><ele>72.2</ele><time>2026-04-26T12:46:46.929Z</time></trkpt><trkpt lat="45.3590033" lon="9.7546967"><ele>72.0</ele><time>2026-04-26T12:46:48.929Z</time></trkpt><trkpt lat="45.3589983" lon="9.7545917"><ele>72.0</ele><time>2026-04-26T12:46:50.929Z</time></trkpt><trkpt lat="45.3589883" lon="9.7544767"><ele>72.0</ele><time>2026-04-26T12:47:05.929Z</time></trkpt><trkpt lat="45.358975" lon="9.754355"><ele>72.0</ele><time>2026-04-26T12:47:08.929Z</time></trkpt><trkpt lat="45.3589667" lon="9.7542467"><ele>72.0</ele><time>2026-04-26T12:47:10.929Z</time></trkpt><trkpt lat="45.3589617" lon="9.75411"><ele>72.0</ele><time>2026-04-26T12:47:12.929Z</time></trkpt><trkpt lat="45.3589633" lon="9.7539517"><ele>72.0</ele><time>2026-04-26T12:47:14.929Z</time></trkpt><trkpt lat="45.3589767" lon="9.7537833"><ele>72.0</ele><time>2026-04-26T12:47:16.929Z</time></trkpt><trkpt lat="45.358995" lon="9.7536217"><ele>72.0</ele><time>2026-04-26T12:47:18.929Z</time></trkpt><trkpt lat="45.3590117" lon="9.753465"><ele>72.0</ele><time>2026-04-26T12:47:20.929Z</time></trkpt><trkpt lat="45.3590283" lon="9.75331"><ele>72.4</ele><time>2026-04-26T12:47:22.929Z</time></trkpt><trkpt lat="45.3590483" lon="9.7531683"><ele>72.80000000000001</ele><time>2026-04-26T12:47:24.929Z</time></trkpt><trkpt lat="45.3590617" lon="9.7530233"><ele>73.2</ele><time>2026-04-26T12:47:26.929Z</time></trkpt><trkpt lat="45.35909" lon="9.7528817"><ele>73.60000000000001</ele><time>2026-04-26T12:47:28.929Z</time></trkpt><trkpt lat="45.35912" lon="9.7527517"><ele>74.0</ele><time>2026-04-26T12:47:30.929Z</time></trkpt><trkpt lat="45.35915" lon="9.7526267"><ele>74.2</ele><time>2026-04-26T12:47:32.929Z</time></trkpt><trkpt lat="45.3591833" lon="9.7524883"><ele>74.4</ele><time>2026-04-26T12:47:34.929Z</time></trkpt><trkpt lat="45.3592167" lon="9.7523483"><ele>74.6</ele><time>2026-04-26T12:47:36.929Z</time></trkpt><trkpt lat="45.3592467" lon="9.7522"><ele>74.8</ele><time>2026-04-26T12:47:38.929Z</time></trkpt><trkpt lat="45.359285" lon="9.752045"><ele>75.0</ele><time>2026-04-26T12:47:40.929Z</time></trkpt><trkpt lat="45.3593167" lon="9.7518967"><ele>75.0</ele><time>2026-04-26T12:47:42.929Z</time></trkpt><trkpt lat="45.3593483" lon="9.7517483"><ele>75.0</ele><time>2026-04-26T12:47:44.929Z</time></trkpt><trkpt lat="45.3593867" lon="9.7516083"><ele>75.0</ele><time>2026-04-26T12:47:46.929Z</time></trkpt><trkpt lat="45.359425" lon="9.7514617"><ele>75.0</ele><time>2026-04-26T12:47:48.929Z</time></trkpt><trkpt lat="45.3594617" lon="9.75131"><ele>75.0</ele><time>2026-04-26T12:47:50.929Z</time></trkpt><trkpt lat="45.3594933" lon="9.7511533"><ele>75.4</ele><time>2026-04-26T12:47:52.929Z</time></trkpt><trkpt lat="45.3595233" lon="9.7510067"><ele>75.8</ele><time>2026-04-26T12:47:54.929Z</time></trkpt><trkpt lat="45.3595583" lon="9.7508583"><ele>76.2</ele><time>2026-04-26T12:47:56.929Z</time></trkpt><trkpt lat="45.35959" lon="9.7507167"><ele>76.6</ele><time>2026-04-26T12:47:58.929Z</time></trkpt><trkpt lat="45.3596283" lon="9.750585"><ele>77.0</ele><time>2026-04-26T12:48:00.929Z</time></trkpt><trkpt lat="45.35965" lon="9.7504567"><ele>77.0</ele><time>2026-04-26T12:48:02.929Z</time></trkpt><trkpt lat="45.35967" lon="9.750325"><ele>77.0</ele><time>2026-04-26T12:48:04.929Z</time></trkpt><trkpt lat="45.3597017" lon="9.7501833"><ele>77.0</ele><time>2026-04-26T12:48:06.929Z</time></trkpt><trkpt lat="45.3597367" lon="9.7500383"><ele>77.0</ele><time>2026-04-26T12:48:08.929Z</time></trkpt><trkpt lat="45.3597667" lon="9.74989"><ele>77.0</ele><time>2026-04-26T12:48:10.929Z</time></trkpt><trkpt lat="45.3598017" lon="9.7497467"><ele>76.6</ele><time>2026-04-26T12:48:12.929Z</time></trkpt><trkpt lat="45.3598467" lon="9.74961"><ele>76.2</ele><time>2026-04-26T12:48:14.929Z</time></trkpt><trkpt lat="45.3598833" lon="9.7494617"><ele>75.8</ele><time>2026-04-26T12:48:16.93Z</time></trkpt><trkpt lat="45.359915" lon="9.749315"><ele>75.4</ele><time>2026-04-26T12:48:18.93Z</time></trkpt><trkpt lat="45.3599517" lon="9.7491667"><ele>75.0</ele><time>2026-04-26T12:48:20.929Z</time></trkpt><trkpt lat="45.3599917" lon="9.7490167"><ele>75.0</ele><time>2026-04-26T12:48:22.929Z</time></trkpt><trkpt lat="45.3600267" lon="9.7488617"><ele>75.0</ele><time>2026-04-26T12:48:24.929Z</time></trkpt><trkpt lat="45.3600633" lon="9.74871"><ele>75.0</ele><time>2026-04-26T12:48:26.929Z</time></trkpt><trkpt lat="45.3601017" lon="9.748555"><ele>75.0</ele><time>2026-04-26T12:48:28.929Z</time></trkpt><trkpt lat="45.360135" lon="9.7484"><ele>75.5</ele><time>2026-04-26T12:48:30.929Z</time></trkpt><trkpt lat="45.3601767" lon="9.7482433"><ele>76.0</ele><time>2026-04-26T12:48:32.929Z</time></trkpt><trkpt lat="45.3602133" lon="9.74809"><ele>76.5</ele><time>2026-04-26T12:48:34.929Z</time></trkpt><trkpt lat="45.3602517" lon="9.7479317"><ele>77.0</ele><time>2026-04-26T12:48:36.929Z</time></trkpt><trkpt lat="45.3602867" lon="9.7477783"><ele>76.8</ele><time>2026-04-26T12:48:38.929Z</time></trkpt><trkpt lat="45.3603183" lon="9.74763"><ele>76.6</ele><time>2026-04-26T12:48:40.93Z</time></trkpt><trkpt lat="45.3603567" lon="9.7474783"><ele>76.39999999999999</ele><time>2026-04-26T12:48:42.93Z</time></trkpt><trkpt lat="45.360395" lon="9.74733"><ele>76.2</ele><time>2026-04-26T12:48:44.929Z</time></trkpt><trkpt lat="45.360435" lon="9.7471867"><ele>76.0</ele><time>2026-04-26T12:48:46.929Z</time></trkpt><trkpt lat="45.3604783" lon="9.7470533"><ele>76.0</ele><time>2026-04-26T12:48:48.93Z</time></trkpt><trkpt lat="45.3605117" lon="9.74693"><ele>76.0</ele><time>2026-04-26T12:48:50.929Z</time></trkpt><trkpt lat="45.3605317" lon="9.74682"><ele>76.0</ele><time>2026-04-26T12:48:52.93Z</time></trkpt><trkpt lat="45.3605567" lon="9.7467033"><ele>76.0</ele><time>2026-04-26T12:48:54.929Z</time></trkpt><trkpt lat="45.360585" lon="9.7465717"><ele>76.0</ele><time>2026-04-26T12:48:56.93Z</time></trkpt><trkpt lat="45.3606083" lon="9.7464317"><ele>75.5</ele><time>2026-04-26T12:48:58.929Z</time></trkpt><trkpt lat="45.36064" lon="9.746295"><ele>75.0</ele><time>2026-04-26T12:49:00.929Z</time></trkpt><trkpt lat="45.3606683" lon="9.7461667"><ele>74.5</ele><time>2026-04-26T12:49:02.929Z</time></trkpt><trkpt lat="45.3606817" lon="9.7460083"><ele>74.0</ele><time>2026-04-26T12:51:42.928Z</time></trkpt><trkpt lat="45.3606983" lon="9.7459217"><ele>73.5</ele><time>2026-04-26T12:51:44.928Z</time></trkpt><trkpt lat="45.3607233" lon="9.7458283"><ele>73.0</ele><time>2026-04-26T12:51:46.928Z</time></trkpt><trkpt lat="45.3607483" lon="9.7457133"><ele>73.0</ele><time>2026-04-26T12:51:48.928Z</time></trkpt><trkpt lat="45.3607767" lon="9.745595"><ele>73.0</ele><time>2026-04-26T12:51:50.929Z</time></trkpt><trkpt lat="45.3608117" lon="9.7454617"><ele>73.0</ele><time>2026-04-26T12:51:52.928Z</time></trkpt><trkpt lat="45.360845" lon="9.745335"><ele>73.0</ele><time>2026-04-26T12:51:54.928Z</time></trkpt><trkpt lat="45.360875" lon="9.7452"><ele>73.0</ele><time>2026-04-26T12:51:56.928Z</time></trkpt><trkpt lat="45.3609" lon="9.7450633"><ele>73.6</ele><time>2026-04-26T12:51:58.928Z</time></trkpt><trkpt lat="45.360935" lon="9.7449317"><ele>74.19999999999999</ele><time>2026-04-26T12:52:00.929Z</time></trkpt><trkpt lat="45.36097" lon="9.7448"><ele>74.8</ele><time>2026-04-26T12:52:02.928Z</time></trkpt><trkpt lat="45.3610033" lon="9.7446633"><ele>75.39999999999999</ele><time>2026-04-26T12:52:04.928Z</time></trkpt><trkpt lat="45.3610283" lon="9.74452"><ele>76.0</ele><time>2026-04-26T12:52:06.928Z</time></trkpt><trkpt lat="45.3610617" lon="9.7443783"><ele>76.0</ele><time>2026-04-26T12:52:08.928Z</time></trkpt><trkpt lat="45.3610967" lon="9.744245"><ele>76.0</ele><time>2026-04-26T12:52:10.928Z</time></trkpt><trkpt lat="45.361135" lon="9.7441067"><ele>76.0</ele><time>2026-04-26T12:52:12.928Z</time></trkpt><trkpt lat="45.3611717" lon="9.7439633"><ele>76.0</ele><time>2026-04-26T12:52:14.928Z</time></trkpt><trkpt lat="45.3612067" lon="9.7438133"><ele>76.0</ele><time>2026-04-26T12:52:16.928Z</time></trkpt><trkpt lat="45.361245" lon="9.7436667"><ele>76.0</ele><time>2026-04-26T12:52:18.928Z</time></trkpt><trkpt lat="45.361285" lon="9.7435283"><ele>76.0</ele><time>2026-04-26T12:52:20.929Z</time></trkpt><trkpt lat="45.36132" lon="9.7433983"><ele>76.0</ele><time>2026-04-26T12:52:22.928Z</time></trkpt><trkpt lat="45.3613533" lon="9.743275"><ele>76.0</ele><time>2026-04-26T12:52:24.928Z</time></trkpt><trkpt lat="45.36138" lon="9.7431483"><ele>76.0</ele><time>2026-04-26T12:52:26.928Z</time></trkpt><trkpt lat="45.361415" lon="9.74301"><ele>76.0</ele><time>2026-04-26T12:52:28.928Z</time></trkpt><trkpt lat="45.3614467" lon="9.74286"><ele>76.0</ele><time>2026-04-26T12:52:30.928Z</time></trkpt><trkpt lat="45.36148" lon="9.74271"><ele>76.0</ele><time>2026-04-26T12:52:32.928Z</time></trkpt><trkpt lat="45.36151" lon="9.7425617"><ele>76.0</ele><time>2026-04-26T12:52:34.928Z</time></trkpt><trkpt lat="45.36154" lon="9.7424217"><ele>76.0</ele><time>2026-04-26T12:52:36.929Z</time></trkpt><trkpt lat="45.3615717" lon="9.742295"><ele>75.83333333333333</ele><time>2026-04-26T12:52:38.928Z</time></trkpt><trkpt lat="45.3616033" lon="9.7421733"><ele>75.66666666666666</ele><time>2026-04-26T12:52:40.928Z</time></trkpt><trkpt lat="45.361625" lon="9.742065"><ele>75.5</ele><time>2026-04-26T12:52:42.928Z</time></trkpt><trkpt lat="45.36165" lon="9.7419667"><ele>75.33333333333333</ele><time>2026-04-26T12:52:44.928Z</time></trkpt><trkpt lat="45.36168" lon="9.7418767"><ele>75.16666666666667</ele><time>2026-04-26T12:52:46.927Z</time></trkpt><trkpt lat="45.3617083" lon="9.7417783"><ele>75.0</ele><time>2026-04-26T12:52:48.927Z</time></trkpt><trkpt lat="45.361745" lon="9.74168"><ele>74.83333333333333</ele><time>2026-04-26T12:52:50.927Z</time></trkpt><trkpt lat="45.3617883" lon="9.7415783"><ele>74.66666666666667</ele><time>2026-04-26T12:52:52.927Z</time></trkpt><trkpt lat="45.3618233" lon="9.741475"><ele>74.5</ele><time>2026-04-26T12:52:54.927Z</time></trkpt><trkpt lat="45.361855" lon="9.74138"><ele>74.33333333333334</ele><time>2026-04-26T12:52:56.928Z</time></trkpt><trkpt lat="45.361885" lon="9.7412867"><ele>74.16666666666667</ele><time>2026-04-26T12:52:58.927Z</time></trkpt><trkpt lat="45.3619067" lon="9.74115"><ele>74.0</ele><time>2026-04-26T12:53:01.927Z</time></trkpt><trkpt lat="45.361925" lon="9.7410283"><ele>73.8</ele><time>2026-04-26T12:53:03.927Z</time></trkpt><trkpt lat="45.36195" lon="9.7408867"><ele>73.60000000000001</ele><time>2026-04-26T12:53:05.928Z</time></trkpt><trkpt lat="45.36197" lon="9.74073"><ele>73.4</ele><time>2026-04-26T12:53:07.927Z</time></trkpt><trkpt lat="45.361995" lon="9.740565"><ele>73.2</ele><time>2026-04-26T12:53:09.927Z</time></trkpt><trkpt lat="45.3620183" lon="9.740405"><ele>73.0</ele><time>2026-04-26T12:53:11.927Z</time></trkpt><trkpt lat="45.3620533" lon="9.7402467"><ele>73.75</ele><time>2026-04-26T12:53:13.927Z</time></trkpt><trkpt lat="45.3620933" lon="9.7400983"><ele>74.5</ele><time>2026-04-26T12:53:15.927Z</time></trkpt><trkpt lat="45.36213" lon="9.7399383"><ele>75.25</ele><time>2026-04-26T12:53:17.927Z</time></trkpt><trkpt lat="45.3621633" lon="9.73977"><ele>76.0</ele><time>2026-04-26T12:53:19.928Z</time></trkpt><trkpt lat="45.362205" lon="9.7396017"><ele>76.0</ele><time>2026-04-26T12:53:21.928Z</time></trkpt><trkpt lat="45.3622267" lon="9.7395083"><ele>76.0</ele><time>2026-04-26T12:53:22.927Z</time></trkpt><trkpt lat="45.3622483" lon="9.7394167"><ele>76.0</ele><time>2026-04-26T12:53:23.927Z</time></trkpt><trkpt lat="45.36227" lon="9.739325"><ele>76.0</ele><time>2026-04-26T12:53:24.927Z</time></trkpt><trkpt lat="45.3623033" lon="9.7391567"><ele>76.0</ele><time>2026-04-26T12:53:26.927Z</time></trkpt><trkpt lat="45.36232" lon="9.7390683"><ele>76.0</ele><time>2026-04-26T12:53:27.927Z</time></trkpt><trkpt lat="45.3623567" lon="9.7389"><ele>76.0</ele><time>2026-04-26T12:53:29.927Z</time></trkpt><trkpt lat="45.3623767" lon="9.738815"><ele>76.0</ele><time>2026-04-26T12:53:30.927Z</time></trkpt><trkpt lat="45.3624033" lon="9.7387333"><ele>76.0</ele><time>2026-04-26T12:53:31.928Z</time></trkpt><trkpt lat="45.3624267" lon="9.73865"><ele>76.0</ele><time>2026-04-26T12:53:32.927Z</time></trkpt><trkpt lat="45.3624467" lon="9.7385633"><ele>76.0</ele><time>2026-04-26T12:53:33.927Z</time></trkpt><trkpt lat="45.3624667" lon="9.7384783"><ele>76.0</ele><time>2026-04-26T12:53:34.927Z</time></trkpt><trkpt lat="45.36251" lon="9.7383117"><ele>76.0</ele><time>2026-04-26T12:53:36.927Z</time></trkpt><trkpt lat="45.36253" lon="9.7382233"><ele>76.0</ele><time>2026-04-26T12:53:37.927Z</time></trkpt><trkpt lat="45.3625567" lon="9.7381383"><ele>76.0</ele><time>2026-04-26T12:53:38.927Z</time></trkpt><trkpt lat="45.3625817" lon="9.738055"><ele>76.0</ele><time>2026-04-26T12:53:39.928Z</time></trkpt><trkpt lat="45.3626233" lon="9.7378883"><ele>76.0</ele><time>2026-04-26T12:53:41.927Z</time></trkpt><trkpt lat="45.3626683" lon="9.7377233"><ele>76.0</ele><time>2026-04-26T12:53:43.927Z</time></trkpt><trkpt lat="45.362705" lon="9.7375533"><ele>76.0</ele><time>2026-04-26T12:53:45.927Z</time></trkpt><trkpt lat="45.36274" lon="9.7373817"><ele>76.0</ele><time>2026-04-26T12:53:47.927Z</time></trkpt><trkpt lat="45.36276" lon="9.7372917"><ele>76.0</ele><time>2026-04-26T12:53:48.927Z</time></trkpt><trkpt lat="45.3627967" lon="9.7371267"><ele>76.0</ele><time>2026-04-26T12:53:50.927Z</time></trkpt><trkpt lat="45.3628367" lon="9.7369617"><ele>76.0</ele><time>2026-04-26T12:53:52.927Z</time></trkpt><trkpt lat="45.362855" lon="9.7368717"><ele>76.0</ele><time>2026-04-26T12:53:53.927Z</time></trkpt><trkpt lat="45.3628883" lon="9.7367067"><ele>76.0</ele><time>2026-04-26T12:53:55.927Z</time></trkpt><trkpt lat="45.3629233" lon="9.736545"><ele>76.0</ele><time>2026-04-26T12:53:57.927Z</time></trkpt><trkpt lat="45.36297" lon="9.7363867"><ele>76.0</ele><time>2026-04-26T12:53:59.927Z</time></trkpt><trkpt lat="45.3630117" lon="9.7362233"><ele>76.0</ele><time>2026-04-26T12:54:01.927Z</time></trkpt><trkpt lat="45.3630533" lon="9.7360617"><ele>76.0</ele><time>2026-04-26T12:54:03.927Z</time></trkpt><trkpt lat="45.36309" lon="9.73591"><ele>76.0</ele><time>2026-04-26T12:54:05.927Z</time></trkpt><trkpt lat="45.36313" lon="9.7357567"><ele>76.0</ele><time>2026-04-26T12:54:07.928Z</time></trkpt><trkpt lat="45.36316" lon="9.7356017"><ele>76.0</ele><time>2026-04-26T12:54:09.927Z</time></trkpt><trkpt lat="45.3631983" lon="9.7354433"><ele>76.0</ele><time>2026-04-26T12:54:11.927Z</time></trkpt><trkpt lat="45.3632383" lon="9.7352867"><ele>76.0</ele><time>2026-04-26T12:54:13.928Z</time></trkpt><trkpt lat="45.3632717" lon="9.73513"><ele>76.0</ele><time>2026-04-26T12:54:15.927Z</time></trkpt><trkpt lat="45.3633067" lon="9.7349717"><ele>76.0</ele><time>2026-04-26T12:54:17.927Z</time></trkpt><trkpt lat="45.36334" lon="9.7348233"><ele>76.0</ele><time>2026-04-26T12:54:19.927Z</time></trkpt><trkpt lat="45.3633817" lon="9.73467"><ele>76.0</ele><time>2026-04-26T12:54:21.927Z</time></trkpt><trkpt lat="45.363415" lon="9.73452"><ele>76.0</ele><time>2026-04-26T12:54:23.927Z</time></trkpt><trkpt lat="45.3634467" lon="9.7343683"><ele>76.0</ele><time>2026-04-26T12:54:25.927Z</time></trkpt><trkpt lat="45.3634817" lon="9.7342183"><ele>76.0</ele><time>2026-04-26T12:54:27.927Z</time></trkpt><trkpt lat="45.3635167" lon="9.73406"><ele>76.0</ele><time>2026-04-26T12:54:29.927Z</time></trkpt><trkpt lat="45.3635517" lon="9.7339083"><ele>76.0</ele><time>2026-04-26T12:54:31.927Z</time></trkpt><trkpt lat="45.363585" lon="9.7337617"><ele>76.0</ele><time>2026-04-26T12:54:33.927Z</time></trkpt><trkpt lat="45.3636283" lon="9.7336117"><ele>76.0</ele><time>2026-04-26T12:54:35.927Z</time></trkpt><trkpt lat="45.3636783" lon="9.7334767"><ele>76.0</ele><time>2026-04-26T12:54:37.927Z</time></trkpt><trkpt lat="45.36372" lon="9.7333383"><ele>76.0</ele><time>2026-04-26T12:54:39.927Z</time></trkpt><trkpt lat="45.3637633" lon="9.7332217"><ele>76.0</ele><time>2026-04-26T12:54:41.927Z</time></trkpt><trkpt lat="45.3637967" lon="9.7331233"><ele>76.0</ele><time>2026-04-26T12:54:43.928Z</time></trkpt><trkpt lat="45.36381" lon="9.7330283"><ele>76.0</ele><time>2026-04-26T12:54:45.928Z</time></trkpt><trkpt lat="45.3638183" lon="9.7329267"><ele>76.0</ele><time>2026-04-26T12:54:47.927Z</time></trkpt><trkpt lat="45.3638267" lon="9.732795"><ele>76.0</ele><time>2026-04-26T12:54:49.927Z</time></trkpt><trkpt lat="45.363855" lon="9.7326517"><ele>76.0</ele><time>2026-04-26T12:54:51.927Z</time></trkpt><trkpt lat="45.3638817" lon="9.7325"><ele>76.0</ele><time>2026-04-26T12:54:53.927Z</time></trkpt><trkpt lat="45.363915" lon="9.732345"><ele>76.0</ele><time>2026-04-26T12:54:55.928Z</time></trkpt><trkpt lat="45.3639433" lon="9.732195"><ele>76.0</ele><time>2026-04-26T12:54:57.927Z</time></trkpt><trkpt lat="45.3639833" lon="9.732055"><ele>76.0</ele><time>2026-04-26T12:54:59.927Z</time></trkpt><trkpt lat="45.3640183" lon="9.7319317"><ele>76.0</ele><time>2026-04-26T12:55:01.927Z</time></trkpt><trkpt lat="45.36405" lon="9.731795"><ele>76.0</ele><time>2026-04-26T12:55:03.927Z</time></trkpt><trkpt lat="45.3640767" lon="9.731675"><ele>75.8</ele><time>2026-04-26T12:55:05.927Z</time></trkpt><trkpt lat="45.36411" lon="9.7315433"><ele>75.6</ele><time>2026-04-26T12:55:07.927Z</time></trkpt><trkpt lat="45.364145" lon="9.73142"><ele>75.4</ele><time>2026-04-26T12:55:09.927Z</time></trkpt><trkpt lat="45.364175" lon="9.7312833"><ele>75.2</ele><time>2026-04-26T12:55:11.927Z</time></trkpt><trkpt lat="45.3642133" lon="9.731155"><ele>75.0</ele><time>2026-04-26T12:55:13.928Z</time></trkpt><trkpt lat="45.36425" lon="9.7310183"><ele>74.8</ele><time>2026-04-26T12:55:15.927Z</time></trkpt><trkpt lat="45.36428" lon="9.7308667"><ele>74.6</ele><time>2026-04-26T12:55:17.927Z</time></trkpt><trkpt lat="45.36431" lon="9.7307217"><ele>74.4</ele><time>2026-04-26T12:55:19.927Z</time></trkpt><trkpt lat="45.3643417" lon="9.7305883"><ele>74.2</ele><time>2026-04-26T12:55:21.928Z</time></trkpt><trkpt lat="45.3643733" lon="9.7304533"><ele>74.0</ele><time>2026-04-26T12:55:23.927Z</time></trkpt><trkpt lat="45.36441" lon="9.730315"><ele>73.8</ele><time>2026-04-26T12:55:25.927Z</time></trkpt><trkpt lat="45.3644433" lon="9.730165"><ele>73.60000000000001</ele><time>2026-04-26T12:55:27.928Z</time></trkpt><trkpt lat="45.3644767" lon="9.7300167"><ele>73.4</ele><time>2026-04-26T12:55:29.927Z</time></trkpt><trkpt lat="45.3645067" lon="9.729865"><ele>73.2</ele><time>2026-04-26T12:55:31.927Z</time></trkpt><trkpt lat="45.3645433" lon="9.7297217"><ele>73.0</ele><time>2026-04-26T12:55:33.928Z</time></trkpt><trkpt lat="45.36457" lon="9.729575"><ele>73.0</ele><time>2026-04-26T12:55:35.927Z</time></trkpt><trkpt lat="45.364605" lon="9.729435"><ele>73.0</ele><time>2026-04-26T12:55:37.927Z</time></trkpt><trkpt lat="45.3646417" lon="9.7292883"><ele>73.0</ele><time>2026-04-26T12:55:39.927Z</time></trkpt><trkpt lat="45.36468" lon="9.7291517"><ele>73.0</ele><time>2026-04-26T12:55:41.927Z</time></trkpt><trkpt lat="45.3647217" lon="9.7290083"><ele>73.0</ele><time>2026-04-26T12:55:43.927Z</time></trkpt><trkpt lat="45.3647583" lon="9.7288617"><ele>73.5</ele><time>2026-04-26T12:55:45.927Z</time></trkpt><trkpt lat="45.364795" lon="9.72871"><ele>74.0</ele><time>2026-04-26T12:55:47.927Z</time></trkpt><trkpt lat="45.3648317" lon="9.7285517"><ele>74.5</ele><time>2026-04-26T12:55:49.927Z</time></trkpt><trkpt lat="45.3648633" lon="9.7283967"><ele>75.0</ele><time>2026-04-26T12:55:51.927Z</time></trkpt><trkpt lat="45.3648983" lon="9.7282433"><ele>75.0</ele><time>2026-04-26T12:55:53.926Z</time></trkpt><trkpt lat="45.3649367" lon="9.728095"><ele>75.0</ele><time>2026-04-26T12:55:55.926Z</time></trkpt><trkpt lat="45.36497" lon="9.7279367"><ele>75.0</ele><time>2026-04-26T12:55:57.926Z</time></trkpt><trkpt lat="45.3650067" lon="9.7277767"><ele>75.0</ele><time>2026-04-26T12:55:59.926Z</time></trkpt><trkpt lat="45.36504" lon="9.7276317"><ele>74.8</ele><time>2026-04-26T12:56:01.926Z</time></trkpt><trkpt lat="45.3650717" lon="9.72748"><ele>74.6</ele><time>2026-04-26T12:56:03.927Z</time></trkpt><trkpt lat="45.3651017" lon="9.7273417"><ele>74.4</ele><time>2026-04-26T12:56:05.926Z</time></trkpt><trkpt lat="45.3651383" lon="9.727205"><ele>74.2</ele><time>2026-04-26T12:56:07.926Z</time></trkpt><trkpt lat="45.3651717" lon="9.7270767"><ele>74.0</ele><time>2026-04-26T12:56:09.927Z</time></trkpt><trkpt lat="45.3651917" lon="9.7269583"><ele>73.60000000000001</ele><time>2026-04-26T12:56:11.926Z</time></trkpt><trkpt lat="45.3652167" lon="9.726835"><ele>73.2</ele><time>2026-04-26T12:56:13.926Z</time></trkpt><trkpt lat="45.3652483" lon="9.7266967"><ele>72.80000000000001</ele><time>2026-04-26T12:56:15.926Z</time></trkpt><trkpt lat="45.3652817" lon="9.7265467"><ele>72.4</ele><time>2026-04-26T12:56:17.926Z</time></trkpt><trkpt lat="45.3653167" lon="9.7264"><ele>72.0</ele><time>2026-04-26T12:56:19.926Z</time></trkpt><trkpt lat="45.36535" lon="9.7262567"><ele>72.0</ele><time>2026-04-26T12:56:21.926Z</time></trkpt><trkpt lat="45.36538" lon="9.7261083"><ele>72.0</ele><time>2026-04-26T12:56:23.926Z</time></trkpt><trkpt lat="45.3654167" lon="9.7259583"><ele>72.0</ele><time>2026-04-26T12:56:25.926Z</time></trkpt><trkpt lat="45.365455" lon="9.7258083"><ele>72.0</ele><time>2026-04-26T12:56:27.926Z</time></trkpt><trkpt lat="45.3654867" lon="9.7256583"><ele>72.0</ele><time>2026-04-26T12:56:29.926Z</time></trkpt><trkpt lat="45.365525" lon="9.72551"><ele>72.0</ele><time>2026-04-26T12:56:31.926Z</time></trkpt><trkpt lat="45.36556" lon="9.7253633"><ele>72.0</ele><time>2026-04-26T12:56:33.926Z</time></trkpt><trkpt lat="45.3656" lon="9.725215"><ele>72.0</ele><time>2026-04-26T12:56:35.926Z</time></trkpt><trkpt lat="45.3656367" lon="9.7250767"><ele>72.0</ele><time>2026-04-26T12:56:37.926Z</time></trkpt><trkpt lat="45.3656683" lon="9.7249283"><ele>72.0</ele><time>2026-04-26T12:56:39.926Z</time></trkpt><trkpt lat="45.3657033" lon="9.72477"><ele>72.0</ele><time>2026-04-26T12:56:41.927Z</time></trkpt><trkpt lat="45.3657383" lon="9.7246067"><ele>72.0</ele><time>2026-04-26T12:56:43.926Z</time></trkpt><trkpt lat="45.3657783" lon="9.7244567"><ele>72.0</ele><time>2026-04-26T12:56:45.927Z</time></trkpt><trkpt lat="45.3658183" lon="9.7242983"><ele>72.0</ele><time>2026-04-26T12:56:47.926Z</time></trkpt><trkpt lat="45.3658517" lon="9.72415"><ele>72.0</ele><time>2026-04-26T12:56:49.926Z</time></trkpt><trkpt lat="45.3658883" lon="9.7240083"><ele>72.0</ele><time>2026-04-26T12:56:51.926Z</time></trkpt><trkpt lat="45.3659233" lon="9.7238617"><ele>72.0</ele><time>2026-04-26T12:56:53.926Z</time></trkpt><trkpt lat="45.365965" lon="9.7237117"><ele>72.0</ele><time>2026-04-26T12:56:55.926Z</time></trkpt><trkpt lat="45.366005" lon="9.7235583"><ele>72.0</ele><time>2026-04-26T12:56:57.926Z</time></trkpt><trkpt lat="45.3660433" lon="9.7234033"><ele>72.2</ele><time>2026-04-26T12:56:59.926Z</time></trkpt><trkpt lat="45.3660783" lon="9.7232433"><ele>72.4</ele><time>2026-04-26T12:57:01.926Z</time></trkpt><trkpt lat="45.36612" lon="9.7230983"><ele>72.6</ele><time>2026-04-26T12:57:03.926Z</time></trkpt><trkpt lat="45.36616" lon="9.7229517"><ele>72.8</ele><time>2026-04-26T12:57:05.926Z</time></trkpt><trkpt lat="45.3661967" lon="9.722805"><ele>73.0</ele><time>2026-04-26T12:57:07.927Z</time></trkpt><trkpt lat="45.3662267" lon="9.7226783"><ele>73.0</ele><time>2026-04-26T12:57:09.926Z</time></trkpt><trkpt lat="45.366255" lon="9.72255"><ele>73.0</ele><time>2026-04-26T12:57:11.926Z</time></trkpt><trkpt lat="45.3662833" lon="9.7224083"><ele>73.0</ele><time>2026-04-26T12:57:13.926Z</time></trkpt><trkpt lat="45.3663233" lon="9.7222733"><ele>73.0</ele><time>2026-04-26T12:57:15.926Z</time></trkpt><trkpt lat="45.3663567" lon="9.722135"><ele>73.0</ele><time>2026-04-26T12:57:17.926Z</time></trkpt><trkpt lat="45.366385" lon="9.7219867"><ele>73.2</ele><time>2026-04-26T12:57:19.926Z</time></trkpt><trkpt lat="45.3664183" lon="9.7218417"><ele>73.4</ele><time>2026-04-26T12:57:21.926Z</time></trkpt><trkpt lat="45.3664583" lon="9.7216983"><ele>73.60000000000001</ele><time>2026-04-26T12:57:23.926Z</time></trkpt><trkpt lat="45.3664967" lon="9.7215483"><ele>73.8</ele><time>2026-04-26T12:57:25.926Z</time></trkpt><trkpt lat="45.3665317" lon="9.7213967"><ele>74.0</ele><time>2026-04-26T12:57:27.926Z</time></trkpt><trkpt lat="45.3665717" lon="9.7212417"><ele>74.0</ele><time>2026-04-26T12:57:29.926Z</time></trkpt><trkpt lat="45.3666033" lon="9.7210983"><ele>74.0</ele><time>2026-04-26T12:57:31.926Z</time></trkpt><trkpt lat="45.3666367" lon="9.7209583"><ele>74.0</ele><time>2026-04-26T12:57:33.926Z</time></trkpt><trkpt lat="45.36667" lon="9.72082"><ele>74.0</ele><time>2026-04-26T12:57:35.926Z</time></trkpt><trkpt lat="45.366705" lon="9.7206817"><ele>74.0</ele><time>2026-04-26T12:57:37.926Z</time></trkpt><trkpt lat="45.366735" lon="9.72054"><ele>73.8</ele><time>2026-04-26T12:57:39.926Z</time></trkpt><trkpt lat="45.3667717" lon="9.7203967"><ele>73.60000000000001</ele><time>2026-04-26T12:57:41.926Z</time></trkpt><trkpt lat="45.366805" lon="9.72025"><ele>73.4</ele><time>2026-04-26T12:57:43.926Z</time></trkpt><trkpt lat="45.366845" lon="9.7201167"><ele>73.2</ele><time>2026-04-26T12:57:45.926Z</time></trkpt><trkpt lat="45.3668783" lon="9.7199783"><ele>73.0</ele><time>2026-04-26T12:57:47.926Z</time></trkpt><trkpt lat="45.3669117" lon="9.7198383"><ele>73.0</ele><time>2026-04-26T12:57:49.926Z</time></trkpt><trkpt lat="45.3669417" lon="9.7197033"><ele>73.0</ele><time>2026-04-26T12:57:51.926Z</time></trkpt><trkpt lat="45.36697" lon="9.7195617"><ele>73.0</ele><time>2026-04-26T12:57:53.926Z</time></trkpt><trkpt lat="45.366995" lon="9.71944"><ele>73.0</ele><time>2026-04-26T12:57:55.926Z</time></trkpt><trkpt lat="45.3670333" lon="9.7193333"><ele>73.0</ele><time>2026-04-26T12:57:57.926Z</time></trkpt><trkpt lat="45.3670583" lon="9.7192417"><ele>73.0</ele><time>2026-04-26T12:58:00.926Z</time></trkpt><trkpt lat="45.36707" lon="9.719145"><ele>73.0</ele><time>2026-04-26T12:58:55.926Z</time></trkpt><trkpt lat="45.3670833" lon="9.7190317"><ele>73.0</ele><time>2026-04-26T12:58:58.927Z</time></trkpt><trkpt lat="45.3671117" lon="9.7189233"><ele>73.0</ele><time>2026-04-26T12:59:00.926Z</time></trkpt><trkpt lat="45.367145" lon="9.7188017"><ele>73.0</ele><time>2026-04-26T12:59:02.925Z</time></trkpt><trkpt lat="45.3671633" lon="9.7186717"><ele>73.0</ele><time>2026-04-26T12:59:04.926Z</time></trkpt><trkpt lat="45.36717" lon="9.7185533"><ele>73.0</ele><time>2026-04-26T12:59:06.925Z</time></trkpt><trkpt lat="45.3672217" lon="9.71846"><ele>73.2</ele><time>2026-04-26T12:59:08.925Z</time></trkpt><trkpt lat="45.3672583" lon="9.71834"><ele>73.4</ele><time>2026-04-26T12:59:10.925Z</time></trkpt><trkpt lat="45.3672917" lon="9.7182033"><ele>73.60000000000001</ele><time>2026-04-26T12:59:12.925Z</time></trkpt><trkpt lat="45.367325" lon="9.7180633"><ele>73.8</ele><time>2026-04-26T12:59:14.925Z</time></trkpt><trkpt lat="45.3673583" lon="9.7179183"><ele>74.0</ele><time>2026-04-26T12:59:16.925Z</time></trkpt><trkpt lat="45.367395" lon="9.7177667"><ele>74.0</ele><time>2026-04-26T12:59:18.925Z</time></trkpt><trkpt lat="45.3674267" lon="9.71762"><ele>74.0</ele><time>2026-04-26T12:59:20.925Z</time></trkpt><trkpt lat="45.3674567" lon="9.7174667"><ele>74.0</ele><time>2026-04-26T12:59:22.925Z</time></trkpt><trkpt lat="45.3674917" lon="9.7173117"><ele>74.0</ele><time>2026-04-26T12:59:24.925Z</time></trkpt><trkpt lat="45.3675267" lon="9.7171667"><ele>74.0</ele><time>2026-04-26T12:59:26.925Z</time></trkpt><trkpt lat="45.3675667" lon="9.7170267"><ele>74.60000000000001</ele><time>2026-04-26T12:59:28.926Z</time></trkpt><trkpt lat="45.3676" lon="9.7168717"><ele>75.2</ele><time>2026-04-26T12:59:30.925Z</time></trkpt><trkpt lat="45.3676333" lon="9.7167183"><ele>75.80000000000001</ele><time>2026-04-26T12:59:32.925Z</time></trkpt><trkpt lat="45.367665" lon="9.7165717"><ele>76.4</ele><time>2026-04-26T12:59:34.925Z</time></trkpt><trkpt lat="45.367685" lon="9.71642"><ele>77.0</ele><time>2026-04-26T12:59:36.925Z</time></trkpt><trkpt lat="45.3676983" lon="9.7162733"><ele>77.0</ele><time>2026-04-26T12:59:38.925Z</time></trkpt><trkpt lat="45.3677333" lon="9.7161217"><ele>77.0</ele><time>2026-04-26T12:59:40.925Z</time></trkpt><trkpt lat="45.3677783" lon="9.7159783"><ele>77.0</ele><time>2026-04-26T12:59:42.925Z</time></trkpt><trkpt lat="45.367815" lon="9.7158283"><ele>77.0</ele><time>2026-04-26T12:59:44.925Z</time></trkpt><trkpt lat="45.3678467" lon="9.715675"><ele>77.0</ele><time>2026-04-26T12:59:46.925Z</time></trkpt><trkpt lat="45.3678817" lon="9.7155217"><ele>77.25</ele><time>2026-04-26T12:59:48.925Z</time></trkpt><trkpt lat="45.3679217" lon="9.715365"><ele>77.5</ele><time>2026-04-26T12:59:50.925Z</time></trkpt><trkpt lat="45.36796" lon="9.7152117"><ele>77.75</ele><time>2026-04-26T12:59:52.925Z</time></trkpt><trkpt lat="45.3679983" lon="9.7150533"><ele>78.0</ele><time>2026-04-26T12:59:54.925Z</time></trkpt><trkpt lat="45.3680367" lon="9.7149"><ele>77.4</ele><time>2026-04-26T12:59:56.925Z</time></trkpt><trkpt lat="45.3680633" lon="9.714745"><ele>76.8</ele><time>2026-04-26T12:59:58.925Z</time></trkpt><trkpt lat="45.3681033" lon="9.714595"><ele>76.2</ele><time>2026-04-26T13:00:00.925Z</time></trkpt><trkpt lat="45.3681367" lon="9.7144567"><ele>75.6</ele><time>2026-04-26T13:00:02.925Z</time></trkpt><trkpt lat="45.3681717" lon="9.7143333"><ele>75.0</ele><time>2026-04-26T13:00:04.925Z</time></trkpt><trkpt lat="45.3682017" lon="9.714205"><ele>75.0</ele><time>2026-04-26T13:00:06.925Z</time></trkpt><trkpt lat="45.36823" lon="9.7140567"><ele>75.0</ele><time>2026-04-26T13:00:08.925Z</time></trkpt><trkpt lat="45.3682617" lon="9.7139033"><ele>75.0</ele><time>2026-04-26T13:00:10.925Z</time></trkpt><trkpt lat="45.3682967" lon="9.7137517"><ele>75.0</ele><time>2026-04-26T13:00:12.925Z</time></trkpt><trkpt lat="45.3683383" lon="9.7136"><ele>75.0</ele><time>2026-04-26T13:00:14.925Z</time></trkpt><trkpt lat="45.3683717" lon="9.71345"><ele>75.0</ele><time>2026-04-26T13:00:16.925Z</time></trkpt><trkpt lat="45.3684" lon="9.7133067"><ele>75.0</ele><time>2026-04-26T13:00:18.925Z</time></trkpt><trkpt lat="45.3684267" lon="9.7131783"><ele>75.0</ele><time>2026-04-26T13:00:20.925Z</time></trkpt><trkpt lat="45.3684567" lon="9.71305"><ele>75.0</ele><time>2026-04-26T13:00:22.925Z</time></trkpt><trkpt lat="45.368495" lon="9.71291"><ele>75.0</ele><time>2026-04-26T13:00:24.925Z</time></trkpt><trkpt lat="45.3685267" lon="9.71277"><ele>74.6</ele><time>2026-04-26T13:00:26.926Z</time></trkpt><trkpt lat="45.3685633" lon="9.712625"><ele>74.2</ele><time>2026-04-26T13:00:28.925Z</time></trkpt><trkpt lat="45.3686033" lon="9.7124783"><ele>73.8</ele><time>2026-04-26T13:00:30.925Z</time></trkpt><trkpt lat="45.36864" lon="9.712325"><ele>73.4</ele><time>2026-04-26T13:00:32.925Z</time></trkpt><trkpt lat="45.3686733" lon="9.7121717"><ele>73.0</ele><time>2026-04-26T13:00:34.925Z</time></trkpt><trkpt lat="45.368705" lon="9.712035"><ele>73.0</ele><time>2026-04-26T13:00:36.925Z</time></trkpt><trkpt lat="45.3687367" lon="9.711895"><ele>73.0</ele><time>2026-04-26T13:00:38.925Z</time></trkpt><trkpt lat="45.368765" lon="9.7117467"><ele>73.0</ele><time>2026-04-26T13:00:40.925Z</time></trkpt><trkpt lat="45.3687967" lon="9.7116033"><ele>73.0</ele><time>2026-04-26T13:00:42.925Z</time></trkpt><trkpt lat="45.368825" lon="9.7114633"><ele>73.0</ele><time>2026-04-26T13:00:44.925Z</time></trkpt><trkpt lat="45.3688667" lon="9.7113233"><ele>73.4</ele><time>2026-04-26T13:00:46.925Z</time></trkpt><trkpt lat="45.3688967" lon="9.71118"><ele>73.8</ele><time>2026-04-26T13:00:48.925Z</time></trkpt><trkpt lat="45.368925" lon="9.71104"><ele>74.2</ele><time>2026-04-26T13:00:50.925Z</time></trkpt><trkpt lat="45.3689567" lon="9.7108917"><ele>74.6</ele><time>2026-04-26T13:00:52.925Z</time></trkpt><trkpt lat="45.36899" lon="9.7107517"><ele>75.0</ele><time>2026-04-26T13:00:54.925Z</time></trkpt><trkpt lat="45.3690267" lon="9.7106067"><ele>75.16666666666667</ele><time>2026-04-26T13:00:56.925Z</time></trkpt><trkpt lat="45.3690617" lon="9.710475"><ele>75.33333333333333</ele><time>2026-04-26T13:00:58.925Z</time></trkpt><trkpt lat="45.3690983" lon="9.7103717"><ele>75.5</ele><time>2026-04-26T13:01:00.925Z</time></trkpt><trkpt lat="45.3691417" lon="9.710295"><ele>75.66666666666666</ele><time>2026-04-26T13:01:02.925Z</time></trkpt><trkpt lat="45.3691767" lon="9.7101717"><ele>75.83333333333333</ele><time>2026-04-26T13:01:05.925Z</time></trkpt><trkpt lat="45.3692067" lon="9.7100867"><ele>76.0</ele><time>2026-04-26T13:01:07.925Z</time></trkpt><trkpt lat="45.3692167" lon="9.709985"><ele>75.6</ele><time>2026-04-26T13:01:09.925Z</time></trkpt><trkpt lat="45.369225" lon="9.7098633"><ele>75.19999999999999</ele><time>2026-04-26T13:01:11.925Z</time></trkpt><trkpt lat="45.3692433" lon="9.7097367"><ele>74.80000000000001</ele><time>2026-04-26T13:01:13.925Z</time></trkpt><trkpt lat="45.369265" lon="9.7096083"><ele>74.4</ele><time>2026-04-26T13:01:15.925Z</time></trkpt><trkpt lat="45.3693" lon="9.7094817"><ele>74.0</ele><time>2026-04-26T13:01:17.925Z</time></trkpt><trkpt lat="45.3693317" lon="9.7093517"><ele>74.0</ele><time>2026-04-26T13:01:19.925Z</time></trkpt><trkpt lat="45.3693433" lon="9.7092133"><ele>74.0</ele><time>2026-04-26T13:01:21.925Z</time></trkpt><trkpt lat="45.36936" lon="9.7090717"><ele>74.0</ele><time>2026-04-26T13:01:23.925Z</time></trkpt><trkpt lat="45.3693867" lon="9.7089367"><ele>74.0</ele><time>2026-04-26T13:01:25.925Z</time></trkpt><trkpt lat="45.3694433" lon="9.7088167"><ele>74.0</ele><time>2026-04-26T13:01:27.925Z</time></trkpt><trkpt lat="45.3695267" lon="9.7087333"><ele>74.0</ele><time>2026-04-26T13:01:29.926Z</time></trkpt><trkpt lat="45.369625" lon="9.70877"><ele>74.0</ele><time>2026-04-26T13:01:31.925Z</time></trkpt><trkpt lat="45.3697" lon="9.7088783"><ele>74.0</ele><time>2026-04-26T13:01:33.925Z</time></trkpt><trkpt lat="45.3697717" lon="9.7089767"><ele>74.0</ele><time>2026-04-26T13:01:35.925Z</time></trkpt><trkpt lat="45.36985" lon="9.7090717"><ele>74.0</ele><time>2026-04-26T13:01:37.925Z</time></trkpt><trkpt lat="45.3699333" lon="9.70916"><ele>73.8</ele><time>2026-04-26T13:01:39.925Z</time></trkpt><trkpt lat="45.3700267" lon="9.709235"><ele>73.60000000000001</ele><time>2026-04-26T13:01:41.925Z</time></trkpt><trkpt lat="45.3701067" lon="9.7092917"><ele>73.4</ele><time>2026-04-26T13:01:43.925Z</time></trkpt><trkpt lat="45.370195" lon="9.7093517"><ele>73.2</ele><time>2026-04-26T13:01:45.925Z</time></trkpt><trkpt lat="45.3702917" lon="9.70941"><ele>73.0</ele><time>2026-04-26T13:01:47.925Z</time></trkpt><trkpt lat="45.3704017" lon="9.7094533"><ele>72.8</ele><time>2026-04-26T13:01:49.925Z</time></trkpt><trkpt lat="45.3705117" lon="9.7094717"><ele>72.6</ele><time>2026-04-26T13:01:51.925Z</time></trkpt><trkpt lat="45.3706267" lon="9.70949"><ele>72.4</ele><time>2026-04-26T13:01:53.925Z</time></trkpt><trkpt lat="45.370735" lon="9.7095"><ele>72.2</ele><time>2026-04-26T13:01:55.925Z</time></trkpt><trkpt lat="45.37084" lon="9.7095317"><ele>72.0</ele><time>2026-04-26T13:01:57.925Z</time></trkpt><trkpt lat="45.370935" lon="9.7095533"><ele>72.6</ele><time>2026-04-26T13:01:59.925Z</time></trkpt><trkpt lat="45.3710317" lon="9.7095567"><ele>73.2</ele><time>2026-04-26T13:02:01.925Z</time></trkpt><trkpt lat="45.3711417" lon="9.7095667"><ele>73.8</ele><time>2026-04-26T13:02:03.925Z</time></trkpt><trkpt lat="45.371245" lon="9.7095733"><ele>74.4</ele><time>2026-04-26T13:02:05.925Z</time></trkpt><trkpt lat="45.371345" lon="9.7095783"><ele>75.0</ele><time>2026-04-26T13:02:07.925Z</time></trkpt><trkpt lat="45.37145" lon="9.7096217"><ele>75.4</ele><time>2026-04-26T13:02:09.925Z</time></trkpt><trkpt lat="45.3715367" lon="9.70971"><ele>75.8</ele><time>2026-04-26T13:02:11.925Z</time></trkpt><trkpt lat="45.37163" lon="9.70979"><ele>76.2</ele><time>2026-04-26T13:02:13.924Z</time></trkpt><trkpt lat="45.3717433" lon="9.7098367"><ele>76.6</ele><time>2026-04-26T13:02:15.924Z</time></trkpt><trkpt lat="45.3718517" lon="9.709875"><ele>77.0</ele><time>2026-04-26T13:02:17.924Z</time></trkpt><trkpt lat="45.3719517" lon="9.7099117"><ele>77.0</ele><time>2026-04-26T13:02:19.924Z</time></trkpt><trkpt lat="45.3720467" lon="9.7099267"><ele>77.0</ele><time>2026-04-26T13:02:21.924Z</time></trkpt><trkpt lat="45.3721367" lon="9.7098833"><ele>77.0</ele><time>2026-04-26T13:02:23.924Z</time></trkpt><trkpt lat="45.3722283" lon="9.709825"><ele>77.0</ele><time>2026-04-26T13:02:25.924Z</time></trkpt><trkpt lat="45.3723033" lon="9.7097867"><ele>77.0</ele><time>2026-04-26T13:02:27.924Z</time></trkpt><trkpt lat="45.3723967" lon="9.7097317"><ele>76.0</ele><time>2026-04-26T13:02:29.924Z</time></trkpt><trkpt lat="45.372505" lon="9.7096733"><ele>75.0</ele><time>2026-04-26T13:02:31.924Z</time></trkpt><trkpt lat="45.3726117" lon="9.7096317"><ele>74.0</ele><time>2026-04-26T13:02:33.924Z</time></trkpt><trkpt lat="45.3727217" lon="9.709585"><ele>73.0</ele><time>2026-04-26T13:02:35.924Z</time></trkpt><trkpt lat="45.37283" lon="9.7095367"><ele>73.0</ele><time>2026-04-26T13:02:37.924Z</time></trkpt><trkpt lat="45.3729417" lon="9.709505"><ele>73.0</ele><time>2026-04-26T13:02:39.924Z</time></trkpt><trkpt lat="45.3730567" lon="9.709475"><ele>73.0</ele><time>2026-04-26T13:02:41.924Z</time></trkpt><trkpt lat="45.373165" lon="9.7094467"><ele>73.0</ele><time>2026-04-26T13:02:43.924Z</time></trkpt><trkpt lat="45.37327" lon="9.7094267"><ele>73.0</ele><time>2026-04-26T13:02:45.924Z</time></trkpt><trkpt lat="45.3733783" lon="9.7094183"><ele>72.75</ele><time>2026-04-26T13:02:47.924Z</time></trkpt><trkpt lat="45.3734967" lon="9.7094183"><ele>72.5</ele><time>2026-04-26T13:02:49.924Z</time></trkpt><trkpt lat="45.37361" lon="9.7094117"><ele>72.25</ele><time>2026-04-26T13:02:51.924Z</time></trkpt><trkpt lat="45.3737233" lon="9.7094017"><ele>72.0</ele><time>2026-04-26T13:02:53.925Z</time></trkpt><trkpt lat="45.3738383" lon="9.7093983"><ele>72.0</ele><time>2026-04-26T13:02:55.924Z</time></trkpt><trkpt lat="45.3739433" lon="9.7093917"><ele>72.0</ele><time>2026-04-26T13:02:57.924Z</time></trkpt><trkpt lat="45.3740517" lon="9.7093867"><ele>72.0</ele><time>2026-04-26T13:02:59.924Z</time></trkpt><trkpt lat="45.374165" lon="9.709395"><ele>72.0</ele><time>2026-04-26T13:03:01.924Z</time></trkpt><trkpt lat="45.3742817" lon="9.7093917"><ele>72.0</ele><time>2026-04-26T13:03:03.924Z</time></trkpt><trkpt lat="45.3743967" lon="9.7093867"><ele>72.0</ele><time>2026-04-26T13:03:05.924Z</time></trkpt><trkpt lat="45.3745067" lon="9.7093867"><ele>72.0</ele><time>2026-04-26T13:03:07.924Z</time></trkpt><trkpt lat="45.37461" lon="9.709355"><ele>72.0</ele><time>2026-04-26T13:03:09.925Z</time></trkpt><trkpt lat="45.3746667" lon="9.709245"><ele>72.0</ele><time>2026-04-26T13:03:11.924Z</time></trkpt><trkpt lat="45.3746433" lon="9.7090983"><ele>72.0</ele><time>2026-04-26T13:03:13.924Z</time></trkpt><trkpt lat="45.37462" lon="9.70895"><ele>72.0</ele><time>2026-04-26T13:03:15.924Z</time></trkpt><trkpt lat="45.3746" lon="9.708795"><ele>72.0</ele><time>2026-04-26T13:03:17.924Z</time></trkpt><trkpt lat="45.3745867" lon="9.7086333"><ele>72.0</ele><time>2026-04-26T13:03:19.924Z</time></trkpt><trkpt lat="45.374575" lon="9.7084817"><ele>72.0</ele><time>2026-04-26T13:03:21.924Z</time></trkpt><trkpt lat="45.3745933" lon="9.7083383"><ele>72.0</ele><time>2026-04-26T13:03:23.924Z</time></trkpt><trkpt lat="45.3746817" lon="9.7082467"><ele>72.0</ele><time>2026-04-26T13:03:25.924Z</time></trkpt><trkpt lat="45.3747833" lon="9.70818"><ele>72.0</ele><time>2026-04-26T13:03:27.924Z</time></trkpt><trkpt lat="45.3748417" lon="9.7081433"><ele>72.0</ele><time>2026-04-26T13:03:28.924Z</time></trkpt><trkpt lat="45.37495" lon="9.7080783"><ele>72.0</ele><time>2026-04-26T13:03:30.925Z</time></trkpt><trkpt lat="45.3750583" lon="9.70801"><ele>72.0</ele><time>2026-04-26T13:03:32.924Z</time></trkpt><trkpt lat="45.375165" lon="9.7079383"><ele>72.0</ele><time>2026-04-26T13:03:34.924Z</time></trkpt><trkpt lat="45.3752633" lon="9.70786"><ele>72.0</ele><time>2026-04-26T13:03:36.925Z</time></trkpt><trkpt lat="45.375365" lon="9.70778"><ele>72.0</ele><time>2026-04-26T13:03:38.924Z</time></trkpt><trkpt lat="45.3754617" lon="9.7076883"><ele>72.0</ele><time>2026-04-26T13:03:40.924Z</time></trkpt><trkpt lat="45.3755283" lon="9.7075717"><ele>72.4</ele><time>2026-04-26T13:03:42.924Z</time></trkpt><trkpt lat="45.3755767" lon="9.7074383"><ele>72.80000000000001</ele><time>2026-04-26T13:03:44.924Z</time></trkpt><trkpt lat="45.3756417" lon="9.7073217"><ele>73.2</ele><time>2026-04-26T13:03:46.924Z</time></trkpt><trkpt lat="45.3757433" lon="9.70728"><ele>73.60000000000001</ele><time>2026-04-26T13:03:48.924Z</time></trkpt><trkpt lat="45.3758467" lon="9.7073367"><ele>74.0</ele><time>2026-04-26T13:03:50.924Z</time></trkpt><trkpt lat="45.3759433" lon="9.7074"><ele>74.0</ele><time>2026-04-26T13:03:52.924Z</time></trkpt><trkpt lat="45.3760517" lon="9.707455"><ele>74.0</ele><time>2026-04-26T13:03:54.924Z</time></trkpt><trkpt lat="45.3761517" lon="9.7075167"><ele>74.0</ele><time>2026-04-26T13:03:56.924Z</time></trkpt><trkpt lat="45.3762467" lon="9.707595"><ele>74.0</ele><time>2026-04-26T13:03:58.924Z</time></trkpt><trkpt lat="45.3763417" lon="9.707685"><ele>74.0</ele><time>2026-04-26T13:04:00.925Z</time></trkpt><trkpt lat="45.37643" lon="9.707775"><ele>73.8</ele><time>2026-04-26T13:04:02.924Z</time></trkpt><trkpt lat="45.3765133" lon="9.70787"><ele>73.60000000000001</ele><time>2026-04-26T13:04:04.924Z</time></trkpt><trkpt lat="45.3765933" lon="9.7079617"><ele>73.4</ele><time>2026-04-26T13:04:06.924Z</time></trkpt><trkpt lat="45.3766883" lon="9.7080133"><ele>73.2</ele><time>2026-04-26T13:04:08.924Z</time></trkpt><trkpt lat="45.3767733" lon="9.7080617"><ele>73.0</ele><time>2026-04-26T13:04:10.924Z</time></trkpt><trkpt lat="45.3768383" lon="9.708195"><ele>73.0</ele><time>2026-04-26T13:04:12.924Z</time></trkpt><trkpt lat="45.3768867" lon="9.7083333"><ele>73.0</ele><time>2026-04-26T13:04:14.924Z</time></trkpt><trkpt lat="45.3769283" lon="9.7084667"><ele>73.0</ele><time>2026-04-26T13:04:16.925Z</time></trkpt><trkpt lat="45.3769717" lon="9.708595"><ele>73.0</ele><time>2026-04-26T13:04:18.924Z</time></trkpt><trkpt lat="45.3770183" lon="9.7087233"><ele>73.0</ele><time>2026-04-26T13:04:20.924Z</time></trkpt><trkpt lat="45.3770667" lon="9.70885"><ele>73.2</ele><time>2026-04-26T13:04:22.924Z</time></trkpt><trkpt lat="45.3771183" lon="9.70896"><ele>73.4</ele><time>2026-04-26T13:04:24.924Z</time></trkpt><trkpt lat="45.3771767" lon="9.7090583"><ele>73.60000000000001</ele><time>2026-04-26T13:04:26.924Z</time></trkpt><trkpt lat="45.3772383" lon="9.70916"><ele>73.8</ele><time>2026-04-26T13:04:28.924Z</time></trkpt><trkpt lat="45.3773067" lon="9.7092633"><ele>74.0</ele><time>2026-04-26T13:04:30.924Z</time></trkpt><trkpt lat="45.3773833" lon="9.7093883"><ele>74.4</ele><time>2026-04-26T13:04:32.924Z</time></trkpt><trkpt lat="45.3774483" lon="9.709515"><ele>74.80000000000001</ele><time>2026-04-26T13:04:34.924Z</time></trkpt><trkpt lat="45.3775083" lon="9.7096117"><ele>75.19999999999999</ele><time>2026-04-26T13:04:36.924Z</time></trkpt><trkpt lat="45.3775817" lon="9.709695"><ele>75.6</ele><time>2026-04-26T13:04:38.924Z</time></trkpt><trkpt lat="45.37766" lon="9.709805"><ele>76.0</ele><time>2026-04-26T13:04:40.924Z</time></trkpt><trkpt lat="45.37774" lon="9.70989"><ele>76.0</ele><time>2026-04-26T13:04:42.924Z</time></trkpt><trkpt lat="45.3778267" lon="9.7099817"><ele>76.0</ele><time>2026-04-26T13:04:44.924Z</time></trkpt><trkpt lat="45.3779167" lon="9.7100567"><ele>76.0</ele><time>2026-04-26T13:04:46.924Z</time></trkpt><trkpt lat="45.3780083" lon="9.71014"><ele>76.0</ele><time>2026-04-26T13:04:48.924Z</time></trkpt><trkpt lat="45.3781017" lon="9.71022"><ele>76.0</ele><time>2026-04-26T13:04:50.924Z</time></trkpt><trkpt lat="45.3781917" lon="9.710285"><ele>76.0</ele><time>2026-04-26T13:04:52.924Z</time></trkpt><trkpt lat="45.378265" lon="9.71033"><ele>76.0</ele><time>2026-04-26T13:04:54.924Z</time></trkpt><trkpt lat="45.3783367" lon="9.71039"><ele>76.0</ele><time>2026-04-26T13:05:45.923Z</time></trkpt><trkpt lat="45.3784117" lon="9.7104517"><ele>76.0</ele><time>2026-04-26T13:05:48.923Z</time></trkpt><trkpt lat="45.378475" lon="9.7105117"><ele>76.0</ele><time>2026-04-26T13:05:50.923Z</time></trkpt><trkpt lat="45.37855" lon="9.7105667"><ele>76.0</ele><time>2026-04-26T13:05:52.924Z</time></trkpt><trkpt lat="45.3786367" lon="9.71059"><ele>76.0</ele><time>2026-04-26T13:05:54.923Z</time></trkpt><trkpt lat="45.378715" lon="9.7105817"><ele>76.0</ele><time>2026-04-26T13:05:56.923Z</time></trkpt><trkpt lat="45.37878" lon="9.7105983"><ele>76.0</ele><time>2026-04-26T13:05:58.923Z</time></trkpt><trkpt lat="45.378865" lon="9.7105917"><ele>76.0</ele><time>2026-04-26T13:06:01.923Z</time></trkpt><trkpt lat="45.3789367" lon="9.71057"><ele>76.0</ele><time>2026-04-26T13:06:03.923Z</time></trkpt><trkpt lat="45.3790083" lon="9.7105633"><ele>76.0</ele><time>2026-04-26T13:06:05.923Z</time></trkpt><trkpt lat="45.3790783" lon="9.7105533"><ele>76.0</ele><time>2026-04-26T13:06:07.923Z</time></trkpt><trkpt lat="45.3791583" lon="9.7105333"><ele>76.16666666666666</ele><time>2026-04-26T13:06:09.923Z</time></trkpt><trkpt lat="45.3792467" lon="9.7105433"><ele>76.33333333333333</ele><time>2026-04-26T13:06:11.924Z</time></trkpt><trkpt lat="45.3793417" lon="9.7105533"><ele>76.5</ele><time>2026-04-26T13:06:13.923Z</time></trkpt><trkpt lat="45.379425" lon="9.7105133"><ele>76.66666666666667</ele><time>2026-04-26T13:06:15.923Z</time></trkpt><trkpt lat="45.37949" lon="9.71052"><ele>76.83333333333334</ele><time>2026-04-26T13:06:17.923Z</time></trkpt><trkpt lat="45.3795483" lon="9.710455"><ele>77.0</ele><time>2026-04-26T13:06:21.923Z</time></trkpt><trkpt lat="45.37962" lon="9.7103883"><ele>76.8</ele><time>2026-04-26T13:06:24.923Z</time></trkpt><trkpt lat="45.3796883" lon="9.7103383"><ele>76.6</ele><time>2026-04-26T13:06:26.923Z</time></trkpt><trkpt lat="45.3797783" lon="9.71028"><ele>76.39999999999999</ele><time>2026-04-26T13:06:28.923Z</time></trkpt><trkpt lat="45.3798733" lon="9.7102183"><ele>76.2</ele><time>2026-04-26T13:06:30.923Z</time></trkpt><trkpt lat="45.3799567" lon="9.710135"><ele>76.0</ele><time>2026-04-26T13:06:32.923Z</time></trkpt><trkpt lat="45.3800383" lon="9.710045"><ele>76.0</ele><time>2026-04-26T13:06:34.923Z</time></trkpt><trkpt lat="45.3801217" lon="9.709985"><ele>76.0</ele><time>2026-04-26T13:06:36.923Z</time></trkpt><trkpt lat="45.3802033" lon="9.709945"><ele>76.0</ele><time>2026-04-26T13:06:38.923Z</time></trkpt><trkpt lat="45.3802667" lon="9.7098733"><ele>76.0</ele><time>2026-04-26T13:06:40.923Z</time></trkpt><trkpt lat="45.380355" lon="9.7098767"><ele>76.0</ele><time>2026-04-26T13:06:43.923Z</time></trkpt><trkpt lat="45.3804117" lon="9.709835"><ele>76.0</ele><time>2026-04-26T13:06:45.923Z</time></trkpt><trkpt lat="45.38048" lon="9.709765"><ele>76.0</ele><time>2026-04-26T13:06:47.923Z</time></trkpt><trkpt lat="45.380515" lon="9.7096867"><ele>76.0</ele><time>2026-04-26T13:06:49.923Z</time></trkpt><trkpt lat="45.3805967" lon="9.7096383"><ele>76.0</ele><time>2026-04-26T13:06:52.924Z</time></trkpt><trkpt lat="45.38067" lon="9.709625"><ele>76.0</ele><time>2026-04-26T13:06:54.923Z</time></trkpt><trkpt lat="45.3807383" lon="9.7096033"><ele>76.0</ele><time>2026-04-26T13:06:56.923Z</time></trkpt><trkpt lat="45.3808183" lon="9.7095383"><ele>76.0</ele><time>2026-04-26T13:06:59.923Z</time></trkpt><trkpt lat="45.380885" lon="9.70948"><ele>76.0</ele><time>2026-04-26T13:07:01.923Z</time></trkpt><trkpt lat="45.3809633" lon="9.709515"><ele>76.0</ele><time>2026-04-26T13:07:04.923Z</time></trkpt><trkpt lat="45.38104" lon="9.7094633"><ele>76.0</ele><time>2026-04-26T13:07:08.923Z</time></trkpt><trkpt lat="45.3810967" lon="9.709415"><ele>76.0</ele><time>2026-04-26T13:07:10.923Z</time></trkpt><trkpt lat="45.3811717" lon="9.7093783"><ele>76.0</ele><time>2026-04-26T13:07:13.923Z</time></trkpt><trkpt lat="45.3812533" lon="9.709315"><ele>76.0</ele><time>2026-04-26T13:07:33.923Z</time></trkpt><trkpt lat="45.3813383" lon="9.7093083"><ele>76.16666666666666</ele><time>2026-04-26T13:07:38.923Z</time></trkpt><trkpt lat="45.3814183" lon="9.70927"><ele>76.33333333333333</ele><time>2026-04-26T13:07:41.923Z</time></trkpt><trkpt lat="45.3814883" lon="9.7092567"><ele>76.5</ele><time>2026-04-26T13:07:44.923Z</time></trkpt><trkpt lat="45.3815617" lon="9.7092133"><ele>76.66666666666667</ele><time>2026-04-26T13:07:47.924Z</time></trkpt><trkpt lat="45.3816317" lon="9.7091783"><ele>76.83333333333334</ele><time>2026-04-26T13:07:50.923Z</time></trkpt><trkpt lat="45.381715" lon="9.7091483"><ele>77.0</ele><time>2026-04-26T13:07:53.923Z</time></trkpt><trkpt lat="45.381795" lon="9.709155"><ele>77.0</ele><time>2026-04-26T13:07:55.923Z</time></trkpt><trkpt lat="45.3818633" lon="9.7091333"><ele>77.0</ele><time>2026-04-26T13:07:57.924Z</time></trkpt><trkpt lat="45.3819333" lon="9.7091233"><ele>77.0</ele><time>2026-04-26T13:07:59.923Z</time></trkpt><trkpt lat="45.382015" lon="9.7091067"><ele>77.0</ele><time>2026-04-26T13:08:02.924Z</time></trkpt><trkpt lat="45.3821083" lon="9.7091517"><ele>77.0</ele><time>2026-04-26T13:08:05.923Z</time></trkpt><trkpt lat="45.3821833" lon="9.7091367"><ele>77.0</ele><time>2026-04-26T13:08:07.923Z</time></trkpt><trkpt lat="45.3822517" lon="9.7090933"><ele>76.66666666666667</ele><time>2026-04-26T13:08:09.923Z</time></trkpt><trkpt lat="45.3823283" lon="9.709085"><ele>76.33333333333334</ele><time>2026-04-26T13:08:11.923Z</time></trkpt><trkpt lat="45.3824117" lon="9.7090917"><ele>76.0</ele><time>2026-04-26T13:08:13.924Z</time></trkpt><trkpt lat="45.3824783" lon="9.709085"><ele>75.66666666666667</ele><time>2026-04-26T13:08:15.924Z</time></trkpt><trkpt lat="45.3825583" lon="9.7090767"><ele>75.33333333333333</ele><time>2026-04-26T13:08:19.923Z</time></trkpt><trkpt lat="45.3826233" lon="9.709105"><ele>75.0</ele><time>2026-04-26T13:08:22.923Z</time></trkpt><trkpt lat="45.3827117" lon="9.70912"><ele>75.0</ele><time>2026-04-26T13:08:25.923Z</time></trkpt><trkpt lat="45.3827917" lon="9.709155"><ele>75.0</ele><time>2026-04-26T13:08:27.923Z</time></trkpt><trkpt lat="45.3828667" lon="9.7091633"><ele>75.0</ele><time>2026-04-26T13:08:29.923Z</time></trkpt><trkpt lat="45.382925" lon="9.7091983"><ele>75.0</ele><time>2026-04-26T13:08:31.923Z</time></trkpt><trkpt lat="45.3829783" lon="9.70929"><ele>75.0</ele><time>2026-04-26T13:08:33.923Z</time></trkpt><trkpt lat="45.3830367" lon="9.7093383"><ele>75.0</ele><time>2026-04-26T13:08:35.923Z</time></trkpt><trkpt lat="45.38313" lon="9.7093367"><ele>74.83333333333333</ele><time>2026-04-26T13:08:38.923Z</time></trkpt><trkpt lat="45.3832117" lon="9.7093583"><ele>74.66666666666667</ele><time>2026-04-26T13:08:40.923Z</time></trkpt><trkpt lat="45.3832833" lon="9.709365"><ele>74.5</ele><time>2026-04-26T13:08:43.923Z</time></trkpt><trkpt lat="45.383375" lon="9.7093967"><ele>74.33333333333334</ele><time>2026-04-26T13:08:46.923Z</time></trkpt><trkpt lat="45.3834383" lon="9.7094317"><ele>74.16666666666667</ele><time>2026-04-26T13:08:48.923Z</time></trkpt><trkpt lat="45.3835167" lon="9.70945"><ele>74.0</ele><time>2026-04-26T13:08:51.923Z</time></trkpt><trkpt lat="45.3835633" lon="9.709515"><ele>74.85714285714286</ele><time>2026-04-26T13:08:53.924Z</time></trkpt><trkpt lat="45.3836017" lon="9.709595"><ele>75.71428571428571</ele><time>2026-04-26T13:08:55.923Z</time></trkpt><trkpt lat="45.3836417" lon="9.7096917"><ele>76.57142857142857</ele><time>2026-04-26T13:08:57.923Z</time></trkpt><trkpt lat="45.3836517" lon="9.70979"><ele>77.42857142857143</ele><time>2026-04-26T13:08:59.922Z</time></trkpt><trkpt lat="45.3836783" lon="9.70988"><ele>78.28571428571429</ele><time>2026-04-26T13:09:01.923Z</time></trkpt><trkpt lat="45.3837333" lon="9.7099333"><ele>79.14285714285714</ele><time>2026-04-26T13:09:03.922Z</time></trkpt><trkpt lat="45.38379" lon="9.7099917"><ele>80.0</ele><time>2026-04-26T13:09:05.922Z</time></trkpt><trkpt lat="45.38384" lon="9.7100817"><ele>79.83333333333334</ele><time>2026-04-26T13:09:08.922Z</time></trkpt><trkpt lat="45.3838633" lon="9.7101683"><ele>79.66666666666667</ele><time>2026-04-26T13:09:10.922Z</time></trkpt><trkpt lat="45.3838417" lon="9.7102683"><ele>79.5</ele><time>2026-04-26T13:09:12.922Z</time></trkpt><trkpt lat="45.3838933" lon="9.7103717"><ele>79.33333333333333</ele><time>2026-04-26T13:09:15.922Z</time></trkpt><trkpt lat="45.3839533" lon="9.710415"><ele>79.16666666666666</ele><time>2026-04-26T13:09:17.922Z</time></trkpt><trkpt lat="45.3839783" lon="9.71055"><ele>79.0</ele><time>2026-04-26T13:09:20.922Z</time></trkpt><trkpt lat="45.38402" lon="9.7106183"><ele>78.66666666666666</ele><time>2026-04-26T13:09:22.922Z</time></trkpt><trkpt lat="45.3840633" lon="9.7107067"><ele>78.33333333333333</ele><time>2026-04-26T13:09:24.922Z</time></trkpt><trkpt lat="45.384105" lon="9.710805"><ele>78.0</ele><time>2026-04-26T13:09:26.922Z</time></trkpt><trkpt lat="45.38409" lon="9.7109167"><ele>77.66666666666667</ele><time>2026-04-26T13:09:28.922Z</time></trkpt><trkpt lat="45.3841017" lon="9.711005"><ele>77.33333333333334</ele><time>2026-04-26T13:09:30.923Z</time></trkpt><trkpt lat="45.384155" lon="9.711055"><ele>77.0</ele><time>2026-04-26T13:09:32.922Z</time></trkpt><trkpt lat="45.3841933" lon="9.7111683"><ele>76.83333333333334</ele><time>2026-04-26T13:09:35.922Z</time></trkpt><trkpt lat="45.38421" lon="9.7112783"><ele>76.66666666666667</ele><time>2026-04-26T13:09:37.923Z</time></trkpt><trkpt lat="45.38421" lon="9.7113833"><ele>76.5</ele><time>2026-04-26T13:09:39.922Z</time></trkpt><trkpt lat="45.3842" lon="9.7115"><ele>76.33333333333333</ele><time>2026-04-26T13:09:42.922Z</time></trkpt><trkpt lat="45.384215" lon="9.71159"><ele>76.16666666666666</ele><time>2026-04-26T13:09:44.922Z</time></trkpt><trkpt lat="45.3842067" lon="9.7116917"><ele>76.0</ele><time>2026-04-26T13:09:46.922Z</time></trkpt><trkpt lat="45.384225" lon="9.7118483"><ele>76.33333333333333</ele><time>2026-04-26T13:09:55.922Z</time></trkpt><trkpt lat="45.3842133" lon="9.7119583"><ele>76.66666666666666</ele><time>2026-04-26T13:09:58.922Z</time></trkpt><trkpt lat="45.3841867" lon="9.71209"><ele>77.0</ele><time>2026-04-26T13:10:01.922Z</time></trkpt><trkpt lat="45.38418" lon="9.7122033"><ele>77.33333333333333</ele><time>2026-04-26T13:10:03.922Z</time></trkpt><trkpt lat="45.3841783" lon="9.71232"><ele>77.66666666666667</ele><time>2026-04-26T13:10:05.922Z</time></trkpt><trkpt lat="45.384165" lon="9.7124383"><ele>78.0</ele><time>2026-04-26T13:10:07.922Z</time></trkpt><trkpt lat="45.384155" lon="9.712555"><ele>78.0</ele><time>2026-04-26T13:10:09.922Z</time></trkpt><trkpt lat="45.3841567" lon="9.7126717"><ele>78.0</ele><time>2026-04-26T13:10:11.922Z</time></trkpt><trkpt lat="45.38416" lon="9.7127833"><ele>78.0</ele><time>2026-04-26T13:10:13.922Z</time></trkpt><trkpt lat="45.38415" lon="9.712895"><ele>78.0</ele><time>2026-04-26T13:10:15.922Z</time></trkpt><trkpt lat="45.38415" lon="9.7129983"><ele>78.0</ele><time>2026-04-26T13:10:17.922Z</time></trkpt><trkpt lat="45.3841633" lon="9.7131017"><ele>78.0</ele><time>2026-04-26T13:10:19.922Z</time></trkpt><trkpt lat="45.384195" lon="9.7131967"><ele>78.33333333333333</ele><time>2026-04-26T13:10:21.922Z</time></trkpt><trkpt lat="45.38426" lon="9.713275"><ele>78.66666666666667</ele><time>2026-04-26T13:10:23.922Z</time></trkpt><trkpt lat="45.3843033" lon="9.7133783"><ele>79.0</ele><time>2026-04-26T13:10:25.923Z</time></trkpt><trkpt lat="45.3843467" lon="9.7134533"><ele>79.33333333333334</ele><time>2026-04-26T13:10:27.922Z</time></trkpt><trkpt lat="45.38441" lon="9.7134967"><ele>79.66666666666667</ele><time>2026-04-26T13:10:29.922Z</time></trkpt><trkpt lat="45.3844833" lon="9.7135467"><ele>80.0</ele><time>2026-04-26T13:10:31.922Z</time></trkpt><trkpt lat="45.3845583" lon="9.713595"><ele>80.0</ele><time>2026-04-26T13:10:33.922Z</time></trkpt><trkpt lat="45.3846433" lon="9.7136217"><ele>80.0</ele><time>2026-04-26T13:10:35.922Z</time></trkpt><trkpt lat="45.384725" lon="9.7136433"><ele>80.0</ele><time>2026-04-26T13:10:37.922Z</time></trkpt><trkpt lat="45.3848217" lon="9.71368"><ele>80.0</ele><time>2026-04-26T13:10:39.922Z</time></trkpt><trkpt lat="45.384915" lon="9.7136967"><ele>80.0</ele><time>2026-04-26T13:10:41.922Z</time></trkpt><trkpt lat="45.3850083" lon="9.71372"><ele>79.0</ele><time>2026-04-26T13:10:43.922Z</time></trkpt><trkpt lat="45.3851033" lon="9.7137317"><ele>78.0</ele><time>2026-04-26T13:10:45.922Z</time></trkpt><trkpt lat="45.385205" lon="9.7137417"><ele>77.0</ele><time>2026-04-26T13:10:47.922Z</time></trkpt><trkpt lat="45.3853017" lon="9.7137433"><ele>76.0</ele><time>2026-04-26T13:10:49.922Z</time></trkpt><trkpt lat="45.3854033" lon="9.7137567"><ele>75.0</ele><time>2026-04-26T13:10:51.922Z</time></trkpt><trkpt lat="45.3854983" lon="9.7138033"><ele>75.0</ele><time>2026-04-26T13:10:53.922Z</time></trkpt><trkpt lat="45.3855733" lon="9.713875"><ele>75.0</ele><time>2026-04-26T13:10:55.922Z</time></trkpt><trkpt lat="45.38565" lon="9.713895"><ele>75.0</ele><time>2026-04-26T13:10:57.922Z</time></trkpt><trkpt lat="45.3857367" lon="9.713885"><ele>75.0</ele><time>2026-04-26T13:10:59.922Z</time></trkpt><trkpt lat="45.3858283" lon="9.713885"><ele>75.0</ele><time>2026-04-26T13:11:01.922Z</time></trkpt><trkpt lat="45.38592" lon="9.7138683"><ele>75.0</ele><time>2026-04-26T13:11:03.922Z</time></trkpt><trkpt lat="45.38602" lon="9.7138583"><ele>75.0</ele><time>2026-04-26T13:11:05.922Z</time></trkpt><trkpt lat="45.3861217" lon="9.7138417"><ele>75.0</ele><time>2026-04-26T13:11:07.922Z</time></trkpt><trkpt lat="45.3862217" lon="9.7138167"><ele>75.0</ele><time>2026-04-26T13:11:09.922Z</time></trkpt><trkpt lat="45.38631" lon="9.7137717"><ele>75.0</ele><time>2026-04-26T13:11:11.922Z</time></trkpt><trkpt lat="45.3863983" lon="9.7137167"><ele>75.0</ele><time>2026-04-26T13:11:13.922Z</time></trkpt><trkpt lat="45.3864783" lon="9.7136567"><ele>75.0</ele><time>2026-04-26T13:11:15.922Z</time></trkpt><trkpt lat="45.3865733" lon="9.7136133"><ele>75.0</ele><time>2026-04-26T13:11:17.922Z</time></trkpt><trkpt lat="45.386645" lon="9.7135367"><ele>75.0</ele><time>2026-04-26T13:11:19.922Z</time></trkpt><trkpt lat="45.3867017" lon="9.7134383"><ele>75.0</ele><time>2026-04-26T13:11:21.922Z</time></trkpt><trkpt lat="45.38675" lon="9.7133733"><ele>75.0</ele><time>2026-04-26T13:11:23.922Z</time></trkpt><trkpt lat="45.3868083" lon="9.7133317"><ele>75.0</ele><time>2026-04-26T13:11:25.922Z</time></trkpt><trkpt lat="45.3868933" lon="9.7132767"><ele>74.99999999999999</ele><time>2026-04-26T13:11:28.922Z</time></trkpt><trkpt lat="45.3869533" lon="9.7132367"><ele>75.0</ele><time>2026-04-26T13:11:30.922Z</time></trkpt><trkpt lat="45.387015" lon="9.7131883"><ele>75.0</ele><time>2026-04-26T13:11:32.922Z</time></trkpt><trkpt lat="45.387085" lon="9.7131417"><ele>75.0</ele><time>2026-04-26T13:11:34.922Z</time></trkpt><trkpt lat="45.3871533" lon="9.713115"><ele>75.0</ele><time>2026-04-26T13:11:36.922Z</time></trkpt><trkpt lat="45.3872233" lon="9.7131117"><ele>74.99999999999999</ele><time>2026-04-26T13:11:38.922Z</time></trkpt><trkpt lat="45.3873" lon="9.713115"><ele>75.0</ele><time>2026-04-26T13:11:40.922Z</time></trkpt><trkpt lat="45.3873967" lon="9.7131117"><ele>75.2</ele><time>2026-04-26T13:11:42.922Z</time></trkpt><trkpt lat="45.3874983" lon="9.7131017"><ele>75.4</ele><time>2026-04-26T13:11:44.922Z</time></trkpt><trkpt lat="45.3876017" lon="9.71309"><ele>75.6</ele><time>2026-04-26T13:11:46.922Z</time></trkpt><trkpt lat="45.3876883" lon="9.7130167"><ele>75.8</ele><time>2026-04-26T13:11:48.922Z</time></trkpt><trkpt lat="45.3877117" lon="9.7128983"><ele>76.0</ele><time>2026-04-26T13:11:50.922Z</time></trkpt><trkpt lat="45.38772" lon="9.7127817"><ele>76.16666666666666</ele><time>2026-04-26T13:11:52.922Z</time></trkpt><trkpt lat="45.3877233" lon="9.7126617"><ele>76.33333333333333</ele><time>2026-04-26T13:11:54.923Z</time></trkpt><trkpt lat="45.38775" lon="9.71254"><ele>76.5</ele><time>2026-04-26T13:11:56.922Z</time></trkpt><trkpt lat="45.3877917" lon="9.712435"><ele>76.66666666666667</ele><time>2026-04-26T13:11:58.922Z</time></trkpt><trkpt lat="45.3878533" lon="9.71234"><ele>76.83333333333334</ele><time>2026-04-26T13:12:00.922Z</time></trkpt><trkpt lat="45.3879133" lon="9.71224"><ele>77.0</ele><time>2026-04-26T13:12:02.922Z</time></trkpt><trkpt lat="45.3879833" lon="9.7121517"><ele>76.6</ele><time>2026-04-26T13:12:04.922Z</time></trkpt><trkpt lat="45.3880567" lon="9.71204"><ele>76.2</ele><time>2026-04-26T13:12:06.923Z</time></trkpt><trkpt lat="45.3881233" lon="9.711935"><ele>75.8</ele><time>2026-04-26T13:12:08.922Z</time></trkpt><trkpt lat="45.3881833" lon="9.7118083"><ele>75.4</ele><time>2026-04-26T13:12:10.922Z</time></trkpt><trkpt lat="45.3882533" lon="9.7116567"><ele>75.0</ele><time>2026-04-26T13:12:12.922Z</time></trkpt><trkpt lat="45.3882967" lon="9.7115917"><ele>75.0</ele><time>2026-04-26T13:12:13.922Z</time></trkpt><trkpt lat="45.3883833" lon="9.7114833"><ele>75.0</ele><time>2026-04-26T13:12:15.922Z</time></trkpt><trkpt lat="45.3884683" lon="9.711375"><ele>75.0</ele><time>2026-04-26T13:12:17.922Z</time></trkpt><trkpt lat="45.3885583" lon="9.711275"><ele>75.0</ele><time>2026-04-26T13:12:19.922Z</time></trkpt><trkpt lat="45.3886433" lon="9.7111683"><ele>75.0</ele><time>2026-04-26T13:12:21.922Z</time></trkpt><trkpt lat="45.388735" lon="9.71108"><ele>75.0</ele><time>2026-04-26T13:12:23.922Z</time></trkpt><trkpt lat="45.3888367" lon="9.7110267"><ele>75.0</ele><time>2026-04-26T13:12:25.922Z</time></trkpt><trkpt lat="45.388935" lon="9.71104"><ele>75.0</ele><time>2026-04-26T13:12:27.922Z</time></trkpt><trkpt lat="45.3890183" lon="9.7111317"><ele>75.0</ele><time>2026-04-26T13:12:29.922Z</time></trkpt><trkpt lat="45.3890733" lon="9.7112417"><ele>75.6</ele><time>2026-04-26T13:12:31.922Z</time></trkpt><trkpt lat="45.3891233" lon="9.7113483"><ele>76.2</ele><time>2026-04-26T13:12:33.923Z</time></trkpt><trkpt lat="45.38919" lon="9.7114383"><ele>76.8</ele><time>2026-04-26T13:12:35.922Z</time></trkpt><trkpt lat="45.3892567" lon="9.711555"><ele>77.4</ele><time>2026-04-26T13:12:37.922Z</time></trkpt><trkpt lat="45.3893133" lon="9.7116767"><ele>78.0</ele><time>2026-04-26T13:12:39.923Z</time></trkpt><trkpt lat="45.3893617" lon="9.7118117"><ele>77.83333333333333</ele><time>2026-04-26T13:12:41.922Z</time></trkpt><trkpt lat="45.3894033" lon="9.7119217"><ele>77.66666666666667</ele><time>2026-04-26T13:12:43.921Z</time></trkpt><trkpt lat="45.3894183" lon="9.71202"><ele>77.5</ele><time>2026-04-26T13:12:46.922Z</time></trkpt><trkpt lat="45.38943" lon="9.7121333"><ele>77.33333333333334</ele><time>2026-04-26T13:12:49.922Z</time></trkpt><trkpt lat="45.3894333" lon="9.712235"><ele>77.16666666666667</ele><time>2026-04-26T13:12:51.922Z</time></trkpt><trkpt lat="45.3894467" lon="9.7123717"><ele>77.0</ele><time>2026-04-26T13:12:53.921Z</time></trkpt><trkpt lat="45.3894617" lon="9.7125117"><ele>77.0</ele><time>2026-04-26T13:12:55.921Z</time></trkpt><trkpt lat="45.3894733" lon="9.7126567"><ele>77.0</ele><time>2026-04-26T13:12:57.921Z</time></trkpt><trkpt lat="45.389475" lon="9.7127967"><ele>77.0</ele><time>2026-04-26T13:12:59.921Z</time></trkpt><trkpt lat="45.3894883" lon="9.712935"><ele>77.0</ele><time>2026-04-26T13:13:01.921Z</time></trkpt><trkpt lat="45.3895017" lon="9.7130483"><ele>77.0</ele><time>2026-04-26T13:13:03.921Z</time></trkpt><trkpt lat="45.389565" lon="9.7131567"><ele>77.2</ele><time>2026-04-26T13:13:05.921Z</time></trkpt><trkpt lat="45.389675" lon="9.7132483"><ele>77.4</ele><time>2026-04-26T13:13:07.921Z</time></trkpt><trkpt lat="45.38976" lon="9.7133617"><ele>77.6</ele><time>2026-04-26T13:13:09.921Z</time></trkpt><trkpt lat="45.38983" lon="9.7134667"><ele>77.8</ele><time>2026-04-26T13:13:11.921Z</time></trkpt><trkpt lat="45.3899067" lon="9.7135567"><ele>78.0</ele><time>2026-04-26T13:13:13.921Z</time></trkpt><trkpt lat="45.38998" lon="9.713655"><ele>78.0</ele><time>2026-04-26T13:13:15.921Z</time></trkpt><trkpt lat="45.39006" lon="9.7137383"><ele>78.0</ele><time>2026-04-26T13:13:17.921Z</time></trkpt><trkpt lat="45.3901283" lon="9.713815"><ele>78.0</ele><time>2026-04-26T13:13:19.921Z</time></trkpt><trkpt lat="45.3902117" lon="9.7138567"><ele>78.0</ele><time>2026-04-26T13:13:21.921Z</time></trkpt><trkpt lat="45.390305" lon="9.7139217"><ele>78.0</ele><time>2026-04-26T13:13:23.921Z</time></trkpt><trkpt lat="45.3904017" lon="9.71398"><ele>78.0</ele><time>2026-04-26T13:13:25.921Z</time></trkpt><trkpt lat="45.390495" lon="9.7140317"><ele>78.0</ele><time>2026-04-26T13:13:27.921Z</time></trkpt><trkpt lat="45.3905917" lon="9.7140683"><ele>78.0</ele><time>2026-04-26T13:13:29.922Z</time></trkpt><trkpt lat="45.3906933" lon="9.7140917"><ele>78.0</ele><time>2026-04-26T13:13:31.921Z</time></trkpt><trkpt lat="45.3907567" lon="9.7141067"><ele>78.0</ele><time>2026-04-26T13:13:32.921Z</time></trkpt><trkpt lat="45.3908717" lon="9.7141083"><ele>78.5</ele><time>2026-04-26T13:13:34.921Z</time></trkpt><trkpt lat="45.3909883" lon="9.714115"><ele>79.0</ele><time>2026-04-26T13:13:36.921Z</time></trkpt><trkpt lat="45.3911017" lon="9.7141233"><ele>79.5</ele><time>2026-04-26T13:13:38.921Z</time></trkpt><trkpt lat="45.3912133" lon="9.7141033"><ele>80.0</ele><time>2026-04-26T13:13:40.921Z</time></trkpt><trkpt lat="45.3913367" lon="9.7140767"><ele>79.57142857142857</ele><time>2026-04-26T13:13:42.921Z</time></trkpt><trkpt lat="45.39145" lon="9.71402"><ele>79.14285714285714</ele><time>2026-04-26T13:13:44.921Z</time></trkpt><trkpt lat="45.3915117" lon="9.7139833"><ele>78.71428571428572</ele><time>2026-04-26T13:13:45.921Z</time></trkpt><trkpt lat="45.3915717" lon="9.71395"><ele>78.28571428571428</ele><time>2026-04-26T13:13:46.921Z</time></trkpt><trkpt lat="45.3916333" lon="9.7139283"><ele>77.85714285714286</ele><time>2026-04-26T13:13:47.921Z</time></trkpt><trkpt lat="45.3916967" lon="9.713905"><ele>77.42857142857143</ele><time>2026-04-26T13:13:48.921Z</time></trkpt><trkpt lat="45.3917583" lon="9.7138833"><ele>77.0</ele><time>2026-04-26T13:13:49.921Z</time></trkpt><trkpt lat="45.3918733" lon="9.7138317"><ele>77.0</ele><time>2026-04-26T13:13:51.921Z</time></trkpt><trkpt lat="45.391975" lon="9.713745"><ele>77.0</ele><time>2026-04-26T13:13:53.921Z</time></trkpt><trkpt lat="45.3920633" lon="9.7136567"><ele>77.0</ele><time>2026-04-26T13:13:55.921Z</time></trkpt><trkpt lat="45.3921217" lon="9.7135433"><ele>77.0</ele><time>2026-04-26T13:13:57.921Z</time></trkpt><trkpt lat="45.3921617" lon="9.7134133"><ele>77.0</ele><time>2026-04-26T13:13:59.921Z</time></trkpt><trkpt lat="45.392215" lon="9.7133117"><ele>77.0</ele><time>2026-04-26T13:14:01.921Z</time></trkpt><trkpt lat="45.3922833" lon="9.71323"><ele>77.0</ele><time>2026-04-26T13:14:03.921Z</time></trkpt><trkpt lat="45.3923367" lon="9.71316"><ele>77.0</ele><time>2026-04-26T13:14:05.921Z</time></trkpt><trkpt lat="45.3923883" lon="9.71308"><ele>77.0</ele><time>2026-04-26T13:14:07.921Z</time></trkpt><trkpt lat="45.3924317" lon="9.7129917"><ele>77.0</ele><time>2026-04-26T13:14:09.921Z</time></trkpt><trkpt lat="45.3924767" lon="9.7128733"><ele>77.0</ele><time>2026-04-26T13:14:11.922Z</time></trkpt><trkpt lat="45.39254" lon="9.7127617"><ele>77.2</ele><time>2026-04-26T13:14:13.921Z</time></trkpt><trkpt lat="45.3925917" lon="9.7126283"><ele>77.4</ele><time>2026-04-26T13:14:15.921Z</time></trkpt><trkpt lat="45.3926533" lon="9.712505"><ele>77.6</ele><time>2026-04-26T13:14:17.921Z</time></trkpt><trkpt lat="45.392695" lon="9.7123717"><ele>77.8</ele><time>2026-04-26T13:14:19.921Z</time></trkpt><trkpt lat="45.39273" lon="9.7122383"><ele>78.0</ele><time>2026-04-26T13:14:21.921Z</time></trkpt><trkpt lat="45.3927683" lon="9.712125"><ele>78.0</ele><time>2026-04-26T13:14:23.921Z</time></trkpt><trkpt lat="45.3928017" lon="9.7120033"><ele>78.0</ele><time>2026-04-26T13:14:25.921Z</time></trkpt><trkpt lat="45.3928417" lon="9.7118717"><ele>78.0</ele><time>2026-04-26T13:14:27.921Z</time></trkpt><trkpt lat="45.3928683" lon="9.7117333"><ele>78.0</ele><time>2026-04-26T13:14:29.921Z</time></trkpt><trkpt lat="45.3928983" lon="9.71159"><ele>78.0</ele><time>2026-04-26T13:14:31.921Z</time></trkpt><trkpt lat="45.3929233" lon="9.7114367"><ele>78.0</ele><time>2026-04-26T13:14:33.921Z</time></trkpt><trkpt lat="45.3929467" lon="9.7112883"><ele>78.0</ele><time>2026-04-26T13:14:35.921Z</time></trkpt><trkpt lat="45.3929617" lon="9.7111417"><ele>78.0</ele><time>2026-04-26T13:14:37.921Z</time></trkpt><trkpt lat="45.3929683" lon="9.7110117"><ele>78.0</ele><time>2026-04-26T13:14:39.921Z</time></trkpt><trkpt lat="45.3929867" lon="9.710885"><ele>78.0</ele><time>2026-04-26T13:14:41.921Z</time></trkpt><trkpt lat="45.3930017" lon="9.7107433"><ele>78.2</ele><time>2026-04-26T13:14:43.921Z</time></trkpt><trkpt lat="45.39301" lon="9.7105867"><ele>78.4</ele><time>2026-04-26T13:14:45.922Z</time></trkpt><trkpt lat="45.39301" lon="9.7104433"><ele>78.60000000000001</ele><time>2026-04-26T13:14:47.921Z</time></trkpt><trkpt lat="45.3930017" lon="9.710295"><ele>78.8</ele><time>2026-04-26T13:14:49.921Z</time></trkpt><trkpt lat="45.3929883" lon="9.7101367"><ele>79.0</ele><time>2026-04-26T13:14:51.921Z</time></trkpt><trkpt lat="45.392975" lon="9.7099867"><ele>79.0</ele><time>2026-04-26T13:14:53.921Z</time></trkpt><trkpt lat="45.392975" lon="9.70983"><ele>79.0</ele><time>2026-04-26T13:14:55.921Z</time></trkpt><trkpt lat="45.3929617" lon="9.709675"><ele>79.0</ele><time>2026-04-26T13:14:57.922Z</time></trkpt><trkpt lat="45.3929517" lon="9.7095167"><ele>79.0</ele><time>2026-04-26T13:14:59.921Z</time></trkpt><trkpt lat="45.3929433" lon="9.70936"><ele>79.0</ele><time>2026-04-26T13:15:01.921Z</time></trkpt><trkpt lat="45.39293" lon="9.7091917"><ele>79.0</ele><time>2026-04-26T13:15:03.921Z</time></trkpt><trkpt lat="45.3929283" lon="9.709025"><ele>79.0</ele><time>2026-04-26T13:15:05.921Z</time></trkpt><trkpt lat="45.3929383" lon="9.7088633"><ele>79.0</ele><time>2026-04-26T13:15:07.921Z</time></trkpt><trkpt lat="45.3929483" lon="9.7087033"><ele>79.0</ele><time>2026-04-26T13:15:09.921Z</time></trkpt><trkpt lat="45.3929667" lon="9.7085433"><ele>79.0</ele><time>2026-04-26T13:15:11.921Z</time></trkpt><trkpt lat="45.392995" lon="9.70839"><ele>79.0</ele><time>2026-04-26T13:15:13.921Z</time></trkpt><trkpt lat="45.3930367" lon="9.7082283"><ele>79.0</ele><time>2026-04-26T13:15:15.921Z</time></trkpt><trkpt lat="45.3931033" lon="9.7081033"><ele>79.0</ele><time>2026-04-26T13:15:17.921Z</time></trkpt><trkpt lat="45.3931883" lon="9.7079983"><ele>78.75</ele><time>2026-04-26T13:15:19.921Z</time></trkpt><trkpt lat="45.3932817" lon="9.707905"><ele>78.5</ele><time>2026-04-26T13:15:21.921Z</time></trkpt><trkpt lat="45.39338" lon="9.707805"><ele>78.25</ele><time>2026-04-26T13:15:23.921Z</time></trkpt><trkpt lat="45.3934783" lon="9.7077"><ele>78.0</ele><time>2026-04-26T13:15:25.922Z</time></trkpt><trkpt lat="45.3935783" lon="9.7076117"><ele>78.0</ele><time>2026-04-26T13:15:27.921Z</time></trkpt><trkpt lat="45.39368" lon="9.70752"><ele>78.0</ele><time>2026-04-26T13:15:29.921Z</time></trkpt><trkpt lat="45.3937333" lon="9.7074683"><ele>78.0</ele><time>2026-04-26T13:15:30.921Z</time></trkpt><trkpt lat="45.393835" lon="9.7073683"><ele>78.0</ele><time>2026-04-26T13:15:32.921Z</time></trkpt><trkpt lat="45.3939283" lon="9.7072833"><ele>78.0</ele><time>2026-04-26T13:15:34.922Z</time></trkpt><trkpt lat="45.39403" lon="9.707185"><ele>78.6</ele><time>2026-04-26T13:15:36.922Z</time></trkpt><trkpt lat="45.39415" lon="9.7071"><ele>79.19999999999999</ele><time>2026-04-26T13:15:38.921Z</time></trkpt><trkpt lat="45.3942617" lon="9.707055"><ele>79.8</ele><time>2026-04-26T13:15:40.921Z</time></trkpt><trkpt lat="45.3943667" lon="9.7070283"><ele>80.39999999999999</ele><time>2026-04-26T13:15:42.921Z</time></trkpt><trkpt lat="45.3944567" lon="9.7070117"><ele>81.0</ele><time>2026-04-26T13:15:44.921Z</time></trkpt><trkpt lat="45.3945183" lon="9.707065"><ele>81.0</ele><time>2026-04-26T13:15:46.921Z</time></trkpt><trkpt lat="45.394565" lon="9.7071833"><ele>81.0</ele><time>2026-04-26T13:15:48.921Z</time></trkpt><trkpt lat="45.3946067" lon="9.7073117"><ele>81.0</ele><time>2026-04-26T13:15:50.921Z</time></trkpt><trkpt lat="45.39465" lon="9.7074383"><ele>81.0</ele><time>2026-04-26T13:15:52.921Z</time></trkpt><trkpt lat="45.3946933" lon="9.707575"><ele>81.0</ele><time>2026-04-26T13:15:54.921Z</time></trkpt><trkpt lat="45.3947383" lon="9.7077083"><ele>80.8</ele><time>2026-04-26T13:15:56.921Z</time></trkpt><trkpt lat="45.3947767" lon="9.7078533"><ele>80.6</ele><time>2026-04-26T13:15:58.921Z</time></trkpt><trkpt lat="45.3948167" lon="9.708"><ele>80.4</ele><time>2026-04-26T13:16:00.921Z</time></trkpt><trkpt lat="45.3948583" lon="9.7081433"><ele>80.2</ele><time>2026-04-26T13:16:02.921Z</time></trkpt><trkpt lat="45.3949017" lon="9.7082933"><ele>80.0</ele><time>2026-04-26T13:16:04.921Z</time></trkpt><trkpt lat="45.3949417" lon="9.7084283"><ele>80.0</ele><time>2026-04-26T13:16:06.921Z</time></trkpt><trkpt lat="45.394985" lon="9.7085717"><ele>80.0</ele><time>2026-04-26T13:16:08.922Z</time></trkpt><trkpt lat="45.3950283" lon="9.70871"><ele>80.0</ele><time>2026-04-26T13:16:10.921Z</time></trkpt><trkpt lat="45.39508" lon="9.7088483"><ele>80.0</ele><time>2026-04-26T13:16:12.921Z</time></trkpt><trkpt lat="45.3951283" lon="9.7089817"><ele>80.0</ele><time>2026-04-26T13:16:14.921Z</time></trkpt><trkpt lat="45.3951767" lon="9.7090967"><ele>80.2</ele><time>2026-04-26T13:16:16.921Z</time></trkpt><trkpt lat="45.3952583" lon="9.7091683"><ele>80.4</ele><time>2026-04-26T13:16:18.921Z</time></trkpt><trkpt lat="45.3953517" lon="9.7092133"><ele>80.6</ele><time>2026-04-26T13:16:20.921Z</time></trkpt><trkpt lat="45.395445" lon="9.7092917"><ele>80.8</ele><time>2026-04-26T13:16:22.921Z</time></trkpt><trkpt lat="45.3955317" lon="9.7093683"><ele>81.0</ele><time>2026-04-26T13:16:24.921Z</time></trkpt><trkpt lat="45.395635" lon="9.7094417"><ele>81.19999999999999</ele><time>2026-04-26T13:16:26.921Z</time></trkpt><trkpt lat="45.3957367" lon="9.7095083"><ele>81.39999999999999</ele><time>2026-04-26T13:16:28.922Z</time></trkpt><trkpt lat="45.3958367" lon="9.7095667"><ele>81.6</ele><time>2026-04-26T13:16:30.921Z</time></trkpt><trkpt lat="45.3959333" lon="9.7096"><ele>81.8</ele><time>2026-04-26T13:16:32.921Z</time></trkpt><trkpt lat="45.3960217" lon="9.7096083"><ele>82.0</ele><time>2026-04-26T13:16:34.921Z</time></trkpt><trkpt lat="45.39612" lon="9.7096167"><ele>82.0</ele><time>2026-04-26T13:16:36.921Z</time></trkpt><trkpt lat="45.396225" lon="9.709645"><ele>82.0</ele><time>2026-04-26T13:16:38.921Z</time></trkpt><trkpt lat="45.3963267" lon="9.70973"><ele>82.0</ele><time>2026-04-26T13:16:40.92Z</time></trkpt><trkpt lat="45.3963967" lon="9.7098567"><ele>82.0</ele><time>2026-04-26T13:16:42.92Z</time></trkpt><trkpt lat="45.3964317" lon="9.7100133"><ele>82.0</ele><time>2026-04-26T13:16:44.921Z</time></trkpt><trkpt lat="45.3964433" lon="9.7101583"><ele>82.0</ele><time>2026-04-26T13:16:46.92Z</time></trkpt><trkpt lat="45.3964683" lon="9.7102917"><ele>82.0</ele><time>2026-04-26T13:16:48.92Z</time></trkpt><trkpt lat="45.3965133" lon="9.7103917"><ele>82.0</ele><time>2026-04-26T13:16:51.92Z</time></trkpt><trkpt lat="45.3965617" lon="9.710325"><ele>82.0</ele><time>2026-04-26T13:16:54.92Z</time></trkpt><trkpt lat="45.3966367" lon="9.71016"><ele>81.33333333333333</ele><time>2026-04-26T13:17:24.92Z</time></trkpt><trkpt lat="45.39668" lon="9.7100867"><ele>80.66666666666666</ele><time>2026-04-26T13:17:26.92Z</time></trkpt><trkpt lat="45.3967367" lon="9.7100117"><ele>80.0</ele><time>2026-04-26T13:17:28.92Z</time></trkpt><trkpt lat="45.3968117" lon="9.7099633"><ele>79.33333333333333</ele><time>2026-04-26T13:17:30.92Z</time></trkpt><trkpt lat="45.3969067" lon="9.7099567"><ele>78.66666666666667</ele><time>2026-04-26T13:17:32.921Z</time></trkpt><trkpt lat="45.3969967" lon="9.70997"><ele>78.0</ele><time>2026-04-26T13:17:34.92Z</time></trkpt><trkpt lat="45.397075" lon="9.7100067"><ele>78.0</ele><time>2026-04-26T13:17:36.92Z</time></trkpt><trkpt lat="45.3971517" lon="9.7100333"><ele>78.0</ele><time>2026-04-26T13:17:38.92Z</time></trkpt><trkpt lat="45.3972417" lon="9.7100283"><ele>78.0</ele><time>2026-04-26T13:17:40.92Z</time></trkpt><trkpt lat="45.397325" lon="9.7100517"><ele>78.0</ele><time>2026-04-26T13:17:42.92Z</time></trkpt><trkpt lat="45.3973917" lon="9.710125"><ele>78.0</ele><time>2026-04-26T13:17:45.92Z</time></trkpt><trkpt lat="45.3974867" lon="9.7101733"><ele>78.0</ele><time>2026-04-26T13:17:48.92Z</time></trkpt><trkpt lat="45.39757" lon="9.71018"><ele>78.33333333333333</ele><time>2026-04-26T13:17:50.92Z</time></trkpt><trkpt lat="45.397635" lon="9.7101883"><ele>78.66666666666667</ele><time>2026-04-26T13:17:52.92Z</time></trkpt><trkpt lat="45.3977017" lon="9.7101933"><ele>79.0</ele><time>2026-04-26T13:17:55.92Z</time></trkpt><trkpt lat="45.39777" lon="9.7101683"><ele>79.33333333333334</ele><time>2026-04-26T13:17:57.92Z</time></trkpt><trkpt lat="45.3978533" lon="9.7101517"><ele>79.66666666666667</ele><time>2026-04-26T13:17:59.92Z</time></trkpt><trkpt lat="45.3979483" lon="9.710215"><ele>80.0</ele><time>2026-04-26T13:18:01.92Z</time></trkpt><trkpt lat="45.398045" lon="9.71031"><ele>80.0</ele><time>2026-04-26T13:18:03.92Z</time></trkpt><trkpt lat="45.398165" lon="9.7103567"><ele>80.0</ele><time>2026-04-26T13:18:05.92Z</time></trkpt><trkpt lat="45.39826" lon="9.7104467"><ele>80.0</ele><time>2026-04-26T13:18:07.92Z</time></trkpt><trkpt lat="45.3983167" lon="9.7105283"><ele>80.0</ele><time>2026-04-26T13:18:09.92Z</time></trkpt><trkpt lat="45.39838" lon="9.7106267"><ele>80.0</ele><time>2026-04-26T13:18:12.92Z</time></trkpt><trkpt lat="45.398435" lon="9.7107317"><ele>80.0</ele><time>2026-04-26T13:18:14.92Z</time></trkpt><trkpt lat="45.39851" lon="9.7108233"><ele>80.0</ele><time>2026-04-26T13:18:16.92Z</time></trkpt><trkpt lat="45.3985683" lon="9.7109217"><ele>80.0</ele><time>2026-04-26T13:18:18.92Z</time></trkpt><trkpt lat="45.398635" lon="9.7109567"><ele>80.0</ele><time>2026-04-26T13:18:20.92Z</time></trkpt><trkpt lat="45.3986917" lon="9.7108933"><ele>80.0</ele><time>2026-04-26T13:18:22.92Z</time></trkpt><trkpt lat="45.398745" lon="9.7107883"><ele>80.0</ele><time>2026-04-26T13:18:25.92Z</time></trkpt><trkpt lat="45.398825" lon="9.7107383"><ele>80.0</ele><time>2026-04-26T13:18:27.92Z</time></trkpt><trkpt lat="45.39891" lon="9.7107633"><ele>80.0</ele><time>2026-04-26T13:18:29.92Z</time></trkpt><trkpt lat="45.3989867" lon="9.7108617"><ele>80.0</ele><time>2026-04-26T13:18:31.92Z</time></trkpt><trkpt lat="45.39903" lon="9.7109417"><ele>80.0</ele><time>2026-04-26T13:18:32.92Z</time></trkpt><trkpt lat="45.399105" lon="9.711075"><ele>80.0</ele><time>2026-04-26T13:18:34.92Z</time></trkpt><trkpt lat="45.3991817" lon="9.711185"><ele>80.6</ele><time>2026-04-26T13:18:36.92Z</time></trkpt><trkpt lat="45.3992633" lon="9.7112817"><ele>81.2</ele><time>2026-04-26T13:18:38.92Z</time></trkpt><trkpt lat="45.399355" lon="9.7113783"><ele>81.80000000000001</ele><time>2026-04-26T13:18:40.92Z</time></trkpt><trkpt lat="45.3994267" lon="9.7115083"><ele>82.4</ele><time>2026-04-26T13:18:42.92Z</time></trkpt><trkpt lat="45.3994967" lon="9.7116183"><ele>83.0</ele><time>2026-04-26T13:18:44.92Z</time></trkpt><trkpt lat="45.3995733" lon="9.711735"><ele>83.0</ele><time>2026-04-26T13:18:46.92Z</time></trkpt><trkpt lat="45.39965" lon="9.7118383"><ele>83.0</ele><time>2026-04-26T13:18:48.92Z</time></trkpt><trkpt lat="45.3997417" lon="9.7119167"><ele>83.0</ele><time>2026-04-26T13:18:50.92Z</time></trkpt><trkpt lat="45.3998233" lon="9.7120217"><ele>83.0</ele><time>2026-04-26T13:18:52.92Z</time></trkpt><trkpt lat="45.3999133" lon="9.712125"><ele>83.0</ele><time>2026-04-26T13:18:54.92Z</time></trkpt><trkpt lat="45.4000083" lon="9.712215"><ele>82.60000000000001</ele><time>2026-04-26T13:18:56.92Z</time></trkpt><trkpt lat="45.4001217" lon="9.7122433"><ele>82.2</ele><time>2026-04-26T13:18:58.92Z</time></trkpt><trkpt lat="45.4002217" lon="9.7122867"><ele>81.8</ele><time>2026-04-26T13:19:00.92Z</time></trkpt><trkpt lat="45.40032" lon="9.71237"><ele>81.4</ele><time>2026-04-26T13:19:02.92Z</time></trkpt><trkpt lat="45.4004217" lon="9.7123967"><ele>81.0</ele><time>2026-04-26T13:19:04.92Z</time></trkpt><trkpt lat="45.4005133" lon="9.7124367"><ele>81.0</ele><time>2026-04-26T13:19:06.92Z</time></trkpt><trkpt lat="45.40061" lon="9.7124867"><ele>81.0</ele><time>2026-04-26T13:19:08.92Z</time></trkpt><trkpt lat="45.400705" lon="9.7125233"><ele>81.0</ele><time>2026-04-26T13:19:10.92Z</time></trkpt><trkpt lat="45.4008017" lon="9.7125367"><ele>81.0</ele><time>2026-04-26T13:19:12.92Z</time></trkpt><trkpt lat="45.4008933" lon="9.712535"><ele>81.0</ele><time>2026-04-26T13:19:14.92Z</time></trkpt><trkpt lat="45.4009717" lon="9.7125517"><ele>81.0</ele><time>2026-04-26T13:19:16.92Z</time></trkpt><trkpt lat="45.40106" lon="9.7125817"><ele>81.0</ele><time>2026-04-26T13:19:18.92Z</time></trkpt><trkpt lat="45.4011433" lon="9.7126133"><ele>81.0</ele><time>2026-04-26T13:19:20.921Z</time></trkpt><trkpt lat="45.40124" lon="9.7126433"><ele>81.0</ele><time>2026-04-26T13:19:22.92Z</time></trkpt><trkpt lat="45.4013183" lon="9.71271"><ele>81.0</ele><time>2026-04-26T13:19:24.92Z</time></trkpt><trkpt lat="45.4013467" lon="9.7128183"><ele>81.0</ele><time>2026-04-26T13:19:26.92Z</time></trkpt><trkpt lat="45.4013283" lon="9.7129217"><ele>81.0</ele><time>2026-04-26T13:19:28.92Z</time></trkpt><trkpt lat="45.40129" lon="9.7130283"><ele>81.0</ele><time>2026-04-26T13:19:32.92Z</time></trkpt><trkpt lat="45.4012667" lon="9.7131483"><ele>81.0</ele><time>2026-04-26T13:19:36.92Z</time></trkpt><trkpt lat="45.4012333" lon="9.713235"><ele>81.0</ele><time>2026-04-26T13:19:38.92Z</time></trkpt><trkpt lat="45.4012017" lon="9.713345"><ele>81.0</ele><time>2026-04-26T13:19:40.92Z</time></trkpt><trkpt lat="45.4011383" lon="9.7134533"><ele>81.0</ele><time>2026-04-26T13:19:42.92Z</time></trkpt><trkpt lat="45.4010567" lon="9.7135283"><ele>81.16666666666667</ele><time>2026-04-26T13:19:44.92Z</time></trkpt><trkpt lat="45.400975" lon="9.7135817"><ele>81.33333333333333</ele><time>2026-04-26T13:19:46.921Z</time></trkpt><trkpt lat="45.40091" lon="9.7136333"><ele>81.5</ele><time>2026-04-26T13:19:48.92Z</time></trkpt><trkpt lat="45.40089" lon="9.71372"><ele>81.66666666666666</ele><time>2026-04-26T13:19:50.92Z</time></trkpt><trkpt lat="45.4008867" lon="9.7138433"><ele>81.83333333333333</ele><time>2026-04-26T13:19:52.92Z</time></trkpt><trkpt lat="45.4008967" lon="9.713975"><ele>82.0</ele><time>2026-04-26T13:19:54.92Z</time></trkpt><trkpt lat="45.4009333" lon="9.7140983"><ele>82.0</ele><time>2026-04-26T13:19:56.92Z</time></trkpt><trkpt lat="45.4009633" lon="9.7142233"><ele>82.0</ele><time>2026-04-26T13:19:58.92Z</time></trkpt><trkpt lat="45.4010133" lon="9.7142833"><ele>82.0</ele><time>2026-04-26T13:20:00.92Z</time></trkpt><trkpt lat="45.4010783" lon="9.71428"><ele>82.0</ele><time>2026-04-26T13:20:02.92Z</time></trkpt><trkpt lat="45.401145" lon="9.7142117"><ele>82.0</ele><time>2026-04-26T13:20:04.92Z</time></trkpt><trkpt lat="45.4012183" lon="9.7141333"><ele>82.0</ele><time>2026-04-26T13:20:06.92Z</time></trkpt><trkpt lat="45.4012833" lon="9.7140283"><ele>81.8</ele><time>2026-04-26T13:20:08.92Z</time></trkpt><trkpt lat="45.4013333" lon="9.713925"><ele>81.6</ele><time>2026-04-26T13:20:10.921Z</time></trkpt><trkpt lat="45.40137" lon="9.7138033"><ele>81.39999999999999</ele><time>2026-04-26T13:20:12.92Z</time></trkpt><trkpt lat="45.4013983" lon="9.7136567"><ele>81.19999999999999</ele><time>2026-04-26T13:20:14.92Z</time></trkpt><trkpt lat="45.40144" lon="9.7135033"><ele>81.0</ele><time>2026-04-26T13:20:16.92Z</time></trkpt><trkpt lat="45.4015" lon="9.713405"><ele>81.0</ele><time>2026-04-26T13:20:18.92Z</time></trkpt><trkpt lat="45.40156" lon="9.7133083"><ele>81.0</ele><time>2026-04-26T13:20:20.92Z</time></trkpt><trkpt lat="45.4016167" lon="9.71321"><ele>81.0</ele><time>2026-04-26T13:20:22.92Z</time></trkpt><trkpt lat="45.4016967" lon="9.713155"><ele>81.0</ele><time>2026-04-26T13:20:24.92Z</time></trkpt><trkpt lat="45.4017683" lon="9.71319"><ele>81.0</ele><time>2026-04-26T13:20:26.92Z</time></trkpt><trkpt lat="45.40182" lon="9.7132533"><ele>81.0</ele><time>2026-04-26T13:20:28.92Z</time></trkpt><trkpt lat="45.4018767" lon="9.7133083"><ele>81.0</ele><time>2026-04-26T13:20:30.919Z</time></trkpt><trkpt lat="45.401945" lon="9.713395"><ele>81.0</ele><time>2026-04-26T13:20:33.919Z</time></trkpt><trkpt lat="45.4019933" lon="9.713465"><ele>81.0</ele><time>2026-04-26T13:20:35.919Z</time></trkpt><trkpt lat="45.4020567" lon="9.7135567"><ele>81.0</ele><time>2026-04-26T13:20:38.919Z</time></trkpt><trkpt lat="45.4021067" lon="9.71362"><ele>81.0</ele><time>2026-04-26T13:20:40.919Z</time></trkpt><trkpt lat="45.4021583" lon="9.713685"><ele>81.0</ele><time>2026-04-26T13:20:42.919Z</time></trkpt><trkpt lat="45.40222" lon="9.7137583"><ele>81.28571428571429</ele><time>2026-04-26T13:20:44.92Z</time></trkpt><trkpt lat="45.4022717" lon="9.7138317"><ele>81.57142857142857</ele><time>2026-04-26T13:20:46.919Z</time></trkpt><trkpt lat="45.4023167" lon="9.7139033"><ele>81.85714285714286</ele><time>2026-04-26T13:20:48.919Z</time></trkpt><trkpt lat="45.4023717" lon="9.7139783"><ele>82.14285714285714</ele><time>2026-04-26T13:20:50.919Z</time></trkpt><trkpt lat="45.40242" lon="9.7140483"><ele>82.42857142857143</ele><time>2026-04-26T13:20:52.919Z</time></trkpt><trkpt lat="45.4024683" lon="9.7141183"><ele>82.71428571428571</ele><time>2026-04-26T13:20:54.92Z</time></trkpt><trkpt lat="45.4025217" lon="9.7141833"><ele>83.0</ele><time>2026-04-26T13:20:56.919Z</time></trkpt><trkpt lat="45.4025817" lon="9.7142233"><ele>83.0</ele><time>2026-04-26T13:20:58.919Z</time></trkpt><trkpt lat="45.4026667" lon="9.71429"><ele>83.0</ele><time>2026-04-26T13:21:01.919Z</time></trkpt><trkpt lat="45.4027567" lon="9.7143467"><ele>83.0</ele><time>2026-04-26T13:21:04.919Z</time></trkpt><trkpt lat="45.40282" lon="9.71439"><ele>83.0</ele><time>2026-04-26T13:21:06.919Z</time></trkpt><trkpt lat="45.40289" lon="9.71444"><ele>83.0</ele><time>2026-04-26T13:21:08.919Z</time></trkpt><trkpt lat="45.4029467" lon="9.7144817"><ele>83.0</ele><time>2026-04-26T13:21:10.919Z</time></trkpt><trkpt lat="45.4030183" lon="9.7145417"><ele>83.0</ele><time>2026-04-26T13:21:13.919Z</time></trkpt><trkpt lat="45.4030967" lon="9.7145933"><ele>83.0</ele><time>2026-04-26T13:21:16.919Z</time></trkpt><trkpt lat="45.4031833" lon="9.71465"><ele>83.0</ele><time>2026-04-26T13:21:19.919Z</time></trkpt><trkpt lat="45.403265" lon="9.7146817"><ele>83.0</ele><time>2026-04-26T13:21:22.919Z</time></trkpt><trkpt lat="45.4033317" lon="9.7146733"><ele>83.0</ele><time>2026-04-26T13:21:25.919Z</time></trkpt><trkpt lat="45.4034317" lon="9.714725"><ele>83.0</ele><time>2026-04-26T13:21:54.919Z</time></trkpt><trkpt lat="45.4034933" lon="9.71479"><ele>83.0</ele><time>2026-04-26T13:21:57.919Z</time></trkpt><trkpt lat="45.4035517" lon="9.7149017"><ele>83.0</ele><time>2026-04-26T13:22:00.919Z</time></trkpt><trkpt lat="45.403595" lon="9.7149783"><ele>83.0</ele><time>2026-04-26T13:22:02.919Z</time></trkpt><trkpt lat="45.4036483" lon="9.715045"><ele>83.0</ele><time>2026-04-26T13:22:04.919Z</time></trkpt><trkpt lat="45.4036967" lon="9.7151383"><ele>83.0</ele><time>2026-04-26T13:22:06.919Z</time></trkpt><trkpt lat="45.4037583" lon="9.7152383"><ele>83.0</ele><time>2026-04-26T13:22:08.919Z</time></trkpt><trkpt lat="45.4038283" lon="9.71534"><ele>83.4</ele><time>2026-04-26T13:22:10.919Z</time></trkpt><trkpt lat="45.40389" lon="9.715435"><ele>83.80000000000001</ele><time>2026-04-26T13:22:12.919Z</time></trkpt><trkpt lat="45.4039667" lon="9.7155217"><ele>84.2</ele><time>2026-04-26T13:22:14.919Z</time></trkpt><trkpt lat="45.4040567" lon="9.7155917"><ele>84.6</ele><time>2026-04-26T13:22:16.919Z</time></trkpt><trkpt lat="45.4041417" lon="9.715655"><ele>85.0</ele><time>2026-04-26T13:22:18.919Z</time></trkpt><trkpt lat="45.4042183" lon="9.7157433"><ele>85.0</ele><time>2026-04-26T13:22:20.919Z</time></trkpt><trkpt lat="45.4042733" lon="9.7158817"><ele>85.0</ele><time>2026-04-26T13:22:22.92Z</time></trkpt><trkpt lat="45.404305" lon="9.716035"><ele>85.0</ele><time>2026-04-26T13:22:24.919Z</time></trkpt><trkpt lat="45.40435" lon="9.7161917"><ele>85.0</ele><time>2026-04-26T13:22:26.919Z</time></trkpt><trkpt lat="45.4043817" lon="9.71634"><ele>85.0</ele><time>2026-04-26T13:22:28.919Z</time></trkpt><trkpt lat="45.4044067" lon="9.7164717"><ele>85.0</ele><time>2026-04-26T13:22:30.919Z</time></trkpt><trkpt lat="45.4044083" lon="9.7165733"><ele>85.0</ele><time>2026-04-26T13:22:32.919Z</time></trkpt><trkpt lat="45.4044817" lon="9.7165333"><ele>85.0</ele><time>2026-04-26T13:22:40.919Z</time></trkpt><trkpt lat="45.404525" lon="9.7164483"><ele>85.0</ele><time>2026-04-26T13:22:43.919Z</time></trkpt><trkpt lat="45.4045767" lon="9.7163683"><ele>85.0</ele><time>2026-04-26T13:22:45.919Z</time></trkpt><trkpt lat="45.40465" lon="9.7162667"><ele>84.83333333333333</ele><time>2026-04-26T13:22:47.919Z</time></trkpt><trkpt lat="45.404715" lon="9.716145"><ele>84.66666666666666</ele><time>2026-04-26T13:22:49.919Z</time></trkpt><trkpt lat="45.4047883" lon="9.7160633"><ele>84.5</ele><time>2026-04-26T13:22:51.919Z</time></trkpt><trkpt lat="45.404845" lon="9.7160233"><ele>84.33333333333333</ele><time>2026-04-26T13:22:53.919Z</time></trkpt><trkpt lat="45.4049117" lon="9.716035"><ele>84.16666666666667</ele><time>2026-04-26T13:22:59.919Z</time></trkpt><trkpt lat="45.4049933" lon="9.71602"><ele>84.0</ele><time>2026-04-26T13:23:02.919Z</time></trkpt><trkpt lat="45.4050833" lon="9.71605"><ele>84.16666666666667</ele><time>2026-04-26T13:23:05.919Z</time></trkpt><trkpt lat="45.4051333" lon="9.7161433"><ele>84.33333333333333</ele><time>2026-04-26T13:23:07.92Z</time></trkpt><trkpt lat="45.4051817" lon="9.716245"><ele>84.5</ele><time>2026-04-26T13:23:09.919Z</time></trkpt><trkpt lat="45.4052483" lon="9.716285"><ele>84.66666666666666</ele><time>2026-04-26T13:23:11.919Z</time></trkpt><trkpt lat="45.405345" lon="9.7163317"><ele>84.83333333333333</ele><time>2026-04-26T13:23:14.919Z</time></trkpt><trkpt lat="45.4054233" lon="9.7164067"><ele>85.0</ele><time>2026-04-26T13:23:16.919Z</time></trkpt><trkpt lat="45.4055033" lon="9.7164633"><ele>85.0</ele><time>2026-04-26T13:23:18.919Z</time></trkpt><trkpt lat="45.4055933" lon="9.71654"><ele>85.0</ele><time>2026-04-26T13:23:20.919Z</time></trkpt><trkpt lat="45.4056633" lon="9.7165883"><ele>85.0</ele><time>2026-04-26T13:23:22.919Z</time></trkpt><trkpt lat="45.4057517" lon="9.7166233"><ele>85.0</ele><time>2026-04-26T13:23:24.919Z</time></trkpt><trkpt lat="45.4058433" lon="9.7166817"><ele>85.0</ele><time>2026-04-26T13:23:26.919Z</time></trkpt><trkpt lat="45.4059317" lon="9.7167767"><ele>85.0</ele><time>2026-04-26T13:23:28.92Z</time></trkpt><trkpt lat="45.4060033" lon="9.7168917"><ele>85.0</ele><time>2026-04-26T13:23:30.919Z</time></trkpt><trkpt lat="45.40609" lon="9.7169917"><ele>85.0</ele><time>2026-04-26T13:23:32.92Z</time></trkpt><trkpt lat="45.40616" lon="9.717085"><ele>85.0</ele><time>2026-04-26T13:23:34.919Z</time></trkpt><trkpt lat="45.40621" lon="9.7172083"><ele>85.0</ele><time>2026-04-26T13:23:36.919Z</time></trkpt><trkpt lat="45.4062467" lon="9.717335"><ele>85.0</ele><time>2026-04-26T13:23:38.919Z</time></trkpt><trkpt lat="45.4063033" lon="9.71742"><ele>85.0</ele><time>2026-04-26T13:23:40.919Z</time></trkpt><trkpt lat="45.4063783" lon="9.7175217"><ele>85.0</ele><time>2026-04-26T13:23:42.919Z</time></trkpt><trkpt lat="45.4064533" lon="9.7176667"><ele>85.0</ele><time>2026-04-26T13:23:44.919Z</time></trkpt><trkpt lat="45.406495" lon="9.7177383"><ele>85.0</ele><time>2026-04-26T13:23:45.919Z</time></trkpt><trkpt lat="45.4065717" lon="9.7178583"><ele>85.0</ele><time>2026-04-26T13:23:47.919Z</time></trkpt><trkpt lat="45.406645" lon="9.7180017"><ele>85.0</ele><time>2026-04-26T13:23:49.919Z</time></trkpt><trkpt lat="45.4067167" lon="9.7181383"><ele>85.0</ele><time>2026-04-26T13:23:51.919Z</time></trkpt><trkpt lat="45.4067933" lon="9.7182583"><ele>85.0</ele><time>2026-04-26T13:23:53.919Z</time></trkpt><trkpt lat="45.4068733" lon="9.71836"><ele>85.0</ele><time>2026-04-26T13:23:55.919Z</time></trkpt><trkpt lat="45.4069417" lon="9.7184483"><ele>85.0</ele><time>2026-04-26T13:23:57.919Z</time></trkpt><trkpt lat="45.40702" lon="9.7185317"><ele>85.0</ele><time>2026-04-26T13:23:59.919Z</time></trkpt><trkpt lat="45.4070617" lon="9.7186517"><ele>85.0</ele><time>2026-04-26T13:24:01.919Z</time></trkpt><trkpt lat="45.4071" lon="9.71877"><ele>85.0</ele><time>2026-04-26T13:24:03.919Z</time></trkpt><trkpt lat="45.407145" lon="9.7188767"><ele>84.5</ele><time>2026-04-26T13:24:05.919Z</time></trkpt><trkpt lat="45.407235" lon="9.7189367"><ele>84.0</ele><time>2026-04-26T13:24:08.919Z</time></trkpt><trkpt lat="45.4073083" lon="9.7189417"><ele>83.5</ele><time>2026-04-26T13:24:10.919Z</time></trkpt><trkpt lat="45.407385" lon="9.71894"><ele>83.0</ele><time>2026-04-26T13:24:12.919Z</time></trkpt><trkpt lat="45.4074717" lon="9.7189433"><ele>82.5</ele><time>2026-04-26T13:24:14.919Z</time></trkpt><trkpt lat="45.40756" lon="9.7189383"><ele>82.0</ele><time>2026-04-26T13:24:16.919Z</time></trkpt><trkpt lat="45.4076517" lon="9.7189167"><ele>82.0</ele><time>2026-04-26T13:24:18.919Z</time></trkpt><trkpt lat="45.40775" lon="9.718895"><ele>82.0</ele><time>2026-04-26T13:24:20.919Z</time></trkpt><trkpt lat="45.4078367" lon="9.71886"><ele>82.0</ele><time>2026-04-26T13:24:22.918Z</time></trkpt><trkpt lat="45.4079217" lon="9.7188067"><ele>82.0</ele><time>2026-04-26T13:24:24.918Z</time></trkpt><trkpt lat="45.4080083" lon="9.7187783"><ele>82.0</ele><time>2026-04-26T13:24:26.918Z</time></trkpt><trkpt lat="45.4080933" lon="9.7187333"><ele>82.19999999999999</ele><time>2026-04-26T13:24:28.918Z</time></trkpt><trkpt lat="45.4081717" lon="9.718675"><ele>82.4</ele><time>2026-04-26T13:24:30.918Z</time></trkpt><trkpt lat="45.4082517" lon="9.7186017"><ele>82.6</ele><time>2026-04-26T13:24:32.918Z</time></trkpt><trkpt lat="45.4083233" lon="9.718525"><ele>82.80000000000001</ele><time>2026-04-26T13:24:34.919Z</time></trkpt><trkpt lat="45.4084133" lon="9.7184483"><ele>83.0</ele><time>2026-04-26T13:24:36.918Z</time></trkpt><trkpt lat="45.4085033" lon="9.7183667"><ele>82.80000000000001</ele><time>2026-04-26T13:24:38.918Z</time></trkpt><trkpt lat="45.408585" lon="9.7182767"><ele>82.6</ele><time>2026-04-26T13:24:40.918Z</time></trkpt><trkpt lat="45.4086633" lon="9.7181883"><ele>82.4</ele><time>2026-04-26T13:24:42.918Z</time></trkpt><trkpt lat="45.408735" lon="9.7181117"><ele>82.19999999999999</ele><time>2026-04-26T13:24:44.918Z</time></trkpt><trkpt lat="45.4088067" lon="9.71804"><ele>82.0</ele><time>2026-04-26T13:24:46.918Z</time></trkpt><trkpt lat="45.408865" lon="9.717965"><ele>82.0</ele><time>2026-04-26T13:24:48.918Z</time></trkpt><trkpt lat="45.4089267" lon="9.7178933"><ele>82.0</ele><time>2026-04-26T13:24:50.918Z</time></trkpt><trkpt lat="45.409" lon="9.7178117"><ele>82.0</ele><time>2026-04-26T13:24:52.918Z</time></trkpt><trkpt lat="45.4090783" lon="9.7177317"><ele>82.0</ele><time>2026-04-26T13:24:54.918Z</time></trkpt><trkpt lat="45.4091583" lon="9.7176567"><ele>82.0</ele><time>2026-04-26T13:24:56.918Z</time></trkpt><trkpt lat="45.4092417" lon="9.7175933"><ele>82.0</ele><time>2026-04-26T13:24:58.918Z</time></trkpt><trkpt lat="45.40934" lon="9.717525"><ele>82.0</ele><time>2026-04-26T13:25:00.918Z</time></trkpt><trkpt lat="45.40943" lon="9.71745"><ele>82.0</ele><time>2026-04-26T13:25:02.918Z</time></trkpt><trkpt lat="45.4095283" lon="9.71737"><ele>82.0</ele><time>2026-04-26T13:25:04.918Z</time></trkpt><trkpt lat="45.4096217" lon="9.7173"><ele>82.0</ele><time>2026-04-26T13:25:06.918Z</time></trkpt><trkpt lat="45.4097033" lon="9.71721"><ele>82.19999999999999</ele><time>2026-04-26T13:25:08.918Z</time></trkpt><trkpt lat="45.4097917" lon="9.7171183"><ele>82.4</ele><time>2026-04-26T13:25:10.918Z</time></trkpt><trkpt lat="45.4098733" lon="9.7170233"><ele>82.6</ele><time>2026-04-26T13:25:12.918Z</time></trkpt><trkpt lat="45.40995" lon="9.7169267"><ele>82.80000000000001</ele><time>2026-04-26T13:25:14.918Z</time></trkpt><trkpt lat="45.4100417" lon="9.7168817"><ele>83.0</ele><time>2026-04-26T13:25:16.918Z</time></trkpt><trkpt lat="45.41014" lon="9.7168883"><ele>83.0</ele><time>2026-04-26T13:25:18.918Z</time></trkpt><trkpt lat="45.410235" lon="9.716915"><ele>83.0</ele><time>2026-04-26T13:25:20.918Z</time></trkpt><trkpt lat="45.4103" lon="9.7169633"><ele>83.0</ele><time>2026-04-26T13:25:22.918Z</time></trkpt><trkpt lat="45.4103633" lon="9.7168983"><ele>83.0</ele><time>2026-04-26T13:25:25.918Z</time></trkpt><trkpt lat="45.4103567" lon="9.7167983"><ele>83.0</ele><time>2026-04-26T13:25:27.918Z</time></trkpt><trkpt lat="45.4103483" lon="9.7166783"><ele>83.0</ele><time>2026-04-26T13:25:29.918Z</time></trkpt><trkpt lat="45.410335" lon="9.7165583"><ele>83.0</ele><time>2026-04-26T13:25:31.918Z</time></trkpt><trkpt lat="45.4103233" lon="9.716435"><ele>83.0</ele><time>2026-04-26T13:25:33.918Z</time></trkpt><trkpt lat="45.4103167" lon="9.71629"><ele>83.0</ele><time>2026-04-26T13:25:35.918Z</time></trkpt><trkpt lat="45.41031" lon="9.716145"><ele>83.0</ele><time>2026-04-26T13:25:37.918Z</time></trkpt><trkpt lat="45.410305" lon="9.716"><ele>83.0</ele><time>2026-04-26T13:25:39.918Z</time></trkpt><trkpt lat="45.4102933" lon="9.71585"><ele>83.0</ele><time>2026-04-26T13:25:41.919Z</time></trkpt><trkpt lat="45.4102783" lon="9.7157"><ele>83.0</ele><time>2026-04-26T13:25:43.918Z</time></trkpt><trkpt lat="45.4102717" lon="9.715555"><ele>83.0</ele><time>2026-04-26T13:25:45.918Z</time></trkpt><trkpt lat="45.4102717" lon="9.7154183"><ele>83.0</ele><time>2026-04-26T13:25:47.918Z</time></trkpt><trkpt lat="45.4102933" lon="9.7152817"><ele>83.0</ele><time>2026-04-26T13:25:49.918Z</time></trkpt><trkpt lat="45.41035" lon="9.71519"><ele>82.80000000000001</ele><time>2026-04-26T13:25:51.918Z</time></trkpt><trkpt lat="45.41044" lon="9.7151583"><ele>82.6</ele><time>2026-04-26T13:25:53.918Z</time></trkpt><trkpt lat="45.4105283" lon="9.7151183"><ele>82.4</ele><time>2026-04-26T13:25:55.918Z</time></trkpt><trkpt lat="45.4105867" lon="9.715025"><ele>82.19999999999999</ele><time>2026-04-26T13:25:57.919Z</time></trkpt><trkpt lat="45.4106167" lon="9.7148967"><ele>82.0</ele><time>2026-04-26T13:25:59.918Z</time></trkpt><trkpt lat="45.4106683" lon="9.71478"><ele>83.19999999999999</ele><time>2026-04-26T13:26:01.918Z</time></trkpt><trkpt lat="45.41076" lon="9.7147367"><ele>84.4</ele><time>2026-04-26T13:26:03.918Z</time></trkpt><trkpt lat="45.41087" lon="9.7147417"><ele>85.6</ele><time>2026-04-26T13:26:05.918Z</time></trkpt><trkpt lat="45.41098" lon="9.7147383"><ele>86.80000000000001</ele><time>2026-04-26T13:26:07.918Z</time></trkpt><trkpt lat="45.4110883" lon="9.7147317"><ele>88.0</ele><time>2026-04-26T13:26:09.918Z</time></trkpt><trkpt lat="45.4111933" lon="9.714735"><ele>88.0</ele><time>2026-04-26T13:26:11.918Z</time></trkpt><trkpt lat="45.411295" lon="9.71473"><ele>88.0</ele><time>2026-04-26T13:26:13.918Z</time></trkpt><trkpt lat="45.411405" lon="9.7147467"><ele>88.0</ele><time>2026-04-26T13:26:15.918Z</time></trkpt><trkpt lat="45.411505" lon="9.7147333"><ele>88.0</ele><time>2026-04-26T13:26:17.918Z</time></trkpt><trkpt lat="45.4116" lon="9.71472"><ele>88.0</ele><time>2026-04-26T13:26:19.918Z</time></trkpt><trkpt lat="45.4116867" lon="9.714715"><ele>87.66666666666666</ele><time>2026-04-26T13:26:21.919Z</time></trkpt><trkpt lat="45.4117567" lon="9.7147033"><ele>87.33333333333333</ele><time>2026-04-26T13:26:23.918Z</time></trkpt><trkpt lat="45.411825" lon="9.7146917"><ele>87.0</ele><time>2026-04-26T13:26:25.918Z</time></trkpt><trkpt lat="45.411905" lon="9.714685"><ele>86.66666666666667</ele><time>2026-04-26T13:26:27.918Z</time></trkpt><trkpt lat="45.4119933" lon="9.7146917"><ele>86.33333333333334</ele><time>2026-04-26T13:26:29.918Z</time></trkpt><trkpt lat="45.4120767" lon="9.7146933"><ele>86.0</ele><time>2026-04-26T13:26:31.918Z</time></trkpt><trkpt lat="45.4121633" lon="9.7146967"><ele>85.66666666666667</ele><time>2026-04-26T13:26:33.918Z</time></trkpt><trkpt lat="45.4122417" lon="9.7146917"><ele>85.33333333333334</ele><time>2026-04-26T13:26:35.918Z</time></trkpt><trkpt lat="45.412325" lon="9.7146933"><ele>85.0</ele><time>2026-04-26T13:26:38.918Z</time></trkpt><trkpt lat="45.41237" lon="9.71478"><ele>84.66666666666667</ele><time>2026-04-26T13:26:42.918Z</time></trkpt><trkpt lat="45.4123867" lon="9.7148933"><ele>84.33333333333333</ele><time>2026-04-26T13:26:45.918Z</time></trkpt><trkpt lat="45.4124117" lon="9.71501"><ele>84.0</ele><time>2026-04-26T13:26:48.919Z</time></trkpt><trkpt lat="45.412475" lon="9.7149667"><ele>84.0</ele><time>2026-04-26T13:26:54.918Z</time></trkpt><trkpt lat="45.4124733" lon="9.7148717"><ele>84.0</ele><time>2026-04-26T13:26:57.918Z</time></trkpt><trkpt lat="45.412475" lon="9.7147617"><ele>84.0</ele><time>2026-04-26T13:27:00.918Z</time></trkpt><trkpt lat="45.4124983" lon="9.7146717"><ele>84.0</ele><time>2026-04-26T13:27:03.918Z</time></trkpt><trkpt lat="45.4125333" lon="9.7145767"><ele>84.0</ele><time>2026-04-26T13:27:06.918Z</time></trkpt><trkpt lat="45.4125433" lon="9.714445"><ele>84.0</ele><time>2026-04-26T13:27:09.919Z</time></trkpt><trkpt lat="45.41253" lon="9.7143383"><ele>84.0</ele><time>2026-04-26T13:27:11.918Z</time></trkpt><trkpt lat="45.41252" lon="9.7142233"><ele>84.0</ele><time>2026-04-26T13:27:13.918Z</time></trkpt><trkpt lat="45.41251" lon="9.714105"><ele>84.0</ele><time>2026-04-26T13:27:15.919Z</time></trkpt><trkpt lat="45.4125" lon="9.7139833"><ele>84.0</ele><time>2026-04-26T13:27:17.918Z</time></trkpt><trkpt lat="45.4124883" lon="9.7138467"><ele>84.0</ele><time>2026-04-26T13:27:19.918Z</time></trkpt><trkpt lat="45.4124733" lon="9.71371"><ele>84.0</ele><time>2026-04-26T13:27:21.918Z</time></trkpt><trkpt lat="45.4124583" lon="9.7135667"><ele>84.0</ele><time>2026-04-26T13:27:23.918Z</time></trkpt><trkpt lat="45.4124467" lon="9.7134233"><ele>84.0</ele><time>2026-04-26T13:27:25.918Z</time></trkpt><trkpt lat="45.41243" lon="9.7132817"><ele>84.0</ele><time>2026-04-26T13:27:27.918Z</time></trkpt><trkpt lat="45.4124233" lon="9.713145"><ele>84.0</ele><time>2026-04-26T13:27:29.918Z</time></trkpt><trkpt lat="45.412425" lon="9.7129967"><ele>84.0</ele><time>2026-04-26T13:27:31.918Z</time></trkpt><trkpt lat="45.4124183" lon="9.7128517"><ele>84.0</ele><time>2026-04-26T13:27:33.918Z</time></trkpt><trkpt lat="45.4124267" lon="9.7127617"><ele>84.0</ele><time>2026-04-26T13:27:34.918Z</time></trkpt><trkpt lat="45.41243" lon="9.7126667"><ele>84.0</ele><time>2026-04-26T13:27:35.918Z</time></trkpt><trkpt lat="45.4124333" lon="9.71257"><ele>84.0</ele><time>2026-04-26T13:27:36.918Z</time></trkpt><trkpt lat="45.4124417" lon="9.71247"><ele>84.0</ele><time>2026-04-26T13:27:37.918Z</time></trkpt><trkpt lat="45.412465" lon="9.712375"><ele>84.0</ele><time>2026-04-26T13:27:38.918Z</time></trkpt><trkpt lat="45.4125033" lon="9.71229"><ele>84.0</ele><time>2026-04-26T13:27:39.918Z</time></trkpt><trkpt lat="45.4125433" lon="9.71222"><ele>83.80000000000001</ele><time>2026-04-26T13:27:40.918Z</time></trkpt><trkpt lat="45.4125917" lon="9.7121517"><ele>83.60000000000001</ele><time>2026-04-26T13:27:41.918Z</time></trkpt><trkpt lat="45.41268" lon="9.7120383"><ele>83.4</ele><time>2026-04-26T13:27:43.918Z</time></trkpt><trkpt lat="45.4127567" lon="9.711925"><ele>83.2</ele><time>2026-04-26T13:27:45.918Z</time></trkpt><trkpt lat="45.4128283" lon="9.7118233"><ele>83.0</ele><time>2026-04-26T13:27:47.918Z</time></trkpt><trkpt lat="45.4129033" lon="9.7117167"><ele>82.5</ele><time>2026-04-26T13:27:49.918Z</time></trkpt><trkpt lat="45.412985" lon="9.711605"><ele>82.0</ele><time>2026-04-26T13:27:51.918Z</time></trkpt><trkpt lat="45.413065" lon="9.7114933"><ele>81.5</ele><time>2026-04-26T13:27:53.918Z</time></trkpt><trkpt lat="45.4131483" lon="9.7113867"><ele>81.0</ele><time>2026-04-26T13:27:55.918Z</time></trkpt><trkpt lat="45.4132367" lon="9.7112767"><ele>82.0</ele><time>2026-04-26T13:27:57.918Z</time></trkpt><trkpt lat="45.4133317" lon="9.711195"><ele>83.0</ele><time>2026-04-26T13:27:59.918Z</time></trkpt><trkpt lat="45.41343" lon="9.7111683"><ele>84.0</ele><time>2026-04-26T13:28:01.918Z</time></trkpt><trkpt lat="45.4135317" lon="9.711165"><ele>85.0</ele><time>2026-04-26T13:28:03.918Z</time></trkpt><trkpt lat="45.4136333" lon="9.711195"><ele>86.0</ele><time>2026-04-26T13:28:05.918Z</time></trkpt><trkpt lat="45.4137217" lon="9.7112117"><ele>86.0</ele><time>2026-04-26T13:28:07.918Z</time></trkpt><trkpt lat="45.4138083" lon="9.7111733"><ele>86.0</ele><time>2026-04-26T13:28:09.918Z</time></trkpt><trkpt lat="45.4138917" lon="9.711095"><ele>86.0</ele><time>2026-04-26T13:28:11.917Z</time></trkpt><trkpt lat="45.4139717" lon="9.7109967"><ele>86.0</ele><time>2026-04-26T13:28:13.917Z</time></trkpt><trkpt lat="45.41406" lon="9.710895"><ele>86.0</ele><time>2026-04-26T13:28:15.917Z</time></trkpt><trkpt lat="45.414145" lon="9.710815"><ele>86.19999999999999</ele><time>2026-04-26T13:28:17.918Z</time></trkpt><trkpt lat="45.4142467" lon="9.7107767"><ele>86.39999999999999</ele><time>2026-04-26T13:28:19.917Z</time></trkpt><trkpt lat="45.414355" lon="9.710755"><ele>86.6</ele><time>2026-04-26T13:28:21.917Z</time></trkpt><trkpt lat="45.4144567" lon="9.7107217"><ele>86.8</ele><time>2026-04-26T13:28:23.917Z</time></trkpt><trkpt lat="45.4145783" lon="9.7107067"><ele>87.0</ele><time>2026-04-26T13:28:25.917Z</time></trkpt><trkpt lat="45.4146917" lon="9.710685"><ele>86.6</ele><time>2026-04-26T13:28:27.917Z</time></trkpt><trkpt lat="45.4148067" lon="9.710665"><ele>86.19999999999999</ele><time>2026-04-26T13:28:29.917Z</time></trkpt><trkpt lat="45.414925" lon="9.7106517"><ele>85.8</ele><time>2026-04-26T13:28:31.917Z</time></trkpt><trkpt lat="45.415025" lon="9.7107017"><ele>85.4</ele><time>2026-04-26T13:28:33.917Z</time></trkpt><trkpt lat="45.4150983" lon="9.7108067"><ele>85.0</ele><time>2026-04-26T13:28:35.917Z</time></trkpt><trkpt lat="45.4151767" lon="9.710915"><ele>85.0</ele><time>2026-04-26T13:28:37.917Z</time></trkpt><trkpt lat="45.4152467" lon="9.7110367"><ele>85.0</ele><time>2026-04-26T13:28:39.917Z</time></trkpt><trkpt lat="45.4153167" lon="9.71116"><ele>85.0</ele><time>2026-04-26T13:28:41.918Z</time></trkpt><trkpt lat="45.415385" lon="9.7113017"><ele>85.0</ele><time>2026-04-26T13:28:43.918Z</time></trkpt><trkpt lat="45.4154517" lon="9.7114517"><ele>84.6</ele><time>2026-04-26T13:28:45.917Z</time></trkpt><trkpt lat="45.4155133" lon="9.7115967"><ele>84.2</ele><time>2026-04-26T13:28:47.917Z</time></trkpt><trkpt lat="45.415555" lon="9.7116667"><ele>83.80000000000001</ele><time>2026-04-26T13:28:48.917Z</time></trkpt><trkpt lat="45.4156317" lon="9.7117833"><ele>83.4</ele><time>2026-04-26T13:28:50.917Z</time></trkpt><trkpt lat="45.415705" lon="9.7118767"><ele>83.0</ele><time>2026-04-26T13:28:52.917Z</time></trkpt><trkpt lat="45.415785" lon="9.71196"><ele>82.75</ele><time>2026-04-26T13:28:54.917Z</time></trkpt><trkpt lat="45.4158817" lon="9.71204"><ele>82.5</ele><time>2026-04-26T13:28:56.917Z</time></trkpt><trkpt lat="45.415985" lon="9.7121217"><ele>82.25</ele><time>2026-04-26T13:28:58.917Z</time></trkpt><trkpt lat="45.4160883" lon="9.7121883"><ele>82.0</ele><time>2026-04-26T13:29:00.917Z</time></trkpt><trkpt lat="45.4161983" lon="9.7122533"><ele>82.0</ele><time>2026-04-26T13:29:02.917Z</time></trkpt><trkpt lat="45.4163083" lon="9.712315"><ele>82.0</ele><time>2026-04-26T13:29:04.917Z</time></trkpt><trkpt lat="45.41642" lon="9.7123633"><ele>82.0</ele><time>2026-04-26T13:29:06.917Z</time></trkpt><trkpt lat="45.4165417" lon="9.7124117"><ele>82.0</ele><time>2026-04-26T13:29:08.918Z</time></trkpt><trkpt lat="45.4166083" lon="9.712435"><ele>82.0</ele><time>2026-04-26T13:29:09.917Z</time></trkpt><trkpt lat="45.41667" lon="9.7124567"><ele>81.99999999999999</ele><time>2026-04-26T13:29:10.917Z</time></trkpt><trkpt lat="45.4167367" lon="9.7124767"><ele>82.0</ele><time>2026-04-26T13:29:11.918Z</time></trkpt><trkpt lat="45.4168" lon="9.712495"><ele>82.0</ele><time>2026-04-26T13:29:12.917Z</time></trkpt><trkpt lat="45.41687" lon="9.7125117"><ele>82.0</ele><time>2026-04-26T13:29:13.917Z</time></trkpt><trkpt lat="45.416935" lon="9.7125333"><ele>82.0</ele><time>2026-04-26T13:29:14.917Z</time></trkpt><trkpt lat="45.4170017" lon="9.7125417"><ele>81.99999999999999</ele><time>2026-04-26T13:29:15.917Z</time></trkpt><trkpt lat="45.4170667" lon="9.7125533"><ele>82.0</ele><time>2026-04-26T13:29:16.917Z</time></trkpt><trkpt lat="45.417195" lon="9.7125583"><ele>81.83333333333333</ele><time>2026-04-26T13:29:18.917Z</time></trkpt><trkpt lat="45.4172633" lon="9.7125617"><ele>81.66666666666666</ele><time>2026-04-26T13:29:19.917Z</time></trkpt><trkpt lat="45.4173283" lon="9.7125633"><ele>81.5</ele><time>2026-04-26T13:29:20.917Z</time></trkpt><trkpt lat="45.4174567" lon="9.71258"><ele>81.33333333333333</ele><time>2026-04-26T13:29:22.917Z</time></trkpt><trkpt lat="45.417525" lon="9.7125833"><ele>81.16666666666667</ele><time>2026-04-26T13:29:23.917Z</time></trkpt><trkpt lat="45.4175883" lon="9.7125933"><ele>81.0</ele><time>2026-04-26T13:29:24.917Z</time></trkpt><trkpt lat="45.417705" lon="9.7126333"><ele>81.0</ele><time>2026-04-26T13:29:26.917Z</time></trkpt><trkpt lat="45.4178167" lon="9.7127017"><ele>81.0</ele><time>2026-04-26T13:29:28.917Z</time></trkpt><trkpt lat="45.4179133" lon="9.7128133"><ele>81.0</ele><time>2026-04-26T13:29:30.917Z</time></trkpt><trkpt lat="45.4180083" lon="9.7129367"><ele>81.0</ele><time>2026-04-26T13:29:32.917Z</time></trkpt><trkpt lat="45.418055" lon="9.7130067"><ele>81.0</ele><time>2026-04-26T13:29:33.917Z</time></trkpt><trkpt lat="45.4180983" lon="9.713075"><ele>81.14285714285714</ele><time>2026-04-26T13:29:34.917Z</time></trkpt><trkpt lat="45.41815" lon="9.713135"><ele>81.28571428571428</ele><time>2026-04-26T13:29:35.917Z</time></trkpt><trkpt lat="45.4181983" lon="9.713205"><ele>81.42857142857142</ele><time>2026-04-26T13:29:36.918Z</time></trkpt><trkpt lat="45.4182483" lon="9.71327"><ele>81.57142857142857</ele><time>2026-04-26T13:29:37.917Z</time></trkpt><trkpt lat="45.4183033" lon="9.7133283"><ele>81.71428571428571</ele><time>2026-04-26T13:29:38.917Z</time></trkpt><trkpt lat="45.4183583" lon="9.713385"><ele>81.85714285714285</ele><time>2026-04-26T13:29:39.917Z</time></trkpt><trkpt lat="45.4184133" lon="9.7134367"><ele>82.0</ele><time>2026-04-26T13:29:40.917Z</time></trkpt><trkpt lat="45.4184667" lon="9.7134883"><ele>81.99999999999999</ele><time>2026-04-26T13:29:41.917Z</time></trkpt><trkpt lat="45.4185217" lon="9.7135483"><ele>82.0</ele><time>2026-04-26T13:29:42.917Z</time></trkpt><trkpt lat="45.4185733" lon="9.71361"><ele>82.0</ele><time>2026-04-26T13:29:43.917Z</time></trkpt><trkpt lat="45.4186167" lon="9.7136783"><ele>82.0</ele><time>2026-04-26T13:29:44.918Z</time></trkpt><trkpt lat="45.4186533" lon="9.7137567"><ele>82.0</ele><time>2026-04-26T13:29:45.917Z</time></trkpt><trkpt lat="45.4186817" lon="9.7138383"><ele>81.99999999999999</ele><time>2026-04-26T13:29:46.917Z</time></trkpt><trkpt lat="45.418705" lon="9.7139267"><ele>82.0</ele><time>2026-04-26T13:29:47.917Z</time></trkpt><trkpt lat="45.4187317" lon="9.7140117"><ele>82.0</ele><time>2026-04-26T13:29:48.917Z</time></trkpt><trkpt lat="45.418755" lon="9.7141"><ele>82.0</ele><time>2026-04-26T13:29:49.917Z</time></trkpt><trkpt lat="45.41879" lon="9.7141833"><ele>82.0</ele><time>2026-04-26T13:29:50.918Z</time></trkpt><trkpt lat="45.41883" lon="9.7142567"><ele>82.0</ele><time>2026-04-26T13:29:51.917Z</time></trkpt><trkpt lat="45.4188783" lon="9.7143183"><ele>82.0</ele><time>2026-04-26T13:29:52.917Z</time></trkpt><trkpt lat="45.41893" lon="9.7143833"><ele>82.0</ele><time>2026-04-26T13:29:53.917Z</time></trkpt><trkpt lat="45.4190217" lon="9.7144967"><ele>82.16666666666666</ele><time>2026-04-26T13:29:55.917Z</time></trkpt><trkpt lat="45.41907" lon="9.71456"><ele>82.33333333333333</ele><time>2026-04-26T13:29:56.917Z</time></trkpt><trkpt lat="45.4191217" lon="9.7146233"><ele>82.5</ele><time>2026-04-26T13:29:57.917Z</time></trkpt><trkpt lat="45.4191767" lon="9.7146833"><ele>82.66666666666667</ele><time>2026-04-26T13:29:58.917Z</time></trkpt><trkpt lat="45.419225" lon="9.7147417"><ele>82.83333333333334</ele><time>2026-04-26T13:29:59.917Z</time></trkpt><trkpt lat="45.4192733" lon="9.7148"><ele>83.0</ele><time>2026-04-26T13:30:00.917Z</time></trkpt><trkpt lat="45.4193717" lon="9.7149167"><ele>83.0</ele><time>2026-04-26T13:30:02.917Z</time></trkpt><trkpt lat="45.41942" lon="9.714975"><ele>83.0</ele><time>2026-04-26T13:30:03.917Z</time></trkpt><trkpt lat="45.4194733" lon="9.7150383"><ele>83.0</ele><time>2026-04-26T13:30:04.917Z</time></trkpt><trkpt lat="45.4195267" lon="9.7151"><ele>83.0</ele><time>2026-04-26T13:30:05.917Z</time></trkpt><trkpt lat="45.4195783" lon="9.71516"><ele>83.0</ele><time>2026-04-26T13:30:06.917Z</time></trkpt><trkpt lat="45.41963" lon="9.7152133"><ele>83.0</ele><time>2026-04-26T13:30:07.917Z</time></trkpt><trkpt lat="45.4197267" lon="9.7153183"><ele>83.0</ele><time>2026-04-26T13:30:09.917Z</time></trkpt><trkpt lat="45.4198233" lon="9.715385"><ele>83.0</ele><time>2026-04-26T13:30:11.917Z</time></trkpt><trkpt lat="45.4199283" lon="9.715405"><ele>83.0</ele><time>2026-04-26T13:30:13.917Z</time></trkpt><trkpt lat="45.42004" lon="9.7153817"><ele>83.0</ele><time>2026-04-26T13:30:15.917Z</time></trkpt><trkpt lat="45.4201567" lon="9.715365"><ele>83.0</ele><time>2026-04-26T13:30:17.917Z</time></trkpt><trkpt lat="45.4202833" lon="9.71535"><ele>83.0</ele><time>2026-04-26T13:30:19.917Z</time></trkpt><trkpt lat="45.420405" lon="9.7153267"><ele>83.0</ele><time>2026-04-26T13:30:21.917Z</time></trkpt><trkpt lat="45.420475" lon="9.7153167"><ele>83.0</ele><time>2026-04-26T13:30:22.917Z</time></trkpt><trkpt lat="45.4205417" lon="9.7153067"><ele>83.0</ele><time>2026-04-26T13:30:23.918Z</time></trkpt><trkpt lat="45.420605" lon="9.7153"><ele>83.0</ele><time>2026-04-26T13:30:24.918Z</time></trkpt><trkpt lat="45.4206767" lon="9.71529"><ele>83.0</ele><time>2026-04-26T13:30:25.917Z</time></trkpt><trkpt lat="45.4208" lon="9.7152717"><ele>83.14285714285714</ele><time>2026-04-26T13:30:27.917Z</time></trkpt><trkpt lat="45.4208667" lon="9.71527"><ele>83.28571428571429</ele><time>2026-04-26T13:30:28.917Z</time></trkpt><trkpt lat="45.420935" lon="9.715265"><ele>83.42857142857143</ele><time>2026-04-26T13:30:29.917Z</time></trkpt><trkpt lat="45.4209983" lon="9.71526"><ele>83.57142857142857</ele><time>2026-04-26T13:30:30.917Z</time></trkpt><trkpt lat="45.421065" lon="9.7152583"><ele>83.71428571428572</ele><time>2026-04-26T13:30:31.917Z</time></trkpt><trkpt lat="45.4211317" lon="9.7152467"><ele>83.85714285714286</ele><time>2026-04-26T13:30:32.917Z</time></trkpt><trkpt lat="45.4212" lon="9.715235"><ele>84.0</ele><time>2026-04-26T13:30:33.917Z</time></trkpt><trkpt lat="45.421265" lon="9.7152217"><ele>84.0</ele><time>2026-04-26T13:30:34.917Z</time></trkpt><trkpt lat="45.421335" lon="9.7152067"><ele>84.0</ele><time>2026-04-26T13:30:35.917Z</time></trkpt><trkpt lat="45.4214033" lon="9.7152017"><ele>84.0</ele><time>2026-04-26T13:30:36.917Z</time></trkpt><trkpt lat="45.42147" lon="9.715195"><ele>84.0</ele><time>2026-04-26T13:30:37.917Z</time></trkpt><trkpt lat="45.421535" lon="9.7151867"><ele>84.0</ele><time>2026-04-26T13:30:38.917Z</time></trkpt><trkpt lat="45.421655" lon="9.7151733"><ele>84.0</ele><time>2026-04-26T13:30:40.917Z</time></trkpt><trkpt lat="45.4217183" lon="9.71517"><ele>84.0</ele><time>2026-04-26T13:30:41.918Z</time></trkpt><trkpt lat="45.4217833" lon="9.7151617"><ele>84.0</ele><time>2026-04-26T13:30:42.917Z</time></trkpt><trkpt lat="45.4219083" lon="9.7151383"><ele>84.0</ele><time>2026-04-26T13:30:44.917Z</time></trkpt><trkpt lat="45.42197" lon="9.7151183"><ele>84.0</ele><time>2026-04-26T13:30:45.917Z</time></trkpt><trkpt lat="45.422035" lon="9.7151017"><ele>84.0</ele><time>2026-04-26T13:30:46.918Z</time></trkpt><trkpt lat="45.4221017" lon="9.7150883"><ele>84.0</ele><time>2026-04-26T13:30:47.917Z</time></trkpt><trkpt lat="45.4221683" lon="9.715095"><ele>84.14285714285714</ele><time>2026-04-26T13:30:48.917Z</time></trkpt><trkpt lat="45.42228" lon="9.715155"><ele>84.28571428571428</ele><time>2026-04-26T13:30:50.917Z</time></trkpt><trkpt lat="45.4223367" lon="9.7152017"><ele>84.42857142857143</ele><time>2026-04-26T13:30:51.917Z</time></trkpt><trkpt lat="45.4223917" lon="9.71525"><ele>84.57142857142857</ele><time>2026-04-26T13:30:52.917Z</time></trkpt><trkpt lat="45.422445" lon="9.7153"><ele>84.71428571428571</ele><time>2026-04-26T13:30:53.917Z</time></trkpt><trkpt lat="45.4225017" lon="9.7153467"><ele>84.85714285714286</ele><time>2026-04-26T13:30:54.917Z</time></trkpt><trkpt lat="45.4225617" lon="9.7153883"><ele>85.0</ele><time>2026-04-26T13:30:55.918Z</time></trkpt><trkpt lat="45.4226233" lon="9.7154217"><ele>85.0</ele><time>2026-04-26T13:30:56.917Z</time></trkpt><trkpt lat="45.4226867" lon="9.7154433"><ele>85.0</ele><time>2026-04-26T13:30:57.917Z</time></trkpt><trkpt lat="45.42275" lon="9.7154533"><ele>85.0</ele><time>2026-04-26T13:30:58.917Z</time></trkpt><trkpt lat="45.42286" lon="9.7154417"><ele>85.0</ele><time>2026-04-26T13:31:00.917Z</time></trkpt><trkpt lat="45.4229583" lon="9.71541"><ele>85.0</ele><time>2026-04-26T13:31:02.917Z</time></trkpt><trkpt lat="45.42306" lon="9.7153667"><ele>85.0</ele><time>2026-04-26T13:31:04.917Z</time></trkpt><trkpt lat="45.4231583" lon="9.7153267"><ele>85.0</ele><time>2026-04-26T13:31:06.917Z</time></trkpt><trkpt lat="45.423265" lon="9.7152767"><ele>85.0</ele><time>2026-04-26T13:31:08.917Z</time></trkpt><trkpt lat="45.4233683" lon="9.7152233"><ele>85.0</ele><time>2026-04-26T13:31:10.917Z</time></trkpt><trkpt lat="45.4234783" lon="9.715185"><ele>85.0</ele><time>2026-04-26T13:31:12.917Z</time></trkpt><trkpt lat="45.4235867" lon="9.7151433"><ele>85.0</ele><time>2026-04-26T13:31:14.917Z</time></trkpt><trkpt lat="45.4236933" lon="9.7151067"><ele>85.2</ele><time>2026-04-26T13:31:16.917Z</time></trkpt><trkpt lat="45.4238" lon="9.7150883"><ele>85.4</ele><time>2026-04-26T13:31:18.917Z</time></trkpt><trkpt lat="45.4239033" lon="9.71509"><ele>85.6</ele><time>2026-04-26T13:31:20.917Z</time></trkpt><trkpt lat="45.4240133" lon="9.7150983"><ele>85.8</ele><time>2026-04-26T13:31:22.917Z</time></trkpt><trkpt lat="45.4241333" lon="9.71511"><ele>86.0</ele><time>2026-04-26T13:31:24.917Z</time></trkpt><trkpt lat="45.4242383" lon="9.7151083"><ele>85.6</ele><time>2026-04-26T13:31:26.917Z</time></trkpt><trkpt lat="45.4243467" lon="9.7151117"><ele>85.19999999999999</ele><time>2026-04-26T13:31:28.917Z</time></trkpt><trkpt lat="45.4244583" lon="9.7151167"><ele>84.80000000000001</ele><time>2026-04-26T13:31:30.918Z</time></trkpt><trkpt lat="45.4245633" lon="9.71512"><ele>84.4</ele><time>2026-04-26T13:31:32.917Z</time></trkpt><trkpt lat="45.4246817" lon="9.7151317"><ele>84.0</ele><time>2026-04-26T13:31:34.917Z</time></trkpt><trkpt lat="45.4247883" lon="9.71514"><ele>84.0</ele><time>2026-04-26T13:31:36.917Z</time></trkpt><trkpt lat="45.42489" lon="9.71514"><ele>84.0</ele><time>2026-04-26T13:31:38.917Z</time></trkpt><trkpt lat="45.425" lon="9.7151433"><ele>84.0</ele><time>2026-04-26T13:31:40.917Z</time></trkpt><trkpt lat="45.4251067" lon="9.71515"><ele>84.0</ele><time>2026-04-26T13:31:42.917Z</time></trkpt><trkpt lat="45.4252267" lon="9.7151467"><ele>84.0</ele><time>2026-04-26T13:31:44.917Z</time></trkpt><trkpt lat="45.4253483" lon="9.7151583"><ele>84.0</ele><time>2026-04-26T13:31:46.918Z</time></trkpt><trkpt lat="45.4254667" lon="9.71516"><ele>84.0</ele><time>2026-04-26T13:31:48.917Z</time></trkpt><trkpt lat="45.4255767" lon="9.7151583"><ele>84.0</ele><time>2026-04-26T13:31:50.917Z</time></trkpt><trkpt lat="45.4256917" lon="9.7151617"><ele>84.0</ele><time>2026-04-26T13:31:52.916Z</time></trkpt><trkpt lat="45.4258083" lon="9.7151633"><ele>83.80000000000001</ele><time>2026-04-26T13:31:54.916Z</time></trkpt><trkpt lat="45.42592" lon="9.7151733"><ele>83.60000000000001</ele><time>2026-04-26T13:31:56.916Z</time></trkpt><trkpt lat="45.4260267" lon="9.7151767"><ele>83.4</ele><time>2026-04-26T13:31:58.916Z</time></trkpt><trkpt lat="45.4261367" lon="9.7151833"><ele>83.2</ele><time>2026-04-26T13:32:00.916Z</time></trkpt><trkpt lat="45.4262483" lon="9.7151833"><ele>83.0</ele><time>2026-04-26T13:32:02.916Z</time></trkpt><trkpt lat="45.4263483" lon="9.7151867"><ele>83.60000000000001</ele><time>2026-04-26T13:32:04.916Z</time></trkpt><trkpt lat="45.426455" lon="9.7151933"><ele>84.2</ele><time>2026-04-26T13:32:06.916Z</time></trkpt><trkpt lat="45.42656" lon="9.7151917"><ele>84.8</ele><time>2026-04-26T13:32:08.916Z</time></trkpt><trkpt lat="45.426665" lon="9.7152033"><ele>85.4</ele><time>2026-04-26T13:32:10.916Z</time></trkpt><trkpt lat="45.4267733" lon="9.7152067"><ele>86.0</ele><time>2026-04-26T13:32:12.916Z</time></trkpt><trkpt lat="45.4268783" lon="9.7152133"><ele>86.0</ele><time>2026-04-26T13:32:14.916Z</time></trkpt><trkpt lat="45.4269883" lon="9.7152183"><ele>86.0</ele><time>2026-04-26T13:32:16.916Z</time></trkpt><trkpt lat="45.427095" lon="9.7152183"><ele>86.0</ele><time>2026-04-26T13:32:18.916Z</time></trkpt><trkpt lat="45.4272017" lon="9.7152283"><ele>86.0</ele><time>2026-04-26T13:32:20.916Z</time></trkpt><trkpt lat="45.4273133" lon="9.7152333"><ele>86.0</ele><time>2026-04-26T13:32:22.916Z</time></trkpt><trkpt lat="45.42741" lon="9.7152033"><ele>86.0</ele><time>2026-04-26T13:32:24.916Z</time></trkpt><trkpt lat="45.4274917" lon="9.71513"><ele>86.0</ele><time>2026-04-26T13:32:26.916Z</time></trkpt><trkpt lat="45.4275667" lon="9.715035"><ele>86.0</ele><time>2026-04-26T13:32:28.916Z</time></trkpt><trkpt lat="45.427635" lon="9.7149283"><ele>86.0</ele><time>2026-04-26T13:32:30.916Z</time></trkpt><trkpt lat="45.4277083" lon="9.7148367"><ele>86.0</ele><time>2026-04-26T13:32:32.916Z</time></trkpt><trkpt lat="45.4277917" lon="9.7147533"><ele>86.0</ele><time>2026-04-26T13:32:34.916Z</time></trkpt><trkpt lat="45.42787" lon="9.7146617"><ele>86.0</ele><time>2026-04-26T13:32:36.916Z</time></trkpt><trkpt lat="45.427955" lon="9.7145783"><ele>86.0</ele><time>2026-04-26T13:32:38.917Z</time></trkpt><trkpt lat="45.4280433" lon="9.71449"><ele>86.0</ele><time>2026-04-26T13:32:40.916Z</time></trkpt><trkpt lat="45.4281283" lon="9.7143967"><ele>86.0</ele><time>2026-04-26T13:32:42.917Z</time></trkpt><trkpt lat="45.42821" lon="9.7143217"><ele>86.16666666666667</ele><time>2026-04-26T13:32:44.917Z</time></trkpt><trkpt lat="45.4282883" lon="9.7142517"><ele>86.33333333333334</ele><time>2026-04-26T13:32:46.916Z</time></trkpt><trkpt lat="45.42835" lon="9.7141833"><ele>86.5</ele><time>2026-04-26T13:32:48.916Z</time></trkpt><trkpt lat="45.428405" lon="9.7141117"><ele>86.66666666666667</ele><time>2026-04-26T13:32:50.916Z</time></trkpt><trkpt lat="45.4284817" lon="9.7141083"><ele>86.83333333333333</ele><time>2026-04-26T13:32:53.916Z</time></trkpt><trkpt lat="45.428545" lon="9.7142067"><ele>87.0</ele><time>2026-04-26T13:32:56.916Z</time></trkpt><trkpt lat="45.4285983" lon="9.7142717"><ele>87.0</ele><time>2026-04-26T13:32:58.916Z</time></trkpt><trkpt lat="45.4286583" lon="9.7143233"><ele>87.0</ele><time>2026-04-26T13:33:00.916Z</time></trkpt><trkpt lat="45.4287283" lon="9.71435"><ele>87.0</ele><time>2026-04-26T13:33:02.916Z</time></trkpt><trkpt lat="45.4288033" lon="9.7143117"><ele>87.0</ele><time>2026-04-26T13:33:04.916Z</time></trkpt><trkpt lat="45.42886" lon="9.7142367"><ele>87.0</ele><time>2026-04-26T13:33:06.916Z</time></trkpt><trkpt lat="45.4288733" lon="9.71414"><ele>87.0</ele><time>2026-04-26T13:33:08.916Z</time></trkpt><trkpt lat="45.428865" lon="9.714045"><ele>87.0</ele><time>2026-04-26T13:33:10.916Z</time></trkpt><trkpt lat="45.428855" lon="9.713935"><ele>87.0</ele><time>2026-04-26T13:33:12.916Z</time></trkpt><trkpt lat="45.4288567" lon="9.7138267"><ele>87.0</ele><time>2026-04-26T13:33:14.916Z</time></trkpt><trkpt lat="45.42885" lon="9.7137183"><ele>87.0</ele><time>2026-04-26T13:33:16.916Z</time></trkpt><trkpt lat="45.4288267" lon="9.7136183"><ele>87.0</ele><time>2026-04-26T13:33:18.917Z</time></trkpt><trkpt lat="45.42878" lon="9.7135467"><ele>87.0</ele><time>2026-04-26T13:33:20.916Z</time></trkpt><trkpt lat="45.4287283" lon="9.7134933"><ele>87.0</ele><time>2026-04-26T13:33:22.916Z</time></trkpt><trkpt lat="45.4286683" lon="9.7135633"><ele>87.0</ele><time>2026-04-26T13:33:25.916Z</time></trkpt><trkpt lat="45.4286667" lon="9.7136567"><ele>87.0</ele><time>2026-04-26T13:33:27.916Z</time></trkpt><trkpt lat="45.4286633" lon="9.71375"><ele>87.0</ele><time>2026-04-26T13:33:29.917Z</time></trkpt><trkpt lat="45.4286383" lon="9.7138467"><ele>87.0</ele><time>2026-04-26T13:33:31.916Z</time></trkpt><trkpt lat="45.42858" lon="9.7139283"><ele>87.0</ele><time>2026-04-26T13:33:33.917Z</time></trkpt><trkpt lat="45.42851" lon="9.71396"><ele>87.0</ele><time>2026-04-26T13:33:35.916Z</time></trkpt><trkpt lat="45.42844" lon="9.7139017"><ele>87.0</ele><time>2026-04-26T13:33:37.917Z</time></trkpt><trkpt lat="45.4283767" lon="9.7138017"><ele>87.0</ele><time>2026-04-26T13:33:39.916Z</time></trkpt><trkpt lat="45.4283133" lon="9.7137"><ele>87.0</ele><time>2026-04-26T13:33:41.916Z</time></trkpt><trkpt lat="45.428245" lon="9.7135967"><ele>87.0</ele><time>2026-04-26T13:33:43.916Z</time></trkpt><trkpt lat="45.4281783" lon="9.71349"><ele>87.0</ele><time>2026-04-26T13:33:45.916Z</time></trkpt><trkpt lat="45.4281117" lon="9.7133867"><ele>87.0</ele><time>2026-04-26T13:33:47.916Z</time></trkpt><trkpt lat="45.42805" lon="9.7132783"><ele>86.8</ele><time>2026-04-26T13:33:49.916Z</time></trkpt><trkpt lat="45.4279783" lon="9.7131683"><ele>86.6</ele><time>2026-04-26T13:33:51.916Z</time></trkpt><trkpt lat="45.4279183" lon="9.7130517"><ele>86.39999999999999</ele><time>2026-04-26T13:33:53.916Z</time></trkpt><trkpt lat="45.4278617" lon="9.7129317"><ele>86.19999999999999</ele><time>2026-04-26T13:33:55.916Z</time></trkpt><trkpt lat="45.4278" lon="9.712805"><ele>86.0</ele><time>2026-04-26T13:33:57.916Z</time></trkpt><trkpt lat="45.4277383" lon="9.71267"><ele>85.6</ele><time>2026-04-26T13:33:59.916Z</time></trkpt><trkpt lat="45.4276833" lon="9.7125333"><ele>85.19999999999999</ele><time>2026-04-26T13:34:01.916Z</time></trkpt><trkpt lat="45.4276333" lon="9.7123883"><ele>84.80000000000001</ele><time>2026-04-26T13:34:03.916Z</time></trkpt><trkpt lat="45.4275933" lon="9.71224"><ele>84.4</ele><time>2026-04-26T13:34:05.916Z</time></trkpt><trkpt lat="45.427565" lon="9.712085"><ele>84.0</ele><time>2026-04-26T13:34:07.917Z</time></trkpt><trkpt lat="45.427535" lon="9.711935"><ele>84.2</ele><time>2026-04-26T13:34:09.916Z</time></trkpt><trkpt lat="45.4274983" lon="9.7117833"><ele>84.4</ele><time>2026-04-26T13:34:11.916Z</time></trkpt><trkpt lat="45.42747" lon="9.7116317"><ele>84.6</ele><time>2026-04-26T13:34:13.916Z</time></trkpt><trkpt lat="45.42744" lon="9.7114833"><ele>84.8</ele><time>2026-04-26T13:34:15.917Z</time></trkpt><trkpt lat="45.4274067" lon="9.7113333"><ele>85.0</ele><time>2026-04-26T13:34:17.916Z</time></trkpt><trkpt lat="45.4273783" lon="9.7111983"><ele>85.0</ele><time>2026-04-26T13:34:19.916Z</time></trkpt><trkpt lat="45.42736" lon="9.7110817"><ele>85.0</ele><time>2026-04-26T13:34:21.916Z</time></trkpt><trkpt lat="45.427335" lon="9.7109567"><ele>85.0</ele><time>2026-04-26T13:34:23.916Z</time></trkpt><trkpt lat="45.4273017" lon="9.7108283"><ele>85.0</ele><time>2026-04-26T13:34:25.916Z</time></trkpt><trkpt lat="45.427275" lon="9.7106983"><ele>85.0</ele><time>2026-04-26T13:34:27.916Z</time></trkpt><trkpt lat="45.4272433" lon="9.7105483"><ele>85.0</ele><time>2026-04-26T13:34:29.916Z</time></trkpt><trkpt lat="45.427215" lon="9.7103933"><ele>85.0</ele><time>2026-04-26T13:34:31.916Z</time></trkpt><trkpt lat="45.4271883" lon="9.7102467"><ele>85.0</ele><time>2026-04-26T13:34:33.916Z</time></trkpt><trkpt lat="45.4271667" lon="9.710095"><ele>85.0</ele><time>2026-04-26T13:34:35.916Z</time></trkpt><trkpt lat="45.4271467" lon="9.709955"><ele>85.0</ele><time>2026-04-26T13:34:37.916Z</time></trkpt><trkpt lat="45.4271183" lon="9.7098383"><ele>85.28571428571429</ele><time>2026-04-26T13:34:39.916Z</time></trkpt><trkpt lat="45.42707" lon="9.7097767"><ele>85.57142857142857</ele><time>2026-04-26T13:35:17.916Z</time></trkpt><trkpt lat="45.4269967" lon="9.70977"><ele>85.85714285714286</ele><time>2026-04-26T13:35:32.915Z</time></trkpt><trkpt lat="45.4269167" lon="9.70979"><ele>86.14285714285714</ele><time>2026-04-26T13:35:46.915Z</time></trkpt><trkpt lat="45.4268383" lon="9.7098417"><ele>86.42857142857143</ele><time>2026-04-26T13:35:49.915Z</time></trkpt><trkpt lat="45.4267767" lon="9.7098783"><ele>86.71428571428571</ele><time>2026-04-26T13:35:51.916Z</time></trkpt><trkpt lat="45.4267067" lon="9.7099217"><ele>87.0</ele><time>2026-04-26T13:35:53.915Z</time></trkpt><trkpt lat="45.4266317" lon="9.7099583"><ele>87.0</ele><time>2026-04-26T13:35:55.915Z</time></trkpt><trkpt lat="45.4265467" lon="9.7100033"><ele>87.0</ele><time>2026-04-26T13:35:57.915Z</time></trkpt><trkpt lat="45.4264617" lon="9.71005"><ele>87.0</ele><time>2026-04-26T13:35:59.915Z</time></trkpt><trkpt lat="45.4263717" lon="9.7101"><ele>87.0</ele><time>2026-04-26T13:36:01.915Z</time></trkpt><trkpt lat="45.4262917" lon="9.7101583"><ele>87.0</ele><time>2026-04-26T13:36:03.915Z</time></trkpt><trkpt lat="45.4262067" lon="9.7102183"><ele>86.8</ele><time>2026-04-26T13:36:05.915Z</time></trkpt><trkpt lat="45.42612" lon="9.7102817"><ele>86.6</ele><time>2026-04-26T13:36:07.915Z</time></trkpt><trkpt lat="45.4260283" lon="9.71034"><ele>86.39999999999999</ele><time>2026-04-26T13:36:09.915Z</time></trkpt><trkpt lat="45.425935" lon="9.710405"><ele>86.19999999999999</ele><time>2026-04-26T13:36:11.915Z</time></trkpt><trkpt lat="45.42585" lon="9.71048"><ele>86.0</ele><time>2026-04-26T13:36:13.915Z</time></trkpt><trkpt lat="45.4257633" lon="9.7105433"><ele>86.0</ele><time>2026-04-26T13:36:15.915Z</time></trkpt><trkpt lat="45.4256717" lon="9.7106133"><ele>86.0</ele><time>2026-04-26T13:36:17.915Z</time></trkpt><trkpt lat="45.4255833" lon="9.7106833"><ele>86.0</ele><time>2026-04-26T13:36:19.915Z</time></trkpt><trkpt lat="45.4254917" lon="9.71076"><ele>86.0</ele><time>2026-04-26T13:36:21.916Z</time></trkpt><trkpt lat="45.4254067" lon="9.7108517"><ele>86.0</ele><time>2026-04-26T13:36:23.915Z</time></trkpt><trkpt lat="45.4253217" lon="9.7109217"><ele>85.8</ele><time>2026-04-26T13:36:25.915Z</time></trkpt><trkpt lat="45.4252417" lon="9.710985"><ele>85.6</ele><time>2026-04-26T13:36:27.916Z</time></trkpt><trkpt lat="45.4251683" lon="9.7110517"><ele>85.4</ele><time>2026-04-26T13:36:29.915Z</time></trkpt><trkpt lat="45.425085" lon="9.711125"><ele>85.2</ele><time>2026-04-26T13:36:31.915Z</time></trkpt><trkpt lat="45.4249933" lon="9.7111983"><ele>85.0</ele><time>2026-04-26T13:36:33.915Z</time></trkpt><trkpt lat="45.4249033" lon="9.71128"><ele>85.0</ele><time>2026-04-26T13:36:35.915Z</time></trkpt><trkpt lat="45.4248167" lon="9.711365"><ele>85.0</ele><time>2026-04-26T13:36:37.915Z</time></trkpt><trkpt lat="45.4247217" lon="9.71146"><ele>85.0</ele><time>2026-04-26T13:36:39.915Z</time></trkpt><trkpt lat="45.4246283" lon="9.7115433"><ele>85.0</ele><time>2026-04-26T13:36:41.915Z</time></trkpt><trkpt lat="45.4245483" lon="9.7116267"><ele>85.0</ele><time>2026-04-26T13:36:43.915Z</time></trkpt><trkpt lat="45.4244783" lon="9.71171"><ele>85.16666666666666</ele><time>2026-04-26T13:36:45.915Z</time></trkpt><trkpt lat="45.4244083" lon="9.711765"><ele>85.33333333333333</ele><time>2026-04-26T13:36:47.915Z</time></trkpt><trkpt lat="45.4243517" lon="9.71181"><ele>85.5</ele><time>2026-04-26T13:36:49.915Z</time></trkpt><trkpt lat="45.4242967" lon="9.7118583"><ele>85.66666666666667</ele><time>2026-04-26T13:36:51.915Z</time></trkpt><trkpt lat="45.4242367" lon="9.7119117"><ele>85.83333333333334</ele><time>2026-04-26T13:36:54.916Z</time></trkpt><trkpt lat="45.4241583" lon="9.7119533"><ele>86.0</ele><time>2026-04-26T13:36:57.915Z</time></trkpt><trkpt lat="45.4240817" lon="9.711895"><ele>86.0</ele><time>2026-04-26T13:37:00.915Z</time></trkpt><trkpt lat="45.4240617" lon="9.711765"><ele>86.0</ele><time>2026-04-26T13:37:02.915Z</time></trkpt><trkpt lat="45.4240233" lon="9.7116517"><ele>86.0</ele><time>2026-04-26T13:37:04.915Z</time></trkpt><trkpt lat="45.4239767" lon="9.7115417"><ele>86.0</ele><time>2026-04-26T13:37:06.916Z</time></trkpt><trkpt lat="45.4239233" lon="9.7114417"><ele>86.0</ele><time>2026-04-26T13:37:08.915Z</time></trkpt><trkpt lat="45.4238617" lon="9.7113217"><ele>85.8</ele><time>2026-04-26T13:37:10.915Z</time></trkpt><trkpt lat="45.423805" lon="9.7111983"><ele>85.6</ele><time>2026-04-26T13:37:12.915Z</time></trkpt><trkpt lat="45.4237517" lon="9.7110717"><ele>85.4</ele><time>2026-04-26T13:37:14.915Z</time></trkpt><trkpt lat="45.42369" lon="9.710955"><ele>85.2</ele><time>2026-04-26T13:37:16.916Z</time></trkpt><trkpt lat="45.42362" lon="9.71084"><ele>85.0</ele><time>2026-04-26T13:37:18.915Z</time></trkpt><trkpt lat="45.42356" lon="9.710725"><ele>85.0</ele><time>2026-04-26T13:37:20.916Z</time></trkpt><trkpt lat="45.4235017" lon="9.7106067"><ele>85.0</ele><time>2026-04-26T13:37:22.915Z</time></trkpt><trkpt lat="45.4234467" lon="9.710485"><ele>85.0</ele><time>2026-04-26T13:37:24.915Z</time></trkpt><trkpt lat="45.42338" lon="9.7103583"><ele>85.0</ele><time>2026-04-26T13:37:26.915Z</time></trkpt><trkpt lat="45.4233117" lon="9.7102417"><ele>85.0</ele><time>2026-04-26T13:37:28.915Z</time></trkpt><trkpt lat="45.4232383" lon="9.7101267"><ele>84.8</ele><time>2026-04-26T13:37:30.915Z</time></trkpt><trkpt lat="45.423175" lon="9.7100217"><ele>84.6</ele><time>2026-04-26T13:37:32.915Z</time></trkpt><trkpt lat="45.4231133" lon="9.70992"><ele>84.4</ele><time>2026-04-26T13:37:34.915Z</time></trkpt><trkpt lat="45.423055" lon="9.7098117"><ele>84.2</ele><time>2026-04-26T13:37:36.915Z</time></trkpt><trkpt lat="45.42299" lon="9.7096983"><ele>84.0</ele><time>2026-04-26T13:37:38.915Z</time></trkpt><trkpt lat="45.42293" lon="9.7095767"><ele>83.80000000000001</ele><time>2026-04-26T13:37:40.915Z</time></trkpt><trkpt lat="45.422865" lon="9.7094533"><ele>83.60000000000001</ele><time>2026-04-26T13:37:42.915Z</time></trkpt><trkpt lat="45.422785" lon="9.7093317"><ele>83.4</ele><time>2026-04-26T13:37:44.915Z</time></trkpt><trkpt lat="45.4227117" lon="9.709215"><ele>83.2</ele><time>2026-04-26T13:37:46.915Z</time></trkpt><trkpt lat="45.4226483" lon="9.7090833"><ele>83.0</ele><time>2026-04-26T13:37:48.915Z</time></trkpt><trkpt lat="45.42258" lon="9.708965"><ele>83.0</ele><time>2026-04-26T13:37:50.915Z</time></trkpt><trkpt lat="45.4225217" lon="9.7088383"><ele>83.0</ele><time>2026-04-26T13:37:52.915Z</time></trkpt><trkpt lat="45.4224667" lon="9.7087167"><ele>83.0</ele><time>2026-04-26T13:37:54.915Z</time></trkpt><trkpt lat="45.4224083" lon="9.708605"><ele>83.0</ele><time>2026-04-26T13:37:56.915Z</time></trkpt><trkpt lat="45.4223467" lon="9.7084883"><ele>83.0</ele><time>2026-04-26T13:37:58.915Z</time></trkpt><trkpt lat="45.422285" lon="9.7083683"><ele>83.2</ele><time>2026-04-26T13:38:00.915Z</time></trkpt><trkpt lat="45.4222317" lon="9.7082483"><ele>83.4</ele><time>2026-04-26T13:38:02.915Z</time></trkpt><trkpt lat="45.4221917" lon="9.70813"><ele>83.60000000000001</ele><time>2026-04-26T13:38:04.915Z</time></trkpt><trkpt lat="45.4222267" lon="9.7080033"><ele>83.80000000000001</ele><time>2026-04-26T13:38:06.916Z</time></trkpt><trkpt lat="45.4223083" lon="9.7079267"><ele>84.0</ele><time>2026-04-26T13:38:08.915Z</time></trkpt><trkpt lat="45.4224033" lon="9.7078583"><ele>84.0</ele><time>2026-04-26T13:38:10.915Z</time></trkpt><trkpt lat="45.4225" lon="9.7077817"><ele>84.0</ele><time>2026-04-26T13:38:12.915Z</time></trkpt><trkpt lat="45.422595" lon="9.7077083"><ele>84.0</ele><time>2026-04-26T13:38:14.915Z</time></trkpt><trkpt lat="45.4226933" lon="9.7076467"><ele>84.0</ele><time>2026-04-26T13:38:16.915Z</time></trkpt><trkpt lat="45.4227867" lon="9.7075817"><ele>84.0</ele><time>2026-04-26T13:38:18.915Z</time></trkpt><trkpt lat="45.4228667" lon="9.7074767"><ele>84.2</ele><time>2026-04-26T13:38:20.915Z</time></trkpt><trkpt lat="45.4228817" lon="9.70733"><ele>84.4</ele><time>2026-04-26T13:38:22.915Z</time></trkpt><trkpt lat="45.4228883" lon="9.707175"><ele>84.6</ele><time>2026-04-26T13:38:24.915Z</time></trkpt><trkpt lat="45.4229417" lon="9.7070467"><ele>84.8</ele><time>2026-04-26T13:38:26.915Z</time></trkpt><trkpt lat="45.422975" lon="9.7068967"><ele>85.0</ele><time>2026-04-26T13:38:28.915Z</time></trkpt><trkpt lat="45.42295" lon="9.706735"><ele>85.0</ele><time>2026-04-26T13:38:30.915Z</time></trkpt><trkpt lat="45.422925" lon="9.7065867"><ele>85.0</ele><time>2026-04-26T13:38:32.915Z</time></trkpt><trkpt lat="45.4229083" lon="9.7064617"><ele>85.0</ele><time>2026-04-26T13:38:34.915Z</time></trkpt><trkpt lat="45.4228883" lon="9.706335"><ele>85.0</ele><time>2026-04-26T13:38:36.915Z</time></trkpt><trkpt lat="45.4228783" lon="9.7062083"><ele>85.0</ele><time>2026-04-26T13:38:38.915Z</time></trkpt><trkpt lat="45.4228783" lon="9.7060983"><ele>85.33333333333333</ele><time>2026-04-26T13:38:40.915Z</time></trkpt><trkpt lat="45.4228683" lon="9.7059767"><ele>85.66666666666666</ele><time>2026-04-26T13:38:42.915Z</time></trkpt><trkpt lat="45.42285" lon="9.7058467"><ele>86.0</ele><time>2026-04-26T13:38:44.915Z</time></trkpt><trkpt lat="45.422835" lon="9.7057233"><ele>86.33333333333333</ele><time>2026-04-26T13:38:46.915Z</time></trkpt><trkpt lat="45.4228433" lon="9.7056333"><ele>86.66666666666667</ele><time>2026-04-26T13:38:48.915Z</time></trkpt><trkpt lat="45.4228483" lon="9.7055383"><ele>87.0</ele><time>2026-04-26T13:38:51.914Z</time></trkpt><trkpt lat="45.4228083" lon="9.7054533"><ele>87.0</ele><time>2026-04-26T13:38:54.914Z</time></trkpt><trkpt lat="45.42277" lon="9.70538"><ele>87.0</ele><time>2026-04-26T13:39:22.914Z</time></trkpt><trkpt lat="45.4227067" lon="9.7052933"><ele>87.0</ele><time>2026-04-26T13:39:26.914Z</time></trkpt><trkpt lat="45.4226367" lon="9.7052483"><ele>87.0</ele><time>2026-04-26T13:39:28.914Z</time></trkpt><trkpt lat="45.4225583" lon="9.70524"><ele>87.0</ele><time>2026-04-26T13:39:30.914Z</time></trkpt><trkpt lat="45.422475" lon="9.7052467"><ele>87.0</ele><time>2026-04-26T13:39:32.914Z</time></trkpt><trkpt lat="45.422385" lon="9.7052483"><ele>87.0</ele><time>2026-04-26T13:39:34.914Z</time></trkpt><trkpt lat="45.4222967" lon="9.705255"><ele>87.0</ele><time>2026-04-26T13:39:36.914Z</time></trkpt><trkpt lat="45.4222" lon="9.7052667"><ele>87.0</ele><time>2026-04-26T13:39:38.914Z</time></trkpt><trkpt lat="45.4221033" lon="9.70528"><ele>87.0</ele><time>2026-04-26T13:39:40.914Z</time></trkpt><trkpt lat="45.422015" lon="9.705285"><ele>87.0</ele><time>2026-04-26T13:39:42.914Z</time></trkpt><trkpt lat="45.4219167" lon="9.705295"><ele>87.0</ele><time>2026-04-26T13:39:44.914Z</time></trkpt><trkpt lat="45.4218033" lon="9.705295"><ele>87.0</ele><time>2026-04-26T13:39:46.914Z</time></trkpt><trkpt lat="45.421705" lon="9.7053017"><ele>87.0</ele><time>2026-04-26T13:39:48.914Z</time></trkpt><trkpt lat="45.4216167" lon="9.7053283"><ele>87.0</ele><time>2026-04-26T13:39:50.914Z</time></trkpt><trkpt lat="45.421545" lon="9.705395"><ele>87.0</ele><time>2026-04-26T13:39:52.915Z</time></trkpt><trkpt lat="45.4214783" lon="9.7054717"><ele>87.0</ele><time>2026-04-26T13:39:54.914Z</time></trkpt><trkpt lat="45.42141" lon="9.7055717"><ele>87.0</ele><time>2026-04-26T13:39:56.914Z</time></trkpt><trkpt lat="45.4213383" lon="9.7056733"><ele>87.0</ele><time>2026-04-26T13:39:58.914Z</time></trkpt><trkpt lat="45.4212283" lon="9.7057333"><ele>87.0</ele><time>2026-04-26T13:40:00.914Z</time></trkpt><trkpt lat="45.4211133" lon="9.705745"><ele>87.0</ele><time>2026-04-26T13:40:02.914Z</time></trkpt><trkpt lat="45.4210067" lon="9.7057317"><ele>86.8</ele><time>2026-04-26T13:40:04.914Z</time></trkpt><trkpt lat="45.4208933" lon="9.7057283"><ele>86.6</ele><time>2026-04-26T13:40:06.914Z</time></trkpt><trkpt lat="45.420785" lon="9.705735"><ele>86.39999999999999</ele><time>2026-04-26T13:40:08.914Z</time></trkpt><trkpt lat="45.4206683" lon="9.7057317"><ele>86.19999999999999</ele><time>2026-04-26T13:40:10.914Z</time></trkpt><trkpt lat="45.42056" lon="9.7057267"><ele>86.0</ele><time>2026-04-26T13:40:12.914Z</time></trkpt><trkpt lat="45.4204433" lon="9.7057167"><ele>86.0</ele><time>2026-04-26T13:40:14.914Z</time></trkpt><trkpt lat="45.4203317" lon="9.7057067"><ele>86.0</ele><time>2026-04-26T13:40:16.914Z</time></trkpt><trkpt lat="45.4202233" lon="9.7057183"><ele>86.0</ele><time>2026-04-26T13:40:18.914Z</time></trkpt><trkpt lat="45.4201167" lon="9.7057433"><ele>86.0</ele><time>2026-04-26T13:40:20.914Z</time></trkpt><trkpt lat="45.4200033" lon="9.70576"><ele>86.0</ele><time>2026-04-26T13:40:22.914Z</time></trkpt><trkpt lat="45.41989" lon="9.7057633"><ele>86.0</ele><time>2026-04-26T13:40:24.914Z</time></trkpt><trkpt lat="45.4197717" lon="9.7057633"><ele>86.0</ele><time>2026-04-26T13:40:26.914Z</time></trkpt><trkpt lat="45.4196533" lon="9.7057733"><ele>86.0</ele><time>2026-04-26T13:40:28.914Z</time></trkpt><trkpt lat="45.41954" lon="9.7057967"><ele>86.0</ele><time>2026-04-26T13:40:30.914Z</time></trkpt><trkpt lat="45.4194283" lon="9.7058217"><ele>86.0</ele><time>2026-04-26T13:40:32.915Z</time></trkpt><trkpt lat="45.4193133" lon="9.705855"><ele>86.0</ele><time>2026-04-26T13:40:34.914Z</time></trkpt><trkpt lat="45.4191983" lon="9.7058867"><ele>86.0</ele><time>2026-04-26T13:40:36.915Z</time></trkpt><trkpt lat="45.419075" lon="9.705925"><ele>86.0</ele><time>2026-04-26T13:40:38.914Z</time></trkpt><trkpt lat="45.4189583" lon="9.705965"><ele>86.0</ele><time>2026-04-26T13:40:40.914Z</time></trkpt><trkpt lat="45.418845" lon="9.7060017"><ele>86.0</ele><time>2026-04-26T13:40:42.914Z</time></trkpt><trkpt lat="45.4187333" lon="9.706045"><ele>86.0</ele><time>2026-04-26T13:40:44.914Z</time></trkpt><trkpt lat="45.418625" lon="9.7060933"><ele>86.0</ele><time>2026-04-26T13:40:46.914Z</time></trkpt><trkpt lat="45.41852" lon="9.7061283"><ele>86.19999999999999</ele><time>2026-04-26T13:40:48.914Z</time></trkpt><trkpt lat="45.41844" lon="9.706055"><ele>86.39999999999999</ele><time>2026-04-26T13:40:50.914Z</time></trkpt><trkpt lat="45.4183967" lon="9.70594"><ele>86.6</ele><time>2026-04-26T13:40:52.914Z</time></trkpt><trkpt lat="45.418305" lon="9.7059117"><ele>86.8</ele><time>2026-04-26T13:40:54.915Z</time></trkpt><trkpt lat="45.4182033" lon="9.7059433"><ele>87.0</ele><time>2026-04-26T13:40:56.914Z</time></trkpt><trkpt lat="45.4180983" lon="9.705965"><ele>87.25</ele><time>2026-04-26T13:40:58.914Z</time></trkpt><trkpt lat="45.4179833" lon="9.7059817"><ele>87.5</ele><time>2026-04-26T13:41:00.915Z</time></trkpt><trkpt lat="45.4178667" lon="9.705995"><ele>87.75</ele><time>2026-04-26T13:41:02.914Z</time></trkpt><trkpt lat="45.4177517" lon="9.7060033"><ele>88.0</ele><time>2026-04-26T13:41:04.914Z</time></trkpt><trkpt lat="45.4176433" lon="9.70602"><ele>88.0</ele><time>2026-04-26T13:41:06.914Z</time></trkpt><trkpt lat="45.41753" lon="9.7060367"><ele>88.0</ele><time>2026-04-26T13:41:08.914Z</time></trkpt><trkpt lat="45.4174233" lon="9.7060583"><ele>88.0</ele><time>2026-04-26T13:41:10.914Z</time></trkpt><trkpt lat="45.41732" lon="9.7061117"><ele>88.0</ele><time>2026-04-26T13:41:12.914Z</time></trkpt><trkpt lat="45.4172967" lon="9.706245"><ele>88.0</ele><time>2026-04-26T13:41:14.914Z</time></trkpt><trkpt lat="45.4172533" lon="9.7063583"><ele>87.75</ele><time>2026-04-26T13:41:16.915Z</time></trkpt><trkpt lat="45.4171533" lon="9.7064017"><ele>87.5</ele><time>2026-04-26T13:41:18.914Z</time></trkpt><trkpt lat="45.4170383" lon="9.706425"><ele>87.25</ele><time>2026-04-26T13:41:20.914Z</time></trkpt><trkpt lat="45.4169283" lon="9.7064583"><ele>87.0</ele><time>2026-04-26T13:41:22.914Z</time></trkpt><trkpt lat="45.4168133" lon="9.70649"><ele>86.5</ele><time>2026-04-26T13:41:24.914Z</time></trkpt><trkpt lat="45.4166967" lon="9.706515"><ele>86.0</ele><time>2026-04-26T13:41:26.914Z</time></trkpt><trkpt lat="45.4165817" lon="9.7065467"><ele>85.5</ele><time>2026-04-26T13:41:28.915Z</time></trkpt><trkpt lat="45.416465" lon="9.7065767"><ele>85.0</ele><time>2026-04-26T13:41:30.914Z</time></trkpt><trkpt lat="45.4163483" lon="9.7066083"><ele>85.0</ele><time>2026-04-26T13:41:32.914Z</time></trkpt><trkpt lat="45.41624" lon="9.7066317"><ele>85.0</ele><time>2026-04-26T13:41:34.914Z</time></trkpt><trkpt lat="45.41613" lon="9.706595"><ele>85.0</ele><time>2026-04-26T13:41:36.915Z</time></trkpt><trkpt lat="45.4160267" lon="9.7065033"><ele>85.0</ele><time>2026-04-26T13:41:38.914Z</time></trkpt><trkpt lat="45.4159317" lon="9.7064033"><ele>85.0</ele><time>2026-04-26T13:41:40.914Z</time></trkpt><trkpt lat="45.4158317" lon="9.70632"><ele>85.0</ele><time>2026-04-26T13:41:42.914Z</time></trkpt><trkpt lat="45.4157183" lon="9.70626"><ele>85.0</ele><time>2026-04-26T13:41:44.914Z</time></trkpt><trkpt lat="45.4156021" lon="9.7062182"><ele>85.0</ele><time>2026-04-26T13:41:46.914Z</time></trkpt><trkpt lat="45.4154827" lon="9.7062039"><ele>85.0</ele><time>2026-04-26T13:41:48.914Z</time></trkpt><trkpt lat="45.4154187" lon="9.7062098"><ele>85.0</ele><time>2026-04-26T13:41:49.914Z</time></trkpt><trkpt lat="45.4152969" lon="9.706242"><ele>85.0</ele><time>2026-04-26T13:41:51.914Z</time></trkpt><trkpt lat="45.4151786" lon="9.7062833"><ele>85.0</ele><time>2026-04-26T13:41:53.914Z</time></trkpt><trkpt lat="45.4150636" lon="9.7063328"><ele>85.0</ele><time>2026-04-26T13:41:55.914Z</time></trkpt><trkpt lat="45.4149451" lon="9.7063852"><ele>85.0</ele><time>2026-04-26T13:41:57.914Z</time></trkpt><trkpt lat="45.4148312" lon="9.7064644"><ele>85.0</ele><time>2026-04-26T13:41:59.914Z</time></trkpt><trkpt lat="45.4147723" lon="9.7065086"><ele>85.0</ele><time>2026-04-26T13:42:00.914Z</time></trkpt><trkpt lat="45.4147147" lon="9.7065503"><ele>85.0</ele><time>2026-04-26T13:42:01.914Z</time></trkpt><trkpt lat="45.4146551" lon="9.7065968"><ele>85.0</ele><time>2026-04-26T13:42:02.914Z</time></trkpt><trkpt lat="45.4145929" lon="9.7066418"><ele>85.0</ele><time>2026-04-26T13:42:03.914Z</time></trkpt><trkpt lat="45.4145325" lon="9.7066876"><ele>84.85714285714286</ele><time>2026-04-26T13:42:04.915Z</time></trkpt><trkpt lat="45.414471" lon="9.7067304"><ele>84.71428571428571</ele><time>2026-04-26T13:42:05.914Z</time></trkpt><trkpt lat="45.414411" lon="9.7067793"><ele>84.57142857142857</ele><time>2026-04-26T13:42:06.914Z</time></trkpt><trkpt lat="45.4143524" lon="9.7068308"><ele>84.42857142857143</ele><time>2026-04-26T13:42:07.914Z</time></trkpt><trkpt lat="45.4142996" lon="9.7068895"><ele>84.28571428571428</ele><time>2026-04-26T13:42:08.914Z</time></trkpt><trkpt lat="45.4142521" lon="9.7069562"><ele>84.14285714285714</ele><time>2026-04-26T13:42:09.914Z</time></trkpt><trkpt lat="45.4142045" lon="9.7070249"><ele>84.0</ele><time>2026-04-26T13:42:10.914Z</time></trkpt><trkpt lat="45.4141515" lon="9.7070904"><ele>83.85714285714286</ele><time>2026-04-26T13:42:11.914Z</time></trkpt><trkpt lat="45.4140932" lon="9.707146"><ele>83.71428571428572</ele><time>2026-04-26T13:42:12.914Z</time></trkpt><trkpt lat="45.4140317" lon="9.7071975"><ele>83.57142857142857</ele><time>2026-04-26T13:42:13.914Z</time></trkpt><trkpt lat="45.4139704" lon="9.7072441"><ele>83.42857142857143</ele><time>2026-04-26T13:42:14.915Z</time></trkpt><trkpt lat="45.4139085" lon="9.707287"><ele>83.28571428571429</ele><time>2026-04-26T13:42:15.914Z</time></trkpt><trkpt lat="45.4138484" lon="9.7073372"><ele>83.14285714285714</ele><time>2026-04-26T13:42:16.914Z</time></trkpt><trkpt lat="45.4137911" lon="9.7073915"><ele>83.0</ele><time>2026-04-26T13:42:17.914Z</time></trkpt><trkpt lat="45.4137333" lon="9.7074437"><ele>83.0</ele><time>2026-04-26T13:42:18.914Z</time></trkpt><trkpt lat="45.4136733" lon="9.707495"><ele>83.0</ele><time>2026-04-26T13:42:19.914Z</time></trkpt><trkpt lat="45.4136133" lon="9.7075417"><ele>83.0</ele><time>2026-04-26T13:42:20.914Z</time></trkpt><trkpt lat="45.4135567" lon="9.7075917"><ele>83.0</ele><time>2026-04-26T13:42:21.914Z</time></trkpt><trkpt lat="45.4135017" lon="9.7076433"><ele>83.0</ele><time>2026-04-26T13:42:22.914Z</time></trkpt><trkpt lat="45.41345" lon="9.7076983"><ele>83.0</ele><time>2026-04-26T13:42:23.915Z</time></trkpt><trkpt lat="45.413395" lon="9.70775"><ele>83.0</ele><time>2026-04-26T13:42:24.914Z</time></trkpt><trkpt lat="45.413345" lon="9.7078183"><ele>83.28571428571428</ele><time>2026-04-26T13:42:25.914Z</time></trkpt><trkpt lat="45.4133067" lon="9.7078967"><ele>83.57142857142858</ele><time>2026-04-26T13:42:26.914Z</time></trkpt><trkpt lat="45.4132767" lon="9.7079783"><ele>83.85714285714286</ele><time>2026-04-26T13:42:27.913Z</time></trkpt><trkpt lat="45.41325" lon="9.7080617"><ele>84.14285714285714</ele><time>2026-04-26T13:42:28.913Z</time></trkpt><trkpt lat="45.413215" lon="9.7081417"><ele>84.42857142857142</ele><time>2026-04-26T13:42:29.913Z</time></trkpt><trkpt lat="45.41318" lon="9.70822"><ele>84.71428571428572</ele><time>2026-04-26T13:42:30.913Z</time></trkpt><trkpt lat="45.4131483" lon="9.7083"><ele>85.0</ele><time>2026-04-26T13:42:31.913Z</time></trkpt><trkpt lat="45.41312" lon="9.7083817"><ele>85.0</ele><time>2026-04-26T13:42:32.913Z</time></trkpt><trkpt lat="45.413075" lon="9.708545"><ele>85.0</ele><time>2026-04-26T13:42:34.913Z</time></trkpt><trkpt lat="45.4130517" lon="9.7086317"><ele>85.0</ele><time>2026-04-26T13:42:35.913Z</time></trkpt><trkpt lat="45.413035" lon="9.70872"><ele>85.0</ele><time>2026-04-26T13:42:36.913Z</time></trkpt><trkpt lat="45.4130233" lon="9.7088133"><ele>85.0</ele><time>2026-04-26T13:42:37.914Z</time></trkpt><trkpt lat="45.4130183" lon="9.708905"><ele>85.0</ele><time>2026-04-26T13:42:38.913Z</time></trkpt><trkpt lat="45.41302" lon="9.708995"><ele>85.0</ele><time>2026-04-26T13:42:39.913Z</time></trkpt><trkpt lat="45.4130183" lon="9.709095"><ele>85.0</ele><time>2026-04-26T13:42:40.914Z</time></trkpt><trkpt lat="45.4130133" lon="9.7091867"><ele>85.0</ele><time>2026-04-26T13:42:41.913Z</time></trkpt><trkpt lat="45.413015" lon="9.7092767"><ele>85.0</ele><time>2026-04-26T13:42:42.913Z</time></trkpt><trkpt lat="45.4130183" lon="9.7093683"><ele>85.0</ele><time>2026-04-26T13:42:43.913Z</time></trkpt><trkpt lat="45.4130117" lon="9.709555"><ele>85.0</ele><time>2026-04-26T13:42:45.913Z</time></trkpt><trkpt lat="45.413015" lon="9.7096467"><ele>85.0</ele><time>2026-04-26T13:42:46.913Z</time></trkpt><trkpt lat="45.4130117" lon="9.7097383"><ele>84.25</ele><time>2026-04-26T13:42:47.914Z</time></trkpt><trkpt lat="45.4129767" lon="9.709905"><ele>83.5</ele><time>2026-04-26T13:42:49.913Z</time></trkpt><trkpt lat="45.4129033" lon="9.710025"><ele>82.75</ele><time>2026-04-26T13:42:51.914Z</time></trkpt><trkpt lat="45.4128167" lon="9.7101267"><ele>82.0</ele><time>2026-04-26T13:42:53.913Z</time></trkpt><trkpt lat="45.4127333" lon="9.7102333"><ele>82.16666666666666</ele><time>2026-04-26T13:42:55.913Z</time></trkpt><trkpt lat="45.41269" lon="9.7103"><ele>82.33333333333333</ele><time>2026-04-26T13:42:56.913Z</time></trkpt><trkpt lat="45.4126433" lon="9.7103683"><ele>82.5</ele><time>2026-04-26T13:42:57.913Z</time></trkpt><trkpt lat="45.412595" lon="9.7104333"><ele>82.66666666666667</ele><time>2026-04-26T13:42:58.914Z</time></trkpt><trkpt lat="45.4125083" lon="9.7105583"><ele>82.83333333333334</ele><time>2026-04-26T13:43:00.913Z</time></trkpt><trkpt lat="45.412415" lon="9.7106667"><ele>83.0</ele><time>2026-04-26T13:43:02.913Z</time></trkpt><trkpt lat="45.4123367" lon="9.7107683"><ele>83.0</ele><time>2026-04-26T13:43:04.913Z</time></trkpt><trkpt lat="45.4123033" lon="9.7108917"><ele>83.0</ele><time>2026-04-26T13:43:06.913Z</time></trkpt><trkpt lat="45.4123" lon="9.7110433"><ele>83.0</ele><time>2026-04-26T13:43:08.913Z</time></trkpt><trkpt lat="45.4122467" lon="9.7111633"><ele>83.0</ele><time>2026-04-26T13:43:10.914Z</time></trkpt><trkpt lat="45.4121633" lon="9.7112467"><ele>83.0</ele><time>2026-04-26T13:43:12.913Z</time></trkpt><trkpt lat="45.4120617" lon="9.71127"><ele>82.4</ele><time>2026-04-26T13:43:14.913Z</time></trkpt><trkpt lat="45.411945" lon="9.7112933"><ele>81.80000000000001</ele><time>2026-04-26T13:43:16.913Z</time></trkpt><trkpt lat="45.4118533" lon="9.711325"><ele>81.2</ele><time>2026-04-26T13:43:18.913Z</time></trkpt><trkpt lat="45.4117867" lon="9.7113967"><ele>80.6</ele><time>2026-04-26T13:43:20.913Z</time></trkpt><trkpt lat="45.4117033" lon="9.7114917"><ele>80.0</ele><time>2026-04-26T13:43:22.913Z</time></trkpt><trkpt lat="45.411615" lon="9.7115783"><ele>80.0</ele><time>2026-04-26T13:43:24.913Z</time></trkpt><trkpt lat="45.4115367" lon="9.71167"><ele>80.0</ele><time>2026-04-26T13:43:26.913Z</time></trkpt><trkpt lat="45.4114483" lon="9.711735"><ele>80.0</ele><time>2026-04-26T13:43:28.913Z</time></trkpt><trkpt lat="45.4113583" lon="9.711805"><ele>80.0</ele><time>2026-04-26T13:43:30.913Z</time></trkpt><trkpt lat="45.41126" lon="9.7119017"><ele>80.0</ele><time>2026-04-26T13:43:32.913Z</time></trkpt><trkpt lat="45.4111633" lon="9.7119883"><ele>80.4</ele><time>2026-04-26T13:43:34.913Z</time></trkpt><trkpt lat="45.4110717" lon="9.712085"><ele>80.8</ele><time>2026-04-26T13:43:36.913Z</time></trkpt><trkpt lat="45.4109733" lon="9.7121733"><ele>81.19999999999999</ele><time>2026-04-26T13:43:38.914Z</time></trkpt><trkpt lat="45.4108733" lon="9.712265"><ele>81.6</ele><time>2026-04-26T13:43:40.913Z</time></trkpt><trkpt lat="45.41082" lon="9.7123133"><ele>82.0</ele><time>2026-04-26T13:43:41.913Z</time></trkpt><trkpt lat="45.410725" lon="9.7124067"><ele>82.0</ele><time>2026-04-26T13:43:43.913Z</time></trkpt><trkpt lat="45.410625" lon="9.7125"><ele>82.0</ele><time>2026-04-26T13:43:45.913Z</time></trkpt><trkpt lat="45.4105267" lon="9.7125317"><ele>82.0</ele><time>2026-04-26T13:43:47.913Z</time></trkpt><trkpt lat="45.4104717" lon="9.7124367"><ele>82.0</ele><time>2026-04-26T13:43:49.913Z</time></trkpt><trkpt lat="45.410435" lon="9.7123183"><ele>82.0</ele><time>2026-04-26T13:43:51.913Z</time></trkpt><trkpt lat="45.41036" lon="9.7123483"><ele>82.8</ele><time>2026-04-26T13:43:53.913Z</time></trkpt><trkpt lat="45.4102733" lon="9.712405"><ele>83.6</ele><time>2026-04-26T13:43:55.913Z</time></trkpt><trkpt lat="45.410185" lon="9.71248"><ele>84.39999999999999</ele><time>2026-04-26T13:43:57.914Z</time></trkpt><trkpt lat="45.4100983" lon="9.71257"><ele>85.19999999999999</ele><time>2026-04-26T13:43:59.913Z</time></trkpt><trkpt lat="45.4100133" lon="9.7126833"><ele>86.0</ele><time>2026-04-26T13:44:01.913Z</time></trkpt><trkpt lat="45.4099317" lon="9.7127883"><ele>86.0</ele><time>2026-04-26T13:44:03.913Z</time></trkpt><trkpt lat="45.4098467" lon="9.7128817"><ele>86.0</ele><time>2026-04-26T13:44:05.913Z</time></trkpt><trkpt lat="45.4097917" lon="9.7129283"><ele>86.0</ele><time>2026-04-26T13:44:06.913Z</time></trkpt><trkpt lat="45.40973" lon="9.71295"><ele>86.0</ele><time>2026-04-26T13:44:07.913Z</time></trkpt><trkpt lat="45.4096417" lon="9.7129483"><ele>86.0</ele><time>2026-04-26T13:44:08.913Z</time></trkpt><trkpt lat="45.4095233" lon="9.7129283"><ele>86.0</ele><time>2026-04-26T13:44:10.913Z</time></trkpt><trkpt lat="45.4094583" lon="9.71292"><ele>86.16666666666667</ele><time>2026-04-26T13:44:11.913Z</time></trkpt><trkpt lat="45.4093933" lon="9.7129183"><ele>86.33333333333334</ele><time>2026-04-26T13:44:12.913Z</time></trkpt><trkpt lat="45.40933" lon="9.7129267"><ele>86.5</ele><time>2026-04-26T13:44:13.913Z</time></trkpt><trkpt lat="45.4092117" lon="9.7129433"><ele>86.66666666666667</ele><time>2026-04-26T13:44:15.913Z</time></trkpt><trkpt lat="45.4091467" lon="9.7129367"><ele>86.83333333333333</ele><time>2026-04-26T13:44:16.914Z</time></trkpt><trkpt lat="45.4090767" lon="9.712935"><ele>87.0</ele><time>2026-04-26T13:44:17.913Z</time></trkpt><trkpt lat="45.4090083" lon="9.7129333"><ele>87.0</ele><time>2026-04-26T13:44:18.913Z</time></trkpt><trkpt lat="45.4089417" lon="9.7129317"><ele>87.0</ele><time>2026-04-26T13:44:19.913Z</time></trkpt><trkpt lat="45.408875" lon="9.7129433"><ele>87.0</ele><time>2026-04-26T13:44:20.914Z</time></trkpt><trkpt lat="45.40881" lon="9.7129567"><ele>87.0</ele><time>2026-04-26T13:44:21.913Z</time></trkpt><trkpt lat="45.408745" lon="9.7129667"><ele>87.0</ele><time>2026-04-26T13:44:22.913Z</time></trkpt><trkpt lat="45.40868" lon="9.712975"><ele>87.0</ele><time>2026-04-26T13:44:23.913Z</time></trkpt><trkpt lat="45.408615" lon="9.712975"><ele>87.0</ele><time>2026-04-26T13:44:24.913Z</time></trkpt><trkpt lat="45.4085483" lon="9.71298"><ele>86.8</ele><time>2026-04-26T13:44:25.913Z</time></trkpt><trkpt lat="45.40848" lon="9.7129983"><ele>86.6</ele><time>2026-04-26T13:44:26.914Z</time></trkpt><trkpt lat="45.4084167" lon="9.7130217"><ele>86.39999999999999</ele><time>2026-04-26T13:44:27.913Z</time></trkpt><trkpt lat="45.408315" lon="9.7131133"><ele>86.19999999999999</ele><time>2026-04-26T13:44:29.913Z</time></trkpt><trkpt lat="45.4082233" lon="9.7131983"><ele>86.0</ele><time>2026-04-26T13:44:31.913Z</time></trkpt><trkpt lat="45.40811" lon="9.7132217"><ele>86.19999999999999</ele><time>2026-04-26T13:44:33.913Z</time></trkpt><trkpt lat="45.4079883" lon="9.713195"><ele>86.39999999999999</ele><time>2026-04-26T13:44:35.913Z</time></trkpt><trkpt lat="45.40792" lon="9.7131867"><ele>86.6</ele><time>2026-04-26T13:44:36.913Z</time></trkpt><trkpt lat="45.4078" lon="9.713155"><ele>86.8</ele><time>2026-04-26T13:44:38.913Z</time></trkpt><trkpt lat="45.407675" lon="9.7131433"><ele>87.0</ele><time>2026-04-26T13:44:40.913Z</time></trkpt><trkpt lat="45.4076067" lon="9.71314"><ele>87.0</ele><time>2026-04-26T13:44:41.913Z</time></trkpt><trkpt lat="45.4075367" lon="9.71314"><ele>87.0</ele><time>2026-04-26T13:44:42.913Z</time></trkpt><trkpt lat="45.4074683" lon="9.71313"><ele>87.0</ele><time>2026-04-26T13:44:43.913Z</time></trkpt><trkpt lat="45.407395" lon="9.7131217"><ele>87.0</ele><time>2026-04-26T13:44:44.913Z</time></trkpt><trkpt lat="45.407325" lon="9.7131283"><ele>87.0</ele><time>2026-04-26T13:44:45.913Z</time></trkpt><trkpt lat="45.4072567" lon="9.7131367"><ele>87.0</ele><time>2026-04-26T13:44:46.913Z</time></trkpt><trkpt lat="45.4071883" lon="9.7131467"><ele>87.0</ele><time>2026-04-26T13:44:47.913Z</time></trkpt><trkpt lat="45.4071233" lon="9.713155"><ele>87.66666666666667</ele><time>2026-04-26T13:44:48.913Z</time></trkpt><trkpt lat="45.40701" lon="9.71321"><ele>88.33333333333333</ele><time>2026-04-26T13:44:50.913Z</time></trkpt><trkpt lat="45.40695" lon="9.7132467"><ele>89.0</ele><time>2026-04-26T13:44:51.913Z</time></trkpt><trkpt lat="45.406895" lon="9.7132933"><ele>89.66666666666666</ele><time>2026-04-26T13:44:52.914Z</time></trkpt><trkpt lat="45.406805" lon="9.7134233"><ele>90.33333333333333</ele><time>2026-04-26T13:44:54.913Z</time></trkpt><trkpt lat="45.40675" lon="9.7134717"><ele>91.0</ele><time>2026-04-26T13:44:55.913Z</time></trkpt><trkpt lat="45.4066417" lon="9.7135267"><ele>91.0</ele><time>2026-04-26T13:44:57.913Z</time></trkpt><trkpt lat="45.4065317" lon="9.71357"><ele>91.0</ele><time>2026-04-26T13:44:59.914Z</time></trkpt><trkpt lat="45.4064283" lon="9.7136283"><ele>91.0</ele><time>2026-04-26T13:45:01.913Z</time></trkpt><trkpt lat="45.4063283" lon="9.71371"><ele>91.0</ele><time>2026-04-26T13:45:03.913Z</time></trkpt><trkpt lat="45.4062283" lon="9.71378"><ele>90.4</ele><time>2026-04-26T13:45:05.913Z</time></trkpt><trkpt lat="45.406115" lon="9.7138333"><ele>89.8</ele><time>2026-04-26T13:45:07.913Z</time></trkpt><trkpt lat="45.406005" lon="9.7138467"><ele>89.2</ele><time>2026-04-26T13:45:09.913Z</time></trkpt><trkpt lat="45.4059067" lon="9.7138067"><ele>88.60000000000001</ele><time>2026-04-26T13:45:11.913Z</time></trkpt><trkpt lat="45.40582" lon="9.7137617"><ele>88.0</ele><time>2026-04-26T13:45:13.913Z</time></trkpt><trkpt lat="45.40572" lon="9.71375"><ele>88.0</ele><time>2026-04-26T13:45:15.913Z</time></trkpt><trkpt lat="45.4056233" lon="9.71369"><ele>88.0</ele><time>2026-04-26T13:45:17.913Z</time></trkpt><trkpt lat="45.4055483" lon="9.7135867"><ele>88.0</ele><time>2026-04-26T13:45:19.913Z</time></trkpt><trkpt lat="45.4055233" lon="9.71344"><ele>88.0</ele><time>2026-04-26T13:45:21.913Z</time></trkpt><trkpt lat="45.4055017" lon="9.71327"><ele>88.0</ele><time>2026-04-26T13:45:23.913Z</time></trkpt><trkpt lat="45.4054733" lon="9.7130967"><ele>87.5</ele><time>2026-04-26T13:45:25.914Z</time></trkpt><trkpt lat="45.405445" lon="9.7129383"><ele>87.0</ele><time>2026-04-26T13:45:27.913Z</time></trkpt><trkpt lat="45.4054117" lon="9.7127717"><ele>86.5</ele><time>2026-04-26T13:45:29.913Z</time></trkpt><trkpt lat="45.40538" lon="9.7126117"><ele>86.0</ele><time>2026-04-26T13:45:31.913Z</time></trkpt><trkpt lat="45.4053633" lon="9.7124683"><ele>85.6</ele><time>2026-04-26T13:45:33.913Z</time></trkpt><trkpt lat="45.4053633" lon="9.7122967"><ele>85.19999999999999</ele><time>2026-04-26T13:45:35.913Z</time></trkpt><trkpt lat="45.4053317" lon="9.7121517"><ele>84.80000000000001</ele><time>2026-04-26T13:45:37.913Z</time></trkpt><trkpt lat="45.405235" lon="9.7120767"><ele>84.4</ele><time>2026-04-26T13:45:39.913Z</time></trkpt><trkpt lat="45.405135" lon="9.71201"><ele>84.0</ele><time>2026-04-26T13:45:41.913Z</time></trkpt><trkpt lat="45.4050567" lon="9.7118917"><ele>83.75</ele><time>2026-04-26T13:45:43.913Z</time></trkpt><trkpt lat="45.404965" lon="9.7117867"><ele>83.5</ele><time>2026-04-26T13:45:45.913Z</time></trkpt><trkpt lat="45.404875" lon="9.71169"><ele>83.25</ele><time>2026-04-26T13:45:47.913Z</time></trkpt><trkpt lat="45.4047767" lon="9.7116"><ele>83.0</ele><time>2026-04-26T13:45:49.913Z</time></trkpt><trkpt lat="45.4046833" lon="9.711515"><ele>83.2</ele><time>2026-04-26T13:45:51.913Z</time></trkpt><trkpt lat="45.4045917" lon="9.7113967"><ele>83.4</ele><time>2026-04-26T13:45:53.913Z</time></trkpt><trkpt lat="45.4044967" lon="9.7113433"><ele>83.60000000000001</ele><time>2026-04-26T13:45:55.913Z</time></trkpt><trkpt lat="45.4044083" lon="9.71128"><ele>83.80000000000001</ele><time>2026-04-26T13:45:57.913Z</time></trkpt><trkpt lat="45.4043333" lon="9.7111717"><ele>84.0</ele><time>2026-04-26T13:45:59.913Z</time></trkpt><trkpt lat="45.4043017" lon="9.71103"><ele>83.6</ele><time>2026-04-26T13:46:01.913Z</time></trkpt><trkpt lat="45.4042467" lon="9.710945"><ele>83.2</ele><time>2026-04-26T13:46:03.913Z</time></trkpt><trkpt lat="45.404135" lon="9.71095"><ele>82.8</ele><time>2026-04-26T13:46:05.912Z</time></trkpt><trkpt lat="45.4040083" lon="9.7109483"><ele>82.39999999999999</ele><time>2026-04-26T13:46:07.912Z</time></trkpt><trkpt lat="45.4039433" lon="9.7109317"><ele>82.0</ele><time>2026-04-26T13:46:08.912Z</time></trkpt><trkpt lat="45.4038767" lon="9.710915"><ele>82.0</ele><time>2026-04-26T13:46:09.912Z</time></trkpt><trkpt lat="45.4037533" lon="9.7108883"><ele>82.0</ele><time>2026-04-26T13:46:11.912Z</time></trkpt><trkpt lat="45.40364" lon="9.7108783"><ele>82.0</ele><time>2026-04-26T13:46:13.913Z</time></trkpt><trkpt lat="45.4035267" lon="9.7108717"><ele>82.0</ele><time>2026-04-26T13:46:15.912Z</time></trkpt><trkpt lat="45.4034633" lon="9.7108717"><ele>82.0</ele><time>2026-04-26T13:46:16.912Z</time></trkpt><trkpt lat="45.40334" lon="9.7108717"><ele>82.0</ele><time>2026-04-26T13:46:18.913Z</time></trkpt><trkpt lat="45.40323" lon="9.7108433"><ele>82.0</ele><time>2026-04-26T13:46:20.912Z</time></trkpt><trkpt lat="45.4031167" lon="9.71086"><ele>82.0</ele><time>2026-04-26T13:46:22.912Z</time></trkpt><trkpt lat="45.403025" lon="9.7109267"><ele>82.0</ele><time>2026-04-26T13:46:24.912Z</time></trkpt><trkpt lat="45.40294" lon="9.7109717"><ele>82.0</ele><time>2026-04-26T13:46:26.912Z</time></trkpt><trkpt lat="45.4028567" lon="9.7109967"><ele>81.8</ele><time>2026-04-26T13:46:28.913Z</time></trkpt><trkpt lat="45.40277" lon="9.7110283"><ele>81.6</ele><time>2026-04-26T13:46:30.912Z</time></trkpt><trkpt lat="45.4026533" lon="9.7110633"><ele>81.39999999999999</ele><time>2026-04-26T13:46:32.912Z</time></trkpt><trkpt lat="45.4025383" lon="9.7110967"><ele>81.19999999999999</ele><time>2026-04-26T13:46:34.912Z</time></trkpt><trkpt lat="45.4024283" lon="9.711135"><ele>81.0</ele><time>2026-04-26T13:46:36.912Z</time></trkpt><trkpt lat="45.4023117" lon="9.71118"><ele>81.0</ele><time>2026-04-26T13:46:38.912Z</time></trkpt><trkpt lat="45.4022033" lon="9.7112367"><ele>81.0</ele><time>2026-04-26T13:46:40.912Z</time></trkpt><trkpt lat="45.4021033" lon="9.7113233"><ele>81.0</ele><time>2026-04-26T13:46:42.912Z</time></trkpt><trkpt lat="45.4020383" lon="9.7114483"><ele>81.0</ele><time>2026-04-26T13:46:44.912Z</time></trkpt><trkpt lat="45.40199" lon="9.7115833"><ele>81.0</ele><time>2026-04-26T13:46:46.912Z</time></trkpt><trkpt lat="45.4019183" lon="9.71167"><ele>80.8</ele><time>2026-04-26T13:46:48.912Z</time></trkpt><trkpt lat="45.40183" lon="9.71165"><ele>80.6</ele><time>2026-04-26T13:46:50.912Z</time></trkpt><trkpt lat="45.40171" lon="9.71162"><ele>80.4</ele><time>2026-04-26T13:46:52.912Z</time></trkpt><trkpt lat="45.401645" lon="9.7116017"><ele>80.2</ele><time>2026-04-26T13:46:53.912Z</time></trkpt><trkpt lat="45.40152" lon="9.7115867"><ele>80.0</ele><time>2026-04-26T13:46:55.912Z</time></trkpt><trkpt lat="45.4014067" lon="9.7115583"><ele>80.16666666666667</ele><time>2026-04-26T13:46:57.912Z</time></trkpt><trkpt lat="45.401305" lon="9.7115217"><ele>80.33333333333334</ele><time>2026-04-26T13:46:59.912Z</time></trkpt><trkpt lat="45.401215" lon="9.7114767"><ele>80.5</ele><time>2026-04-26T13:47:01.912Z</time></trkpt><trkpt lat="45.4011533" lon="9.711425"><ele>80.66666666666667</ele><time>2026-04-26T13:47:04.912Z</time></trkpt><trkpt lat="45.4010833" lon="9.7113783"><ele>80.83333333333333</ele><time>2026-04-26T13:47:08.912Z</time></trkpt><trkpt lat="45.4009967" lon="9.7113217"><ele>81.0</ele><time>2026-04-26T13:47:11.912Z</time></trkpt><trkpt lat="45.4009233" lon="9.7112367"><ele>81.0</ele><time>2026-04-26T13:47:13.912Z</time></trkpt><trkpt lat="45.4008317" lon="9.7111567"><ele>81.0</ele><time>2026-04-26T13:47:15.912Z</time></trkpt><trkpt lat="45.4007417" lon="9.7111067"><ele>81.0</ele><time>2026-04-26T13:47:17.912Z</time></trkpt><trkpt lat="45.4006617" lon="9.71107"><ele>81.0</ele><time>2026-04-26T13:47:19.912Z</time></trkpt><trkpt lat="45.400595" lon="9.7109983"><ele>81.0</ele><time>2026-04-26T13:47:21.912Z</time></trkpt><trkpt lat="45.400535" lon="9.7109"><ele>81.33333333333333</ele><time>2026-04-26T13:47:23.912Z</time></trkpt><trkpt lat="45.400475" lon="9.710815"><ele>81.66666666666667</ele><time>2026-04-26T13:47:25.912Z</time></trkpt><trkpt lat="45.4004083" lon="9.7107383"><ele>82.0</ele><time>2026-04-26T13:47:27.912Z</time></trkpt><trkpt lat="45.4003567" lon="9.7106467"><ele>82.33333333333334</ele><time>2026-04-26T13:47:29.912Z</time></trkpt><trkpt lat="45.4002983" lon="9.7105633"><ele>82.66666666666667</ele><time>2026-04-26T13:47:31.912Z</time></trkpt><trkpt lat="45.4002333" lon="9.71049"><ele>83.0</ele><time>2026-04-26T13:47:33.912Z</time></trkpt><trkpt lat="45.40016" lon="9.710405"><ele>83.0</ele><time>2026-04-26T13:47:35.912Z</time></trkpt><trkpt lat="45.4001017" lon="9.7103417"><ele>83.0</ele><time>2026-04-26T13:47:38.912Z</time></trkpt><trkpt lat="45.4000417" lon="9.7102833"><ele>83.0</ele><time>2026-04-26T13:47:42.912Z</time></trkpt><trkpt lat="45.3999667" lon="9.7102433"><ele>83.0</ele><time>2026-04-26T13:47:45.912Z</time></trkpt><trkpt lat="45.3998883" lon="9.7102033"><ele>83.0</ele><time>2026-04-26T13:47:47.912Z</time></trkpt><trkpt lat="45.3997917" lon="9.71015"><ele>83.0</ele><time>2026-04-26T13:47:49.912Z</time></trkpt><trkpt lat="45.399695" lon="9.7100933"><ele>82.2</ele><time>2026-04-26T13:47:51.912Z</time></trkpt><trkpt lat="45.3996067" lon="9.7100317"><ele>81.4</ele><time>2026-04-26T13:47:53.912Z</time></trkpt><trkpt lat="45.39951" lon="9.7099767"><ele>80.60000000000001</ele><time>2026-04-26T13:47:55.913Z</time></trkpt><trkpt lat="45.3994067" lon="9.7099333"><ele>79.80000000000001</ele><time>2026-04-26T13:47:57.912Z</time></trkpt><trkpt lat="45.3993167" lon="9.709875"><ele>79.0</ele><time>2026-04-26T13:47:59.913Z</time></trkpt><trkpt lat="45.39923" lon="9.7097933"><ele>79.0</ele><time>2026-04-26T13:48:01.912Z</time></trkpt><trkpt lat="45.3991533" lon="9.709695"><ele>79.0</ele><time>2026-04-26T13:48:03.912Z</time></trkpt><trkpt lat="45.399085" lon="9.70959"><ele>79.0</ele><time>2026-04-26T13:48:05.912Z</time></trkpt><trkpt lat="45.3990017" lon="9.7094833"><ele>79.0</ele><time>2026-04-26T13:48:07.913Z</time></trkpt><trkpt lat="45.3989217" lon="9.7093817"><ele>79.0</ele><time>2026-04-26T13:48:09.912Z</time></trkpt><trkpt lat="45.39883" lon="9.7092833"><ele>78.8</ele><time>2026-04-26T13:48:11.912Z</time></trkpt><trkpt lat="45.398735" lon="9.7091883"><ele>78.60000000000001</ele><time>2026-04-26T13:48:13.912Z</time></trkpt><trkpt lat="45.3986467" lon="9.70911"><ele>78.4</ele><time>2026-04-26T13:48:15.912Z</time></trkpt><trkpt lat="45.39856" lon="9.709055"><ele>78.2</ele><time>2026-04-26T13:48:17.913Z</time></trkpt><trkpt lat="45.3984633" lon="9.7090167"><ele>78.0</ele><time>2026-04-26T13:48:19.912Z</time></trkpt><trkpt lat="45.3983717" lon="9.7089633"><ele>78.0</ele><time>2026-04-26T13:48:21.912Z</time></trkpt><trkpt lat="45.3983267" lon="9.708845"><ele>78.0</ele><time>2026-04-26T13:48:23.912Z</time></trkpt><trkpt lat="45.3983667" lon="9.7087"><ele>78.0</ele><time>2026-04-26T13:48:25.912Z</time></trkpt><trkpt lat="45.39841" lon="9.7085583"><ele>78.0</ele><time>2026-04-26T13:48:27.912Z</time></trkpt><trkpt lat="45.39845" lon="9.7084083"><ele>78.0</ele><time>2026-04-26T13:48:29.912Z</time></trkpt><trkpt lat="45.3984933" lon="9.7082633"><ele>78.0</ele><time>2026-04-26T13:48:31.912Z</time></trkpt><trkpt lat="45.3985283" lon="9.708105"><ele>78.0</ele><time>2026-04-26T13:48:33.912Z</time></trkpt><trkpt lat="45.39857" lon="9.70795"><ele>78.0</ele><time>2026-04-26T13:48:35.912Z</time></trkpt><trkpt lat="45.39859" lon="9.7078033"><ele>78.0</ele><time>2026-04-26T13:48:37.912Z</time></trkpt><trkpt lat="45.3985883" lon="9.70766"><ele>78.0</ele><time>2026-04-26T13:48:39.912Z</time></trkpt><trkpt lat="45.3985767" lon="9.70751"><ele>78.0</ele><time>2026-04-26T13:48:41.912Z</time></trkpt><trkpt lat="45.3985767" lon="9.7073617"><ele>78.0</ele><time>2026-04-26T13:48:43.912Z</time></trkpt><trkpt lat="45.3985633" lon="9.707205"><ele>78.0</ele><time>2026-04-26T13:48:45.912Z</time></trkpt><trkpt lat="45.398555" lon="9.7070417"><ele>78.0</ele><time>2026-04-26T13:48:47.912Z</time></trkpt><trkpt lat="45.3985433" lon="9.7068883"><ele>78.0</ele><time>2026-04-26T13:48:49.912Z</time></trkpt><trkpt lat="45.398535" lon="9.7067267"><ele>78.4</ele><time>2026-04-26T13:48:51.912Z</time></trkpt><trkpt lat="45.3985283" lon="9.70656"><ele>78.8</ele><time>2026-04-26T13:48:53.912Z</time></trkpt><trkpt lat="45.3985167" lon="9.706395"><ele>79.2</ele><time>2026-04-26T13:48:55.912Z</time></trkpt><trkpt lat="45.3985067" lon="9.7062617"><ele>79.6</ele><time>2026-04-26T13:48:57.912Z</time></trkpt><trkpt lat="45.3984983" lon="9.70612"><ele>80.0</ele><time>2026-04-26T13:48:59.912Z</time></trkpt><trkpt lat="45.39849" lon="9.70597"><ele>80.0</ele><time>2026-04-26T13:49:01.912Z</time></trkpt><trkpt lat="45.3984867" lon="9.70583"><ele>80.0</ele><time>2026-04-26T13:49:03.912Z</time></trkpt><trkpt lat="45.3984983" lon="9.7056967"><ele>80.0</ele><time>2026-04-26T13:49:05.912Z</time></trkpt><trkpt lat="45.3985183" lon="9.7055417"><ele>80.0</ele><time>2026-04-26T13:49:07.912Z</time></trkpt><trkpt lat="45.39853" lon="9.7053983"><ele>80.0</ele><time>2026-04-26T13:49:09.912Z</time></trkpt><trkpt lat="45.3985517" lon="9.70526"><ele>80.0</ele><time>2026-04-26T13:49:11.912Z</time></trkpt><trkpt lat="45.3985683" lon="9.70512"><ele>80.0</ele><time>2026-04-26T13:49:13.912Z</time></trkpt><trkpt lat="45.3985667" lon="9.7049667"><ele>80.0</ele><time>2026-04-26T13:49:15.912Z</time></trkpt><trkpt lat="45.39857" lon="9.7048167"><ele>80.0</ele><time>2026-04-26T13:49:17.912Z</time></trkpt><trkpt lat="45.3985717" lon="9.70469"><ele>80.0</ele><time>2026-04-26T13:49:19.912Z</time></trkpt><trkpt lat="45.3985867" lon="9.704565"><ele>80.0</ele><time>2026-04-26T13:49:21.912Z</time></trkpt><trkpt lat="45.3986033" lon="9.70443"><ele>80.0</ele><time>2026-04-26T13:49:23.912Z</time></trkpt><trkpt lat="45.39862" lon="9.7042817"><ele>80.0</ele><time>2026-04-26T13:49:25.912Z</time></trkpt><trkpt lat="45.3986267" lon="9.7041483"><ele>80.0</ele><time>2026-04-26T13:49:27.912Z</time></trkpt><trkpt lat="45.3986283" lon="9.7040283"><ele>80.0</ele><time>2026-04-26T13:49:29.912Z</time></trkpt><trkpt lat="45.398625" lon="9.7039133"><ele>80.0</ele><time>2026-04-26T13:49:31.912Z</time></trkpt><trkpt lat="45.39862" lon="9.7038083"><ele>80.0</ele><time>2026-04-26T13:49:33.912Z</time></trkpt><trkpt lat="45.3986217" lon="9.7036883"><ele>80.0</ele><time>2026-04-26T13:49:35.912Z</time></trkpt><trkpt lat="45.39862" lon="9.7035817"><ele>80.0</ele><time>2026-04-26T13:49:37.912Z</time></trkpt><trkpt lat="45.3986133" lon="9.7034667"><ele>80.0</ele><time>2026-04-26T13:49:39.912Z</time></trkpt><trkpt lat="45.39862" lon="9.7033483"><ele>80.0</ele><time>2026-04-26T13:49:41.912Z</time></trkpt><trkpt lat="45.3986217" lon="9.7032283"><ele>80.0</ele><time>2026-04-26T13:49:43.912Z</time></trkpt><trkpt lat="45.39862" lon="9.703105"><ele>80.0</ele><time>2026-04-26T13:49:45.912Z</time></trkpt><trkpt lat="45.3986117" lon="9.7029933"><ele>80.0</ele><time>2026-04-26T13:49:47.912Z</time></trkpt><trkpt lat="45.398605" lon="9.7028917"><ele>80.0</ele><time>2026-04-26T13:49:49.912Z</time></trkpt><trkpt lat="45.39859" lon="9.7027933"><ele>80.0</ele><time>2026-04-26T13:49:51.912Z</time></trkpt><trkpt lat="45.3985783" lon="9.7027033"><ele>80.0</ele><time>2026-04-26T13:49:53.913Z</time></trkpt><trkpt lat="45.3985617" lon="9.7026033"><ele>80.0</ele><time>2026-04-26T13:49:55.912Z</time></trkpt><trkpt lat="45.3985483" lon="9.7024933"><ele>80.6</ele><time>2026-04-26T13:49:57.912Z</time></trkpt><trkpt lat="45.3985283" lon="9.70237"><ele>81.2</ele><time>2026-04-26T13:49:59.912Z</time></trkpt><trkpt lat="45.3985117" lon="9.7022417"><ele>81.80000000000001</ele><time>2026-04-26T13:50:01.911Z</time></trkpt><trkpt lat="45.3984933" lon="9.7021067"><ele>82.4</ele><time>2026-04-26T13:50:03.911Z</time></trkpt><trkpt lat="45.39847" lon="9.7019683"><ele>83.0</ele><time>2026-04-26T13:50:05.911Z</time></trkpt><trkpt lat="45.3984517" lon="9.7018367"><ele>83.0</ele><time>2026-04-26T13:50:07.911Z</time></trkpt><trkpt lat="45.39843" lon="9.7017033"><ele>83.0</ele><time>2026-04-26T13:50:09.911Z</time></trkpt><trkpt lat="45.3984" lon="9.70157"><ele>83.0</ele><time>2026-04-26T13:50:11.911Z</time></trkpt><trkpt lat="45.3983733" lon="9.7014467"><ele>83.0</ele><time>2026-04-26T13:50:13.912Z</time></trkpt><trkpt lat="45.39834" lon="9.7013217"><ele>83.0</ele><time>2026-04-26T13:50:15.911Z</time></trkpt><trkpt lat="45.39831" lon="9.7012117"><ele>83.0</ele><time>2026-04-26T13:50:17.911Z</time></trkpt><trkpt lat="45.3982617" lon="9.7011233"><ele>83.0</ele><time>2026-04-26T13:50:19.911Z</time></trkpt><trkpt lat="45.398195" lon="9.7011033"><ele>83.0</ele><time>2026-04-26T13:50:21.911Z</time></trkpt><trkpt lat="45.3981317" lon="9.7011333"><ele>83.0</ele><time>2026-04-26T13:50:23.911Z</time></trkpt><trkpt lat="45.3980683" lon="9.7011717"><ele>83.0</ele><time>2026-04-26T13:50:25.911Z</time></trkpt><trkpt lat="45.3979933" lon="9.7012117"><ele>83.0</ele><time>2026-04-26T13:50:27.911Z</time></trkpt><trkpt lat="45.397925" lon="9.70124"><ele>83.0</ele><time>2026-04-26T13:50:29.911Z</time></trkpt><trkpt lat="45.3978617" lon="9.701275"><ele>83.0</ele><time>2026-04-26T13:50:31.911Z</time></trkpt><trkpt lat="45.397785" lon="9.70131"><ele>83.0</ele><time>2026-04-26T13:50:33.911Z</time></trkpt><trkpt lat="45.397705" lon="9.701335"><ele>83.0</ele><time>2026-04-26T13:50:35.911Z</time></trkpt><trkpt lat="45.3976283" lon="9.7013683"><ele>83.0</ele><time>2026-04-26T13:50:37.911Z</time></trkpt><trkpt lat="45.397535" lon="9.7014"><ele>83.0</ele><time>2026-04-26T13:50:39.911Z</time></trkpt><trkpt lat="45.3974567" lon="9.70143"><ele>83.0</ele><time>2026-04-26T13:50:41.911Z</time></trkpt><trkpt lat="45.3973783" lon="9.7014683"><ele>83.0</ele><time>2026-04-26T13:50:43.911Z</time></trkpt><trkpt lat="45.3973067" lon="9.7014883"><ele>83.0</ele><time>2026-04-26T13:50:45.911Z</time></trkpt><trkpt lat="45.3972317" lon="9.701515"><ele>83.0</ele><time>2026-04-26T13:50:47.911Z</time></trkpt><trkpt lat="45.3971533" lon="9.7015417"><ele>83.0</ele><time>2026-04-26T13:50:49.911Z</time></trkpt><trkpt lat="45.3970683" lon="9.7015683"><ele>83.0</ele><time>2026-04-26T13:50:51.911Z</time></trkpt><trkpt lat="45.3969783" lon="9.7015933"><ele>83.0</ele><time>2026-04-26T13:50:53.911Z</time></trkpt><trkpt lat="45.3968967" lon="9.7016183"><ele>82.83333333333334</ele><time>2026-04-26T13:50:55.911Z</time></trkpt><trkpt lat="45.3968217" lon="9.701635"><ele>82.66666666666667</ele><time>2026-04-26T13:50:57.911Z</time></trkpt><trkpt lat="45.3967417" lon="9.7016633"><ele>82.5</ele><time>2026-04-26T13:50:59.911Z</time></trkpt><trkpt lat="45.3966483" lon="9.7016817"><ele>82.33333333333333</ele><time>2026-04-26T13:51:01.911Z</time></trkpt><trkpt lat="45.3965667" lon="9.7017017"><ele>82.16666666666666</ele><time>2026-04-26T13:51:03.911Z</time></trkpt><trkpt lat="45.3964833" lon="9.70172"><ele>82.0</ele><time>2026-04-26T13:51:05.911Z</time></trkpt><trkpt lat="45.3963917" lon="9.70174"><ele>82.0</ele><time>2026-04-26T13:51:07.911Z</time></trkpt><trkpt lat="45.3963033" lon="9.7017567"><ele>82.0</ele><time>2026-04-26T13:51:09.911Z</time></trkpt><trkpt lat="45.3962233" lon="9.7017767"><ele>82.0</ele><time>2026-04-26T13:51:11.911Z</time></trkpt><trkpt lat="45.3961333" lon="9.7017917"><ele>82.0</ele><time>2026-04-26T13:51:13.911Z</time></trkpt><trkpt lat="45.396055" lon="9.7018083"><ele>82.0</ele><time>2026-04-26T13:51:15.911Z</time></trkpt><trkpt lat="45.39597" lon="9.7018233"><ele>82.0</ele><time>2026-04-26T13:51:17.911Z</time></trkpt><trkpt lat="45.3958833" lon="9.7018417"><ele>82.0</ele><time>2026-04-26T13:51:19.911Z</time></trkpt><trkpt lat="45.395795" lon="9.7018567"><ele>82.0</ele><time>2026-04-26T13:51:21.911Z</time></trkpt><trkpt lat="45.3957017" lon="9.7018783"><ele>82.0</ele><time>2026-04-26T13:51:23.911Z</time></trkpt><trkpt lat="45.3956117" lon="9.70189"><ele>82.0</ele><time>2026-04-26T13:51:25.911Z</time></trkpt><trkpt lat="45.3955217" lon="9.7019067"><ele>82.0</ele><time>2026-04-26T13:51:27.911Z</time></trkpt><trkpt lat="45.3954267" lon="9.701925"><ele>81.6</ele><time>2026-04-26T13:51:29.911Z</time></trkpt><trkpt lat="45.3953267" lon="9.701945"><ele>81.19999999999999</ele><time>2026-04-26T13:51:31.911Z</time></trkpt><trkpt lat="45.39523" lon="9.70196"><ele>80.8</ele><time>2026-04-26T13:51:33.911Z</time></trkpt><trkpt lat="45.3951467" lon="9.7019967"><ele>80.4</ele><time>2026-04-26T13:51:35.911Z</time></trkpt><trkpt lat="45.3951083" lon="9.7021067"><ele>80.0</ele><time>2026-04-26T13:51:37.911Z</time></trkpt><trkpt lat="45.3951017" lon="9.7022433"><ele>80.0</ele><time>2026-04-26T13:51:39.911Z</time></trkpt><trkpt lat="45.3950733" lon="9.702375"><ele>80.0</ele><time>2026-04-26T13:51:41.911Z</time></trkpt><trkpt lat="45.3950233" lon="9.702515"><ele>80.0</ele><time>2026-04-26T13:51:43.911Z</time></trkpt><trkpt lat="45.3949667" lon="9.7026433"><ele>80.0</ele><time>2026-04-26T13:51:45.911Z</time></trkpt><trkpt lat="45.3949233" lon="9.702775"><ele>80.0</ele><time>2026-04-26T13:51:47.911Z</time></trkpt><trkpt lat="45.3948817" lon="9.70291"><ele>80.0</ele><time>2026-04-26T13:51:49.911Z</time></trkpt><trkpt lat="45.3948417" lon="9.7030483"><ele>80.0</ele><time>2026-04-26T13:51:51.911Z</time></trkpt><trkpt lat="45.394815" lon="9.7031883"><ele>80.0</ele><time>2026-04-26T13:51:53.911Z</time></trkpt><trkpt lat="45.39481" lon="9.7033333"><ele>80.0</ele><time>2026-04-26T13:51:55.911Z</time></trkpt><trkpt lat="45.3948067" lon="9.7034733"><ele>80.0</ele><time>2026-04-26T13:51:57.911Z</time></trkpt><trkpt lat="45.3947917" lon="9.7036033"><ele>80.0</ele><time>2026-04-26T13:51:59.911Z</time></trkpt><trkpt lat="45.3947283" lon="9.7036917"><ele>80.0</ele><time>2026-04-26T13:52:01.911Z</time></trkpt><trkpt lat="45.3946517" lon="9.703765"><ele>80.0</ele><time>2026-04-26T13:52:03.911Z</time></trkpt><trkpt lat="45.3945517" lon="9.703845"><ele>80.0</ele><time>2026-04-26T13:52:05.911Z</time></trkpt><trkpt lat="45.3944567" lon="9.7039367"><ele>80.0</ele><time>2026-04-26T13:52:07.911Z</time></trkpt><trkpt lat="45.3943633" lon="9.7040383"><ele>80.0</ele><time>2026-04-26T13:52:09.911Z</time></trkpt><trkpt lat="45.394265" lon="9.70414"><ele>80.0</ele><time>2026-04-26T13:52:11.911Z</time></trkpt><trkpt lat="45.3941833" lon="9.7042333"><ele>80.0</ele><time>2026-04-26T13:52:13.911Z</time></trkpt><trkpt lat="45.3941017" lon="9.7043333"><ele>80.0</ele><time>2026-04-26T13:52:15.911Z</time></trkpt><trkpt lat="45.3940183" lon="9.704415"><ele>80.0</ele><time>2026-04-26T13:52:17.911Z</time></trkpt><trkpt lat="45.39394" lon="9.7044617"><ele>80.0</ele><time>2026-04-26T13:52:19.912Z</time></trkpt><trkpt lat="45.3938583" lon="9.7044783"><ele>80.0</ele><time>2026-04-26T13:52:21.911Z</time></trkpt><trkpt lat="45.3938" lon="9.70452"><ele>80.0</ele><time>2026-04-26T13:52:23.911Z</time></trkpt><trkpt lat="45.3937633" lon="9.7046317"><ele>80.0</ele><time>2026-04-26T13:52:26.911Z</time></trkpt><trkpt lat="45.393715" lon="9.7047233"><ele>80.0</ele><time>2026-04-26T13:52:29.911Z</time></trkpt><trkpt lat="45.3936267" lon="9.7047667"><ele>80.0</ele><time>2026-04-26T13:52:32.912Z</time></trkpt><trkpt lat="45.3935567" lon="9.7047983"><ele>80.83333333333334</ele><time>2026-04-26T13:52:34.911Z</time></trkpt><trkpt lat="45.393485" lon="9.7048317"><ele>81.66666666666667</ele><time>2026-04-26T13:52:36.911Z</time></trkpt><trkpt lat="45.3934217" lon="9.7048883"><ele>82.5</ele><time>2026-04-26T13:52:39.911Z</time></trkpt><trkpt lat="45.3933233" lon="9.7048667"><ele>83.33333333333333</ele><time>2026-04-26T13:52:58.911Z</time></trkpt><trkpt lat="45.393265" lon="9.7049467"><ele>84.16666666666666</ele><time>2026-04-26T13:53:02.911Z</time></trkpt><trkpt lat="45.393205" lon="9.7050267"><ele>85.0</ele><time>2026-04-26T13:53:05.912Z</time></trkpt><trkpt lat="45.3931517" lon="9.7050767"><ele>85.0</ele><time>2026-04-26T13:53:07.911Z</time></trkpt><trkpt lat="45.39309" lon="9.7051633"><ele>85.0</ele><time>2026-04-26T13:53:10.911Z</time></trkpt><trkpt lat="45.393035" lon="9.7052183"><ele>85.0</ele><time>2026-04-26T13:53:13.911Z</time></trkpt><trkpt lat="45.3929833" lon="9.7051567"><ele>85.0</ele><time>2026-04-26T13:53:16.911Z</time></trkpt><trkpt lat="45.3929267" lon="9.7050417"><ele>85.0</ele><time>2026-04-26T13:53:19.911Z</time></trkpt><trkpt lat="45.3928767" lon="9.7049567"><ele>85.0</ele><time>2026-04-26T13:53:21.911Z</time></trkpt><trkpt lat="45.39282" lon="9.7048667"><ele>84.5</ele><time>2026-04-26T13:53:23.911Z</time></trkpt><trkpt lat="45.3927667" lon="9.7047683"><ele>84.0</ele><time>2026-04-26T13:53:25.911Z</time></trkpt><trkpt lat="45.392715" lon="9.7046633"><ele>83.5</ele><time>2026-04-26T13:53:27.911Z</time></trkpt><trkpt lat="45.3926617" lon="9.7045617"><ele>83.0</ele><time>2026-04-26T13:53:29.911Z</time></trkpt><trkpt lat="45.392615" lon="9.704455"><ele>82.5</ele><time>2026-04-26T13:53:31.911Z</time></trkpt><trkpt lat="45.3925733" lon="9.7043483"><ele>82.0</ele><time>2026-04-26T13:53:33.911Z</time></trkpt><trkpt lat="45.3925333" lon="9.70425"><ele>81.66666666666666</ele><time>2026-04-26T13:53:35.911Z</time></trkpt><trkpt lat="45.3924933" lon="9.7041533"><ele>81.33333333333333</ele><time>2026-04-26T13:53:37.911Z</time></trkpt><trkpt lat="45.3924667" lon="9.7040667"><ele>81.0</ele><time>2026-04-26T13:53:39.911Z</time></trkpt><trkpt lat="45.392415" lon="9.7040067"><ele>80.66666666666667</ele><time>2026-04-26T13:53:41.911Z</time></trkpt><trkpt lat="45.3923438" lon="9.7040097"><ele>80.33333333333334</ele><time>2026-04-26T13:53:43.972Z</time></trkpt><trkpt lat="45.3922566" lon="9.704021"><ele>80.0</ele><time>2026-04-26T13:53:45.938Z</time></trkpt><trkpt lat="45.3921622" lon="9.7039712"><ele>79.8</ele><time>2026-04-26T13:53:47.911Z</time></trkpt><trkpt lat="45.3920698" lon="9.7039357"><ele>79.6</ele><time>2026-04-26T13:53:49.911Z</time></trkpt><trkpt lat="45.391973" lon="9.7039189"><ele>79.4</ele><time>2026-04-26T13:53:51.911Z</time></trkpt><trkpt lat="45.3918737" lon="9.7039084"><ele>79.2</ele><time>2026-04-26T13:53:53.91Z</time></trkpt><trkpt lat="45.391778" lon="9.7038921"><ele>79.0</ele><time>2026-04-26T13:53:55.91Z</time></trkpt><trkpt lat="45.3916811" lon="9.7038757"><ele>79.0</ele><time>2026-04-26T13:53:57.91Z</time></trkpt><trkpt lat="45.3915833" lon="9.703855"><ele>79.0</ele><time>2026-04-26T13:53:59.91Z</time></trkpt><trkpt lat="45.3914828" lon="9.7038268"><ele>79.0</ele><time>2026-04-26T13:54:01.91Z</time></trkpt><trkpt lat="45.3913817" lon="9.7038"><ele>79.0</ele><time>2026-04-26T13:54:03.91Z</time></trkpt><trkpt lat="45.3912817" lon="9.7037767"><ele>79.0</ele><time>2026-04-26T13:54:05.91Z</time></trkpt><trkpt lat="45.3911783" lon="9.7037617"><ele>78.60000000000001</ele><time>2026-04-26T13:54:07.91Z</time></trkpt><trkpt lat="45.3910783" lon="9.7037467"><ele>78.2</ele><time>2026-04-26T13:54:09.91Z</time></trkpt><trkpt lat="45.3909733" lon="9.7037317"><ele>77.80000000000001</ele><time>2026-04-26T13:54:11.91Z</time></trkpt><trkpt lat="45.3908633" lon="9.7037133"><ele>77.4</ele><time>2026-04-26T13:54:13.91Z</time></trkpt><trkpt lat="45.390755" lon="9.7037"><ele>77.0</ele><time>2026-04-26T13:54:15.91Z</time></trkpt><trkpt lat="45.3906433" lon="9.7036833"><ele>77.0</ele><time>2026-04-26T13:54:17.91Z</time></trkpt><trkpt lat="45.3905367" lon="9.7036617"><ele>77.0</ele><time>2026-04-26T13:54:19.91Z</time></trkpt><trkpt lat="45.3904517" lon="9.7036317"><ele>77.0</ele><time>2026-04-26T13:54:21.91Z</time></trkpt><trkpt lat="45.390385" lon="9.703565"><ele>77.0</ele><time>2026-04-26T13:54:23.91Z</time></trkpt><trkpt lat="45.39036" lon="9.7034417"><ele>77.0</ele><time>2026-04-26T13:54:25.91Z</time></trkpt><trkpt lat="45.39037" lon="9.70331"><ele>76.83333333333334</ele><time>2026-04-26T13:54:27.91Z</time></trkpt><trkpt lat="45.3903667" lon="9.703195"><ele>76.66666666666667</ele><time>2026-04-26T13:54:29.91Z</time></trkpt><trkpt lat="45.390345" lon="9.703085"><ele>76.5</ele><time>2026-04-26T13:54:31.91Z</time></trkpt><trkpt lat="45.3902633" lon="9.7030383"><ele>76.33333333333333</ele><time>2026-04-26T13:54:33.91Z</time></trkpt><trkpt lat="45.3901817" lon="9.7030317"><ele>76.16666666666666</ele><time>2026-04-26T13:54:35.91Z</time></trkpt><trkpt lat="45.3900983" lon="9.7030333"><ele>76.0</ele><time>2026-04-26T13:54:37.911Z</time></trkpt><trkpt lat="45.39001" lon="9.70304"><ele>76.0</ele><time>2026-04-26T13:54:39.91Z</time></trkpt><trkpt lat="45.3899233" lon="9.7030417"><ele>76.0</ele><time>2026-04-26T13:54:41.91Z</time></trkpt><trkpt lat="45.38983" lon="9.7030433"><ele>76.0</ele><time>2026-04-26T13:54:43.91Z</time></trkpt><trkpt lat="45.389735" lon="9.7030383"><ele>76.0</ele><time>2026-04-26T13:54:45.911Z</time></trkpt><trkpt lat="45.3896367" lon="9.7030367"><ele>76.0</ele><time>2026-04-26T13:54:47.91Z</time></trkpt><trkpt lat="45.3895367" lon="9.7030383"><ele>76.39999999999999</ele><time>2026-04-26T13:54:49.91Z</time></trkpt><trkpt lat="45.38944" lon="9.7030467"><ele>76.8</ele><time>2026-04-26T13:54:51.91Z</time></trkpt><trkpt lat="45.389345" lon="9.7030517"><ele>77.19999999999999</ele><time>2026-04-26T13:54:53.91Z</time></trkpt><trkpt lat="45.3892517" lon="9.703055"><ele>77.6</ele><time>2026-04-26T13:54:55.91Z</time></trkpt><trkpt lat="45.38916" lon="9.7030533"><ele>78.0</ele><time>2026-04-26T13:54:57.91Z</time></trkpt><trkpt lat="45.38907" lon="9.70305"><ele>78.0</ele><time>2026-04-26T13:54:59.91Z</time></trkpt><trkpt lat="45.3889783" lon="9.7030383"><ele>78.0</ele><time>2026-04-26T13:55:01.91Z</time></trkpt><trkpt lat="45.3889" lon="9.702975"><ele>78.0</ele><time>2026-04-26T13:55:03.91Z</time></trkpt><trkpt lat="45.388875" lon="9.7028567"><ele>78.0</ele><time>2026-04-26T13:55:05.91Z</time></trkpt><trkpt lat="45.388845" lon="9.70274"><ele>78.0</ele><time>2026-04-26T13:55:07.91Z</time></trkpt><trkpt lat="45.3887617" lon="9.7026783"><ele>78.33333333333333</ele><time>2026-04-26T13:55:09.91Z</time></trkpt><trkpt lat="45.388675" lon="9.70267"><ele>78.66666666666667</ele><time>2026-04-26T13:55:11.91Z</time></trkpt><trkpt lat="45.3885867" lon="9.7026883"><ele>79.0</ele><time>2026-04-26T13:55:13.91Z</time></trkpt><trkpt lat="45.3884967" lon="9.702705"><ele>79.33333333333334</ele><time>2026-04-26T13:55:15.91Z</time></trkpt><trkpt lat="45.3884067" lon="9.7027117"><ele>79.66666666666667</ele><time>2026-04-26T13:55:17.91Z</time></trkpt><trkpt lat="45.3883283" lon="9.7027217"><ele>80.0</ele><time>2026-04-26T13:55:19.91Z</time></trkpt><trkpt lat="45.388265" lon="9.7027367"><ele>80.0</ele><time>2026-04-26T13:55:21.91Z</time></trkpt><trkpt lat="45.3881933" lon="9.70275"><ele>80.0</ele><time>2026-04-26T13:55:25.91Z</time></trkpt><trkpt lat="45.388125" lon="9.7027017"><ele>80.0</ele><time>2026-04-26T13:55:28.91Z</time></trkpt><trkpt lat="45.38809" lon="9.7026183"><ele>80.0</ele><time>2026-04-26T13:55:30.91Z</time></trkpt><trkpt lat="45.3880783" lon="9.70252"><ele>80.0</ele><time>2026-04-26T13:55:32.91Z</time></trkpt><trkpt lat="45.3880783" lon="9.702405"><ele>80.0</ele><time>2026-04-26T13:55:34.91Z</time></trkpt><trkpt lat="45.3880767" lon="9.7022833"><ele>80.0</ele><time>2026-04-26T13:55:36.91Z</time></trkpt><trkpt lat="45.3880533" lon="9.7021617"><ele>80.0</ele><time>2026-04-26T13:55:38.91Z</time></trkpt><trkpt lat="45.3879917" lon="9.7021"><ele>80.0</ele><time>2026-04-26T13:55:40.91Z</time></trkpt><trkpt lat="45.3879083" lon="9.7020983"><ele>80.0</ele><time>2026-04-26T13:55:42.91Z</time></trkpt><trkpt lat="45.38783" lon="9.7021133"><ele>80.0</ele><time>2026-04-26T13:55:44.91Z</time></trkpt><trkpt lat="45.3877483" lon="9.7021417"><ele>80.0</ele><time>2026-04-26T13:55:46.911Z</time></trkpt><trkpt lat="45.3876583" lon="9.7021783"><ele>80.0</ele><time>2026-04-26T13:55:48.91Z</time></trkpt><trkpt lat="45.3875667" lon="9.7021933"><ele>80.0</ele><time>2026-04-26T13:55:50.91Z</time></trkpt><trkpt lat="45.3874717" lon="9.7021917"><ele>80.0</ele><time>2026-04-26T13:55:52.91Z</time></trkpt><trkpt lat="45.3873733" lon="9.702195"><ele>80.0</ele><time>2026-04-26T13:55:54.91Z</time></trkpt><trkpt lat="45.38727" lon="9.7021917"><ele>80.0</ele><time>2026-04-26T13:55:56.91Z</time></trkpt><trkpt lat="45.3871667" lon="9.70219"><ele>80.2</ele><time>2026-04-26T13:55:58.91Z</time></trkpt><trkpt lat="45.387065" lon="9.7021883"><ele>80.4</ele><time>2026-04-26T13:56:00.91Z</time></trkpt><trkpt lat="45.3869617" lon="9.702185"><ele>80.6</ele><time>2026-04-26T13:56:02.91Z</time></trkpt><trkpt lat="45.3868567" lon="9.702175"><ele>80.8</ele><time>2026-04-26T13:56:04.91Z</time></trkpt><trkpt lat="45.3867517" lon="9.7021667"><ele>81.0</ele><time>2026-04-26T13:56:06.91Z</time></trkpt><trkpt lat="45.3866467" lon="9.70215"><ele>81.0</ele><time>2026-04-26T13:56:08.91Z</time></trkpt><trkpt lat="45.3865517" lon="9.7021483"><ele>81.0</ele><time>2026-04-26T13:56:10.91Z</time></trkpt><trkpt lat="45.386445" lon="9.7021483"><ele>81.0</ele><time>2026-04-26T13:56:12.91Z</time></trkpt><trkpt lat="45.3863383" lon="9.70215"><ele>81.0</ele><time>2026-04-26T13:56:14.91Z</time></trkpt><trkpt lat="45.386225" lon="9.7021267"><ele>81.0</ele><time>2026-04-26T13:56:16.91Z</time></trkpt><trkpt lat="45.38613" lon="9.70207"><ele>81.0</ele><time>2026-04-26T13:56:18.91Z</time></trkpt><trkpt lat="45.38604" lon="9.701995"><ele>81.0</ele><time>2026-04-26T13:56:20.91Z</time></trkpt><trkpt lat="45.3859417" lon="9.701925"><ele>81.0</ele><time>2026-04-26T13:56:22.911Z</time></trkpt><trkpt lat="45.3858417" lon="9.7018467"><ele>81.0</ele><time>2026-04-26T13:56:24.91Z</time></trkpt><trkpt lat="45.3857517" lon="9.70177"><ele>81.0</ele><time>2026-04-26T13:56:26.91Z</time></trkpt><trkpt lat="45.3856617" lon="9.7017"><ele>81.19999999999999</ele><time>2026-04-26T13:56:28.91Z</time></trkpt><trkpt lat="45.3855717" lon="9.7016167"><ele>81.39999999999999</ele><time>2026-04-26T13:56:30.91Z</time></trkpt><trkpt lat="45.3854733" lon="9.7015383"><ele>81.6</ele><time>2026-04-26T13:56:32.91Z</time></trkpt><trkpt lat="45.3853683" lon="9.70147"><ele>81.8</ele><time>2026-04-26T13:56:34.91Z</time></trkpt><trkpt lat="45.3852617" lon="9.7014133"><ele>82.0</ele><time>2026-04-26T13:56:36.91Z</time></trkpt><trkpt lat="45.3851533" lon="9.701375"><ele>82.19999999999999</ele><time>2026-04-26T13:56:38.91Z</time></trkpt><trkpt lat="45.3850467" lon="9.7013667"><ele>82.4</ele><time>2026-04-26T13:56:40.91Z</time></trkpt><trkpt lat="45.384945" lon="9.7013917"><ele>82.6</ele><time>2026-04-26T13:56:42.91Z</time></trkpt><trkpt lat="45.3848667" lon="9.7014383"><ele>82.80000000000001</ele><time>2026-04-26T13:56:44.91Z</time></trkpt><trkpt lat="45.3847883" lon="9.7014683"><ele>83.0</ele><time>2026-04-26T13:56:46.91Z</time></trkpt><trkpt lat="45.3847133" lon="9.701515"><ele>82.0</ele><time>2026-04-26T13:56:48.91Z</time></trkpt><trkpt lat="45.3846383" lon="9.7015833"><ele>81.0</ele><time>2026-04-26T13:56:50.91Z</time></trkpt><trkpt lat="45.3845683" lon="9.7016583"><ele>80.0</ele><time>2026-04-26T13:56:52.91Z</time></trkpt><trkpt lat="45.3845" lon="9.70173"><ele>79.0</ele><time>2026-04-26T13:56:54.911Z</time></trkpt><trkpt lat="45.3844317" lon="9.7018083"><ele>78.0</ele><time>2026-04-26T13:56:56.91Z</time></trkpt><trkpt lat="45.3843633" lon="9.701875"><ele>77.0</ele><time>2026-04-26T13:56:58.91Z</time></trkpt><trkpt lat="45.3842867" lon="9.70193"><ele>77.0</ele><time>2026-04-26T13:57:00.91Z</time></trkpt><trkpt lat="45.3842133" lon="9.702005"><ele>77.0</ele><time>2026-04-26T13:57:02.91Z</time></trkpt><trkpt lat="45.3841383" lon="9.7020783"><ele>77.0</ele><time>2026-04-26T13:57:04.911Z</time></trkpt><trkpt lat="45.3840717" lon="9.702155"><ele>77.0</ele><time>2026-04-26T13:57:06.91Z</time></trkpt><trkpt lat="45.383995" lon="9.702215"><ele>77.0</ele><time>2026-04-26T13:57:08.91Z</time></trkpt><trkpt lat="45.383915" lon="9.702295"><ele>76.6</ele><time>2026-04-26T13:57:10.91Z</time></trkpt><trkpt lat="45.3838267" lon="9.702365"><ele>76.2</ele><time>2026-04-26T13:57:12.91Z</time></trkpt><trkpt lat="45.3837267" lon="9.7024267"><ele>75.8</ele><time>2026-04-26T13:57:14.91Z</time></trkpt><trkpt lat="45.38363" lon="9.7024833"><ele>75.4</ele><time>2026-04-26T13:57:16.911Z</time></trkpt><trkpt lat="45.38353" lon="9.702535"><ele>75.0</ele><time>2026-04-26T13:57:18.91Z</time></trkpt><trkpt lat="45.383425" lon="9.7025933"><ele>75.0</ele><time>2026-04-26T13:57:20.91Z</time></trkpt><trkpt lat="45.3833317" lon="9.7026483"><ele>75.0</ele><time>2026-04-26T13:57:22.91Z</time></trkpt><trkpt lat="45.3832467" lon="9.7026983"><ele>75.0</ele><time>2026-04-26T13:57:24.91Z</time></trkpt><trkpt lat="45.3831567" lon="9.702755"><ele>75.0</ele><time>2026-04-26T13:57:26.91Z</time></trkpt><trkpt lat="45.3830617" lon="9.70281"><ele>75.0</ele><time>2026-04-26T13:57:28.91Z</time></trkpt><trkpt lat="45.382965" lon="9.702855"><ele>75.33333333333333</ele><time>2026-04-26T13:57:30.91Z</time></trkpt><trkpt lat="45.3828667" lon="9.702875"><ele>75.66666666666667</ele><time>2026-04-26T13:57:32.91Z</time></trkpt><trkpt lat="45.3827817" lon="9.7029233"><ele>76.0</ele><time>2026-04-26T13:57:34.91Z</time></trkpt><trkpt lat="45.3827" lon="9.70299"><ele>76.33333333333334</ele><time>2026-04-26T13:57:36.91Z</time></trkpt><trkpt lat="45.3826483" lon="9.7030817"><ele>76.66666666666667</ele><time>2026-04-26T13:57:38.91Z</time></trkpt><trkpt lat="45.38264" lon="9.7031967"><ele>77.0</ele><time>2026-04-26T13:57:40.91Z</time></trkpt><trkpt lat="45.3826767" lon="9.7033317"><ele>77.0</ele><time>2026-04-26T13:57:42.909Z</time></trkpt><trkpt lat="45.3827117" lon="9.7034717"><ele>77.0</ele><time>2026-04-26T13:57:44.909Z</time></trkpt><trkpt lat="45.382745" lon="9.70361"><ele>77.0</ele><time>2026-04-26T13:57:46.909Z</time></trkpt><trkpt lat="45.382775" lon="9.7037483"><ele>77.0</ele><time>2026-04-26T13:57:48.909Z</time></trkpt><trkpt lat="45.3828033" lon="9.7038817"><ele>77.0</ele><time>2026-04-26T13:57:50.909Z</time></trkpt><trkpt lat="45.38283" lon="9.7040083"><ele>76.8</ele><time>2026-04-26T13:57:52.909Z</time></trkpt><trkpt lat="45.3828483" lon="9.7041467"><ele>76.6</ele><time>2026-04-26T13:57:54.909Z</time></trkpt><trkpt lat="45.3828717" lon="9.7042917"><ele>76.39999999999999</ele><time>2026-04-26T13:57:56.909Z</time></trkpt><trkpt lat="45.3829033" lon="9.70445"><ele>76.2</ele><time>2026-04-26T13:57:58.909Z</time></trkpt><trkpt lat="45.382945" lon="9.7045933"><ele>76.0</ele><time>2026-04-26T13:58:00.909Z</time></trkpt><trkpt lat="45.3829883" lon="9.704735"><ele>76.0</ele><time>2026-04-26T13:58:02.909Z</time></trkpt><trkpt lat="45.3830317" lon="9.7048667"><ele>76.0</ele><time>2026-04-26T13:58:04.909Z</time></trkpt><trkpt lat="45.38307" lon="9.70499"><ele>76.0</ele><time>2026-04-26T13:58:06.909Z</time></trkpt><trkpt lat="45.383105" lon="9.70513"><ele>76.0</ele><time>2026-04-26T13:58:08.909Z</time></trkpt><trkpt lat="45.38311" lon="9.7052833"><ele>76.0</ele><time>2026-04-26T13:58:10.909Z</time></trkpt><trkpt lat="45.3831" lon="9.705435"><ele>76.0</ele><time>2026-04-26T13:58:12.909Z</time></trkpt><trkpt lat="45.3831" lon="9.7055833"><ele>76.0</ele><time>2026-04-26T13:58:14.909Z</time></trkpt><trkpt lat="45.383115" lon="9.705735"><ele>76.0</ele><time>2026-04-26T13:58:16.909Z</time></trkpt><trkpt lat="45.383125" lon="9.7058867"><ele>76.0</ele><time>2026-04-26T13:58:18.909Z</time></trkpt><trkpt lat="45.3831317" lon="9.7060367"><ele>76.0</ele><time>2026-04-26T13:58:20.909Z</time></trkpt><trkpt lat="45.3831417" lon="9.7061883"><ele>76.0</ele><time>2026-04-26T13:58:22.909Z</time></trkpt><trkpt lat="45.3831517" lon="9.7063417"><ele>76.0</ele><time>2026-04-26T13:58:24.909Z</time></trkpt><trkpt lat="45.3831617" lon="9.7064967"><ele>76.0</ele><time>2026-04-26T13:58:26.909Z</time></trkpt><trkpt lat="45.3831717" lon="9.7066583"><ele>76.0</ele><time>2026-04-26T13:58:28.909Z</time></trkpt><trkpt lat="45.383175" lon="9.7068067"><ele>76.0</ele><time>2026-04-26T13:58:30.909Z</time></trkpt><trkpt lat="45.38317" lon="9.7069633"><ele>76.0</ele><time>2026-04-26T13:58:32.909Z</time></trkpt><trkpt lat="45.3831517" lon="9.707115"><ele>76.0</ele><time>2026-04-26T13:58:34.909Z</time></trkpt><trkpt lat="45.3831367" lon="9.7072783"><ele>76.0</ele><time>2026-04-26T13:58:36.909Z</time></trkpt><trkpt lat="45.3831167" lon="9.7074233"><ele>76.0</ele><time>2026-04-26T13:58:38.909Z</time></trkpt><trkpt lat="45.383095" lon="9.7075717"><ele>76.0</ele><time>2026-04-26T13:58:40.909Z</time></trkpt><trkpt lat="45.3830867" lon="9.70773"><ele>75.8</ele><time>2026-04-26T13:58:42.909Z</time></trkpt><trkpt lat="45.3830783" lon="9.707875"><ele>75.6</ele><time>2026-04-26T13:58:44.909Z</time></trkpt><trkpt lat="45.383025" lon="9.7079883"><ele>75.4</ele><time>2026-04-26T13:58:46.909Z</time></trkpt><trkpt lat="45.3829683" lon="9.7081133"><ele>75.2</ele><time>2026-04-26T13:58:48.91Z</time></trkpt><trkpt lat="45.3829483" lon="9.708255"><ele>75.0</ele><time>2026-04-26T13:58:50.909Z</time></trkpt><trkpt lat="45.38294" lon="9.7083933"><ele>75.0</ele><time>2026-04-26T13:58:52.91Z</time></trkpt><trkpt lat="45.3829083" lon="9.70851"><ele>75.0</ele><time>2026-04-26T13:58:54.909Z</time></trkpt><trkpt lat="45.38284" lon="9.7085883"><ele>75.0</ele><time>2026-04-26T13:58:56.909Z</time></trkpt><trkpt lat="45.3827517" lon="9.7086083"><ele>75.0</ele><time>2026-04-26T13:58:58.909Z</time></trkpt><trkpt lat="45.382655" lon="9.7086"><ele>75.0</ele><time>2026-04-26T13:59:00.909Z</time></trkpt><trkpt lat="45.38256" lon="9.7085817"><ele>74.8</ele><time>2026-04-26T13:59:02.909Z</time></trkpt><trkpt lat="45.3824533" lon="9.7085617"><ele>74.6</ele><time>2026-04-26T13:59:04.909Z</time></trkpt><trkpt lat="45.38235" lon="9.70856"><ele>74.4</ele><time>2026-04-26T13:59:06.909Z</time></trkpt><trkpt lat="45.38225" lon="9.70856"><ele>74.2</ele><time>2026-04-26T13:59:08.909Z</time></trkpt><trkpt lat="45.3821483" lon="9.7085583"><ele>74.0</ele><time>2026-04-26T13:59:10.91Z</time></trkpt><trkpt lat="45.3820517" lon="9.708555"><ele>74.60000000000001</ele><time>2026-04-26T13:59:12.909Z</time></trkpt><trkpt lat="45.3819567" lon="9.7085733"><ele>75.2</ele><time>2026-04-26T13:59:14.909Z</time></trkpt><trkpt lat="45.3818567" lon="9.7085917"><ele>75.80000000000001</ele><time>2026-04-26T13:59:16.909Z</time></trkpt><trkpt lat="45.3817533" lon="9.7086017"><ele>76.4</ele><time>2026-04-26T13:59:18.909Z</time></trkpt><trkpt lat="45.3816433" lon="9.708615"><ele>77.0</ele><time>2026-04-26T13:59:20.909Z</time></trkpt><trkpt lat="45.3815317" lon="9.7086383"><ele>77.0</ele><time>2026-04-26T13:59:22.909Z</time></trkpt><trkpt lat="45.38143" lon="9.7086683"><ele>77.0</ele><time>2026-04-26T13:59:24.909Z</time></trkpt><trkpt lat="45.3813233" lon="9.708715"><ele>77.0</ele><time>2026-04-26T13:59:26.909Z</time></trkpt><trkpt lat="45.3812183" lon="9.708755"><ele>77.0</ele><time>2026-04-26T13:59:28.909Z</time></trkpt><trkpt lat="45.3811083" lon="9.7087983"><ele>77.0</ele><time>2026-04-26T13:59:30.909Z</time></trkpt><trkpt lat="45.3810067" lon="9.708855"><ele>76.8</ele><time>2026-04-26T13:59:32.909Z</time></trkpt><trkpt lat="45.3809" lon="9.708905"><ele>76.6</ele><time>2026-04-26T13:59:34.909Z</time></trkpt><trkpt lat="45.3807967" lon="9.708965"><ele>76.39999999999999</ele><time>2026-04-26T13:59:36.909Z</time></trkpt><trkpt lat="45.3807033" lon="9.7090317"><ele>76.2</ele><time>2026-04-26T13:59:38.909Z</time></trkpt><trkpt lat="45.3806017" lon="9.7090817"><ele>76.0</ele><time>2026-04-26T13:59:40.909Z</time></trkpt><trkpt lat="45.3805" lon="9.7091383"><ele>76.0</ele><time>2026-04-26T13:59:42.909Z</time></trkpt><trkpt lat="45.3804" lon="9.709205"><ele>76.0</ele><time>2026-04-26T13:59:44.909Z</time></trkpt><trkpt lat="45.3802983" lon="9.7092667"><ele>76.0</ele><time>2026-04-26T13:59:46.909Z</time></trkpt><trkpt lat="45.380205" lon="9.7093267"><ele>76.0</ele><time>2026-04-26T13:59:48.91Z</time></trkpt><trkpt lat="45.3801117" lon="9.70939"><ele>76.0</ele><time>2026-04-26T13:59:50.909Z</time></trkpt><trkpt lat="45.380015" lon="9.70943"><ele>76.0</ele><time>2026-04-26T13:59:52.909Z</time></trkpt><trkpt lat="45.3799217" lon="9.7094067"><ele>76.0</ele><time>2026-04-26T13:59:54.909Z</time></trkpt><trkpt lat="45.3798717" lon="9.709295"><ele>76.0</ele><time>2026-04-26T13:59:56.909Z</time></trkpt><trkpt lat="45.3798583" lon="9.7091583"><ele>76.0</ele><time>2026-04-26T13:59:58.909Z</time></trkpt><trkpt lat="45.37983" lon="9.7090317"><ele>76.0</ele><time>2026-04-26T14:00:00.909Z</time></trkpt><trkpt lat="45.379755" lon="9.708965"><ele>76.0</ele><time>2026-04-26T14:00:02.909Z</time></trkpt><trkpt lat="45.379705" lon="9.7088817"><ele>76.0</ele><time>2026-04-26T14:00:04.909Z</time></trkpt><trkpt lat="45.3797" lon="9.70877"><ele>76.0</ele><time>2026-04-26T14:00:06.909Z</time></trkpt><trkpt lat="45.37969" lon="9.7086383"><ele>76.0</ele><time>2026-04-26T14:00:08.909Z</time></trkpt><trkpt lat="45.3796783" lon="9.7085117"><ele>76.0</ele><time>2026-04-26T14:00:10.909Z</time></trkpt><trkpt lat="45.3796667" lon="9.70839"><ele>76.0</ele><time>2026-04-26T14:00:12.909Z</time></trkpt><trkpt lat="45.37967" lon="9.7082833"><ele>75.57142857142857</ele><time>2026-04-26T14:00:14.909Z</time></trkpt><trkpt lat="45.37967" lon="9.7081917"><ele>75.14285714285715</ele><time>2026-04-26T14:00:16.909Z</time></trkpt><trkpt lat="45.3796733" lon="9.7080983"><ele>74.71428571428572</ele><time>2026-04-26T14:00:19.909Z</time></trkpt><trkpt lat="45.3796733" lon="9.7079867"><ele>74.28571428571428</ele><time>2026-04-26T14:00:22.909Z</time></trkpt><trkpt lat="45.3796667" lon="9.7078933"><ele>73.85714285714286</ele><time>2026-04-26T14:00:24.909Z</time></trkpt><trkpt lat="45.3796467" lon="9.7078033"><ele>73.42857142857143</ele><time>2026-04-26T14:00:26.909Z</time></trkpt><trkpt lat="45.3796267" lon="9.7077033"><ele>73.0</ele><time>2026-04-26T14:00:28.909Z</time></trkpt><trkpt lat="45.3795983" lon="9.70759"><ele>73.0</ele><time>2026-04-26T14:00:31.909Z</time></trkpt><trkpt lat="45.37963" lon="9.7074733"><ele>73.0</ele><time>2026-04-26T14:00:34.91Z</time></trkpt><trkpt lat="45.3796733" lon="9.7073967"><ele>73.0</ele><time>2026-04-26T14:00:36.909Z</time></trkpt><trkpt lat="45.3797267" lon="9.707305"><ele>73.0</ele><time>2026-04-26T14:00:38.909Z</time></trkpt><trkpt lat="45.3797717" lon="9.7072133"><ele>73.0</ele><time>2026-04-26T14:00:40.909Z</time></trkpt><trkpt lat="45.379805" lon="9.7071367"><ele>73.0</ele><time>2026-04-26T14:00:42.909Z</time></trkpt><trkpt lat="45.3797867" lon="9.707025"><ele>73.0</ele><time>2026-04-26T14:00:46.91Z</time></trkpt><trkpt lat="45.3797017" lon="9.70696"><ele>73.0</ele><time>2026-04-26T14:00:49.909Z</time></trkpt><trkpt lat="45.379635" lon="9.706905"><ele>73.0</ele><time>2026-04-26T14:00:51.91Z</time></trkpt><trkpt lat="45.37957" lon="9.7068383"><ele>73.0</ele><time>2026-04-26T14:00:53.909Z</time></trkpt><trkpt lat="45.379505" lon="9.706795"><ele>73.0</ele><time>2026-04-26T14:00:55.909Z</time></trkpt><trkpt lat="45.3794533" lon="9.7067433"><ele>73.0</ele><time>2026-04-26T14:00:57.909Z</time></trkpt><trkpt lat="45.379425" lon="9.706655"><ele>73.0</ele><time>2026-04-26T14:00:59.91Z</time></trkpt><trkpt lat="45.37942" lon="9.7065317"><ele>73.0</ele><time>2026-04-26T14:01:01.909Z</time></trkpt><trkpt lat="45.3794217" lon="9.7063933"><ele>73.0</ele><time>2026-04-26T14:01:03.909Z</time></trkpt><trkpt lat="45.3794217" lon="9.7062517"><ele>73.0</ele><time>2026-04-26T14:01:05.909Z</time></trkpt><trkpt lat="45.37942" lon="9.706125"><ele>73.0</ele><time>2026-04-26T14:01:07.909Z</time></trkpt><trkpt lat="45.379415" lon="9.7060017"><ele>73.0</ele><time>2026-04-26T14:01:09.91Z</time></trkpt><trkpt lat="45.3794183" lon="9.7058617"><ele>73.0</ele><time>2026-04-26T14:01:11.909Z</time></trkpt><trkpt lat="45.3794183" lon="9.705715"><ele>73.0</ele><time>2026-04-26T14:01:13.909Z</time></trkpt><trkpt lat="45.37941" lon="9.705565"><ele>73.0</ele><time>2026-04-26T14:01:15.91Z</time></trkpt><trkpt lat="45.3794117" lon="9.7054217"><ele>73.0</ele><time>2026-04-26T14:01:17.909Z</time></trkpt><trkpt lat="45.379415" lon="9.7052733"><ele>72.8</ele><time>2026-04-26T14:01:19.909Z</time></trkpt><trkpt lat="45.3794133" lon="9.70512"><ele>72.6</ele><time>2026-04-26T14:01:21.908Z</time></trkpt><trkpt lat="45.3794167" lon="9.7049633"><ele>72.4</ele><time>2026-04-26T14:01:23.908Z</time></trkpt><trkpt lat="45.379435" lon="9.70479"><ele>72.2</ele><time>2026-04-26T14:01:25.908Z</time></trkpt><trkpt lat="45.3794367" lon="9.7046967"><ele>72.0</ele><time>2026-04-26T14:01:26.908Z</time></trkpt><trkpt lat="45.379435" lon="9.7045483"><ele>72.4</ele><time>2026-04-26T14:01:28.908Z</time></trkpt><trkpt lat="45.3794217" lon="9.7043917"><ele>72.80000000000001</ele><time>2026-04-26T14:01:30.908Z</time></trkpt><trkpt lat="45.37942" lon="9.704245"><ele>73.2</ele><time>2026-04-26T14:01:32.908Z</time></trkpt><trkpt lat="45.3794117" lon="9.7040983"><ele>73.60000000000001</ele><time>2026-04-26T14:01:34.908Z</time></trkpt><trkpt lat="45.37938" lon="9.7039867"><ele>74.0</ele><time>2026-04-26T14:01:36.908Z</time></trkpt><trkpt lat="45.379315" lon="9.7039383"><ele>74.0</ele><time>2026-04-26T14:01:38.908Z</time></trkpt><trkpt lat="45.37922" lon="9.7039283"><ele>74.0</ele><time>2026-04-26T14:01:40.908Z</time></trkpt><trkpt lat="45.379145" lon="9.7038367"><ele>74.0</ele><time>2026-04-26T14:01:42.908Z</time></trkpt><trkpt lat="45.3791333" lon="9.703735"><ele>74.0</ele><time>2026-04-26T14:01:44.908Z</time></trkpt><trkpt lat="45.3791133" lon="9.70365"><ele>74.0</ele><time>2026-04-26T14:01:46.908Z</time></trkpt><trkpt lat="45.379025" lon="9.7035967"><ele>74.0</ele><time>2026-04-26T14:01:49.908Z</time></trkpt><trkpt lat="45.378945" lon="9.7035617"><ele>74.33333333333334</ele><time>2026-04-26T14:01:51.909Z</time></trkpt><trkpt lat="45.3788583" lon="9.7035267"><ele>74.66666666666667</ele><time>2026-04-26T14:01:53.908Z</time></trkpt><trkpt lat="45.378785" lon="9.7034933"><ele>75.0</ele><time>2026-04-26T14:01:55.908Z</time></trkpt><trkpt lat="45.37871" lon="9.7034733"><ele>75.33333333333333</ele><time>2026-04-26T14:01:57.908Z</time></trkpt><trkpt lat="45.3786367" lon="9.7034617"><ele>75.66666666666666</ele><time>2026-04-26T14:01:59.908Z</time></trkpt><trkpt lat="45.378555" lon="9.703455"><ele>76.0</ele><time>2026-04-26T14:02:01.908Z</time></trkpt><trkpt lat="45.3784667" lon="9.7034533"><ele>75.83333333333333</ele><time>2026-04-26T14:02:03.908Z</time></trkpt><trkpt lat="45.37838" lon="9.7034633"><ele>75.66666666666666</ele><time>2026-04-26T14:02:05.909Z</time></trkpt><trkpt lat="45.378295" lon="9.7034733"><ele>75.5</ele><time>2026-04-26T14:02:07.908Z</time></trkpt><trkpt lat="45.378205" lon="9.703485"><ele>75.33333333333333</ele><time>2026-04-26T14:02:09.908Z</time></trkpt><trkpt lat="45.3781183" lon="9.7034867"><ele>75.16666666666667</ele><time>2026-04-26T14:02:11.908Z</time></trkpt><trkpt lat="45.378025" lon="9.703495"><ele>75.0</ele><time>2026-04-26T14:02:13.908Z</time></trkpt><trkpt lat="45.3779317" lon="9.7035117"><ele>75.0</ele><time>2026-04-26T14:02:15.908Z</time></trkpt><trkpt lat="45.37783" lon="9.7035067"><ele>75.0</ele><time>2026-04-26T14:02:17.908Z</time></trkpt><trkpt lat="45.37774" lon="9.703465"><ele>75.0</ele><time>2026-04-26T14:02:19.908Z</time></trkpt><trkpt lat="45.37767" lon="9.7034083"><ele>75.0</ele><time>2026-04-26T14:02:21.909Z</time></trkpt><trkpt lat="45.3776367" lon="9.7033067"><ele>75.0</ele><time>2026-04-26T14:02:23.908Z</time></trkpt><trkpt lat="45.3776183" lon="9.7032017"><ele>75.0</ele><time>2026-04-26T14:02:25.908Z</time></trkpt><trkpt lat="45.3775567" lon="9.703125"><ele>75.0</ele><time>2026-04-26T14:02:27.908Z</time></trkpt><trkpt lat="45.37747" lon="9.7030733"><ele>75.0</ele><time>2026-04-26T14:02:29.908Z</time></trkpt><trkpt lat="45.3773733" lon="9.70302"><ele>75.0</ele><time>2026-04-26T14:02:31.908Z</time></trkpt><trkpt lat="45.3772733" lon="9.7029917"><ele>75.0</ele><time>2026-04-26T14:02:33.908Z</time></trkpt><trkpt lat="45.3771617" lon="9.7029667"><ele>75.0</ele><time>2026-04-26T14:02:35.908Z</time></trkpt><trkpt lat="45.37705" lon="9.7028967"><ele>75.0</ele><time>2026-04-26T14:02:37.908Z</time></trkpt><trkpt lat="45.3769733" lon="9.7027617"><ele>75.0</ele><time>2026-04-26T14:02:39.908Z</time></trkpt><trkpt lat="45.376895" lon="9.7026283"><ele>75.0</ele><time>2026-04-26T14:02:41.908Z</time></trkpt><trkpt lat="45.376805" lon="9.7025167"><ele>75.0</ele><time>2026-04-26T14:02:43.909Z</time></trkpt><trkpt lat="45.376715" lon="9.7024233"><ele>74.75</ele><time>2026-04-26T14:02:45.909Z</time></trkpt><trkpt lat="45.376625" lon="9.7023367"><ele>74.5</ele><time>2026-04-26T14:02:47.908Z</time></trkpt><trkpt lat="45.37652" lon="9.70225"><ele>74.25</ele><time>2026-04-26T14:02:49.908Z</time></trkpt><trkpt lat="45.3764117" lon="9.702175"><ele>74.0</ele><time>2026-04-26T14:02:51.908Z</time></trkpt><trkpt lat="45.3763067" lon="9.7021367"><ele>73.8</ele><time>2026-04-26T14:02:53.908Z</time></trkpt><trkpt lat="45.3762017" lon="9.7021067"><ele>73.60000000000001</ele><time>2026-04-26T14:02:55.908Z</time></trkpt><trkpt lat="45.3760917" lon="9.7020783"><ele>73.4</ele><time>2026-04-26T14:02:57.908Z</time></trkpt><trkpt lat="45.37598" lon="9.7020717"><ele>73.2</ele><time>2026-04-26T14:02:59.908Z</time></trkpt><trkpt lat="45.375875" lon="9.7020933"><ele>73.0</ele><time>2026-04-26T14:03:01.908Z</time></trkpt><trkpt lat="45.3757583" lon="9.7021317"><ele>73.0</ele><time>2026-04-26T14:03:03.909Z</time></trkpt><trkpt lat="45.3756367" lon="9.7021633"><ele>73.0</ele><time>2026-04-26T14:03:05.908Z</time></trkpt><trkpt lat="45.3755733" lon="9.7021817"><ele>73.0</ele><time>2026-04-26T14:03:06.908Z</time></trkpt><trkpt lat="45.3754583" lon="9.70221"><ele>73.0</ele><time>2026-04-26T14:03:08.908Z</time></trkpt><trkpt lat="45.3753417" lon="9.7021983"><ele>73.0</ele><time>2026-04-26T14:03:10.908Z</time></trkpt><trkpt lat="45.375265" lon="9.7021133"><ele>73.0</ele><time>2026-04-26T14:03:12.908Z</time></trkpt><trkpt lat="45.3752433" lon="9.70197"><ele>73.0</ele><time>2026-04-26T14:03:14.908Z</time></trkpt><trkpt lat="45.3752383" lon="9.7018183"><ele>73.0</ele><time>2026-04-26T14:03:16.908Z</time></trkpt><trkpt lat="45.3752283" lon="9.7016583"><ele>73.0</ele><time>2026-04-26T14:03:18.908Z</time></trkpt><trkpt lat="45.3752167" lon="9.701505"><ele>73.0</ele><time>2026-04-26T14:03:20.908Z</time></trkpt><trkpt lat="45.375205" lon="9.70135"><ele>73.4</ele><time>2026-04-26T14:03:22.908Z</time></trkpt><trkpt lat="45.3751917" lon="9.7012017"><ele>73.8</ele><time>2026-04-26T14:03:24.908Z</time></trkpt><trkpt lat="45.37516" lon="9.701085"><ele>74.2</ele><time>2026-04-26T14:03:26.908Z</time></trkpt><trkpt lat="45.37508" lon="9.7010433"><ele>74.6</ele><time>2026-04-26T14:03:28.908Z</time></trkpt><trkpt lat="45.37499" lon="9.7010583"><ele>75.0</ele><time>2026-04-26T14:03:30.908Z</time></trkpt><trkpt lat="45.3748867" lon="9.7010767"><ele>75.2</ele><time>2026-04-26T14:03:32.908Z</time></trkpt><trkpt lat="45.3747767" lon="9.7010767"><ele>75.4</ele><time>2026-04-26T14:03:34.908Z</time></trkpt><trkpt lat="45.3746667" lon="9.7010917"><ele>75.6</ele><time>2026-04-26T14:03:36.908Z</time></trkpt><trkpt lat="45.3745517" lon="9.7010983"><ele>75.8</ele><time>2026-04-26T14:03:38.908Z</time></trkpt><trkpt lat="45.3744383" lon="9.7011"><ele>76.0</ele><time>2026-04-26T14:03:40.908Z</time></trkpt><trkpt lat="45.374325" lon="9.7011067"><ele>75.39999999999999</ele><time>2026-04-26T14:03:42.908Z</time></trkpt><trkpt lat="45.37421" lon="9.701125"><ele>74.8</ele><time>2026-04-26T14:03:44.908Z</time></trkpt><trkpt lat="45.3740983" lon="9.7011467"><ele>74.19999999999999</ele><time>2026-04-26T14:03:46.908Z</time></trkpt><trkpt lat="45.374035" lon="9.7011467"><ele>73.6</ele><time>2026-04-26T14:03:47.908Z</time></trkpt><trkpt lat="45.3739167" lon="9.7011533"><ele>73.0</ele><time>2026-04-26T14:03:49.908Z</time></trkpt><trkpt lat="45.3737983" lon="9.7011683"><ele>73.0</ele><time>2026-04-26T14:03:51.908Z</time></trkpt><trkpt lat="45.3736817" lon="9.7011783"><ele>73.0</ele><time>2026-04-26T14:03:53.908Z</time></trkpt><trkpt lat="45.3736167" lon="9.70118"><ele>73.0</ele><time>2026-04-26T14:03:54.908Z</time></trkpt><trkpt lat="45.3735533" lon="9.701175"><ele>73.0</ele><time>2026-04-26T14:03:55.908Z</time></trkpt><trkpt lat="45.3734883" lon="9.701165"><ele>73.0</ele><time>2026-04-26T14:03:56.908Z</time></trkpt><trkpt lat="45.373425" lon="9.7011467"><ele>73.0</ele><time>2026-04-26T14:03:57.908Z</time></trkpt><trkpt lat="45.37336" lon="9.701125"><ele>73.0</ele><time>2026-04-26T14:03:58.908Z</time></trkpt><trkpt lat="45.3732967" lon="9.701095"><ele>73.0</ele><time>2026-04-26T14:03:59.908Z</time></trkpt><trkpt lat="45.37323" lon="9.7010733"><ele>73.0</ele><time>2026-04-26T14:04:00.908Z</time></trkpt><trkpt lat="45.3731667" lon="9.7010467"><ele>73.0</ele><time>2026-04-26T14:04:01.908Z</time></trkpt><trkpt lat="45.3731033" lon="9.701025"><ele>73.0</ele><time>2026-04-26T14:04:02.908Z</time></trkpt><trkpt lat="45.3730367" lon="9.7009967"><ele>73.0</ele><time>2026-04-26T14:04:03.909Z</time></trkpt><trkpt lat="45.372975" lon="9.7009717"><ele>73.0</ele><time>2026-04-26T14:04:04.908Z</time></trkpt><trkpt lat="45.3729133" lon="9.700945"><ele>73.0</ele><time>2026-04-26T14:04:05.908Z</time></trkpt><trkpt lat="45.3727967" lon="9.7008833"><ele>73.16666666666666</ele><time>2026-04-26T14:04:07.908Z</time></trkpt><trkpt lat="45.372735" lon="9.7008517"><ele>73.33333333333333</ele><time>2026-04-26T14:04:08.908Z</time></trkpt><trkpt lat="45.372675" lon="9.7008233"><ele>73.5</ele><time>2026-04-26T14:04:09.908Z</time></trkpt><trkpt lat="45.372615" lon="9.700795"><ele>73.66666666666667</ele><time>2026-04-26T14:04:10.908Z</time></trkpt><trkpt lat="45.3724933" lon="9.700745"><ele>73.83333333333334</ele><time>2026-04-26T14:04:12.908Z</time></trkpt><trkpt lat="45.37243" lon="9.70072"><ele>74.0</ele><time>2026-04-26T14:04:13.908Z</time></trkpt><trkpt lat="45.3723667" lon="9.70069"><ele>74.0</ele><time>2026-04-26T14:04:14.908Z</time></trkpt><trkpt lat="45.3723067" lon="9.7006617"><ele>74.0</ele><time>2026-04-26T14:04:15.908Z</time></trkpt><trkpt lat="45.3722383" lon="9.700635"><ele>74.0</ele><time>2026-04-26T14:04:16.908Z</time></trkpt><trkpt lat="45.3721733" lon="9.7006017"><ele>74.0</ele><time>2026-04-26T14:04:17.908Z</time></trkpt><trkpt lat="45.3720517" lon="9.7005483"><ele>74.0</ele><time>2026-04-26T14:04:19.908Z</time></trkpt><trkpt lat="45.3719417" lon="9.7004917"><ele>74.0</ele><time>2026-04-26T14:04:21.908Z</time></trkpt><trkpt lat="45.3718417" lon="9.7004333"><ele>73.83333333333334</ele><time>2026-04-26T14:04:23.908Z</time></trkpt><trkpt lat="45.3717383" lon="9.70037"><ele>73.66666666666667</ele><time>2026-04-26T14:04:25.908Z</time></trkpt><trkpt lat="45.3716383" lon="9.7003367"><ele>73.5</ele><time>2026-04-26T14:04:27.908Z</time></trkpt><trkpt lat="45.37156" lon="9.7002833"><ele>73.33333333333333</ele><time>2026-04-26T14:04:29.908Z</time></trkpt><trkpt lat="45.371525" lon="9.7002083"><ele>73.16666666666666</ele><time>2026-04-26T14:04:31.909Z</time></trkpt><trkpt lat="45.3714683" lon="9.7001433"><ele>73.0</ele><time>2026-04-26T14:04:34.908Z</time></trkpt><trkpt lat="45.37148" lon="9.700055"><ele>72.85714285714286</ele><time>2026-04-26T14:04:37.908Z</time></trkpt><trkpt lat="45.37142" lon="9.7000067"><ele>72.71428571428572</ele><time>2026-04-26T14:04:40.908Z</time></trkpt><trkpt lat="45.3713567" lon="9.69997"><ele>72.57142857142858</ele><time>2026-04-26T14:04:42.908Z</time></trkpt><trkpt lat="45.3712767" lon="9.699945"><ele>72.42857142857143</ele><time>2026-04-26T14:04:45.908Z</time></trkpt><trkpt lat="45.3712017" lon="9.6999417"><ele>72.28571428571429</ele><time>2026-04-26T14:04:48.908Z</time></trkpt><trkpt lat="45.37118" lon="9.700045"><ele>72.14285714285715</ele><time>2026-04-26T14:04:52.908Z</time></trkpt><trkpt lat="45.371125" lon="9.7001183"><ele>72.0</ele><time>2026-04-26T14:04:55.908Z</time></trkpt><trkpt lat="45.37104" lon="9.700155"><ele>71.6</ele><time>2026-04-26T14:04:57.908Z</time></trkpt><trkpt lat="45.370925" lon="9.7001267"><ele>71.2</ele><time>2026-04-26T14:04:59.908Z</time></trkpt><trkpt lat="45.3708167" lon="9.7000967"><ele>70.8</ele><time>2026-04-26T14:05:01.908Z</time></trkpt><trkpt lat="45.3707233" lon="9.7000733"><ele>70.4</ele><time>2026-04-26T14:05:03.908Z</time></trkpt><trkpt lat="45.3706417" lon="9.7000467"><ele>70.0</ele><time>2026-04-26T14:05:05.908Z</time></trkpt><trkpt lat="45.37057" lon="9.6999833"><ele>70.0</ele><time>2026-04-26T14:05:07.907Z</time></trkpt><trkpt lat="45.370505" lon="9.6999117"><ele>70.0</ele><time>2026-04-26T14:05:09.907Z</time></trkpt><trkpt lat="45.3704517" lon="9.6998533"><ele>70.0</ele><time>2026-04-26T14:05:11.907Z</time></trkpt><trkpt lat="45.3703783" lon="9.699935"><ele>70.0</ele><time>2026-04-26T14:05:14.907Z</time></trkpt><trkpt lat="45.3702867" lon="9.6999383"><ele>70.0</ele><time>2026-04-26T14:05:16.907Z</time></trkpt><trkpt lat="45.3701883" lon="9.6999083"><ele>70.0</ele><time>2026-04-26T14:05:18.907Z</time></trkpt><trkpt lat="45.3700983" lon="9.6998717"><ele>70.0</ele><time>2026-04-26T14:05:20.907Z</time></trkpt><trkpt lat="45.370005" lon="9.6998433"><ele>70.0</ele><time>2026-04-26T14:05:22.907Z</time></trkpt><trkpt lat="45.36992" lon="9.699805"><ele>70.0</ele><time>2026-04-26T14:05:24.907Z</time></trkpt><trkpt lat="45.3698267" lon="9.6997567"><ele>70.0</ele><time>2026-04-26T14:05:26.907Z</time></trkpt><trkpt lat="45.3697417" lon="9.6997"><ele>70.0</ele><time>2026-04-26T14:05:28.907Z</time></trkpt><trkpt lat="45.3696683" lon="9.6996217"><ele>69.8</ele><time>2026-04-26T14:05:30.907Z</time></trkpt><trkpt lat="45.3695917" lon="9.6995417"><ele>69.6</ele><time>2026-04-26T14:05:32.907Z</time></trkpt><trkpt lat="45.3695217" lon="9.6994617"><ele>69.4</ele><time>2026-04-26T14:05:34.907Z</time></trkpt><trkpt lat="45.369445" lon="9.69939"><ele>69.2</ele><time>2026-04-26T14:05:36.907Z</time></trkpt><trkpt lat="45.3693717" lon="9.699295"><ele>69.0</ele><time>2026-04-26T14:05:38.907Z</time></trkpt><trkpt lat="45.3692933" lon="9.699205"><ele>69.0</ele><time>2026-04-26T14:05:40.907Z</time></trkpt><trkpt lat="45.36923" lon="9.69911"><ele>69.0</ele><time>2026-04-26T14:05:42.907Z</time></trkpt><trkpt lat="45.3691567" lon="9.6990233"><ele>69.0</ele><time>2026-04-26T14:05:44.907Z</time></trkpt><trkpt lat="45.36909" lon="9.6989417"><ele>69.0</ele><time>2026-04-26T14:05:46.907Z</time></trkpt><trkpt lat="45.3690883" lon="9.6988483"><ele>69.0</ele><time>2026-04-26T14:05:48.908Z</time></trkpt><trkpt lat="45.3691217" lon="9.6987367"><ele>69.0</ele><time>2026-04-26T14:05:50.907Z</time></trkpt><trkpt lat="45.369145" lon="9.698605"><ele>69.66666666666667</ele><time>2026-04-26T14:05:52.907Z</time></trkpt><trkpt lat="45.369155" lon="9.6984633"><ele>70.33333333333333</ele><time>2026-04-26T14:05:54.907Z</time></trkpt><trkpt lat="45.3691683" lon="9.6983333"><ele>71.0</ele><time>2026-04-26T14:05:56.907Z</time></trkpt><trkpt lat="45.3691867" lon="9.698215"><ele>71.66666666666666</ele><time>2026-04-26T14:05:58.907Z</time></trkpt><trkpt lat="45.3691983" lon="9.6981017"><ele>72.33333333333333</ele><time>2026-04-26T14:06:00.907Z</time></trkpt><trkpt lat="45.369215" lon="9.69799"><ele>73.0</ele><time>2026-04-26T14:06:02.907Z</time></trkpt><trkpt lat="45.3692433" lon="9.697895"><ele>73.0</ele><time>2026-04-26T14:06:04.907Z</time></trkpt><trkpt lat="45.3692667" lon="9.6978017"><ele>73.0</ele><time>2026-04-26T14:06:06.908Z</time></trkpt><trkpt lat="45.3692917" lon="9.697715"><ele>73.0</ele><time>2026-04-26T14:06:08.907Z</time></trkpt><trkpt lat="45.3692967" lon="9.6976133"><ele>73.0</ele><time>2026-04-26T14:06:10.907Z</time></trkpt><trkpt lat="45.3693067" lon="9.6975067"><ele>73.0</ele><time>2026-04-26T14:06:12.907Z</time></trkpt><trkpt lat="45.369325" lon="9.69739"><ele>73.0</ele><time>2026-04-26T14:06:14.907Z</time></trkpt><trkpt lat="45.3693417" lon="9.697265"><ele>73.16666666666666</ele><time>2026-04-26T14:06:16.907Z</time></trkpt><trkpt lat="45.3693483" lon="9.697145"><ele>73.33333333333333</ele><time>2026-04-26T14:06:18.908Z</time></trkpt><trkpt lat="45.36936" lon="9.6970383"><ele>73.5</ele><time>2026-04-26T14:06:20.907Z</time></trkpt><trkpt lat="45.369375" lon="9.6969383"><ele>73.66666666666667</ele><time>2026-04-26T14:06:22.907Z</time></trkpt><trkpt lat="45.369385" lon="9.69682"><ele>73.83333333333334</ele><time>2026-04-26T14:06:24.907Z</time></trkpt><trkpt lat="45.3693967" lon="9.6966983"><ele>74.0</ele><time>2026-04-26T14:06:26.907Z</time></trkpt><trkpt lat="45.3694083" lon="9.6965883"><ele>74.0</ele><time>2026-04-26T14:06:28.907Z</time></trkpt><trkpt lat="45.3694183" lon="9.6964883"><ele>74.0</ele><time>2026-04-26T14:06:30.907Z</time></trkpt><trkpt lat="45.3694433" lon="9.69639"><ele>74.0</ele><time>2026-04-26T14:06:33.907Z</time></trkpt><trkpt lat="45.3694617" lon="9.6962933"><ele>74.0</ele><time>2026-04-26T14:06:36.908Z</time></trkpt><trkpt lat="45.3694417" lon="9.6961817"><ele>74.0</ele><time>2026-04-26T14:06:40.907Z</time></trkpt><trkpt lat="45.36937" lon="9.6961467"><ele>74.0</ele><time>2026-04-26T14:06:43.907Z</time></trkpt><trkpt lat="45.3692717" lon="9.6961133"><ele>74.0</ele><time>2026-04-26T14:06:46.907Z</time></trkpt><trkpt lat="45.3692" lon="9.69609"><ele>74.0</ele><time>2026-04-26T14:06:48.907Z</time></trkpt><trkpt lat="45.3691267" lon="9.6960717"><ele>74.0</ele><time>2026-04-26T14:06:50.907Z</time></trkpt><trkpt lat="45.369045" lon="9.6960467"><ele>74.0</ele><time>2026-04-26T14:06:52.908Z</time></trkpt><trkpt lat="45.3689617" lon="9.6960283"><ele>74.0</ele><time>2026-04-26T14:06:54.907Z</time></trkpt><trkpt lat="45.3688817" lon="9.696005"><ele>74.0</ele><time>2026-04-26T14:06:56.907Z</time></trkpt><trkpt lat="45.3688" lon="9.6959783"><ele>74.0</ele><time>2026-04-26T14:06:58.907Z</time></trkpt><trkpt lat="45.3687183" lon="9.6959567"><ele>74.0</ele><time>2026-04-26T14:07:00.908Z</time></trkpt><trkpt lat="45.3686367" lon="9.6959367"><ele>74.0</ele><time>2026-04-26T14:07:02.907Z</time></trkpt><trkpt lat="45.3685683" lon="9.69592"><ele>74.0</ele><time>2026-04-26T14:07:05.907Z</time></trkpt><trkpt lat="45.3684933" lon="9.6958817"><ele>74.0</ele><time>2026-04-26T14:07:09.907Z</time></trkpt><trkpt lat="45.36848" lon="9.6957883"><ele>74.0</ele><time>2026-04-26T14:07:11.907Z</time></trkpt><trkpt lat="45.3685033" lon="9.69568"><ele>74.0</ele><time>2026-04-26T14:07:13.907Z</time></trkpt><trkpt lat="45.36852" lon="9.6955617"><ele>74.0</ele><time>2026-04-26T14:07:15.907Z</time></trkpt><trkpt lat="45.368535" lon="9.6954467"><ele>74.0</ele><time>2026-04-26T14:07:17.907Z</time></trkpt><trkpt lat="45.3685617" lon="9.695335"><ele>74.0</ele><time>2026-04-26T14:07:19.907Z</time></trkpt><trkpt lat="45.3685883" lon="9.695225"><ele>74.0</ele><time>2026-04-26T14:07:21.907Z</time></trkpt><trkpt lat="45.368615" lon="9.695105"><ele>74.0</ele><time>2026-04-26T14:07:23.907Z</time></trkpt><trkpt lat="45.368635" lon="9.6949783"><ele>74.2</ele><time>2026-04-26T14:07:25.907Z</time></trkpt><trkpt lat="45.3686633" lon="9.6948533"><ele>74.4</ele><time>2026-04-26T14:07:27.907Z</time></trkpt><trkpt lat="45.36868" lon="9.6947333"><ele>74.6</ele><time>2026-04-26T14:07:29.907Z</time></trkpt><trkpt lat="45.368705" lon="9.694595"><ele>74.8</ele><time>2026-04-26T14:07:31.907Z</time></trkpt><trkpt lat="45.368725" lon="9.6944583"><ele>75.0</ele><time>2026-04-26T14:07:33.907Z</time></trkpt><trkpt lat="45.3687567" lon="9.69433"><ele>75.0</ele><time>2026-04-26T14:07:35.907Z</time></trkpt><trkpt lat="45.36878" lon="9.6941967"><ele>75.0</ele><time>2026-04-26T14:07:37.907Z</time></trkpt><trkpt lat="45.3687917" lon="9.6940683"><ele>75.0</ele><time>2026-04-26T14:07:39.907Z</time></trkpt><trkpt lat="45.3687417" lon="9.6939783"><ele>75.0</ele><time>2026-04-26T14:07:41.907Z</time></trkpt><trkpt lat="45.3686833" lon="9.6938717"><ele>75.0</ele><time>2026-04-26T14:07:43.907Z</time></trkpt><trkpt lat="45.3686283" lon="9.6937617"><ele>75.0</ele><time>2026-04-26T14:07:45.907Z</time></trkpt><trkpt lat="45.3686033" lon="9.69362"><ele>75.0</ele><time>2026-04-26T14:07:47.907Z</time></trkpt><trkpt lat="45.3686" lon="9.6934783"><ele>75.0</ele><time>2026-04-26T14:07:49.907Z</time></trkpt><trkpt lat="45.3685567" lon="9.6933483"><ele>75.0</ele><time>2026-04-26T14:07:51.907Z</time></trkpt><trkpt lat="45.368495" lon="9.693215"><ele>75.0</ele><time>2026-04-26T14:07:53.907Z</time></trkpt><trkpt lat="45.3684333" lon="9.6930867"><ele>75.2</ele><time>2026-04-26T14:07:55.907Z</time></trkpt><trkpt lat="45.3683717" lon="9.6929717"><ele>75.4</ele><time>2026-04-26T14:07:57.907Z</time></trkpt><trkpt lat="45.3682933" lon="9.6928783"><ele>75.6</ele><time>2026-04-26T14:07:59.907Z</time></trkpt><trkpt lat="45.36821" lon="9.6928"><ele>75.8</ele><time>2026-04-26T14:08:01.907Z</time></trkpt><trkpt lat="45.3681217" lon="9.6927117"><ele>76.0</ele><time>2026-04-26T14:08:03.907Z</time></trkpt><trkpt lat="45.3680217" lon="9.69263"><ele>76.0</ele><time>2026-04-26T14:08:05.907Z</time></trkpt><trkpt lat="45.3679067" lon="9.6925683"><ele>76.0</ele><time>2026-04-26T14:08:07.907Z</time></trkpt><trkpt lat="45.36779" lon="9.6925133"><ele>76.0</ele><time>2026-04-26T14:08:09.908Z</time></trkpt><trkpt lat="45.3676717" lon="9.6924517"><ele>76.0</ele><time>2026-04-26T14:08:11.907Z</time></trkpt><trkpt lat="45.3675533" lon="9.6923967"><ele>76.0</ele><time>2026-04-26T14:08:13.907Z</time></trkpt><trkpt lat="45.3674417" lon="9.6923417"><ele>76.0</ele><time>2026-04-26T14:08:15.907Z</time></trkpt><trkpt lat="45.3673433" lon="9.6922817"><ele>76.0</ele><time>2026-04-26T14:08:17.907Z</time></trkpt><trkpt lat="45.3672233" lon="9.6922117"><ele>76.0</ele><time>2026-04-26T14:08:19.908Z</time></trkpt><trkpt lat="45.3671617" lon="9.6921883"><ele>76.0</ele><time>2026-04-26T14:08:20.907Z</time></trkpt><trkpt lat="45.36707" lon="9.6921783"><ele>75.66666666666666</ele><time>2026-04-26T14:08:22.907Z</time></trkpt><trkpt lat="45.3669933" lon="9.6921583"><ele>75.33333333333333</ele><time>2026-04-26T14:08:24.907Z</time></trkpt><trkpt lat="45.3669083" lon="9.6921233"><ele>75.0</ele><time>2026-04-26T14:08:27.907Z</time></trkpt><trkpt lat="45.3668217" lon="9.6921267"><ele>74.66666666666667</ele><time>2026-04-26T14:08:30.907Z</time></trkpt><trkpt lat="45.3667867" lon="9.6922283"><ele>74.33333333333334</ele><time>2026-04-26T14:08:33.907Z</time></trkpt><trkpt lat="45.3668233" lon="9.6923317"><ele>74.0</ele><time>2026-04-26T14:08:36.907Z</time></trkpt><trkpt lat="45.36689" lon="9.6923367"><ele>74.0</ele><time>2026-04-26T14:08:43.907Z</time></trkpt><trkpt lat="45.3669533" lon="9.6923683"><ele>74.0</ele><time>2026-04-26T14:08:46.907Z</time></trkpt><trkpt lat="45.3670417" lon="9.6923983"><ele>74.0</ele><time>2026-04-26T14:08:49.907Z</time></trkpt><trkpt lat="45.3670667" lon="9.6925133"><ele>74.0</ele><time>2026-04-26T14:08:52.907Z</time></trkpt><trkpt lat="45.3670483" lon="9.6926"><ele>74.0</ele><time>2026-04-26T14:08:54.908Z</time></trkpt><trkpt lat="45.3670383" lon="9.6926917"><ele>74.0</ele><time>2026-04-26T14:08:56.907Z</time></trkpt><trkpt lat="45.3670233" lon="9.6927867"><ele>74.0</ele><time>2026-04-26T14:08:58.907Z</time></trkpt><trkpt lat="45.3670017" lon="9.6928817"><ele>74.0</ele><time>2026-04-26T14:09:00.907Z</time></trkpt><trkpt lat="45.36698" lon="9.6929883"><ele>74.0</ele><time>2026-04-26T14:09:02.906Z</time></trkpt><trkpt lat="45.3669533" lon="9.693105"><ele>74.0</ele><time>2026-04-26T14:09:04.906Z</time></trkpt><trkpt lat="45.36692" lon="9.6932133"><ele>74.0</ele><time>2026-04-26T14:09:06.906Z</time></trkpt><trkpt lat="45.3668883" lon="9.6933367"><ele>74.0</ele><time>2026-04-26T14:09:08.906Z</time></trkpt><trkpt lat="45.3668433" lon="9.6935117"><ele>74.33333333333334</ele><time>2026-04-26T14:09:11.906Z</time></trkpt><trkpt lat="45.3668133" lon="9.6936267"><ele>74.66666666666667</ele><time>2026-04-26T14:09:13.906Z</time></trkpt><trkpt lat="45.3667933" lon="9.6937283"><ele>75.0</ele><time>2026-04-26T14:09:15.906Z</time></trkpt><trkpt lat="45.3667633" lon="9.693835"><ele>75.33333333333333</ele><time>2026-04-26T14:09:17.906Z</time></trkpt><trkpt lat="45.3667317" lon="9.6939433"><ele>75.66666666666666</ele><time>2026-04-26T14:09:19.906Z</time></trkpt><trkpt lat="45.366695" lon="9.694045"><ele>76.0</ele><time>2026-04-26T14:09:21.907Z</time></trkpt><trkpt lat="45.3666533" lon="9.6941383"><ele>76.0</ele><time>2026-04-26T14:09:23.906Z</time></trkpt><trkpt lat="45.3666183" lon="9.6942283"><ele>76.0</ele><time>2026-04-26T14:09:25.906Z</time></trkpt><trkpt lat="45.3665967" lon="9.6943233"><ele>76.0</ele><time>2026-04-26T14:09:27.906Z</time></trkpt><trkpt lat="45.366615" lon="9.6944217"><ele>76.0</ele><time>2026-04-26T14:09:29.906Z</time></trkpt><trkpt lat="45.3666083" lon="9.6945133"><ele>76.0</ele><time>2026-04-26T14:09:31.906Z</time></trkpt><trkpt lat="45.366595" lon="9.6946233"><ele>76.0</ele><time>2026-04-26T14:09:33.906Z</time></trkpt><trkpt lat="45.3665783" lon="9.6947383"><ele>76.0</ele><time>2026-04-26T14:09:35.906Z</time></trkpt><trkpt lat="45.3665267" lon="9.6948467"><ele>75.83333333333333</ele><time>2026-04-26T14:09:37.906Z</time></trkpt><trkpt lat="45.3664483" lon="9.6948833"><ele>75.66666666666666</ele><time>2026-04-26T14:09:39.906Z</time></trkpt><trkpt lat="45.3664267" lon="9.6949967"><ele>75.5</ele><time>2026-04-26T14:09:41.906Z</time></trkpt><trkpt lat="45.3664067" lon="9.6951183"><ele>75.33333333333333</ele><time>2026-04-26T14:09:43.906Z</time></trkpt><trkpt lat="45.3663767" lon="9.69523"><ele>75.16666666666667</ele><time>2026-04-26T14:09:45.907Z</time></trkpt><trkpt lat="45.3663033" lon="9.695295"><ele>75.0</ele><time>2026-04-26T14:09:47.906Z</time></trkpt><trkpt lat="45.3662233" lon="9.6952783"><ele>74.83333333333333</ele><time>2026-04-26T14:09:49.906Z</time></trkpt><trkpt lat="45.3661467" lon="9.6952567"><ele>74.66666666666667</ele><time>2026-04-26T14:09:51.906Z</time></trkpt><trkpt lat="45.366055" lon="9.6952317"><ele>74.5</ele><time>2026-04-26T14:09:53.906Z</time></trkpt><trkpt lat="45.365975" lon="9.6952117"><ele>74.33333333333334</ele><time>2026-04-26T14:09:55.906Z</time></trkpt><trkpt lat="45.3659133" lon="9.6951683"><ele>74.16666666666667</ele><time>2026-04-26T14:09:57.906Z</time></trkpt><trkpt lat="45.365835" lon="9.6951017"><ele>74.0</ele><time>2026-04-26T14:12:00.906Z</time></trkpt><trkpt lat="45.3657667" lon="9.6950933"><ele>74.0</ele><time>2026-04-26T14:12:03.906Z</time></trkpt><trkpt lat="45.3656933" lon="9.6951317"><ele>74.0</ele><time>2026-04-26T14:12:07.906Z</time></trkpt><trkpt lat="45.3656017" lon="9.6951067"><ele>74.0</ele><time>2026-04-26T14:12:10.906Z</time></trkpt><trkpt lat="45.3655183" lon="9.6950867"><ele>74.0</ele><time>2026-04-26T14:12:12.906Z</time></trkpt><trkpt lat="45.36544" lon="9.69506"><ele>74.0</ele><time>2026-04-26T14:12:14.906Z</time></trkpt><trkpt lat="45.3653633" lon="9.69504"><ele>74.0</ele><time>2026-04-26T14:12:16.906Z</time></trkpt><trkpt lat="45.36529" lon="9.69502"><ele>74.0</ele><time>2026-04-26T14:12:18.906Z</time></trkpt><trkpt lat="45.3652033" lon="9.6949933"><ele>74.0</ele><time>2026-04-26T14:12:20.906Z</time></trkpt><trkpt lat="45.3651117" lon="9.6949717"><ele>74.0</ele><time>2026-04-26T14:12:22.906Z</time></trkpt><trkpt lat="45.3650283" lon="9.6949583"><ele>74.0</ele><time>2026-04-26T14:12:24.906Z</time></trkpt><trkpt lat="45.3649517" lon="9.69493"><ele>74.0</ele><time>2026-04-26T14:12:26.906Z</time></trkpt><trkpt lat="45.364875" lon="9.6949"><ele>74.0</ele><time>2026-04-26T14:12:28.906Z</time></trkpt><trkpt lat="45.3648067" lon="9.6948817"><ele>74.0</ele><time>2026-04-26T14:12:30.906Z</time></trkpt><trkpt lat="45.364735" lon="9.6948617"><ele>74.0</ele><time>2026-04-26T14:12:32.906Z</time></trkpt><trkpt lat="45.3646533" lon="9.6948467"><ele>74.0</ele><time>2026-04-26T14:12:34.906Z</time></trkpt><trkpt lat="45.3645617" lon="9.69483"><ele>74.0</ele><time>2026-04-26T14:12:36.906Z</time></trkpt><trkpt lat="45.3644717" lon="9.6948133"><ele>74.0</ele><time>2026-04-26T14:12:38.906Z</time></trkpt><trkpt lat="45.3643983" lon="9.694785"><ele>74.0</ele><time>2026-04-26T14:12:40.906Z</time></trkpt><trkpt lat="45.3643233" lon="9.6947567"><ele>74.16666666666667</ele><time>2026-04-26T14:12:42.906Z</time></trkpt><trkpt lat="45.3642567" lon="9.6947583"><ele>74.33333333333334</ele><time>2026-04-26T14:12:45.906Z</time></trkpt><trkpt lat="45.3642067" lon="9.6948583"><ele>74.5</ele><time>2026-04-26T14:12:49.906Z</time></trkpt><trkpt lat="45.3642017" lon="9.69495"><ele>74.66666666666667</ele><time>2026-04-26T14:12:53.905Z</time></trkpt><trkpt lat="45.364165" lon="9.6950533"><ele>74.83333333333333</ele><time>2026-04-26T14:12:56.905Z</time></trkpt><trkpt lat="45.3641233" lon="9.6951333"><ele>75.0</ele><time>2026-04-26T14:12:58.905Z</time></trkpt><trkpt lat="45.364075" lon="9.69523"><ele>74.66666666666667</ele><time>2026-04-26T14:13:00.905Z</time></trkpt><trkpt lat="45.364" lon="9.6952967"><ele>74.33333333333333</ele><time>2026-04-26T14:13:02.905Z</time></trkpt><trkpt lat="45.3639183" lon="9.6953517"><ele>74.0</ele><time>2026-04-26T14:13:04.906Z</time></trkpt><trkpt lat="45.3638383" lon="9.695405"><ele>73.66666666666666</ele><time>2026-04-26T14:13:06.905Z</time></trkpt><trkpt lat="45.363785" lon="9.695495"><ele>73.33333333333333</ele><time>2026-04-26T14:13:08.905Z</time></trkpt><trkpt lat="45.3637583" lon="9.695615"><ele>73.0</ele><time>2026-04-26T14:13:10.905Z</time></trkpt><trkpt lat="45.3637517" lon="9.695755"><ele>73.0</ele><time>2026-04-26T14:13:12.905Z</time></trkpt><trkpt lat="45.3637417" lon="9.6958933"><ele>73.0</ele><time>2026-04-26T14:13:14.905Z</time></trkpt><trkpt lat="45.363745" lon="9.6960433"><ele>73.0</ele><time>2026-04-26T14:13:16.905Z</time></trkpt><trkpt lat="45.3637533" lon="9.696195"><ele>73.0</ele><time>2026-04-26T14:13:18.905Z</time></trkpt><trkpt lat="45.3637667" lon="9.6963383"><ele>73.0</ele><time>2026-04-26T14:13:20.905Z</time></trkpt><trkpt lat="45.36379" lon="9.6964833"><ele>72.6</ele><time>2026-04-26T14:13:22.905Z</time></trkpt><trkpt lat="45.3638033" lon="9.696635"><ele>72.19999999999999</ele><time>2026-04-26T14:13:24.905Z</time></trkpt><trkpt lat="45.3638083" lon="9.6967867"><ele>71.8</ele><time>2026-04-26T14:13:26.906Z</time></trkpt><trkpt lat="45.3638167" lon="9.6969367"><ele>71.39999999999999</ele><time>2026-04-26T14:13:28.905Z</time></trkpt><trkpt lat="45.3638283" lon="9.697085"><ele>71.0</ele><time>2026-04-26T14:13:30.905Z</time></trkpt><trkpt lat="45.3638417" lon="9.6972283"><ele>70.83333333333334</ele><time>2026-04-26T14:13:32.905Z</time></trkpt><trkpt lat="45.3638533" lon="9.69736"><ele>70.66666666666667</ele><time>2026-04-26T14:13:34.905Z</time></trkpt><trkpt lat="45.3638633" lon="9.69748"><ele>70.5</ele><time>2026-04-26T14:13:36.905Z</time></trkpt><trkpt lat="45.3638733" lon="9.6976"><ele>70.33333333333333</ele><time>2026-04-26T14:13:38.906Z</time></trkpt><trkpt lat="45.3638833" lon="9.6976917"><ele>70.16666666666666</ele><time>2026-04-26T14:13:40.905Z</time></trkpt><trkpt lat="45.36389" lon="9.6978083"><ele>70.0</ele><time>2026-04-26T14:13:46.905Z</time></trkpt><trkpt lat="45.363915" lon="9.6977167"><ele>70.0</ele><time>2026-04-26T14:13:51.905Z</time></trkpt><trkpt lat="45.3639033" lon="9.69759"><ele>70.0</ele><time>2026-04-26T14:13:54.905Z</time></trkpt><trkpt lat="45.3638783" lon="9.6974933"><ele>70.0</ele><time>2026-04-26T14:13:56.905Z</time></trkpt><trkpt lat="45.3638367" lon="9.6973967"><ele>70.0</ele><time>2026-04-26T14:13:58.905Z</time></trkpt><trkpt lat="45.3637483" lon="9.697345"><ele>70.0</ele><time>2026-04-26T14:14:00.905Z</time></trkpt><trkpt lat="45.36365" lon="9.697295"><ele>70.0</ele><time>2026-04-26T14:14:02.905Z</time></trkpt><trkpt lat="45.3635283" lon="9.6972883"><ele>70.0</ele><time>2026-04-26T14:14:04.905Z</time></trkpt><trkpt lat="45.363465" lon="9.6972833"><ele>70.0</ele><time>2026-04-26T14:14:05.905Z</time></trkpt><trkpt lat="45.363345" lon="9.6972733"><ele>70.0</ele><time>2026-04-26T14:14:07.905Z</time></trkpt><trkpt lat="45.3632283" lon="9.69727"><ele>70.0</ele><time>2026-04-26T14:14:09.905Z</time></trkpt><trkpt lat="45.3631133" lon="9.6972533"><ele>70.0</ele><time>2026-04-26T14:14:11.905Z</time></trkpt><trkpt lat="45.363005" lon="9.69723"><ele>69.6</ele><time>2026-04-26T14:14:13.905Z</time></trkpt><trkpt lat="45.3628917" lon="9.69721"><ele>69.2</ele><time>2026-04-26T14:14:15.905Z</time></trkpt><trkpt lat="45.3627833" lon="9.6972017"><ele>68.8</ele><time>2026-04-26T14:14:17.905Z</time></trkpt><trkpt lat="45.36268" lon="9.6971817"><ele>68.4</ele><time>2026-04-26T14:14:19.905Z</time></trkpt><trkpt lat="45.3625733" lon="9.6971617"><ele>68.0</ele><time>2026-04-26T14:14:21.905Z</time></trkpt><trkpt lat="45.3624717" lon="9.6971517"><ele>68.0</ele><time>2026-04-26T14:14:23.906Z</time></trkpt><trkpt lat="45.3623667" lon="9.6971483"><ele>68.0</ele><time>2026-04-26T14:14:25.905Z</time></trkpt><trkpt lat="45.362255" lon="9.69714"><ele>68.0</ele><time>2026-04-26T14:14:27.906Z</time></trkpt><trkpt lat="45.3621517" lon="9.6971267"><ele>68.0</ele><time>2026-04-26T14:14:29.905Z</time></trkpt><trkpt lat="45.3620467" lon="9.6971217"><ele>68.0</ele><time>2026-04-26T14:14:31.906Z</time></trkpt><trkpt lat="45.361935" lon="9.6971167"><ele>68.16666666666667</ele><time>2026-04-26T14:14:33.905Z</time></trkpt><trkpt lat="45.3618383" lon="9.6970983"><ele>68.33333333333334</ele><time>2026-04-26T14:14:35.905Z</time></trkpt><trkpt lat="45.3617483" lon="9.697085"><ele>68.5</ele><time>2026-04-26T14:14:37.905Z</time></trkpt><trkpt lat="45.36167" lon="9.6970783"><ele>68.66666666666667</ele><time>2026-04-26T14:14:39.905Z</time></trkpt><trkpt lat="45.3615783" lon="9.6970633"><ele>68.83333333333333</ele><time>2026-04-26T14:14:41.906Z</time></trkpt><trkpt lat="45.36149" lon="9.6970583"><ele>69.0</ele><time>2026-04-26T14:14:43.905Z</time></trkpt><trkpt lat="45.36139" lon="9.69703"><ele>69.0</ele><time>2026-04-26T14:14:45.905Z</time></trkpt><trkpt lat="45.3612883" lon="9.69701"><ele>69.0</ele><time>2026-04-26T14:14:47.905Z</time></trkpt><trkpt lat="45.3611817" lon="9.6969767"><ele>69.0</ele><time>2026-04-26T14:14:49.905Z</time></trkpt><trkpt lat="45.3610767" lon="9.69694"><ele>69.0</ele><time>2026-04-26T14:14:51.905Z</time></trkpt><trkpt lat="45.360975" lon="9.6969067"><ele>69.0</ele><time>2026-04-26T14:14:53.905Z</time></trkpt><trkpt lat="45.3608633" lon="9.6968783"><ele>68.60000000000001</ele><time>2026-04-26T14:14:55.906Z</time></trkpt><trkpt lat="45.36076" lon="9.6968267"><ele>68.2</ele><time>2026-04-26T14:14:57.905Z</time></trkpt><trkpt lat="45.36066" lon="9.696765"><ele>67.80000000000001</ele><time>2026-04-26T14:14:59.905Z</time></trkpt><trkpt lat="45.3605633" lon="9.6966967"><ele>67.4</ele><time>2026-04-26T14:15:01.905Z</time></trkpt><trkpt lat="45.3604683" lon="9.6966533"><ele>67.0</ele><time>2026-04-26T14:15:03.905Z</time></trkpt><trkpt lat="45.3603717" lon="9.6965983"><ele>66.75</ele><time>2026-04-26T14:15:05.905Z</time></trkpt><trkpt lat="45.3602667" lon="9.6965267"><ele>66.5</ele><time>2026-04-26T14:15:07.905Z</time></trkpt><trkpt lat="45.36016" lon="9.6964633"><ele>66.25</ele><time>2026-04-26T14:15:09.905Z</time></trkpt><trkpt lat="45.3600533" lon="9.6963933"><ele>66.0</ele><time>2026-04-26T14:15:11.905Z</time></trkpt><trkpt lat="45.3599483" lon="9.6963117"><ele>66.0</ele><time>2026-04-26T14:15:13.905Z</time></trkpt><trkpt lat="45.3598517" lon="9.696235"><ele>66.0</ele><time>2026-04-26T14:15:15.905Z</time></trkpt><trkpt lat="45.35979" lon="9.6961767"><ele>66.0</ele><time>2026-04-26T14:15:17.906Z</time></trkpt><trkpt lat="45.35971" lon="9.69612"><ele>66.0</ele><time>2026-04-26T14:15:24.905Z</time></trkpt><trkpt lat="45.3596383" lon="9.69605"><ele>66.0</ele><time>2026-04-26T14:15:27.905Z</time></trkpt><trkpt lat="45.3595767" lon="9.6959767"><ele>66.0</ele><time>2026-04-26T14:15:29.905Z</time></trkpt><trkpt lat="45.3595083" lon="9.6959217"><ele>66.0</ele><time>2026-04-26T14:15:31.906Z</time></trkpt><trkpt lat="45.3594483" lon="9.695865"><ele>66.0</ele><time>2026-04-26T14:15:33.905Z</time></trkpt><trkpt lat="45.3593967" lon="9.69579"><ele>66.0</ele><time>2026-04-26T14:15:35.905Z</time></trkpt><trkpt lat="45.35932" lon="9.6957133"><ele>66.0</ele><time>2026-04-26T14:15:37.905Z</time></trkpt><trkpt lat="45.359245" lon="9.6956417"><ele>66.0</ele><time>2026-04-26T14:15:39.905Z</time></trkpt><trkpt lat="45.3591733" lon="9.6955767"><ele>66.0</ele><time>2026-04-26T14:15:41.905Z</time></trkpt><trkpt lat="45.3590967" lon="9.69549"><ele>66.0</ele><time>2026-04-26T14:15:43.905Z</time></trkpt><trkpt lat="45.3590183" lon="9.6954"><ele>66.0</ele><time>2026-04-26T14:15:45.905Z</time></trkpt><trkpt lat="45.35894" lon="9.69531"><ele>66.0</ele><time>2026-04-26T14:15:47.906Z</time></trkpt><trkpt lat="45.3588683" lon="9.6952283"><ele>66.0</ele><time>2026-04-26T14:15:49.905Z</time></trkpt><trkpt lat="45.35879" lon="9.6951483"><ele>66.0</ele><time>2026-04-26T14:15:51.905Z</time></trkpt><trkpt lat="45.358725" lon="9.6950717"><ele>67.6</ele><time>2026-04-26T14:15:53.905Z</time></trkpt><trkpt lat="45.3586633" lon="9.6950033"><ele>69.19999999999999</ele><time>2026-04-26T14:15:55.905Z</time></trkpt><trkpt lat="45.3585917" lon="9.6949417"><ele>70.80000000000001</ele><time>2026-04-26T14:15:57.905Z</time></trkpt><trkpt lat="45.3585117" lon="9.69485"><ele>72.4</ele><time>2026-04-26T14:15:59.906Z</time></trkpt><trkpt lat="45.3584183" lon="9.6947717"><ele>74.0</ele><time>2026-04-26T14:16:01.905Z</time></trkpt><trkpt lat="45.358335" lon="9.6947167"><ele>74.0</ele><time>2026-04-26T14:16:03.905Z</time></trkpt><trkpt lat="45.3582517" lon="9.6946633"><ele>74.0</ele><time>2026-04-26T14:16:05.905Z</time></trkpt><trkpt lat="45.35819" lon="9.6945567"><ele>74.0</ele><time>2026-04-26T14:16:07.905Z</time></trkpt><trkpt lat="45.3581267" lon="9.694465"><ele>74.0</ele><time>2026-04-26T14:16:09.905Z</time></trkpt><trkpt lat="45.35806" lon="9.694415"><ele>74.0</ele><time>2026-04-26T14:16:11.905Z</time></trkpt><trkpt lat="45.358" lon="9.6943733"><ele>74.0</ele><time>2026-04-26T14:16:13.905Z</time></trkpt><trkpt lat="45.3579383" lon="9.694355"><ele>73.83333333333334</ele><time>2026-04-26T14:16:16.905Z</time></trkpt><trkpt lat="45.3578867" lon="9.69427"><ele>73.66666666666667</ele><time>2026-04-26T14:16:19.906Z</time></trkpt><trkpt lat="45.357815" lon="9.6942233"><ele>73.5</ele><time>2026-04-26T14:16:21.905Z</time></trkpt><trkpt lat="45.357745" lon="9.69418"><ele>73.33333333333333</ele><time>2026-04-26T14:16:23.905Z</time></trkpt><trkpt lat="45.3576817" lon="9.69413"><ele>73.16666666666666</ele><time>2026-04-26T14:16:25.905Z</time></trkpt><trkpt lat="45.3576067" lon="9.6940867"><ele>73.0</ele><time>2026-04-26T14:16:27.905Z</time></trkpt><trkpt lat="45.35753" lon="9.6940417"><ele>73.0</ele><time>2026-04-26T14:16:29.905Z</time></trkpt><trkpt lat="45.3574583" lon="9.6939883"><ele>73.0</ele><time>2026-04-26T14:16:31.905Z</time></trkpt><trkpt lat="45.3573917" lon="9.69393"><ele>73.0</ele><time>2026-04-26T14:16:33.905Z</time></trkpt><trkpt lat="45.3573033" lon="9.6939083"><ele>73.0</ele><time>2026-04-26T14:16:35.905Z</time></trkpt><trkpt lat="45.3572267" lon="9.693875"><ele>73.0</ele><time>2026-04-26T14:16:37.905Z</time></trkpt><trkpt lat="45.3571567" lon="9.6938217"><ele>73.0</ele><time>2026-04-26T14:16:39.905Z</time></trkpt><trkpt lat="45.3571" lon="9.6937633"><ele>72.85714285714286</ele><time>2026-04-26T14:16:41.905Z</time></trkpt><trkpt lat="45.3570417" lon="9.69372"><ele>72.71428571428572</ele><time>2026-04-26T14:16:43.905Z</time></trkpt><trkpt lat="45.3569667" lon="9.693685"><ele>72.57142857142858</ele><time>2026-04-26T14:16:45.904Z</time></trkpt><trkpt lat="45.356905" lon="9.6936367"><ele>72.42857142857143</ele><time>2026-04-26T14:16:47.904Z</time></trkpt><trkpt lat="45.3568183" lon="9.6935967"><ele>72.28571428571429</ele><time>2026-04-26T14:16:50.904Z</time></trkpt><trkpt lat="45.3567517" lon="9.6935533"><ele>72.14285714285715</ele><time>2026-04-26T14:16:52.905Z</time></trkpt><trkpt lat="45.3566833" lon="9.693535"><ele>72.0</ele><time>2026-04-26T14:16:54.904Z</time></trkpt><trkpt lat="45.3565867" lon="9.6935283"><ele>71.5</ele><time>2026-04-26T14:16:57.905Z</time></trkpt><trkpt lat="45.3565217" lon="9.6934933"><ele>71.0</ele><time>2026-04-26T14:16:59.904Z</time></trkpt><trkpt lat="45.35645" lon="9.693455"><ele>70.5</ele><time>2026-04-26T14:17:01.905Z</time></trkpt><trkpt lat="45.3563633" lon="9.69345"><ele>70.0</ele><time>2026-04-26T14:17:03.904Z</time></trkpt><trkpt lat="45.356285" lon="9.693435"><ele>69.5</ele><time>2026-04-26T14:17:05.904Z</time></trkpt><trkpt lat="45.3562033" lon="9.6934033"><ele>69.0</ele><time>2026-04-26T14:17:07.904Z</time></trkpt><trkpt lat="45.3561133" lon="9.693395"><ele>68.83333333333333</ele><time>2026-04-26T14:17:09.904Z</time></trkpt><trkpt lat="45.3560317" lon="9.693395"><ele>68.66666666666667</ele><time>2026-04-26T14:17:11.904Z</time></trkpt><trkpt lat="45.355955" lon="9.69336"><ele>68.5</ele><time>2026-04-26T14:17:13.904Z</time></trkpt><trkpt lat="45.3558817" lon="9.6933783"><ele>68.33333333333334</ele><time>2026-04-26T14:17:15.904Z</time></trkpt><trkpt lat="45.3558017" lon="9.69339"><ele>68.16666666666667</ele><time>2026-04-26T14:17:17.904Z</time></trkpt><trkpt lat="45.3557133" lon="9.6934033"><ele>68.0</ele><time>2026-04-26T14:17:19.904Z</time></trkpt><trkpt lat="45.3556417" lon="9.6933717"><ele>68.0</ele><time>2026-04-26T14:17:21.904Z</time></trkpt><trkpt lat="45.3556" lon="9.6932833"><ele>68.0</ele><time>2026-04-26T14:17:24.904Z</time></trkpt><trkpt lat="45.35552" lon="9.693285"><ele>68.0</ele><time>2026-04-26T14:17:27.904Z</time></trkpt><trkpt lat="45.3554433" lon="9.69329"><ele>68.0</ele><time>2026-04-26T14:17:29.905Z</time></trkpt><trkpt lat="45.3553667" lon="9.6932533"><ele>68.0</ele><time>2026-04-26T14:17:31.905Z</time></trkpt><trkpt lat="45.3552833" lon="9.69324"><ele>68.0</ele><time>2026-04-26T14:17:33.904Z</time></trkpt><trkpt lat="45.3552067" lon="9.6932783"><ele>68.42857142857142</ele><time>2026-04-26T14:17:35.904Z</time></trkpt><trkpt lat="45.35514" lon="9.69331"><ele>68.85714285714286</ele><time>2026-04-26T14:17:37.904Z</time></trkpt><trkpt lat="45.3551167" lon="9.6934017"><ele>69.28571428571428</ele><time>2026-04-26T14:17:40.904Z</time></trkpt><trkpt lat="45.35509" lon="9.6935233"><ele>69.71428571428571</ele><time>2026-04-26T14:17:43.904Z</time></trkpt><trkpt lat="45.355075" lon="9.69364"><ele>70.14285714285714</ele><time>2026-04-26T14:17:46.904Z</time></trkpt><trkpt lat="45.3550583" lon="9.6937317"><ele>70.57142857142857</ele><time>2026-04-26T14:17:48.904Z</time></trkpt><trkpt lat="45.3550383" lon="9.6938217"><ele>71.0</ele><time>2026-04-26T14:17:50.904Z</time></trkpt><trkpt lat="45.35502" lon="9.6939083"><ele>71.16666666666667</ele><time>2026-04-26T14:17:52.904Z</time></trkpt><trkpt lat="45.354995" lon="9.694005"><ele>71.33333333333334</ele><time>2026-04-26T14:17:54.904Z</time></trkpt><trkpt lat="45.3549683" lon="9.6940917"><ele>71.5</ele><time>2026-04-26T14:17:56.904Z</time></trkpt><trkpt lat="45.3549" lon="9.6941417"><ele>71.66666666666667</ele><time>2026-04-26T14:18:00.904Z</time></trkpt><trkpt lat="45.354805" lon="9.6941117"><ele>71.83333333333333</ele><time>2026-04-26T14:18:03.904Z</time></trkpt><trkpt lat="45.354735" lon="9.6940883"><ele>72.0</ele><time>2026-04-26T14:18:05.904Z</time></trkpt><trkpt lat="45.35466" lon="9.694065"><ele>72.16666666666667</ele><time>2026-04-26T14:18:07.904Z</time></trkpt><trkpt lat="45.3545883" lon="9.694035"><ele>72.33333333333333</ele><time>2026-04-26T14:18:09.904Z</time></trkpt><trkpt lat="45.35451" lon="9.6940133"><ele>72.5</ele><time>2026-04-26T14:18:11.904Z</time></trkpt><trkpt lat="45.3544333" lon="9.6939983"><ele>72.66666666666666</ele><time>2026-04-26T14:18:13.904Z</time></trkpt><trkpt lat="45.3543517" lon="9.6939983"><ele>72.83333333333333</ele><time>2026-04-26T14:18:15.904Z</time></trkpt><trkpt lat="45.3542733" lon="9.6939883"><ele>73.0</ele><time>2026-04-26T14:18:17.904Z</time></trkpt><trkpt lat="45.3541883" lon="9.6939817"><ele>73.0</ele><time>2026-04-26T14:18:19.904Z</time></trkpt><trkpt lat="45.354095" lon="9.69399"><ele>73.0</ele><time>2026-04-26T14:18:21.904Z</time></trkpt><trkpt lat="45.354005" lon="9.6939967"><ele>73.0</ele><time>2026-04-26T14:18:23.904Z</time></trkpt><trkpt lat="45.3539133" lon="9.6940167"><ele>73.0</ele><time>2026-04-26T14:18:25.904Z</time></trkpt><trkpt lat="45.353815" lon="9.6940383"><ele>73.0</ele><time>2026-04-26T14:18:27.904Z</time></trkpt><trkpt lat="45.3537217" lon="9.6940467"><ele>73.16666666666666</ele><time>2026-04-26T14:18:29.904Z</time></trkpt><trkpt lat="45.3536483" lon="9.6940817"><ele>73.33333333333333</ele><time>2026-04-26T14:18:31.904Z</time></trkpt><trkpt lat="45.35357" lon="9.694105"><ele>73.5</ele><time>2026-04-26T14:18:33.904Z</time></trkpt><trkpt lat="45.3534867" lon="9.69413"><ele>73.66666666666667</ele><time>2026-04-26T14:18:35.904Z</time></trkpt><trkpt lat="45.3534033" lon="9.69416"><ele>73.83333333333334</ele><time>2026-04-26T14:18:37.904Z</time></trkpt><trkpt lat="45.353325" lon="9.6941817"><ele>74.0</ele><time>2026-04-26T14:18:39.904Z</time></trkpt><trkpt lat="45.3532417" lon="9.6942067"><ele>74.0</ele><time>2026-04-26T14:18:41.904Z</time></trkpt><trkpt lat="45.3531617" lon="9.69424"><ele>74.0</ele><time>2026-04-26T14:18:43.904Z</time></trkpt><trkpt lat="45.3530817" lon="9.6942833"><ele>74.0</ele><time>2026-04-26T14:18:45.904Z</time></trkpt><trkpt lat="45.353005" lon="9.694315"><ele>74.0</ele><time>2026-04-26T14:18:47.904Z</time></trkpt><trkpt lat="45.352925" lon="9.6943367"><ele>74.0</ele><time>2026-04-26T14:18:49.904Z</time></trkpt><trkpt lat="45.3528517" lon="9.6943767"><ele>74.0</ele><time>2026-04-26T14:18:51.904Z</time></trkpt><trkpt lat="45.35278" lon="9.6944067"><ele>73.60000000000001</ele><time>2026-04-26T14:18:53.904Z</time></trkpt><trkpt lat="45.3527033" lon="9.694435"><ele>73.2</ele><time>2026-04-26T14:18:55.904Z</time></trkpt><trkpt lat="45.352615" lon="9.694465"><ele>72.80000000000001</ele><time>2026-04-26T14:18:57.904Z</time></trkpt><trkpt lat="45.3525267" lon="9.6944983"><ele>72.4</ele><time>2026-04-26T14:18:59.904Z</time></trkpt><trkpt lat="45.3524317" lon="9.6945317"><ele>72.0</ele><time>2026-04-26T14:19:01.904Z</time></trkpt><trkpt lat="45.3523383" lon="9.6945633"><ele>72.0</ele><time>2026-04-26T14:19:03.904Z</time></trkpt><trkpt lat="45.3522383" lon="9.694595"><ele>72.0</ele><time>2026-04-26T14:19:05.904Z</time></trkpt><trkpt lat="45.3521383" lon="9.694635"><ele>72.0</ele><time>2026-04-26T14:19:07.904Z</time></trkpt><trkpt lat="45.3520417" lon="9.694675"><ele>72.0</ele><time>2026-04-26T14:19:09.904Z</time></trkpt><trkpt lat="45.3519433" lon="9.694705"><ele>72.0</ele><time>2026-04-26T14:19:11.904Z</time></trkpt><trkpt lat="45.3518417" lon="9.69474"><ele>71.8</ele><time>2026-04-26T14:19:13.904Z</time></trkpt><trkpt lat="45.3517433" lon="9.6947817"><ele>71.6</ele><time>2026-04-26T14:19:15.904Z</time></trkpt><trkpt lat="45.35164" lon="9.6948083"><ele>71.39999999999999</ele><time>2026-04-26T14:19:17.904Z</time></trkpt><trkpt lat="45.3515417" lon="9.6948317"><ele>71.2</ele><time>2026-04-26T14:19:19.904Z</time></trkpt><trkpt lat="45.351445" lon="9.6948667"><ele>71.0</ele><time>2026-04-26T14:19:21.904Z</time></trkpt><trkpt lat="45.351355" lon="9.69491"><ele>71.0</ele><time>2026-04-26T14:19:23.904Z</time></trkpt><trkpt lat="45.351285" lon="9.6948833"><ele>71.0</ele><time>2026-04-26T14:19:25.905Z</time></trkpt><trkpt lat="45.3512767" lon="9.6947367"><ele>71.0</ele><time>2026-04-26T14:19:28.904Z</time></trkpt><trkpt lat="45.3512683" lon="9.69462"><ele>71.0</ele><time>2026-04-26T14:19:30.904Z</time></trkpt><trkpt lat="45.351255" lon="9.6944833"><ele>71.0</ele><time>2026-04-26T14:19:32.904Z</time></trkpt><trkpt lat="45.35125" lon="9.6943567"><ele>71.0</ele><time>2026-04-26T14:19:34.904Z</time></trkpt><trkpt lat="45.3512283" lon="9.6942317"><ele>71.0</ele><time>2026-04-26T14:19:36.904Z</time></trkpt><trkpt lat="45.3512117" lon="9.69411"><ele>71.0</ele><time>2026-04-26T14:19:38.904Z</time></trkpt><trkpt lat="45.3511967" lon="9.6939667"><ele>71.0</ele><time>2026-04-26T14:19:40.904Z</time></trkpt><trkpt lat="45.3511883" lon="9.6938267"><ele>71.0</ele><time>2026-04-26T14:19:42.904Z</time></trkpt><trkpt lat="45.35118" lon="9.6937033"><ele>71.0</ele><time>2026-04-26T14:19:44.904Z</time></trkpt><trkpt lat="45.35116" lon="9.69359"><ele>70.66666666666667</ele><time>2026-04-26T14:19:46.904Z</time></trkpt><trkpt lat="45.351135" lon="9.6935033"><ele>70.33333333333334</ele><time>2026-04-26T14:19:48.904Z</time></trkpt><trkpt lat="45.3511067" lon="9.6933983"><ele>70.0</ele><time>2026-04-26T14:19:51.905Z</time></trkpt><trkpt lat="45.3510383" lon="9.6933733"><ele>69.66666666666667</ele><time>2026-04-26T14:19:54.904Z</time></trkpt><trkpt lat="45.350965" lon="9.6934267"><ele>69.33333333333333</ele><time>2026-04-26T14:19:56.904Z</time></trkpt><trkpt lat="45.350895" lon="9.69348"><ele>69.0</ele><time>2026-04-26T14:19:58.904Z</time></trkpt><trkpt lat="45.35081" lon="9.693505"><ele>69.0</ele><time>2026-04-26T14:20:00.904Z</time></trkpt><trkpt lat="45.3507333" lon="9.693495"><ele>69.0</ele><time>2026-04-26T14:20:02.905Z</time></trkpt><trkpt lat="45.3506667" lon="9.6935"><ele>69.0</ele><time>2026-04-26T14:20:04.904Z</time></trkpt><trkpt lat="45.35059" lon="9.693545"><ele>69.0</ele><time>2026-04-26T14:20:06.904Z</time></trkpt><trkpt lat="45.3505117" lon="9.6935783"><ele>69.0</ele><time>2026-04-26T14:20:08.905Z</time></trkpt><trkpt lat="45.3504267" lon="9.6936083"><ele>69.0</ele><time>2026-04-26T14:20:11.904Z</time></trkpt><trkpt lat="45.3503583" lon="9.6936383"><ele>68.5</ele><time>2026-04-26T14:20:15.904Z</time></trkpt><trkpt lat="45.3502883" lon="9.6936817"><ele>68.0</ele><time>2026-04-26T14:20:18.904Z</time></trkpt><trkpt lat="45.3502233" lon="9.69372"><ele>67.5</ele><time>2026-04-26T14:20:20.905Z</time></trkpt><trkpt lat="45.3501517" lon="9.69376"><ele>67.0</ele><time>2026-04-26T14:20:22.904Z</time></trkpt><trkpt lat="45.3500867" lon="9.693805"><ele>66.5</ele><time>2026-04-26T14:20:24.904Z</time></trkpt><trkpt lat="45.3500183" lon="9.6938517"><ele>66.0</ele><time>2026-04-26T14:20:26.904Z</time></trkpt><trkpt lat="45.3499483" lon="9.6939017"><ele>66.0</ele><time>2026-04-26T14:20:28.904Z</time></trkpt><trkpt lat="45.3498783" lon="9.69396"><ele>66.0</ele><time>2026-04-26T14:20:30.904Z</time></trkpt><trkpt lat="45.34981" lon="9.6940167"><ele>66.0</ele><time>2026-04-26T14:20:32.904Z</time></trkpt><trkpt lat="45.34974" lon="9.6940633"><ele>66.0</ele><time>2026-04-26T14:20:34.904Z</time></trkpt><trkpt lat="45.34968" lon="9.6941267"><ele>66.0</ele><time>2026-04-26T14:20:36.904Z</time></trkpt><trkpt lat="45.3496117" lon="9.6941667"><ele>66.0</ele><time>2026-04-26T14:20:38.905Z</time></trkpt><trkpt lat="45.349545" lon="9.69422"><ele>66.66666666666667</ele><time>2026-04-26T14:20:40.904Z</time></trkpt><trkpt lat="45.349485" lon="9.69429"><ele>67.33333333333333</ele><time>2026-04-26T14:20:42.904Z</time></trkpt><trkpt lat="45.349425" lon="9.6943517"><ele>68.0</ele><time>2026-04-26T14:20:44.904Z</time></trkpt><trkpt lat="45.349375" lon="9.6944367"><ele>68.66666666666666</ele><time>2026-04-26T14:20:46.904Z</time></trkpt><trkpt lat="45.3493183" lon="9.6945183"><ele>69.33333333333333</ele><time>2026-04-26T14:20:48.904Z</time></trkpt><trkpt lat="45.3492617" lon="9.694595"><ele>70.0</ele><time>2026-04-26T14:20:50.905Z</time></trkpt><trkpt lat="45.3491933" lon="9.6946667"><ele>70.0</ele><time>2026-04-26T14:20:52.904Z</time></trkpt><trkpt lat="45.3491367" lon="9.69473"><ele>70.0</ele><time>2026-04-26T14:20:54.904Z</time></trkpt><trkpt lat="45.3490883" lon="9.6948083"><ele>70.0</ele><time>2026-04-26T14:20:56.903Z</time></trkpt><trkpt lat="45.3490367" lon="9.6949083"><ele>70.0</ele><time>2026-04-26T14:20:58.904Z</time></trkpt><trkpt lat="45.3489717" lon="9.6950083"><ele>70.0</ele><time>2026-04-26T14:21:00.903Z</time></trkpt><trkpt lat="45.3489217" lon="9.6951083"><ele>70.0</ele><time>2026-04-26T14:21:02.903Z</time></trkpt><trkpt lat="45.3488733" lon="9.695195"><ele>70.0</ele><time>2026-04-26T14:21:04.903Z</time></trkpt><trkpt lat="45.3488217" lon="9.6952783"><ele>70.0</ele><time>2026-04-26T14:21:06.903Z</time></trkpt><trkpt lat="45.3487783" lon="9.6953633"><ele>70.0</ele><time>2026-04-26T14:21:08.903Z</time></trkpt><trkpt lat="45.3487283" lon="9.6954483"><ele>70.0</ele><time>2026-04-26T14:21:10.903Z</time></trkpt><trkpt lat="45.3486833" lon="9.69555"><ele>70.0</ele><time>2026-04-26T14:21:12.903Z</time></trkpt><trkpt lat="45.3486467" lon="9.6956467"><ele>70.0</ele><time>2026-04-26T14:21:14.903Z</time></trkpt><trkpt lat="45.3486233" lon="9.69574"><ele>70.0</ele><time>2026-04-26T14:21:16.903Z</time></trkpt><trkpt lat="45.3486" lon="9.6958433"><ele>70.0</ele><time>2026-04-26T14:21:18.903Z</time></trkpt><trkpt lat="45.348565" lon="9.6959533"><ele>70.0</ele><time>2026-04-26T14:21:20.903Z</time></trkpt><trkpt lat="45.3485417" lon="9.69607"><ele>70.0</ele><time>2026-04-26T14:21:22.903Z</time></trkpt><trkpt lat="45.3485283" lon="9.6961967"><ele>70.0</ele><time>2026-04-26T14:21:24.903Z</time></trkpt><trkpt lat="45.3485033" lon="9.6963167"><ele>70.0</ele><time>2026-04-26T14:21:26.903Z</time></trkpt><trkpt lat="45.348465" lon="9.6964467"><ele>69.8</ele><time>2026-04-26T14:21:28.903Z</time></trkpt><trkpt lat="45.34843" lon="9.6965783"><ele>69.6</ele><time>2026-04-26T14:21:30.903Z</time></trkpt><trkpt lat="45.348395" lon="9.6967017"><ele>69.4</ele><time>2026-04-26T14:21:32.903Z</time></trkpt><trkpt lat="45.3483717" lon="9.696825"><ele>69.2</ele><time>2026-04-26T14:21:34.903Z</time></trkpt><trkpt lat="45.3483433" lon="9.696945"><ele>69.0</ele><time>2026-04-26T14:21:36.903Z</time></trkpt><trkpt lat="45.3483167" lon="9.6970783"><ele>68.8</ele><time>2026-04-26T14:21:38.903Z</time></trkpt><trkpt lat="45.3482683" lon="9.6971983"><ele>68.60000000000001</ele><time>2026-04-26T14:21:40.903Z</time></trkpt><trkpt lat="45.3482233" lon="9.6973117"><ele>68.4</ele><time>2026-04-26T14:21:42.903Z</time></trkpt><trkpt lat="45.3481883" lon="9.6974283"><ele>68.2</ele><time>2026-04-26T14:21:44.903Z</time></trkpt><trkpt lat="45.348145" lon="9.6975467"><ele>68.0</ele><time>2026-04-26T14:21:46.903Z</time></trkpt><trkpt lat="45.3480983" lon="9.6976667"><ele>67.6</ele><time>2026-04-26T14:21:48.903Z</time></trkpt><trkpt lat="45.34804" lon="9.6978033"><ele>67.19999999999999</ele><time>2026-04-26T14:21:50.903Z</time></trkpt><trkpt lat="45.347975" lon="9.697935"><ele>66.8</ele><time>2026-04-26T14:21:52.903Z</time></trkpt><trkpt lat="45.347915" lon="9.6980683"><ele>66.39999999999999</ele><time>2026-04-26T14:21:54.903Z</time></trkpt><trkpt lat="45.34786" lon="9.6982017"><ele>66.0</ele><time>2026-04-26T14:21:56.903Z</time></trkpt><trkpt lat="45.3477967" lon="9.698315"><ele>66.0</ele><time>2026-04-26T14:21:58.903Z</time></trkpt><trkpt lat="45.3477383" lon="9.6984333"><ele>66.0</ele><time>2026-04-26T14:22:00.903Z</time></trkpt><trkpt lat="45.34769" lon="9.69857"><ele>66.0</ele><time>2026-04-26T14:22:02.903Z</time></trkpt><trkpt lat="45.3476683" lon="9.6986983"><ele>66.0</ele><time>2026-04-26T14:22:04.903Z</time></trkpt><trkpt lat="45.3476633" lon="9.6987917"><ele>66.0</ele><time>2026-04-26T14:22:06.903Z</time></trkpt><trkpt lat="45.3476933" lon="9.6988967"><ele>66.0</ele><time>2026-04-26T14:22:09.903Z</time></trkpt><trkpt lat="45.3477067" lon="9.6989983"><ele>66.33333333333333</ele><time>2026-04-26T14:22:12.903Z</time></trkpt><trkpt lat="45.3477017" lon="9.6991167"><ele>66.66666666666667</ele><time>2026-04-26T14:22:15.903Z</time></trkpt><trkpt lat="45.347725" lon="9.6992083"><ele>67.0</ele><time>2026-04-26T14:22:17.903Z</time></trkpt><trkpt lat="45.3477333" lon="9.6993033"><ele>67.33333333333334</ele><time>2026-04-26T14:22:19.903Z</time></trkpt><trkpt lat="45.3477533" lon="9.6994167"><ele>67.66666666666667</ele><time>2026-04-26T14:22:21.903Z</time></trkpt><trkpt lat="45.3477717" lon="9.699525"><ele>68.0</ele><time>2026-04-26T14:22:23.903Z</time></trkpt><trkpt lat="45.3477967" lon="9.69964"><ele>68.16666666666667</ele><time>2026-04-26T14:22:25.903Z</time></trkpt><trkpt lat="45.3478233" lon="9.6997633"><ele>68.33333333333334</ele><time>2026-04-26T14:22:27.903Z</time></trkpt><trkpt lat="45.3478433" lon="9.6998817"><ele>68.5</ele><time>2026-04-26T14:22:29.903Z</time></trkpt><trkpt lat="45.347855" lon="9.6999917"><ele>68.66666666666667</ele><time>2026-04-26T14:22:31.903Z</time></trkpt><trkpt lat="45.3478567" lon="9.7001067"><ele>68.83333333333333</ele><time>2026-04-26T14:22:33.903Z</time></trkpt><trkpt lat="45.347865" lon="9.7002033"><ele>69.0</ele><time>2026-04-26T14:22:35.904Z</time></trkpt><trkpt lat="45.347925" lon="9.700275"><ele>69.0</ele><time>2026-04-26T14:22:38.903Z</time></trkpt><trkpt lat="45.3479483" lon="9.7003617"><ele>69.0</ele><time>2026-04-26T14:22:41.903Z</time></trkpt><trkpt lat="45.34795" lon="9.7004867"><ele>69.0</ele><time>2026-04-26T14:22:45.903Z</time></trkpt><trkpt lat="45.3479433" lon="9.7006017"><ele>69.0</ele><time>2026-04-26T14:22:48.903Z</time></trkpt><trkpt lat="45.34794" lon="9.7006983"><ele>69.0</ele><time>2026-04-26T14:22:51.903Z</time></trkpt><trkpt lat="45.347875" lon="9.7007633"><ele>69.0</ele><time>2026-04-26T14:22:55.903Z</time></trkpt><trkpt lat="45.3477983" lon="9.7007567"><ele>69.0</ele><time>2026-04-26T14:22:57.903Z</time></trkpt><trkpt lat="45.3477067" lon="9.7007617"><ele>69.0</ele><time>2026-04-26T14:22:59.903Z</time></trkpt><trkpt lat="45.3476117" lon="9.700765"><ele>69.0</ele><time>2026-04-26T14:23:01.903Z</time></trkpt><trkpt lat="45.3475217" lon="9.7007733"><ele>69.0</ele><time>2026-04-26T14:23:03.903Z</time></trkpt><trkpt lat="45.347425" lon="9.7007733"><ele>69.0</ele><time>2026-04-26T14:23:05.903Z</time></trkpt><trkpt lat="45.34732" lon="9.7007733"><ele>69.0</ele><time>2026-04-26T14:23:07.903Z</time></trkpt><trkpt lat="45.3472117" lon="9.7007667"><ele>69.0</ele><time>2026-04-26T14:23:09.904Z</time></trkpt><trkpt lat="45.3471033" lon="9.700765"><ele>69.0</ele><time>2026-04-26T14:23:11.903Z</time></trkpt><trkpt lat="45.347" lon="9.7007667"><ele>69.0</ele><time>2026-04-26T14:23:13.904Z</time></trkpt><trkpt lat="45.34688" lon="9.70077"><ele>69.0</ele><time>2026-04-26T14:23:15.903Z</time></trkpt><trkpt lat="45.34677" lon="9.7007817"><ele>69.0</ele><time>2026-04-26T14:23:17.903Z</time></trkpt><trkpt lat="45.34666" lon="9.7007767"><ele>69.0</ele><time>2026-04-26T14:23:19.903Z</time></trkpt><trkpt lat="45.3465967" lon="9.7007733"><ele>69.0</ele><time>2026-04-26T14:23:20.903Z</time></trkpt><trkpt lat="45.3464717" lon="9.7007733"><ele>69.0</ele><time>2026-04-26T14:23:22.903Z</time></trkpt><trkpt lat="45.346405" lon="9.70077"><ele>69.0</ele><time>2026-04-26T14:23:23.903Z</time></trkpt><trkpt lat="45.3463417" lon="9.7007717"><ele>69.0</ele><time>2026-04-26T14:23:24.904Z</time></trkpt><trkpt lat="45.3462183" lon="9.7007667"><ele>68.83333333333333</ele><time>2026-04-26T14:23:26.903Z</time></trkpt><trkpt lat="45.3461517" lon="9.70077"><ele>68.66666666666667</ele><time>2026-04-26T14:23:27.903Z</time></trkpt><trkpt lat="45.3460233" lon="9.70078"><ele>68.5</ele><time>2026-04-26T14:23:29.903Z</time></trkpt><trkpt lat="45.3459567" lon="9.7007767"><ele>68.33333333333334</ele><time>2026-04-26T14:23:30.903Z</time></trkpt><trkpt lat="45.3458883" lon="9.700775"><ele>68.16666666666667</ele><time>2026-04-26T14:23:31.903Z</time></trkpt><trkpt lat="45.3458233" lon="9.7007733"><ele>68.0</ele><time>2026-04-26T14:23:32.903Z</time></trkpt><trkpt lat="45.3457567" lon="9.7007717"><ele>68.0</ele><time>2026-04-26T14:23:33.903Z</time></trkpt><trkpt lat="45.34569" lon="9.7007683"><ele>68.0</ele><time>2026-04-26T14:23:34.903Z</time></trkpt><trkpt lat="45.345625" lon="9.7007683"><ele>68.0</ele><time>2026-04-26T14:23:35.903Z</time></trkpt><trkpt lat="45.3455567" lon="9.7007683"><ele>68.0</ele><time>2026-04-26T14:23:36.903Z</time></trkpt><trkpt lat="45.34549" lon="9.70077"><ele>68.0</ele><time>2026-04-26T14:23:37.903Z</time></trkpt><trkpt lat="45.345365" lon="9.7007833"><ele>68.0</ele><time>2026-04-26T14:23:39.904Z</time></trkpt><trkpt lat="45.3453" lon="9.700785"><ele>68.33333333333334</ele><time>2026-04-26T14:23:40.903Z</time></trkpt><trkpt lat="45.3452333" lon="9.70078"><ele>68.66666666666667</ele><time>2026-04-26T14:23:41.903Z</time></trkpt><trkpt lat="45.34517" lon="9.7007767"><ele>69.0</ele><time>2026-04-26T14:23:42.904Z</time></trkpt><trkpt lat="45.3451033" lon="9.70077"><ele>69.33333333333333</ele><time>2026-04-26T14:23:43.903Z</time></trkpt><trkpt lat="45.34503" lon="9.7007717"><ele>69.66666666666666</ele><time>2026-04-26T14:23:44.903Z</time></trkpt><trkpt lat="45.3449633" lon="9.7007733"><ele>70.0</ele><time>2026-04-26T14:23:45.903Z</time></trkpt><trkpt lat="45.344835" lon="9.7007567"><ele>70.0</ele><time>2026-04-26T14:23:47.904Z</time></trkpt><trkpt lat="45.34477" lon="9.7007517"><ele>70.0</ele><time>2026-04-26T14:23:48.903Z</time></trkpt><trkpt lat="45.3447017" lon="9.700755"><ele>70.0</ele><time>2026-04-26T14:23:49.903Z</time></trkpt><trkpt lat="45.344635" lon="9.7007583"><ele>70.0</ele><time>2026-04-26T14:23:50.903Z</time></trkpt><trkpt lat="45.3445669" lon="9.7007574"><ele>70.0</ele><time>2026-04-26T14:23:51.903Z</time></trkpt><trkpt lat="45.3445" lon="9.700763"><ele>70.0</ele><time>2026-04-26T14:23:52.903Z</time></trkpt><trkpt lat="45.3444319" lon="9.700761"><ele>70.0</ele><time>2026-04-26T14:23:53.903Z</time></trkpt><trkpt lat="45.344366" lon="9.7007604"><ele>69.57142857142857</ele><time>2026-04-26T14:23:54.903Z</time></trkpt><trkpt lat="45.3442959" lon="9.7007594"><ele>69.14285714285714</ele><time>2026-04-26T14:23:55.903Z</time></trkpt><trkpt lat="45.3442271" lon="9.700758"><ele>68.71428571428572</ele><time>2026-04-26T14:23:56.903Z</time></trkpt><trkpt lat="45.3441602" lon="9.7007582"><ele>68.28571428571428</ele><time>2026-04-26T14:23:57.903Z</time></trkpt><trkpt lat="45.3440934" lon="9.7007567"><ele>67.85714285714286</ele><time>2026-04-26T14:23:58.903Z</time></trkpt><trkpt lat="45.3440267" lon="9.7007562"><ele>67.42857142857143</ele><time>2026-04-26T14:23:59.903Z</time></trkpt><trkpt lat="45.3439619" lon="9.7007569"><ele>67.0</ele><time>2026-04-26T14:24:00.903Z</time></trkpt><trkpt lat="45.3438947" lon="9.7007564"><ele>67.5</ele><time>2026-04-26T14:24:01.903Z</time></trkpt><trkpt lat="45.3438302" lon="9.7007571"><ele>68.0</ele><time>2026-04-26T14:24:02.903Z</time></trkpt><trkpt lat="45.3436991" lon="9.7007572"><ele>68.5</ele><time>2026-04-26T14:24:04.903Z</time></trkpt><trkpt lat="45.3436292" lon="9.7007624"><ele>69.0</ele><time>2026-04-26T14:24:05.903Z</time></trkpt><trkpt lat="45.3435569" lon="9.700766"><ele>69.5</ele><time>2026-04-26T14:24:06.903Z</time></trkpt><trkpt lat="45.3434849" lon="9.7007679"><ele>70.0</ele><time>2026-04-26T14:24:07.903Z</time></trkpt><trkpt lat="45.3434155" lon="9.7007649"><ele>70.0</ele><time>2026-04-26T14:24:08.904Z</time></trkpt><trkpt lat="45.3433434" lon="9.700765"><ele>70.0</ele><time>2026-04-26T14:24:09.903Z</time></trkpt><trkpt lat="45.3432734" lon="9.7007662"><ele>70.0</ele><time>2026-04-26T14:24:10.903Z</time></trkpt><trkpt lat="45.3432058" lon="9.7007613"><ele>70.0</ele><time>2026-04-26T14:24:11.903Z</time></trkpt><trkpt lat="45.3431391" lon="9.7007581"><ele>70.0</ele><time>2026-04-26T14:24:12.903Z</time></trkpt><trkpt lat="45.3430724" lon="9.7007567"><ele>70.0</ele><time>2026-04-26T14:24:13.903Z</time></trkpt><trkpt lat="45.3430045" lon="9.7007595"><ele>70.0</ele><time>2026-04-26T14:24:14.903Z</time></trkpt><trkpt lat="45.342934" lon="9.7007615"><ele>70.14285714285714</ele><time>2026-04-26T14:24:15.904Z</time></trkpt><trkpt lat="45.3428627" lon="9.7007612"><ele>70.28571428571428</ele><time>2026-04-26T14:24:16.903Z</time></trkpt><trkpt lat="45.3427967" lon="9.7007599"><ele>70.42857142857143</ele><time>2026-04-26T14:24:17.904Z</time></trkpt><trkpt lat="45.3427303" lon="9.7007622"><ele>70.57142857142857</ele><time>2026-04-26T14:24:18.903Z</time></trkpt><trkpt lat="45.3426615" lon="9.7007645"><ele>70.71428571428571</ele><time>2026-04-26T14:24:19.903Z</time></trkpt><trkpt lat="45.3425895" lon="9.7007615"><ele>70.85714285714286</ele><time>2026-04-26T14:24:20.903Z</time></trkpt><trkpt lat="45.3425204" lon="9.7007609"><ele>71.0</ele><time>2026-04-26T14:24:21.903Z</time></trkpt><trkpt lat="45.3424509" lon="9.7007569"><ele>71.0</ele><time>2026-04-26T14:24:22.903Z</time></trkpt><trkpt lat="45.3423824" lon="9.7007527"><ele>71.0</ele><time>2026-04-26T14:24:23.903Z</time></trkpt><trkpt lat="45.3423149" lon="9.7007484"><ele>71.0</ele><time>2026-04-26T14:24:24.903Z</time></trkpt><trkpt lat="45.3422479" lon="9.7007411"><ele>71.0</ele><time>2026-04-26T14:24:25.903Z</time></trkpt><trkpt lat="45.3421787" lon="9.7007391"><ele>71.0</ele><time>2026-04-26T14:24:26.903Z</time></trkpt><trkpt lat="45.3421126" lon="9.7007433"><ele>71.0</ele><time>2026-04-26T14:24:27.903Z</time></trkpt><trkpt lat="45.3420439" lon="9.7007466"><ele>71.0</ele><time>2026-04-26T14:24:28.903Z</time></trkpt><trkpt lat="45.3419767" lon="9.700744"><ele>70.85714285714286</ele><time>2026-04-26T14:24:29.903Z</time></trkpt><trkpt lat="45.3419099" lon="9.7007459"><ele>70.71428571428571</ele><time>2026-04-26T14:24:30.903Z</time></trkpt><trkpt lat="45.341842" lon="9.7007468"><ele>70.57142857142857</ele><time>2026-04-26T14:24:31.903Z</time></trkpt><trkpt lat="45.3417712" lon="9.7007467"><ele>70.42857142857143</ele><time>2026-04-26T14:24:32.903Z</time></trkpt><trkpt lat="45.3416983" lon="9.7007457"><ele>70.28571428571428</ele><time>2026-04-26T14:24:33.903Z</time></trkpt><trkpt lat="45.3416286" lon="9.7007448"><ele>70.14285714285714</ele><time>2026-04-26T14:24:34.903Z</time></trkpt><trkpt lat="45.3415573" lon="9.7007423"><ele>70.0</ele><time>2026-04-26T14:24:35.903Z</time></trkpt><trkpt lat="45.341487" lon="9.7007398"><ele>70.0</ele><time>2026-04-26T14:24:36.903Z</time></trkpt><trkpt lat="45.3414192" lon="9.7007388"><ele>70.0</ele><time>2026-04-26T14:24:37.903Z</time></trkpt><trkpt lat="45.3413475" lon="9.7007413"><ele>70.0</ele><time>2026-04-26T14:24:38.903Z</time></trkpt><trkpt lat="45.3412771" lon="9.7007392"><ele>70.0</ele><time>2026-04-26T14:24:39.903Z</time></trkpt><trkpt lat="45.3412071" lon="9.700741"><ele>70.0</ele><time>2026-04-26T14:24:40.903Z</time></trkpt><trkpt lat="45.3411384" lon="9.7007452"><ele>70.0</ele><time>2026-04-26T14:24:41.904Z</time></trkpt><trkpt lat="45.3410726" lon="9.7007477"><ele>70.0</ele><time>2026-04-26T14:24:42.903Z</time></trkpt><trkpt lat="45.3410061" lon="9.7007478"><ele>69.57142857142857</ele><time>2026-04-26T14:24:43.903Z</time></trkpt><trkpt lat="45.3409394" lon="9.7007434"><ele>69.14285714285714</ele><time>2026-04-26T14:24:44.903Z</time></trkpt><trkpt lat="45.340869" lon="9.7007409"><ele>68.71428571428572</ele><time>2026-04-26T14:24:45.903Z</time></trkpt><trkpt lat="45.3407987" lon="9.7007451"><ele>68.28571428571428</ele><time>2026-04-26T14:24:46.903Z</time></trkpt><trkpt lat="45.3407295" lon="9.7007476"><ele>67.85714285714286</ele><time>2026-04-26T14:24:47.903Z</time></trkpt><trkpt lat="45.3406597" lon="9.700753"><ele>67.42857142857143</ele><time>2026-04-26T14:24:48.903Z</time></trkpt><trkpt lat="45.3405884" lon="9.7007546"><ele>67.0</ele><time>2026-04-26T14:24:49.904Z</time></trkpt><trkpt lat="45.3405133" lon="9.700751"><ele>67.0</ele><time>2026-04-26T14:24:50.903Z</time></trkpt><trkpt lat="45.3404406" lon="9.7007497"><ele>67.0</ele><time>2026-04-26T14:24:51.903Z</time></trkpt><trkpt lat="45.3403712" lon="9.7007521"><ele>67.0</ele><time>2026-04-26T14:24:52.903Z</time></trkpt><trkpt lat="45.3403025" lon="9.7007552"><ele>67.0</ele><time>2026-04-26T14:24:53.904Z</time></trkpt><trkpt lat="45.3402307" lon="9.7007597"><ele>67.0</ele><time>2026-04-26T14:24:54.903Z</time></trkpt><trkpt lat="45.3401601" lon="9.7007636"><ele>67.0</ele><time>2026-04-26T14:24:55.903Z</time></trkpt><trkpt lat="45.3400923" lon="9.7007669"><ele>67.0</ele><time>2026-04-26T14:24:56.903Z</time></trkpt><trkpt lat="45.3400219" lon="9.7007688"><ele>67.0</ele><time>2026-04-26T14:24:57.903Z</time></trkpt><trkpt lat="45.339955" lon="9.7007717"><ele>67.0</ele><time>2026-04-26T14:24:58.903Z</time></trkpt><trkpt lat="45.3398883" lon="9.700775"><ele>67.0</ele><time>2026-04-26T14:24:59.903Z</time></trkpt><trkpt lat="45.33982" lon="9.7007717"><ele>67.0</ele><time>2026-04-26T14:25:00.903Z</time></trkpt><trkpt lat="45.33975" lon="9.70078"><ele>67.0</ele><time>2026-04-26T14:25:01.903Z</time></trkpt><trkpt lat="45.3396833" lon="9.70078"><ele>67.0</ele><time>2026-04-26T14:25:02.903Z</time></trkpt><trkpt lat="45.339615" lon="9.700785"><ele>67.0</ele><time>2026-04-26T14:25:03.903Z</time></trkpt><trkpt lat="45.339545" lon="9.700775"><ele>67.0</ele><time>2026-04-26T14:25:04.903Z</time></trkpt><trkpt lat="45.3394783" lon="9.70077"><ele>67.0</ele><time>2026-04-26T14:25:05.903Z</time></trkpt><trkpt lat="45.3394067" lon="9.7007733"><ele>67.0</ele><time>2026-04-26T14:25:06.904Z</time></trkpt><trkpt lat="45.33934" lon="9.700775"><ele>67.0</ele><time>2026-04-26T14:25:07.903Z</time></trkpt><trkpt lat="45.3392717" lon="9.7007683"><ele>67.0</ele><time>2026-04-26T14:25:08.903Z</time></trkpt><trkpt lat="45.3392083" lon="9.70076"><ele>67.0</ele><time>2026-04-26T14:25:09.903Z</time></trkpt><trkpt lat="45.33914" lon="9.700765"><ele>67.0</ele><time>2026-04-26T14:25:10.903Z</time></trkpt><trkpt lat="45.33907" lon="9.7007633"><ele>67.0</ele><time>2026-04-26T14:25:11.903Z</time></trkpt><trkpt lat="45.3389967" lon="9.7007617"><ele>67.0</ele><time>2026-04-26T14:25:12.903Z</time></trkpt><trkpt lat="45.338925" lon="9.7007633"><ele>67.0</ele><time>2026-04-26T14:25:13.903Z</time></trkpt><trkpt lat="45.338855" lon="9.7007633"><ele>67.0</ele><time>2026-04-26T14:25:14.902Z</time></trkpt><trkpt lat="45.33879" lon="9.700755"><ele>67.0</ele><time>2026-04-26T14:25:15.902Z</time></trkpt><trkpt lat="45.3387233" lon="9.7007517"><ele>67.0</ele><time>2026-04-26T14:25:16.902Z</time></trkpt><trkpt lat="45.3386567" lon="9.7007433"><ele>67.0</ele><time>2026-04-26T14:25:17.903Z</time></trkpt><trkpt lat="45.33859" lon="9.700745"><ele>67.0</ele><time>2026-04-26T14:25:18.902Z</time></trkpt><trkpt lat="45.33852" lon="9.7007483"><ele>67.0</ele><time>2026-04-26T14:25:19.902Z</time></trkpt><trkpt lat="45.3384517" lon="9.70075"><ele>67.0</ele><time>2026-04-26T14:25:20.902Z</time></trkpt><trkpt lat="45.3383833" lon="9.7007533"><ele>67.0</ele><time>2026-04-26T14:25:21.902Z</time></trkpt><trkpt lat="45.338315" lon="9.7007583"><ele>67.0</ele><time>2026-04-26T14:25:22.902Z</time></trkpt><trkpt lat="45.3382483" lon="9.7007533"><ele>67.0</ele><time>2026-04-26T14:25:23.902Z</time></trkpt><trkpt lat="45.3381767" lon="9.7007517"><ele>67.0</ele><time>2026-04-26T14:25:24.902Z</time></trkpt><trkpt lat="45.3381067" lon="9.7007533"><ele>67.14285714285714</ele><time>2026-04-26T14:25:25.902Z</time></trkpt><trkpt lat="45.3380333" lon="9.700755"><ele>67.28571428571428</ele><time>2026-04-26T14:25:26.902Z</time></trkpt><trkpt lat="45.3379633" lon="9.70075"><ele>67.42857142857142</ele><time>2026-04-26T14:25:27.902Z</time></trkpt><trkpt lat="45.3378933" lon="9.7007417"><ele>67.57142857142857</ele><time>2026-04-26T14:25:28.902Z</time></trkpt><trkpt lat="45.3378267" lon="9.70074"><ele>67.71428571428571</ele><time>2026-04-26T14:25:29.902Z</time></trkpt><trkpt lat="45.337755" lon="9.7007417"><ele>67.85714285714285</ele><time>2026-04-26T14:25:30.902Z</time></trkpt><trkpt lat="45.3376867" lon="9.7007367"><ele>68.0</ele><time>2026-04-26T14:25:31.902Z</time></trkpt><trkpt lat="45.3376133" lon="9.7007433"><ele>67.99999999999999</ele><time>2026-04-26T14:25:32.902Z</time></trkpt><trkpt lat="45.337535" lon="9.7007567"><ele>68.0</ele><time>2026-04-26T14:25:33.902Z</time></trkpt><trkpt lat="45.3374667" lon="9.700765"><ele>68.0</ele><time>2026-04-26T14:25:34.902Z</time></trkpt><trkpt lat="45.337395" lon="9.70079"><ele>68.0</ele><time>2026-04-26T14:25:35.902Z</time></trkpt><trkpt lat="45.33733" lon="9.70082"><ele>68.0</ele><time>2026-04-26T14:25:36.902Z</time></trkpt><trkpt lat="45.337265" lon="9.7008533"><ele>67.99999999999999</ele><time>2026-04-26T14:25:37.902Z</time></trkpt><trkpt lat="45.3371967" lon="9.700895"><ele>68.0</ele><time>2026-04-26T14:25:38.902Z</time></trkpt><trkpt lat="45.337125" lon="9.7009367"><ele>68.14285714285714</ele><time>2026-04-26T14:25:39.902Z</time></trkpt><trkpt lat="45.3370533" lon="9.7009817"><ele>68.28571428571428</ele><time>2026-04-26T14:25:40.902Z</time></trkpt><trkpt lat="45.3369883" lon="9.7010183"><ele>68.42857142857143</ele><time>2026-04-26T14:25:41.902Z</time></trkpt><trkpt lat="45.3369183" lon="9.7010633"><ele>68.57142857142857</ele><time>2026-04-26T14:25:42.902Z</time></trkpt><trkpt lat="45.3368533" lon="9.7011067"><ele>68.71428571428572</ele><time>2026-04-26T14:25:43.902Z</time></trkpt><trkpt lat="45.3367867" lon="9.7011533"><ele>68.85714285714286</ele><time>2026-04-26T14:25:44.902Z</time></trkpt><trkpt lat="45.33672" lon="9.7011933"><ele>69.0</ele><time>2026-04-26T14:25:45.902Z</time></trkpt><trkpt lat="45.3366567" lon="9.7012383"><ele>69.0</ele><time>2026-04-26T14:25:46.902Z</time></trkpt><trkpt lat="45.3365933" lon="9.7012733"><ele>69.0</ele><time>2026-04-26T14:25:47.902Z</time></trkpt><trkpt lat="45.3365233" lon="9.7013133"><ele>69.0</ele><time>2026-04-26T14:25:48.902Z</time></trkpt><trkpt lat="45.3364567" lon="9.7013517"><ele>69.0</ele><time>2026-04-26T14:25:49.902Z</time></trkpt><trkpt lat="45.336385" lon="9.7013833"><ele>69.0</ele><time>2026-04-26T14:25:50.902Z</time></trkpt><trkpt lat="45.3363117" lon="9.701415"><ele>69.0</ele><time>2026-04-26T14:25:51.902Z</time></trkpt><trkpt lat="45.3362433" lon="9.7014433"><ele>69.0</ele><time>2026-04-26T14:25:52.902Z</time></trkpt><trkpt lat="45.3361783" lon="9.701465"><ele>69.33333333333333</ele><time>2026-04-26T14:25:53.902Z</time></trkpt><trkpt lat="45.33611" lon="9.70149"><ele>69.66666666666667</ele><time>2026-04-26T14:25:54.902Z</time></trkpt><trkpt lat="45.33605" lon="9.7015233"><ele>70.0</ele><time>2026-04-26T14:25:55.902Z</time></trkpt><trkpt lat="45.335935" lon="9.7015967"><ele>70.33333333333334</ele><time>2026-04-26T14:25:57.902Z</time></trkpt><trkpt lat="45.33588" lon="9.7016533"><ele>70.66666666666667</ele><time>2026-04-26T14:25:58.903Z</time></trkpt><trkpt lat="45.335825" lon="9.7017033"><ele>71.0</ele><time>2026-04-26T14:25:59.902Z</time></trkpt><trkpt lat="45.3357717" lon="9.7017583"><ele>71.0</ele><time>2026-04-26T14:26:00.902Z</time></trkpt><trkpt lat="45.3357217" lon="9.7018217"><ele>71.0</ele><time>2026-04-26T14:26:01.902Z</time></trkpt><trkpt lat="45.3356733" lon="9.7018833"><ele>71.0</ele><time>2026-04-26T14:26:02.902Z</time></trkpt><trkpt lat="45.3356067" lon="9.7020217"><ele>71.0</ele><time>2026-04-26T14:26:04.902Z</time></trkpt><trkpt lat="45.335585" lon="9.7021867"><ele>71.0</ele><time>2026-04-26T14:26:06.902Z</time></trkpt><trkpt lat="45.3355833" lon="9.7023383"><ele>71.0</ele><time>2026-04-26T14:26:08.902Z</time></trkpt><trkpt lat="45.3355867" lon="9.7024717"><ele>71.0</ele><time>2026-04-26T14:26:10.902Z</time></trkpt><trkpt lat="45.3355867" lon="9.702615"><ele>71.0</ele><time>2026-04-26T14:26:12.902Z</time></trkpt><trkpt lat="45.3355917" lon="9.70275"><ele>71.0</ele><time>2026-04-26T14:26:14.902Z</time></trkpt><trkpt lat="45.3356183" lon="9.702885"><ele>71.0</ele><time>2026-04-26T14:26:16.902Z</time></trkpt><trkpt lat="45.33565" lon="9.7030417"><ele>70.6</ele><time>2026-04-26T14:26:18.903Z</time></trkpt><trkpt lat="45.335675" lon="9.7031933"><ele>70.19999999999999</ele><time>2026-04-26T14:26:20.902Z</time></trkpt><trkpt lat="45.3357167" lon="9.7033467"><ele>69.80000000000001</ele><time>2026-04-26T14:26:22.902Z</time></trkpt><trkpt lat="45.3357333" lon="9.7034517"><ele>69.4</ele><time>2026-04-26T14:26:23.902Z</time></trkpt><trkpt lat="45.3357517" lon="9.7035383"><ele>69.0</ele><time>2026-04-26T14:26:24.903Z</time></trkpt><trkpt lat="45.3357733" lon="9.703705"><ele>68.60000000000001</ele><time>2026-04-26T14:26:26.902Z</time></trkpt><trkpt lat="45.3358167" lon="9.7038533"><ele>68.2</ele><time>2026-04-26T14:26:28.902Z</time></trkpt><trkpt lat="45.33588" lon="9.70398"><ele>67.80000000000001</ele><time>2026-04-26T14:26:30.902Z</time></trkpt><trkpt lat="45.3359333" lon="9.704125"><ele>67.4</ele><time>2026-04-26T14:26:32.902Z</time></trkpt><trkpt lat="45.335995" lon="9.704245"><ele>67.0</ele><time>2026-04-26T14:26:34.902Z</time></trkpt><trkpt lat="45.3360533" lon="9.7043767"><ele>67.0</ele><time>2026-04-26T14:26:36.902Z</time></trkpt><trkpt lat="45.3361183" lon="9.7044933"><ele>67.0</ele><time>2026-04-26T14:26:38.902Z</time></trkpt><trkpt lat="45.3361783" lon="9.7046067"><ele>67.0</ele><time>2026-04-26T14:26:40.902Z</time></trkpt><trkpt lat="45.3362317" lon="9.704715"><ele>67.0</ele><time>2026-04-26T14:26:42.902Z</time></trkpt><trkpt lat="45.3363083" lon="9.7047917"><ele>67.0</ele><time>2026-04-26T14:26:44.902Z</time></trkpt><trkpt lat="45.3363817" lon="9.7048917"><ele>66.8</ele><time>2026-04-26T14:26:46.902Z</time></trkpt><trkpt lat="45.336465" lon="9.7049833"><ele>66.6</ele><time>2026-04-26T14:26:48.902Z</time></trkpt><trkpt lat="45.33655" lon="9.7050883"><ele>66.39999999999999</ele><time>2026-04-26T14:26:50.902Z</time></trkpt><trkpt lat="45.3366483" lon="9.705205"><ele>66.2</ele><time>2026-04-26T14:26:52.902Z</time></trkpt><trkpt lat="45.3366967" lon="9.7052633"><ele>66.0</ele><time>2026-04-26T14:26:53.902Z</time></trkpt><trkpt lat="45.3367783" lon="9.705385"><ele>65.5</ele><time>2026-04-26T14:26:55.902Z</time></trkpt><trkpt lat="45.3368683" lon="9.7055067"><ele>65.0</ele><time>2026-04-26T14:26:57.902Z</time></trkpt><trkpt lat="45.3369517" lon="9.7056283"><ele>64.5</ele><time>2026-04-26T14:26:59.903Z</time></trkpt><trkpt lat="45.337035" lon="9.7057517"><ele>64.0</ele><time>2026-04-26T14:27:01.902Z</time></trkpt><trkpt lat="45.3371133" lon="9.7058717"><ele>64.0</ele><time>2026-04-26T14:27:03.902Z</time></trkpt><trkpt lat="45.3371583" lon="9.705935"><ele>64.0</ele><time>2026-04-26T14:27:04.902Z</time></trkpt><trkpt lat="45.3372383" lon="9.7060617"><ele>64.0</ele><time>2026-04-26T14:27:06.902Z</time></trkpt><trkpt lat="45.3373133" lon="9.7062083"><ele>64.0</ele><time>2026-04-26T14:27:08.902Z</time></trkpt><trkpt lat="45.337365" lon="9.7063583"><ele>64.0</ele><time>2026-04-26T14:27:10.902Z</time></trkpt><trkpt lat="45.3373826" lon="9.7064586"><ele>64.16666666666666</ele><time>2026-04-26T14:27:13.902Z</time></trkpt><trkpt lat="45.3374098" lon="9.7065675"><ele>64.33333333333333</ele><time>2026-04-26T14:27:20.968Z</time></trkpt><trkpt lat="45.3374339" lon="9.7066855"><ele>64.5</ele><time>2026-04-26T14:27:23.916Z</time></trkpt><trkpt lat="45.3374572" lon="9.7067873"><ele>64.66666666666667</ele><time>2026-04-26T14:27:25.989Z</time></trkpt><trkpt lat="45.3374899" lon="9.7068905"><ele>64.83333333333334</ele><time>2026-04-26T14:27:27.954Z</time></trkpt><trkpt lat="45.3375259" lon="9.7069995"><ele>65.0</ele><time>2026-04-26T14:27:29.918Z</time></trkpt><trkpt lat="45.3375566" lon="9.7071212"><ele>65.0</ele><time>2026-04-26T14:27:31.993Z</time></trkpt><trkpt lat="45.3375808" lon="9.7072404"><ele>65.0</ele><time>2026-04-26T14:27:33.958Z</time></trkpt><trkpt lat="45.3376211" lon="9.7073594"><ele>65.0</ele><time>2026-04-26T14:27:35.922Z</time></trkpt><trkpt lat="45.3376532" lon="9.7074524"><ele>65.0</ele><time>2026-04-26T14:27:37.902Z</time></trkpt><trkpt lat="45.3376782" lon="9.707565"><ele>65.0</ele><time>2026-04-26T14:27:39.902Z</time></trkpt><trkpt lat="45.3377168" lon="9.7076931"><ele>65.0</ele><time>2026-04-26T14:27:41.902Z</time></trkpt><trkpt lat="45.3377534" lon="9.7078232"><ele>65.2</ele><time>2026-04-26T14:27:43.902Z</time></trkpt><trkpt lat="45.337784" lon="9.7079491"><ele>65.4</ele><time>2026-04-26T14:27:45.902Z</time></trkpt><trkpt lat="45.3378189" lon="9.7080776"><ele>65.6</ele><time>2026-04-26T14:27:47.902Z</time></trkpt><trkpt lat="45.3378574" lon="9.7082154"><ele>65.8</ele><time>2026-04-26T14:27:49.902Z</time></trkpt><trkpt lat="45.3378986" lon="9.7083626"><ele>66.0</ele><time>2026-04-26T14:27:51.902Z</time></trkpt><trkpt lat="45.3379448" lon="9.7085078"><ele>65.75</ele><time>2026-04-26T14:27:53.903Z</time></trkpt><trkpt lat="45.3379844" lon="9.7086585"><ele>65.5</ele><time>2026-04-26T14:27:55.902Z</time></trkpt><trkpt lat="45.3380238" lon="9.7088019"><ele>65.25</ele><time>2026-04-26T14:27:57.903Z</time></trkpt><trkpt lat="45.33807" lon="9.7089524"><ele>65.0</ele><time>2026-04-26T14:27:59.903Z</time></trkpt><trkpt lat="45.3381091" lon="9.7091064"><ele>65.0</ele><time>2026-04-26T14:28:01.902Z</time></trkpt><trkpt lat="45.338147" lon="9.7092547"><ele>65.0</ele><time>2026-04-26T14:28:03.902Z</time></trkpt><trkpt lat="45.3381931" lon="9.7094078"><ele>65.0</ele><time>2026-04-26T14:28:05.902Z</time></trkpt><trkpt lat="45.3382387" lon="9.7095592"><ele>65.0</ele><time>2026-04-26T14:28:07.902Z</time></trkpt><trkpt lat="45.3382787" lon="9.7097148"><ele>65.0</ele><time>2026-04-26T14:28:09.902Z</time></trkpt><trkpt lat="45.3383185" lon="9.7098729"><ele>65.0</ele><time>2026-04-26T14:28:11.902Z</time></trkpt><trkpt lat="45.3383662" lon="9.7100407"><ele>65.0</ele><time>2026-04-26T14:28:13.902Z</time></trkpt><trkpt lat="45.3383918" lon="9.7101273"><ele>65.0</ele><time>2026-04-26T14:28:14.902Z</time></trkpt><trkpt lat="45.3384181" lon="9.7102131"><ele>65.0</ele><time>2026-04-26T14:28:15.902Z</time></trkpt><trkpt lat="45.3384473" lon="9.7102987"><ele>65.0</ele><time>2026-04-26T14:28:16.902Z</time></trkpt><trkpt lat="45.3384723" lon="9.7103879"><ele>65.14285714285715</ele><time>2026-04-26T14:28:17.902Z</time></trkpt><trkpt lat="45.3384974" lon="9.7104766"><ele>65.28571428571429</ele><time>2026-04-26T14:28:18.902Z</time></trkpt><trkpt lat="45.3385253" lon="9.7105661"><ele>65.42857142857143</ele><time>2026-04-26T14:28:19.902Z</time></trkpt><trkpt lat="45.3385577" lon="9.710652"><ele>65.57142857142858</ele><time>2026-04-26T14:28:20.902Z</time></trkpt><trkpt lat="45.3385887" lon="9.7107343"><ele>65.71428571428572</ele><time>2026-04-26T14:28:21.903Z</time></trkpt><trkpt lat="45.3386246" lon="9.7108142"><ele>65.85714285714286</ele><time>2026-04-26T14:28:22.903Z</time></trkpt><trkpt lat="45.3386619" lon="9.7108911"><ele>66.0</ele><time>2026-04-26T14:28:23.902Z</time></trkpt><trkpt lat="45.3387009" lon="9.7109621"><ele>66.0</ele><time>2026-04-26T14:28:24.902Z</time></trkpt><trkpt lat="45.3387445" lon="9.7110369"><ele>66.0</ele><time>2026-04-26T14:28:25.902Z</time></trkpt><trkpt lat="45.3387893" lon="9.7111082"><ele>66.0</ele><time>2026-04-26T14:28:26.902Z</time></trkpt><trkpt lat="45.3388344" lon="9.7111807"><ele>66.0</ele><time>2026-04-26T14:28:27.902Z</time></trkpt><trkpt lat="45.3388797" lon="9.7112534"><ele>66.0</ele><time>2026-04-26T14:28:28.903Z</time></trkpt><trkpt lat="45.3389237" lon="9.7113228"><ele>66.0</ele><time>2026-04-26T14:28:29.902Z</time></trkpt><trkpt lat="45.3389694" lon="9.7113963"><ele>66.0</ele><time>2026-04-26T14:28:30.902Z</time></trkpt><trkpt lat="45.3390123" lon="9.7114702"><ele>66.0</ele><time>2026-04-26T14:28:31.902Z</time></trkpt><trkpt lat="45.3390595" lon="9.711545"><ele>66.0</ele><time>2026-04-26T14:28:32.902Z</time></trkpt><trkpt lat="45.3391029" lon="9.7116209"><ele>66.0</ele><time>2026-04-26T14:28:33.902Z</time></trkpt><trkpt lat="45.3391513" lon="9.7116947"><ele>66.0</ele><time>2026-04-26T14:28:34.902Z</time></trkpt><trkpt lat="45.3391982" lon="9.71177"><ele>66.0</ele><time>2026-04-26T14:28:35.902Z</time></trkpt><trkpt lat="45.33925" lon="9.7118437"><ele>66.0</ele><time>2026-04-26T14:28:36.902Z</time></trkpt><trkpt lat="45.3393018" lon="9.7119181"><ele>66.0</ele><time>2026-04-26T14:28:37.902Z</time></trkpt><trkpt lat="45.3393513" lon="9.7119953"><ele>66.0</ele><time>2026-04-26T14:28:38.902Z</time></trkpt><trkpt lat="45.339396" lon="9.7120719"><ele>66.0</ele><time>2026-04-26T14:28:39.902Z</time></trkpt><trkpt lat="45.3394388" lon="9.712146"><ele>66.0</ele><time>2026-04-26T14:28:40.902Z</time></trkpt><trkpt lat="45.3395228" lon="9.7122754"><ele>66.0</ele><time>2026-04-26T14:28:42.902Z</time></trkpt><trkpt lat="45.3396151" lon="9.7123767"><ele>66.0</ele><time>2026-04-26T14:28:44.902Z</time></trkpt><trkpt lat="45.3397215" lon="9.7124736"><ele>66.0</ele><time>2026-04-26T14:28:46.902Z</time></trkpt><trkpt lat="45.3397797" lon="9.712511"><ele>66.0</ele><time>2026-04-26T14:28:47.902Z</time></trkpt><trkpt lat="45.3398398" lon="9.7125442"><ele>66.0</ele><time>2026-04-26T14:28:48.902Z</time></trkpt><trkpt lat="45.3399013" lon="9.7125799"><ele>66.0</ele><time>2026-04-26T14:28:49.902Z</time></trkpt><trkpt lat="45.3399615" lon="9.7126176"><ele>66.0</ele><time>2026-04-26T14:28:50.902Z</time></trkpt><trkpt lat="45.3400204" lon="9.7126546"><ele>66.0</ele><time>2026-04-26T14:28:51.902Z</time></trkpt><trkpt lat="45.3400802" lon="9.7126912"><ele>66.0</ele><time>2026-04-26T14:28:52.902Z</time></trkpt><trkpt lat="45.3401403" lon="9.7127297"><ele>65.71428571428571</ele><time>2026-04-26T14:28:53.902Z</time></trkpt><trkpt lat="45.3402016" lon="9.7127667"><ele>65.42857142857143</ele><time>2026-04-26T14:28:54.902Z</time></trkpt><trkpt lat="45.3402618" lon="9.7128022"><ele>65.14285714285714</ele><time>2026-04-26T14:28:55.902Z</time></trkpt><trkpt lat="45.3403242" lon="9.7128412"><ele>64.85714285714286</ele><time>2026-04-26T14:28:56.902Z</time></trkpt><trkpt lat="45.3403862" lon="9.712882"><ele>64.57142857142857</ele><time>2026-04-26T14:28:57.902Z</time></trkpt><trkpt lat="45.3404441" lon="9.7129293"><ele>64.28571428571428</ele><time>2026-04-26T14:28:58.902Z</time></trkpt><trkpt lat="45.3404991" lon="9.7129871"><ele>64.0</ele><time>2026-04-26T14:28:59.902Z</time></trkpt><trkpt lat="45.3405479" lon="9.7130561"><ele>64.0</ele><time>2026-04-26T14:29:00.902Z</time></trkpt><trkpt lat="45.3405929" lon="9.7131319"><ele>63.99999999999999</ele><time>2026-04-26T14:29:01.902Z</time></trkpt><trkpt lat="45.3406345" lon="9.7132077"><ele>64.0</ele><time>2026-04-26T14:29:02.902Z</time></trkpt><trkpt lat="45.3406739" lon="9.7132888"><ele>64.0</ele><time>2026-04-26T14:29:03.902Z</time></trkpt><trkpt lat="45.3407092" lon="9.7133735"><ele>63.99999999999999</ele><time>2026-04-26T14:29:04.902Z</time></trkpt><trkpt lat="45.3407396" lon="9.7134604"><ele>64.0</ele><time>2026-04-26T14:29:05.902Z</time></trkpt><trkpt lat="45.3407715" lon="9.7135462"><ele>64.0</ele><time>2026-04-26T14:29:06.902Z</time></trkpt><trkpt lat="45.3407978" lon="9.7136356"><ele>64.14285714285714</ele><time>2026-04-26T14:29:07.902Z</time></trkpt><trkpt lat="45.3408241" lon="9.7137258"><ele>64.28571428571428</ele><time>2026-04-26T14:29:08.902Z</time></trkpt><trkpt lat="45.3408545" lon="9.7138173"><ele>64.42857142857143</ele><time>2026-04-26T14:29:09.902Z</time></trkpt><trkpt lat="45.3408846" lon="9.7139079"><ele>64.57142857142857</ele><time>2026-04-26T14:29:10.902Z</time></trkpt><trkpt lat="45.3409132" lon="9.7140033"><ele>64.71428571428572</ele><time>2026-04-26T14:29:11.902Z</time></trkpt><trkpt lat="45.3409403" lon="9.7140925"><ele>64.85714285714286</ele><time>2026-04-26T14:29:12.902Z</time></trkpt><trkpt lat="45.3409659" lon="9.7141798"><ele>65.0</ele><time>2026-04-26T14:29:13.902Z</time></trkpt><trkpt lat="45.3409895" lon="9.7142666"><ele>65.00000000000001</ele><time>2026-04-26T14:29:14.902Z</time></trkpt><trkpt lat="45.341016" lon="9.7143534"><ele>65.0</ele><time>2026-04-26T14:29:15.902Z</time></trkpt><trkpt lat="45.3410413" lon="9.7144382"><ele>65.0</ele><time>2026-04-26T14:29:16.902Z</time></trkpt><trkpt lat="45.3410883" lon="9.7145995"><ele>65.0</ele><time>2026-04-26T14:29:18.902Z</time></trkpt><trkpt lat="45.3411072" lon="9.7146854"><ele>65.0</ele><time>2026-04-26T14:29:19.902Z</time></trkpt><trkpt lat="45.3411179" lon="9.7147762"><ele>65.00000000000001</ele><time>2026-04-26T14:29:20.902Z</time></trkpt><trkpt lat="45.3411256" lon="9.7148655"><ele>65.0</ele><time>2026-04-26T14:29:21.902Z</time></trkpt><trkpt lat="45.3411374" lon="9.7149568"><ele>65.33333333333334</ele><time>2026-04-26T14:29:22.902Z</time></trkpt><trkpt lat="45.34115" lon="9.7150486"><ele>65.66666666666667</ele><time>2026-04-26T14:29:23.902Z</time></trkpt><trkpt lat="45.3411898" lon="9.7152211"><ele>66.0</ele><time>2026-04-26T14:29:25.902Z</time></trkpt><trkpt lat="45.3412122" lon="9.7153106"><ele>66.33333333333333</ele><time>2026-04-26T14:29:26.902Z</time></trkpt><trkpt lat="45.3412345" lon="9.7154041"><ele>66.66666666666666</ele><time>2026-04-26T14:29:27.902Z</time></trkpt><trkpt lat="45.3412544" lon="9.7154967"><ele>67.0</ele><time>2026-04-26T14:29:28.902Z</time></trkpt><trkpt lat="45.3412777" lon="9.7155914"><ele>67.14285714285714</ele><time>2026-04-26T14:29:29.902Z</time></trkpt><trkpt lat="45.3412933" lon="9.7156876"><ele>67.28571428571428</ele><time>2026-04-26T14:29:30.902Z</time></trkpt><trkpt lat="45.3413115" lon="9.7157818"><ele>67.42857142857142</ele><time>2026-04-26T14:29:31.902Z</time></trkpt><trkpt lat="45.3413258" lon="9.7158755"><ele>67.57142857142857</ele><time>2026-04-26T14:29:32.902Z</time></trkpt><trkpt lat="45.3413408" lon="9.715971"><ele>67.71428571428571</ele><time>2026-04-26T14:29:33.902Z</time></trkpt><trkpt lat="45.3413588" lon="9.7160642"><ele>67.85714285714285</ele><time>2026-04-26T14:29:34.902Z</time></trkpt><trkpt lat="45.34138" lon="9.7161533"><ele>68.0</ele><time>2026-04-26T14:29:35.902Z</time></trkpt><trkpt lat="45.3414083" lon="9.7163218"><ele>68.0</ele><time>2026-04-26T14:29:37.901Z</time></trkpt><trkpt lat="45.3414471" lon="9.7164948"><ele>68.0</ele><time>2026-04-26T14:29:39.901Z</time></trkpt><trkpt lat="45.3414743" lon="9.7165893"><ele>68.0</ele><time>2026-04-26T14:29:40.901Z</time></trkpt><trkpt lat="45.3415049" lon="9.7166819"><ele>68.0</ele><time>2026-04-26T14:29:41.901Z</time></trkpt><trkpt lat="45.3415354" lon="9.7167786"><ele>68.0</ele><time>2026-04-26T14:29:42.901Z</time></trkpt><trkpt lat="45.3415698" lon="9.7168749"><ele>68.0</ele><time>2026-04-26T14:29:43.902Z</time></trkpt><trkpt lat="45.3416001" lon="9.7169688"><ele>67.99999999999999</ele><time>2026-04-26T14:29:44.901Z</time></trkpt><trkpt lat="45.3416345" lon="9.717057"><ele>68.0</ele><time>2026-04-26T14:29:45.901Z</time></trkpt><trkpt lat="45.3416726" lon="9.717141"><ele>68.0</ele><time>2026-04-26T14:29:46.901Z</time></trkpt><trkpt lat="45.3417086" lon="9.7172255"><ele>68.0</ele><time>2026-04-26T14:29:47.902Z</time></trkpt><trkpt lat="45.3417448" lon="9.7173107"><ele>68.0</ele><time>2026-04-26T14:29:48.901Z</time></trkpt><trkpt lat="45.3417837" lon="9.7173983"><ele>67.99999999999999</ele><time>2026-04-26T14:29:49.901Z</time></trkpt><trkpt lat="45.3418212" lon="9.7174868"><ele>68.0</ele><time>2026-04-26T14:29:50.901Z</time></trkpt><trkpt lat="45.3418583" lon="9.7175739"><ele>67.99999999999999</ele><time>2026-04-26T14:29:51.901Z</time></trkpt><trkpt lat="45.3418937" lon="9.7176646"><ele>68.0</ele><time>2026-04-26T14:29:52.901Z</time></trkpt><trkpt lat="45.3419299" lon="9.7177548"><ele>68.0</ele><time>2026-04-26T14:29:53.901Z</time></trkpt><trkpt lat="45.341962" lon="9.7178423"><ele>68.0</ele><time>2026-04-26T14:29:54.901Z</time></trkpt><trkpt lat="45.3419974" lon="9.7179285"><ele>68.0</ele><time>2026-04-26T14:29:55.901Z</time></trkpt><trkpt lat="45.3420301" lon="9.7180115"><ele>67.99999999999999</ele><time>2026-04-26T14:29:56.901Z</time></trkpt><trkpt lat="45.3420659" lon="9.7180996"><ele>68.0</ele><time>2026-04-26T14:29:57.902Z</time></trkpt><trkpt lat="45.3420975" lon="9.7181855"><ele>67.99999999999999</ele><time>2026-04-26T14:29:58.902Z</time></trkpt><trkpt lat="45.3421277" lon="9.7182758"><ele>68.0</ele><time>2026-04-26T14:29:59.901Z</time></trkpt><trkpt lat="45.3421588" lon="9.7183684"><ele>68.0</ele><time>2026-04-26T14:30:00.901Z</time></trkpt><trkpt lat="45.3421905" lon="9.718459"><ele>68.0</ele><time>2026-04-26T14:30:01.901Z</time></trkpt><trkpt lat="45.3422272" lon="9.7185441"><ele>68.0</ele><time>2026-04-26T14:30:02.901Z</time></trkpt><trkpt lat="45.3422637" lon="9.7186277"><ele>67.99999999999999</ele><time>2026-04-26T14:30:03.901Z</time></trkpt><trkpt lat="45.342295" lon="9.7187071"><ele>68.0</ele><time>2026-04-26T14:30:04.901Z</time></trkpt><trkpt lat="45.3423232" lon="9.7187901"><ele>67.99999999999999</ele><time>2026-04-26T14:30:05.901Z</time></trkpt><trkpt lat="45.3423491" lon="9.7188769"><ele>68.0</ele><time>2026-04-26T14:30:06.901Z</time></trkpt><trkpt lat="45.3423794" lon="9.7189665"><ele>68.0</ele><time>2026-04-26T14:30:07.902Z</time></trkpt><trkpt lat="45.342409" lon="9.7190582"><ele>68.0</ele><time>2026-04-26T14:30:08.901Z</time></trkpt><trkpt lat="45.3424342" lon="9.7191525"><ele>68.0</ele><time>2026-04-26T14:30:09.901Z</time></trkpt><trkpt lat="45.3424596" lon="9.7192426"><ele>67.99999999999999</ele><time>2026-04-26T14:30:10.901Z</time></trkpt><trkpt lat="45.3424822" lon="9.7193318"><ele>68.0</ele><time>2026-04-26T14:30:11.901Z</time></trkpt><trkpt lat="45.3424967" lon="9.719425"><ele>68.16666666666667</ele><time>2026-04-26T14:30:12.901Z</time></trkpt><trkpt lat="45.3425217" lon="9.71951"><ele>68.33333333333334</ele><time>2026-04-26T14:30:13.901Z</time></trkpt><trkpt lat="45.342545" lon="9.7195967"><ele>68.5</ele><time>2026-04-26T14:30:14.901Z</time></trkpt><trkpt lat="45.3425967" lon="9.7197617"><ele>68.66666666666667</ele><time>2026-04-26T14:30:16.901Z</time></trkpt><trkpt lat="45.3426217" lon="9.7198467"><ele>68.83333333333333</ele><time>2026-04-26T14:30:17.902Z</time></trkpt><trkpt lat="45.342645" lon="9.7199333"><ele>69.0</ele><time>2026-04-26T14:30:18.901Z</time></trkpt><trkpt lat="45.3426683" lon="9.72003"><ele>69.0</ele><time>2026-04-26T14:30:19.901Z</time></trkpt><trkpt lat="45.3426933" lon="9.72012"><ele>69.0</ele><time>2026-04-26T14:30:20.901Z</time></trkpt><trkpt lat="45.3427167" lon="9.720215"><ele>69.0</ele><time>2026-04-26T14:30:21.901Z</time></trkpt><trkpt lat="45.342735" lon="9.72031"><ele>69.0</ele><time>2026-04-26T14:30:22.901Z</time></trkpt><trkpt lat="45.34276" lon="9.7204067"><ele>69.0</ele><time>2026-04-26T14:30:23.901Z</time></trkpt><trkpt lat="45.34278" lon="9.720505"><ele>69.0</ele><time>2026-04-26T14:30:24.901Z</time></trkpt><trkpt lat="45.3427967" lon="9.7206017"><ele>69.0</ele><time>2026-04-26T14:30:25.901Z</time></trkpt><trkpt lat="45.34281" lon="9.720695"><ele>69.0</ele><time>2026-04-26T14:30:26.901Z</time></trkpt><trkpt lat="45.3428283" lon="9.7207917"><ele>69.0</ele><time>2026-04-26T14:30:27.901Z</time></trkpt><trkpt lat="45.3428433" lon="9.7208933"><ele>69.0</ele><time>2026-04-26T14:30:28.901Z</time></trkpt><trkpt lat="45.3428583" lon="9.7209933"><ele>69.0</ele><time>2026-04-26T14:30:29.901Z</time></trkpt><trkpt lat="45.3428717" lon="9.7210867"><ele>69.0</ele><time>2026-04-26T14:30:30.901Z</time></trkpt><trkpt lat="45.342885" lon="9.7211783"><ele>69.0</ele><time>2026-04-26T14:30:31.901Z</time></trkpt><trkpt lat="45.3429" lon="9.7213467"><ele>69.0</ele><time>2026-04-26T14:30:33.901Z</time></trkpt><trkpt lat="45.3429317" lon="9.7215217"><ele>69.0</ele><time>2026-04-26T14:30:35.9Z</time></trkpt><trkpt lat="45.3429567" lon="9.7217033"><ele>69.0</ele><time>2026-04-26T14:30:37.901Z</time></trkpt><trkpt lat="45.3429717" lon="9.7218"><ele>69.0</ele><time>2026-04-26T14:30:38.901Z</time></trkpt><trkpt lat="45.3429867" lon="9.7219017"><ele>69.0</ele><time>2026-04-26T14:30:39.901Z</time></trkpt><trkpt lat="45.3429967" lon="9.721995"><ele>69.0</ele><time>2026-04-26T14:30:40.901Z</time></trkpt><trkpt lat="45.3430117" lon="9.72209"><ele>69.0</ele><time>2026-04-26T14:30:41.901Z</time></trkpt><trkpt lat="45.3430283" lon="9.7221767"><ele>69.0</ele><time>2026-04-26T14:30:42.901Z</time></trkpt><trkpt lat="45.3430483" lon="9.7223517"><ele>69.0</ele><time>2026-04-26T14:30:44.901Z</time></trkpt><trkpt lat="45.3430633" lon="9.7225217"><ele>69.0</ele><time>2026-04-26T14:30:46.901Z</time></trkpt><trkpt lat="45.343075" lon="9.72261"><ele>69.0</ele><time>2026-04-26T14:30:47.901Z</time></trkpt><trkpt lat="45.343075" lon="9.722705"><ele>68.85714285714286</ele><time>2026-04-26T14:30:48.901Z</time></trkpt><trkpt lat="45.34307" lon="9.7228"><ele>68.71428571428572</ele><time>2026-04-26T14:30:49.901Z</time></trkpt><trkpt lat="45.34307" lon="9.7228933"><ele>68.57142857142857</ele><time>2026-04-26T14:30:50.901Z</time></trkpt><trkpt lat="45.343075" lon="9.7229867"><ele>68.42857142857143</ele><time>2026-04-26T14:30:51.901Z</time></trkpt><trkpt lat="45.3430683" lon="9.7230833"><ele>68.28571428571428</ele><time>2026-04-26T14:30:52.901Z</time></trkpt><trkpt lat="45.3430633" lon="9.72318"><ele>68.14285714285714</ele><time>2026-04-26T14:30:53.901Z</time></trkpt><trkpt lat="45.3430583" lon="9.7232733"><ele>68.0</ele><time>2026-04-26T14:30:54.901Z</time></trkpt><trkpt lat="45.3430533" lon="9.7233717"><ele>68.0</ele><time>2026-04-26T14:30:55.901Z</time></trkpt><trkpt lat="45.3430483" lon="9.72347"><ele>68.0</ele><time>2026-04-26T14:30:56.901Z</time></trkpt><trkpt lat="45.3430367" lon="9.7235633"><ele>68.0</ele><time>2026-04-26T14:30:57.901Z</time></trkpt><trkpt lat="45.3430167" lon="9.7237333"><ele>68.0</ele><time>2026-04-26T14:30:59.901Z</time></trkpt><trkpt lat="45.3429983" lon="9.7239017"><ele>68.0</ele><time>2026-04-26T14:31:01.902Z</time></trkpt><trkpt lat="45.3429933" lon="9.7239917"><ele>68.0</ele><time>2026-04-26T14:31:02.901Z</time></trkpt><trkpt lat="45.34299" lon="9.7240833"><ele>68.2</ele><time>2026-04-26T14:31:03.901Z</time></trkpt><trkpt lat="45.3429817" lon="9.724175"><ele>68.4</ele><time>2026-04-26T14:31:04.901Z</time></trkpt><trkpt lat="45.3429667" lon="9.7243517"><ele>68.60000000000001</ele><time>2026-04-26T14:31:06.901Z</time></trkpt><trkpt lat="45.3429717" lon="9.72452"><ele>68.8</ele><time>2026-04-26T14:31:08.901Z</time></trkpt><trkpt lat="45.3429833" lon="9.7246833"><ele>69.0</ele><time>2026-04-26T14:31:10.901Z</time></trkpt><trkpt lat="45.3430017" lon="9.7248483"><ele>69.2</ele><time>2026-04-26T14:31:12.901Z</time></trkpt><trkpt lat="45.34302" lon="9.72501"><ele>69.4</ele><time>2026-04-26T14:31:14.901Z</time></trkpt><trkpt lat="45.3430467" lon="9.7251417"><ele>69.6</ele><time>2026-04-26T14:31:16.901Z</time></trkpt><trkpt lat="45.3430717" lon="9.725255"><ele>69.8</ele><time>2026-04-26T14:31:18.901Z</time></trkpt><trkpt lat="45.3430983" lon="9.7253667"><ele>70.0</ele><time>2026-04-26T14:31:20.901Z</time></trkpt><trkpt lat="45.3431183" lon="9.725475"><ele>70.16666666666666</ele><time>2026-04-26T14:31:22.901Z</time></trkpt><trkpt lat="45.3431433" lon="9.7255783"><ele>70.33333333333333</ele><time>2026-04-26T14:31:24.901Z</time></trkpt><trkpt lat="45.3432083" lon="9.7256467"><ele>70.5</ele><time>2026-04-26T14:31:27.901Z</time></trkpt><trkpt lat="45.34328" lon="9.7256933"><ele>70.66666666666667</ele><time>2026-04-26T14:31:29.901Z</time></trkpt><trkpt lat="45.3433233" lon="9.7258183"><ele>70.83333333333334</ele><time>2026-04-26T14:31:31.901Z</time></trkpt><trkpt lat="45.3433583" lon="9.7259717"><ele>71.0</ele><time>2026-04-26T14:31:33.901Z</time></trkpt><trkpt lat="45.3433817" lon="9.726115"><ele>71.0</ele><time>2026-04-26T14:31:35.901Z</time></trkpt><trkpt lat="45.3434067" lon="9.7262583"><ele>71.0</ele><time>2026-04-26T14:31:37.901Z</time></trkpt><trkpt lat="45.3434267" lon="9.7264"><ele>71.0</ele><time>2026-04-26T14:31:39.901Z</time></trkpt><trkpt lat="45.34345" lon="9.7265417"><ele>71.0</ele><time>2026-04-26T14:31:41.901Z</time></trkpt><trkpt lat="45.3434867" lon="9.7266867"><ele>71.0</ele><time>2026-04-26T14:31:43.901Z</time></trkpt><trkpt lat="45.343505" lon="9.726835"><ele>71.0</ele><time>2026-04-26T14:31:45.901Z</time></trkpt><trkpt lat="45.3435233" lon="9.7269867"><ele>71.0</ele><time>2026-04-26T14:31:47.901Z</time></trkpt><trkpt lat="45.343545" lon="9.7271433"><ele>71.0</ele><time>2026-04-26T14:31:49.901Z</time></trkpt><trkpt lat="45.3435667" lon="9.7272867"><ele>71.0</ele><time>2026-04-26T14:31:51.901Z</time></trkpt><trkpt lat="45.3435917" lon="9.7274317"><ele>71.0</ele><time>2026-04-26T14:31:53.901Z</time></trkpt><trkpt lat="45.34361" lon="9.7275683"><ele>71.0</ele><time>2026-04-26T14:31:55.901Z</time></trkpt><trkpt lat="45.3436217" lon="9.7277083"><ele>71.0</ele><time>2026-04-26T14:31:57.901Z</time></trkpt><trkpt lat="45.3436483" lon="9.727845"><ele>71.0</ele><time>2026-04-26T14:31:59.901Z</time></trkpt><trkpt lat="45.343665" lon="9.72799"><ele>71.0</ele><time>2026-04-26T14:32:01.902Z</time></trkpt><trkpt lat="45.3436767" lon="9.72814"><ele>71.0</ele><time>2026-04-26T14:32:03.901Z</time></trkpt><trkpt lat="45.343695" lon="9.7283"><ele>71.0</ele><time>2026-04-26T14:32:05.901Z</time></trkpt><trkpt lat="45.34373" lon="9.7284583"><ele>71.0</ele><time>2026-04-26T14:32:07.901Z</time></trkpt><trkpt lat="45.34376" lon="9.7285967"><ele>71.0</ele><time>2026-04-26T14:32:09.901Z</time></trkpt><trkpt lat="45.3437783" lon="9.7287183"><ele>71.0</ele><time>2026-04-26T14:32:11.901Z</time></trkpt><trkpt lat="45.343785" lon="9.728845"><ele>71.0</ele><time>2026-04-26T14:32:13.901Z</time></trkpt><trkpt lat="45.3437817" lon="9.7289617"><ele>71.0</ele><time>2026-04-26T14:32:15.901Z</time></trkpt><trkpt lat="45.3437517" lon="9.7290567"><ele>71.0</ele><time>2026-04-26T14:32:17.901Z</time></trkpt><trkpt lat="45.3436967" lon="9.7291483"><ele>71.0</ele><time>2026-04-26T14:32:20.901Z</time></trkpt><trkpt lat="45.3437217" lon="9.7292767"><ele>71.0</ele><time>2026-04-26T14:32:23.901Z</time></trkpt><trkpt lat="45.343775" lon="9.7293867"><ele>71.0</ele><time>2026-04-26T14:32:25.901Z</time></trkpt><trkpt lat="45.343805" lon="9.7294683"><ele>71.0</ele><time>2026-04-26T14:32:26.901Z</time></trkpt><trkpt lat="45.34384" lon="9.72956"><ele>70.83333333333334</ele><time>2026-04-26T14:32:27.902Z</time></trkpt><trkpt lat="45.343875" lon="9.7296583"><ele>70.66666666666667</ele><time>2026-04-26T14:32:28.901Z</time></trkpt><trkpt lat="45.3439017" lon="9.729765"><ele>70.5</ele><time>2026-04-26T14:32:29.901Z</time></trkpt><trkpt lat="45.343935" lon="9.7298633"><ele>70.33333333333333</ele><time>2026-04-26T14:32:30.901Z</time></trkpt><trkpt lat="45.3439683" lon="9.7299717"><ele>70.16666666666666</ele><time>2026-04-26T14:32:31.901Z</time></trkpt><trkpt lat="45.3440117" lon="9.7301117"><ele>70.0</ele><time>2026-04-26T14:32:32.901Z</time></trkpt><trkpt lat="45.34406" lon="9.730235"><ele>69.83333333333333</ele><time>2026-04-26T14:32:33.901Z</time></trkpt><trkpt lat="45.34409" lon="9.730345"><ele>69.66666666666666</ele><time>2026-04-26T14:32:34.901Z</time></trkpt><trkpt lat="45.3441217" lon="9.7304383"><ele>69.5</ele><time>2026-04-26T14:32:35.901Z</time></trkpt><trkpt lat="45.3441567" lon="9.7305317"><ele>69.33333333333333</ele><time>2026-04-26T14:32:36.901Z</time></trkpt><trkpt lat="45.3442033" lon="9.7306267"><ele>69.16666666666667</ele><time>2026-04-26T14:32:37.901Z</time></trkpt><trkpt lat="45.344255" lon="9.730715"><ele>69.0</ele><time>2026-04-26T14:32:38.901Z</time></trkpt><trkpt lat="45.3443017" lon="9.7307933"><ele>69.0</ele><time>2026-04-26T14:32:39.901Z</time></trkpt><trkpt lat="45.34435" lon="9.7308667"><ele>69.0</ele><time>2026-04-26T14:32:40.901Z</time></trkpt><trkpt lat="45.3444067" lon="9.7309133"><ele>69.0</ele><time>2026-04-26T14:32:41.901Z</time></trkpt><trkpt lat="45.344505" lon="9.7310067"><ele>69.0</ele><time>2026-04-26T14:32:43.902Z</time></trkpt><trkpt lat="45.3445833" lon="9.7310883"><ele>69.0</ele><time>2026-04-26T14:32:45.901Z</time></trkpt><trkpt lat="45.3446667" lon="9.7311633"><ele>69.4</ele><time>2026-04-26T14:32:47.901Z</time></trkpt><trkpt lat="45.34476" lon="9.7312233"><ele>69.80000000000001</ele><time>2026-04-26T14:32:49.901Z</time></trkpt><trkpt lat="45.3448567" lon="9.7312667"><ele>70.19999999999999</ele><time>2026-04-26T14:32:51.901Z</time></trkpt><trkpt lat="45.3449583" lon="9.7312983"><ele>70.6</ele><time>2026-04-26T14:32:53.901Z</time></trkpt><trkpt lat="45.34506" lon="9.731335"><ele>71.0</ele><time>2026-04-26T14:32:55.901Z</time></trkpt><trkpt lat="45.3451583" lon="9.73138"><ele>71.0</ele><time>2026-04-26T14:32:57.901Z</time></trkpt><trkpt lat="45.3452483" lon="9.731445"><ele>71.0</ele><time>2026-04-26T14:32:59.901Z</time></trkpt><trkpt lat="45.3453533" lon="9.7314967"><ele>71.0</ele><time>2026-04-26T14:33:01.901Z</time></trkpt><trkpt lat="45.3454533" lon="9.7315433"><ele>71.0</ele><time>2026-04-26T14:33:03.901Z</time></trkpt><trkpt lat="45.345555" lon="9.7316033"><ele>71.0</ele><time>2026-04-26T14:33:05.901Z</time></trkpt><trkpt lat="45.3456617" lon="9.73168"><ele>70.75</ele><time>2026-04-26T14:33:07.901Z</time></trkpt><trkpt lat="45.345765" lon="9.73176"><ele>70.5</ele><time>2026-04-26T14:33:09.901Z</time></trkpt><trkpt lat="45.3458583" lon="9.7318467"><ele>70.25</ele><time>2026-04-26T14:33:11.901Z</time></trkpt><trkpt lat="45.3459467" lon="9.7319533"><ele>70.0</ele><time>2026-04-26T14:33:13.901Z</time></trkpt><trkpt lat="45.34604" lon="9.7320567"><ele>70.0</ele><time>2026-04-26T14:33:15.901Z</time></trkpt><trkpt lat="45.34613" lon="9.7321583"><ele>70.0</ele><time>2026-04-26T14:33:17.902Z</time></trkpt><trkpt lat="45.34622" lon="9.73226"><ele>70.0</ele><time>2026-04-26T14:33:19.901Z</time></trkpt><trkpt lat="45.3463117" lon="9.732365"><ele>70.0</ele><time>2026-04-26T14:33:21.901Z</time></trkpt><trkpt lat="45.3464017" lon="9.7324833"><ele>70.0</ele><time>2026-04-26T14:33:23.901Z</time></trkpt><trkpt lat="45.3464467" lon="9.7325483"><ele>70.0</ele><time>2026-04-26T14:33:24.902Z</time></trkpt><trkpt lat="45.34649" lon="9.7326167"><ele>70.0</ele><time>2026-04-26T14:33:25.901Z</time></trkpt><trkpt lat="45.3465367" lon="9.732685"><ele>70.0</ele><time>2026-04-26T14:33:26.901Z</time></trkpt><trkpt lat="45.3465833" lon="9.7327483"><ele>70.0</ele><time>2026-04-26T14:33:27.901Z</time></trkpt><trkpt lat="45.3466717" lon="9.7328833"><ele>70.0</ele><time>2026-04-26T14:33:29.901Z</time></trkpt><trkpt lat="45.346755" lon="9.733015"><ele>70.2</ele><time>2026-04-26T14:33:31.901Z</time></trkpt><trkpt lat="45.3468383" lon="9.73315"><ele>70.4</ele><time>2026-04-26T14:33:33.901Z</time></trkpt><trkpt lat="45.3468883" lon="9.7332117"><ele>70.6</ele><time>2026-04-26T14:33:34.901Z</time></trkpt><trkpt lat="45.3469283" lon="9.7332833"><ele>70.8</ele><time>2026-04-26T14:33:35.902Z</time></trkpt><trkpt lat="45.346975" lon="9.7333517"><ele>71.0</ele><time>2026-04-26T14:33:36.901Z</time></trkpt><trkpt lat="45.3470667" lon="9.733475"><ele>71.0</ele><time>2026-04-26T14:33:38.901Z</time></trkpt><trkpt lat="45.3471167" lon="9.7335333"><ele>71.0</ele><time>2026-04-26T14:33:39.902Z</time></trkpt><trkpt lat="45.34721" lon="9.73365"><ele>71.0</ele><time>2026-04-26T14:33:41.901Z</time></trkpt><trkpt lat="45.3473167" lon="9.7337533"><ele>71.0</ele><time>2026-04-26T14:33:43.901Z</time></trkpt><trkpt lat="45.3473733" lon="9.7338"><ele>71.0</ele><time>2026-04-26T14:33:44.901Z</time></trkpt><trkpt lat="45.3474267" lon="9.7338483"><ele>71.0</ele><time>2026-04-26T14:33:45.901Z</time></trkpt><trkpt lat="45.3474833" lon="9.7339017"><ele>70.71428571428571</ele><time>2026-04-26T14:33:46.901Z</time></trkpt><trkpt lat="45.3475367" lon="9.7339583"><ele>70.42857142857142</ele><time>2026-04-26T14:33:47.901Z</time></trkpt><trkpt lat="45.3475967" lon="9.7340067"><ele>70.14285714285714</ele><time>2026-04-26T14:33:48.901Z</time></trkpt><trkpt lat="45.34766" lon="9.73405"><ele>69.85714285714286</ele><time>2026-04-26T14:33:49.901Z</time></trkpt><trkpt lat="45.3477217" lon="9.734105"><ele>69.57142857142858</ele><time>2026-04-26T14:33:50.901Z</time></trkpt><trkpt lat="45.3477767" lon="9.7341683"><ele>69.28571428571429</ele><time>2026-04-26T14:33:51.901Z</time></trkpt><trkpt lat="45.34783" lon="9.73423"><ele>69.0</ele><time>2026-04-26T14:33:52.901Z</time></trkpt><trkpt lat="45.34789" lon="9.73429"><ele>69.0</ele><time>2026-04-26T14:33:53.9Z</time></trkpt><trkpt lat="45.34795" lon="9.7343383"><ele>69.0</ele><time>2026-04-26T14:33:54.9Z</time></trkpt><trkpt lat="45.34801" lon="9.7343883"><ele>69.0</ele><time>2026-04-26T14:33:55.9Z</time></trkpt><trkpt lat="45.348065" lon="9.7344383"><ele>69.0</ele><time>2026-04-26T14:33:56.9Z</time></trkpt><trkpt lat="45.3481267" lon="9.7344917"><ele>69.0</ele><time>2026-04-26T14:33:57.9Z</time></trkpt><trkpt lat="45.3481833" lon="9.7345467"><ele>69.0</ele><time>2026-04-26T14:33:58.9Z</time></trkpt><trkpt lat="45.3482433" lon="9.7346033"><ele>69.0</ele><time>2026-04-26T14:33:59.9Z</time></trkpt><trkpt lat="45.3482967" lon="9.7346667"><ele>69.28571428571429</ele><time>2026-04-26T14:34:00.9Z</time></trkpt><trkpt lat="45.3483533" lon="9.7347267"><ele>69.57142857142858</ele><time>2026-04-26T14:34:01.901Z</time></trkpt><trkpt lat="45.3484067" lon="9.7347883"><ele>69.85714285714286</ele><time>2026-04-26T14:34:02.9Z</time></trkpt><trkpt lat="45.3484583" lon="9.7348483"><ele>70.14285714285714</ele><time>2026-04-26T14:34:03.9Z</time></trkpt><trkpt lat="45.3485133" lon="9.73491"><ele>70.42857142857142</ele><time>2026-04-26T14:34:04.9Z</time></trkpt><trkpt lat="45.3485667" lon="9.7349767"><ele>70.71428571428571</ele><time>2026-04-26T14:34:05.901Z</time></trkpt><trkpt lat="45.3486217" lon="9.7350417"><ele>71.0</ele><time>2026-04-26T14:34:06.9Z</time></trkpt><trkpt lat="45.3486767" lon="9.7351033"><ele>71.0</ele><time>2026-04-26T14:34:07.9Z</time></trkpt><trkpt lat="45.34873" lon="9.73516"><ele>71.0</ele><time>2026-04-26T14:34:08.901Z</time></trkpt><trkpt lat="45.348785" lon="9.735225"><ele>71.0</ele><time>2026-04-26T14:34:09.9Z</time></trkpt><trkpt lat="45.34884" lon="9.7352883"><ele>71.0</ele><time>2026-04-26T14:34:10.9Z</time></trkpt><trkpt lat="45.3489" lon="9.7353517"><ele>71.0</ele><time>2026-04-26T14:34:11.9Z</time></trkpt><trkpt lat="45.348955" lon="9.735415"><ele>71.0</ele><time>2026-04-26T14:34:12.9Z</time></trkpt><trkpt lat="45.349015" lon="9.73548"><ele>71.0</ele><time>2026-04-26T14:34:13.9Z</time></trkpt><trkpt lat="45.34907" lon="9.73554"><ele>70.85714285714286</ele><time>2026-04-26T14:34:14.9Z</time></trkpt><trkpt lat="45.3491283" lon="9.7356067"><ele>70.71428571428571</ele><time>2026-04-26T14:34:15.9Z</time></trkpt><trkpt lat="45.3491817" lon="9.73567"><ele>70.57142857142857</ele><time>2026-04-26T14:34:16.9Z</time></trkpt><trkpt lat="45.3492367" lon="9.735735"><ele>70.42857142857143</ele><time>2026-04-26T14:34:17.9Z</time></trkpt><trkpt lat="45.34929" lon="9.735795"><ele>70.28571428571428</ele><time>2026-04-26T14:34:18.9Z</time></trkpt><trkpt lat="45.349345" lon="9.7358583"><ele>70.14285714285714</ele><time>2026-04-26T14:34:19.9Z</time></trkpt><trkpt lat="45.3493967" lon="9.7359217"><ele>70.0</ele><time>2026-04-26T14:34:20.9Z</time></trkpt><trkpt lat="45.3494517" lon="9.7359833"><ele>70.0</ele><time>2026-04-26T14:34:21.9Z</time></trkpt><trkpt lat="45.3495033" lon="9.736045"><ele>70.0</ele><time>2026-04-26T14:34:22.901Z</time></trkpt><trkpt lat="45.34956" lon="9.7361067"><ele>70.0</ele><time>2026-04-26T14:34:23.9Z</time></trkpt><trkpt lat="45.34961" lon="9.7361683"><ele>70.0</ele><time>2026-04-26T14:34:24.9Z</time></trkpt><trkpt lat="45.3496633" lon="9.7362317"><ele>70.0</ele><time>2026-04-26T14:34:25.9Z</time></trkpt><trkpt lat="45.3497167" lon="9.7362933"><ele>70.0</ele><time>2026-04-26T14:34:26.9Z</time></trkpt><trkpt lat="45.3497733" lon="9.736355"><ele>70.0</ele><time>2026-04-26T14:34:27.9Z</time></trkpt><trkpt lat="45.349825" lon="9.736415"><ele>69.85714285714286</ele><time>2026-04-26T14:34:28.9Z</time></trkpt><trkpt lat="45.3498817" lon="9.7364817"><ele>69.71428571428572</ele><time>2026-04-26T14:34:29.9Z</time></trkpt><trkpt lat="45.3499383" lon="9.73655"><ele>69.57142857142857</ele><time>2026-04-26T14:34:30.9Z</time></trkpt><trkpt lat="45.3499967" lon="9.7366167"><ele>69.42857142857143</ele><time>2026-04-26T14:34:31.9Z</time></trkpt><trkpt lat="45.3500567" lon="9.736685"><ele>69.28571428571429</ele><time>2026-04-26T14:34:32.9Z</time></trkpt><trkpt lat="45.350115" lon="9.7367567"><ele>69.14285714285714</ele><time>2026-04-26T14:34:33.9Z</time></trkpt><trkpt lat="45.3501683" lon="9.7368133"><ele>69.0</ele><time>2026-04-26T14:34:34.9Z</time></trkpt><trkpt lat="45.3502267" lon="9.7368717"><ele>69.16666666666667</ele><time>2026-04-26T14:34:35.9Z</time></trkpt><trkpt lat="45.3502767" lon="9.73693"><ele>69.33333333333333</ele><time>2026-04-26T14:34:36.9Z</time></trkpt><trkpt lat="45.3503267" lon="9.7369883"><ele>69.5</ele><time>2026-04-26T14:34:37.9Z</time></trkpt><trkpt lat="45.3504233" lon="9.7370967"><ele>69.66666666666666</ele><time>2026-04-26T14:34:39.901Z</time></trkpt><trkpt lat="45.3504767" lon="9.7371567"><ele>69.83333333333333</ele><time>2026-04-26T14:34:40.901Z</time></trkpt><trkpt lat="45.3505333" lon="9.73722"><ele>70.0</ele><time>2026-04-26T14:34:41.9Z</time></trkpt><trkpt lat="45.3505917" lon="9.7372817"><ele>70.14285714285714</ele><time>2026-04-26T14:34:42.9Z</time></trkpt><trkpt lat="45.3506483" lon="9.7373417"><ele>70.28571428571428</ele><time>2026-04-26T14:34:43.9Z</time></trkpt><trkpt lat="45.350705" lon="9.7374033"><ele>70.42857142857143</ele><time>2026-04-26T14:34:44.9Z</time></trkpt><trkpt lat="45.3507617" lon="9.7374633"><ele>70.57142857142857</ele><time>2026-04-26T14:34:45.9Z</time></trkpt><trkpt lat="45.3508167" lon="9.7375167"><ele>70.71428571428571</ele><time>2026-04-26T14:34:46.9Z</time></trkpt><trkpt lat="45.35087" lon="9.7375817"><ele>70.85714285714286</ele><time>2026-04-26T14:34:47.9Z</time></trkpt><trkpt lat="45.3509267" lon="9.7376533"><ele>71.0</ele><time>2026-04-26T14:34:48.9Z</time></trkpt><trkpt lat="45.3509783" lon="9.737725"><ele>71.0</ele><time>2026-04-26T14:34:49.9Z</time></trkpt><trkpt lat="45.3510283" lon="9.737785"><ele>71.0</ele><time>2026-04-26T14:34:50.9Z</time></trkpt><trkpt lat="45.3510817" lon="9.7378417"><ele>71.0</ele><time>2026-04-26T14:34:51.9Z</time></trkpt><trkpt lat="45.3511317" lon="9.7379"><ele>71.0</ele><time>2026-04-26T14:34:52.9Z</time></trkpt><trkpt lat="45.3512333" lon="9.73802"><ele>71.0</ele><time>2026-04-26T14:34:54.9Z</time></trkpt><trkpt lat="45.3513267" lon="9.7381333"><ele>70.83333333333334</ele><time>2026-04-26T14:34:56.9Z</time></trkpt><trkpt lat="45.3513783" lon="9.738195"><ele>70.66666666666667</ele><time>2026-04-26T14:34:57.9Z</time></trkpt><trkpt lat="45.35143" lon="9.7382533"><ele>70.5</ele><time>2026-04-26T14:34:58.9Z</time></trkpt><trkpt lat="45.3514833" lon="9.7383133"><ele>70.33333333333333</ele><time>2026-04-26T14:34:59.9Z</time></trkpt><trkpt lat="45.35158" lon="9.7384283"><ele>70.16666666666666</ele><time>2026-04-26T14:35:01.9Z</time></trkpt><trkpt lat="45.3516333" lon="9.73849"><ele>70.0</ele><time>2026-04-26T14:35:02.9Z</time></trkpt><trkpt lat="45.351685" lon="9.7385517"><ele>70.28571428571429</ele><time>2026-04-26T14:35:03.9Z</time></trkpt><trkpt lat="45.3517367" lon="9.738615"><ele>70.57142857142857</ele><time>2026-04-26T14:35:04.9Z</time></trkpt><trkpt lat="45.3517917" lon="9.738675"><ele>70.85714285714286</ele><time>2026-04-26T14:35:05.9Z</time></trkpt><trkpt lat="45.351845" lon="9.7387317"><ele>71.14285714285714</ele><time>2026-04-26T14:35:06.9Z</time></trkpt><trkpt lat="45.3519" lon="9.73879"><ele>71.42857142857143</ele><time>2026-04-26T14:35:07.9Z</time></trkpt><trkpt lat="45.35195" lon="9.73885"><ele>71.71428571428572</ele><time>2026-04-26T14:35:08.9Z</time></trkpt><trkpt lat="45.3520017" lon="9.7389083"><ele>72.0</ele><time>2026-04-26T14:35:09.9Z</time></trkpt><trkpt lat="45.3520533" lon="9.73897"><ele>72.00000000000001</ele><time>2026-04-26T14:35:10.9Z</time></trkpt><trkpt lat="45.3521067" lon="9.73903"><ele>72.0</ele><time>2026-04-26T14:35:11.9Z</time></trkpt><trkpt lat="45.35216" lon="9.7390933"><ele>72.0</ele><time>2026-04-26T14:35:12.9Z</time></trkpt><trkpt lat="45.3522117" lon="9.7391583"><ele>72.0</ele><time>2026-04-26T14:35:13.9Z</time></trkpt><trkpt lat="45.3522667" lon="9.73922"><ele>72.0</ele><time>2026-04-26T14:35:14.9Z</time></trkpt><trkpt lat="45.3523183" lon="9.7392817"><ele>72.00000000000001</ele><time>2026-04-26T14:35:15.9Z</time></trkpt><trkpt lat="45.35237" lon="9.739345"><ele>72.0</ele><time>2026-04-26T14:35:16.9Z</time></trkpt><trkpt lat="45.35242" lon="9.7394"><ele>71.85714285714286</ele><time>2026-04-26T14:35:17.9Z</time></trkpt><trkpt lat="45.352475" lon="9.7394617"><ele>71.71428571428572</ele><time>2026-04-26T14:35:18.9Z</time></trkpt><trkpt lat="45.35253" lon="9.73952"><ele>71.57142857142857</ele><time>2026-04-26T14:35:19.9Z</time></trkpt><trkpt lat="45.3525833" lon="9.739575"><ele>71.42857142857143</ele><time>2026-04-26T14:35:20.901Z</time></trkpt><trkpt lat="45.352635" lon="9.73963"><ele>71.28571428571428</ele><time>2026-04-26T14:35:21.9Z</time></trkpt><trkpt lat="45.3526883" lon="9.7396833"><ele>71.14285714285714</ele><time>2026-04-26T14:35:22.9Z</time></trkpt><trkpt lat="45.3527417" lon="9.7397417"><ele>71.0</ele><time>2026-04-26T14:35:23.9Z</time></trkpt><trkpt lat="45.352835" lon="9.7398467"><ele>71.0</ele><time>2026-04-26T14:35:25.9Z</time></trkpt><trkpt lat="45.35292" lon="9.73996"><ele>71.0</ele><time>2026-04-26T14:35:27.9Z</time></trkpt><trkpt lat="45.3530017" lon="9.7400633"><ele>71.0</ele><time>2026-04-26T14:35:29.9Z</time></trkpt><trkpt lat="45.3530733" lon="9.7401617"><ele>71.0</ele><time>2026-04-26T14:35:31.9Z</time></trkpt><trkpt lat="45.35315" lon="9.7402467"><ele>71.0</ele><time>2026-04-26T14:35:33.9Z</time></trkpt><trkpt lat="45.353215" lon="9.74033"><ele>71.33333333333334</ele><time>2026-04-26T14:35:35.9Z</time></trkpt><trkpt lat="45.35328" lon="9.7404083"><ele>71.66666666666667</ele><time>2026-04-26T14:35:37.9Z</time></trkpt><trkpt lat="45.353345" lon="9.7404883"><ele>72.0</ele><time>2026-04-26T14:35:39.9Z</time></trkpt><trkpt lat="45.3534117" lon="9.7405733"><ele>72.33333333333333</ele><time>2026-04-26T14:35:41.9Z</time></trkpt><trkpt lat="45.353465" lon="9.7406517"><ele>72.66666666666666</ele><time>2026-04-26T14:35:43.9Z</time></trkpt><trkpt lat="45.3535183" lon="9.7407317"><ele>73.0</ele><time>2026-04-26T14:35:45.9Z</time></trkpt><trkpt lat="45.35356" lon="9.7408167"><ele>73.0</ele><time>2026-04-26T14:35:47.9Z</time></trkpt><trkpt lat="45.3535283" lon="9.740935"><ele>73.0</ele><time>2026-04-26T14:35:50.9Z</time></trkpt><trkpt lat="45.353475" lon="9.7409917"><ele>73.0</ele><time>2026-04-26T14:35:52.9Z</time></trkpt><trkpt lat="45.3534117" lon="9.741045"><ele>73.0</ele><time>2026-04-26T14:35:54.9Z</time></trkpt><trkpt lat="45.35334" lon="9.7410883"><ele>73.0</ele><time>2026-04-26T14:35:56.9Z</time></trkpt><trkpt lat="45.3532633" lon="9.7411433"><ele>73.0</ele><time>2026-04-26T14:35:58.9Z</time></trkpt><trkpt lat="45.3531833" lon="9.741205"><ele>72.8</ele><time>2026-04-26T14:36:00.9Z</time></trkpt><trkpt lat="45.353105" lon="9.7412833"><ele>72.6</ele><time>2026-04-26T14:36:02.9Z</time></trkpt><trkpt lat="45.3530217" lon="9.74136"><ele>72.4</ele><time>2026-04-26T14:36:04.9Z</time></trkpt><trkpt lat="45.3529333" lon="9.7414383"><ele>72.2</ele><time>2026-04-26T14:36:06.9Z</time></trkpt><trkpt lat="45.3528467" lon="9.741515"><ele>72.0</ele><time>2026-04-26T14:36:08.9Z</time></trkpt><trkpt lat="45.3527617" lon="9.74159"><ele>72.0</ele><time>2026-04-26T14:36:10.9Z</time></trkpt><trkpt lat="45.3526817" lon="9.7416667"><ele>72.0</ele><time>2026-04-26T14:36:12.9Z</time></trkpt><trkpt lat="45.3526" lon="9.741765"><ele>72.0</ele><time>2026-04-26T14:36:14.9Z</time></trkpt><trkpt lat="45.3525733" lon="9.7419033"><ele>72.0</ele><time>2026-04-26T14:36:16.9Z</time></trkpt><trkpt lat="45.3526" lon="9.7420417"><ele>72.0</ele><time>2026-04-26T14:36:18.9Z</time></trkpt><trkpt lat="45.35263" lon="9.7421783"><ele>72.0</ele><time>2026-04-26T14:36:20.9Z</time></trkpt><trkpt lat="45.3526567" lon="9.7423367"><ele>72.0</ele><time>2026-04-26T14:36:22.9Z</time></trkpt><trkpt lat="45.35268" lon="9.74249"><ele>72.0</ele><time>2026-04-26T14:36:24.901Z</time></trkpt><trkpt lat="45.3527067" lon="9.7426283"><ele>72.0</ele><time>2026-04-26T14:36:26.9Z</time></trkpt><trkpt lat="45.3527383" lon="9.7427767"><ele>72.0</ele><time>2026-04-26T14:36:28.901Z</time></trkpt><trkpt lat="45.3527683" lon="9.74293"><ele>72.25</ele><time>2026-04-26T14:36:30.9Z</time></trkpt><trkpt lat="45.3528017" lon="9.7430783"><ele>72.5</ele><time>2026-04-26T14:36:32.9Z</time></trkpt><trkpt lat="45.352835" lon="9.7432383"><ele>72.75</ele><time>2026-04-26T14:36:34.9Z</time></trkpt><trkpt lat="45.3528717" lon="9.7433933"><ele>73.0</ele><time>2026-04-26T14:36:36.901Z</time></trkpt><trkpt lat="45.3529017" lon="9.743545"><ele>73.25</ele><time>2026-04-26T14:36:38.9Z</time></trkpt><trkpt lat="45.3529317" lon="9.7437183"><ele>73.5</ele><time>2026-04-26T14:36:40.9Z</time></trkpt><trkpt lat="45.3529633" lon="9.7438833"><ele>73.75</ele><time>2026-04-26T14:36:42.9Z</time></trkpt><trkpt lat="45.352995" lon="9.744055"><ele>74.0</ele><time>2026-04-26T14:36:44.9Z</time></trkpt><trkpt lat="45.3530167" lon="9.74422"><ele>74.0</ele><time>2026-04-26T14:36:46.9Z</time></trkpt><trkpt lat="45.353045" lon="9.7443883"><ele>74.0</ele><time>2026-04-26T14:36:48.9Z</time></trkpt><trkpt lat="45.353075" lon="9.7445517"><ele>74.0</ele><time>2026-04-26T14:36:50.9Z</time></trkpt><trkpt lat="45.3531083" lon="9.7447233"><ele>74.0</ele><time>2026-04-26T14:36:52.9Z</time></trkpt><trkpt lat="45.353135" lon="9.74489"><ele>74.0</ele><time>2026-04-26T14:36:54.901Z</time></trkpt><trkpt lat="45.35316" lon="9.7450567"><ele>74.0</ele><time>2026-04-26T14:36:56.9Z</time></trkpt><trkpt lat="45.3531883" lon="9.745225"><ele>74.0</ele><time>2026-04-26T14:36:58.9Z</time></trkpt><trkpt lat="45.35322" lon="9.745395"><ele>74.0</ele><time>2026-04-26T14:37:00.9Z</time></trkpt><trkpt lat="45.35324" lon="9.7454817"><ele>74.0</ele><time>2026-04-26T14:37:01.9Z</time></trkpt><trkpt lat="45.3532583" lon="9.7455683"><ele>74.0</ele><time>2026-04-26T14:37:02.9Z</time></trkpt><trkpt lat="45.3532867" lon="9.7457433"><ele>74.0</ele><time>2026-04-26T14:37:04.9Z</time></trkpt><trkpt lat="45.3532983" lon="9.7458383"><ele>74.0</ele><time>2026-04-26T14:37:05.9Z</time></trkpt><trkpt lat="45.3533317" lon="9.7460117"><ele>74.0</ele><time>2026-04-26T14:37:07.9Z</time></trkpt><trkpt lat="45.3533633" lon="9.7461733"><ele>74.0</ele><time>2026-04-26T14:37:09.9Z</time></trkpt><trkpt lat="45.3533917" lon="9.7463267"><ele>74.0</ele><time>2026-04-26T14:37:11.9Z</time></trkpt><trkpt lat="45.35343" lon="9.7464717"><ele>74.0</ele><time>2026-04-26T14:37:13.9Z</time></trkpt><trkpt lat="45.353455" lon="9.7466067"><ele>74.0</ele><time>2026-04-26T14:37:15.9Z</time></trkpt><trkpt lat="45.35348" lon="9.7467283"><ele>74.0</ele><time>2026-04-26T14:37:17.9Z</time></trkpt><trkpt lat="45.3535083" lon="9.7468417"><ele>74.0</ele><time>2026-04-26T14:37:19.9Z</time></trkpt><trkpt lat="45.3535317" lon="9.7469683"><ele>74.0</ele><time>2026-04-26T14:37:21.9Z</time></trkpt><trkpt lat="45.353565" lon="9.7470983"><ele>74.0</ele><time>2026-04-26T14:37:23.9Z</time></trkpt><trkpt lat="45.3535933" lon="9.7472333"><ele>74.0</ele><time>2026-04-26T14:37:25.9Z</time></trkpt><trkpt lat="45.3536233" lon="9.7473617"><ele>74.0</ele><time>2026-04-26T14:37:27.9Z</time></trkpt><trkpt lat="45.353655" lon="9.7474967"><ele>74.0</ele><time>2026-04-26T14:37:29.9Z</time></trkpt><trkpt lat="45.353685" lon="9.74763"><ele>74.4</ele><time>2026-04-26T14:37:31.9Z</time></trkpt><trkpt lat="45.3537067" lon="9.7477683"><ele>74.80000000000001</ele><time>2026-04-26T14:37:33.9Z</time></trkpt><trkpt lat="45.3537367" lon="9.7479067"><ele>75.19999999999999</ele><time>2026-04-26T14:37:35.9Z</time></trkpt><trkpt lat="45.3537733" lon="9.7480433"><ele>75.6</ele><time>2026-04-26T14:37:37.9Z</time></trkpt><trkpt lat="45.353805" lon="9.7481883"><ele>76.0</ele><time>2026-04-26T14:37:39.9Z</time></trkpt><trkpt lat="45.3538283" lon="9.7483367"><ele>76.0</ele><time>2026-04-26T14:37:41.901Z</time></trkpt><trkpt lat="45.3538567" lon="9.7484883"><ele>76.0</ele><time>2026-04-26T14:37:43.9Z</time></trkpt><trkpt lat="45.3538817" lon="9.7486333"><ele>76.0</ele><time>2026-04-26T14:37:45.9Z</time></trkpt><trkpt lat="45.353905" lon="9.748775"><ele>76.0</ele><time>2026-04-26T14:37:47.9Z</time></trkpt><trkpt lat="45.353955" lon="9.7489083"><ele>76.0</ele><time>2026-04-26T14:37:49.9Z</time></trkpt><trkpt lat="45.3539883" lon="9.7490583"><ele>75.8</ele><time>2026-04-26T14:37:51.9Z</time></trkpt><trkpt lat="45.3540317" lon="9.7492033"><ele>75.6</ele><time>2026-04-26T14:37:53.9Z</time></trkpt><trkpt lat="45.3540767" lon="9.749345"><ele>75.4</ele><time>2026-04-26T14:37:55.9Z</time></trkpt><trkpt lat="45.354115" lon="9.7494733"><ele>75.2</ele><time>2026-04-26T14:37:57.9Z</time></trkpt><trkpt lat="45.354165" lon="9.7495717"><ele>75.0</ele><time>2026-04-26T14:37:59.9Z</time></trkpt><trkpt lat="45.3540983" lon="9.749655"><ele>75.0</ele><time>2026-04-26T14:38:05.899Z</time></trkpt><trkpt lat="45.3540117" lon="9.7497083"><ele>75.0</ele><time>2026-04-26T14:38:08.9Z</time></trkpt><trkpt lat="45.35394" lon="9.7497367"><ele>75.0</ele><time>2026-04-26T14:38:10.899Z</time></trkpt><trkpt lat="45.35387" lon="9.749765"><ele>75.0</ele><time>2026-04-26T14:38:12.899Z</time></trkpt><trkpt lat="45.3537967" lon="9.749805"><ele>75.0</ele><time>2026-04-26T14:38:14.9Z</time></trkpt><trkpt lat="45.353715" lon="9.749825"><ele>75.0</ele><time>2026-04-26T14:38:16.899Z</time></trkpt><trkpt lat="45.35363" lon="9.74986"><ele>74.6</ele><time>2026-04-26T14:38:18.899Z</time></trkpt><trkpt lat="45.3535417" lon="9.7499033"><ele>74.2</ele><time>2026-04-26T14:38:20.899Z</time></trkpt><trkpt lat="45.3534533" lon="9.749945"><ele>73.8</ele><time>2026-04-26T14:38:22.899Z</time></trkpt><trkpt lat="45.3533633" lon="9.7499867"><ele>73.4</ele><time>2026-04-26T14:38:24.899Z</time></trkpt><trkpt lat="45.3532667" lon="9.75003"><ele>73.0</ele><time>2026-04-26T14:38:26.899Z</time></trkpt><trkpt lat="45.35317" lon="9.7500717"><ele>73.0</ele><time>2026-04-26T14:38:28.899Z</time></trkpt><trkpt lat="45.3530667" lon="9.7501167"><ele>73.0</ele><time>2026-04-26T14:38:30.899Z</time></trkpt><trkpt lat="45.352965" lon="9.7501617"><ele>73.0</ele><time>2026-04-26T14:38:32.899Z</time></trkpt><trkpt lat="45.3528583" lon="9.7502083"><ele>73.0</ele><time>2026-04-26T14:38:34.899Z</time></trkpt><trkpt lat="45.3527617" lon="9.7502483"><ele>73.0</ele><time>2026-04-26T14:38:36.899Z</time></trkpt><trkpt lat="45.3526567" lon="9.7503083"><ele>73.2</ele><time>2026-04-26T14:38:38.899Z</time></trkpt><trkpt lat="45.3525583" lon="9.7503567"><ele>73.4</ele><time>2026-04-26T14:38:40.899Z</time></trkpt><trkpt lat="45.35246" lon="9.7504067"><ele>73.60000000000001</ele><time>2026-04-26T14:38:42.899Z</time></trkpt><trkpt lat="45.3523633" lon="9.7504633"><ele>73.8</ele><time>2026-04-26T14:38:44.899Z</time></trkpt><trkpt lat="45.3522733" lon="9.7505217"><ele>74.0</ele><time>2026-04-26T14:38:46.9Z</time></trkpt><trkpt lat="45.352175" lon="9.7505717"><ele>73.60000000000001</ele><time>2026-04-26T14:38:48.899Z</time></trkpt><trkpt lat="45.3520683" lon="9.7506183"><ele>73.2</ele><time>2026-04-26T14:38:50.899Z</time></trkpt><trkpt lat="45.3519717" lon="9.75067"><ele>72.80000000000001</ele><time>2026-04-26T14:38:52.899Z</time></trkpt><trkpt lat="45.3518783" lon="9.7507183"><ele>72.4</ele><time>2026-04-26T14:38:54.899Z</time></trkpt><trkpt lat="45.3517967" lon="9.7507717"><ele>72.0</ele><time>2026-04-26T14:38:56.899Z</time></trkpt><trkpt lat="45.3517167" lon="9.75081"><ele>72.0</ele><time>2026-04-26T14:38:58.899Z</time></trkpt><trkpt lat="45.3516367" lon="9.7508567"><ele>72.0</ele><time>2026-04-26T14:39:00.899Z</time></trkpt><trkpt lat="45.3515533" lon="9.75091"><ele>72.0</ele><time>2026-04-26T14:39:02.899Z</time></trkpt><trkpt lat="45.3514767" lon="9.7509817"><ele>72.0</ele><time>2026-04-26T14:39:04.899Z</time></trkpt><trkpt lat="45.351435" lon="9.7511017"><ele>72.0</ele><time>2026-04-26T14:39:06.899Z</time></trkpt><trkpt lat="45.35144" lon="9.7512333"><ele>72.2</ele><time>2026-04-26T14:39:08.899Z</time></trkpt><trkpt lat="45.3514583" lon="9.7513617"><ele>72.4</ele><time>2026-04-26T14:39:10.899Z</time></trkpt><trkpt lat="45.35149" lon="9.7514917"><ele>72.6</ele><time>2026-04-26T14:39:12.9Z</time></trkpt><trkpt lat="45.3515267" lon="9.7516233"><ele>72.8</ele><time>2026-04-26T14:39:14.899Z</time></trkpt><trkpt lat="45.3515583" lon="9.751755"><ele>73.0</ele><time>2026-04-26T14:39:16.899Z</time></trkpt><trkpt lat="45.3515817" lon="9.7518967"><ele>73.4</ele><time>2026-04-26T14:39:18.899Z</time></trkpt><trkpt lat="45.3516133" lon="9.7520383"><ele>73.8</ele><time>2026-04-26T14:39:20.899Z</time></trkpt><trkpt lat="45.3516383" lon="9.752175"><ele>74.2</ele><time>2026-04-26T14:39:22.899Z</time></trkpt><trkpt lat="45.3516583" lon="9.7523217"><ele>74.6</ele><time>2026-04-26T14:39:24.899Z</time></trkpt><trkpt lat="45.351685" lon="9.7524633"><ele>75.0</ele><time>2026-04-26T14:39:26.899Z</time></trkpt><trkpt lat="45.351715" lon="9.7525983"><ele>74.8</ele><time>2026-04-26T14:39:28.899Z</time></trkpt><trkpt lat="45.3517483" lon="9.7527267"><ele>74.6</ele><time>2026-04-26T14:39:30.899Z</time></trkpt><trkpt lat="45.351785" lon="9.7528633"><ele>74.4</ele><time>2026-04-26T14:39:32.899Z</time></trkpt><trkpt lat="45.3518067" lon="9.7530067"><ele>74.2</ele><time>2026-04-26T14:39:34.899Z</time></trkpt><trkpt lat="45.3518317" lon="9.75314"><ele>74.0</ele><time>2026-04-26T14:39:36.899Z</time></trkpt><trkpt lat="45.3518667" lon="9.7532667"><ele>74.0</ele><time>2026-04-26T14:39:38.899Z</time></trkpt><trkpt lat="45.35188" lon="9.7533917"><ele>74.0</ele><time>2026-04-26T14:39:40.899Z</time></trkpt><trkpt lat="45.3519083" lon="9.7534933"><ele>74.0</ele><time>2026-04-26T14:39:42.9Z</time></trkpt><trkpt lat="45.3519133" lon="9.7536083"><ele>74.0</ele><time>2026-04-26T14:40:02.899Z</time></trkpt><trkpt lat="45.3519267" lon="9.7537"><ele>74.0</ele><time>2026-04-26T14:40:04.899Z</time></trkpt><trkpt lat="45.35191" lon="9.753815"><ele>74.0</ele><time>2026-04-26T14:40:06.899Z</time></trkpt><trkpt lat="45.3518983" lon="9.753935"><ele>74.0</ele><time>2026-04-26T14:40:08.899Z</time></trkpt><trkpt lat="45.3519033" lon="9.75407"><ele>74.0</ele><time>2026-04-26T14:40:10.899Z</time></trkpt><trkpt lat="45.3519117" lon="9.7542067"><ele>74.0</ele><time>2026-04-26T14:40:12.899Z</time></trkpt><trkpt lat="45.351925" lon="9.754335"><ele>74.0</ele><time>2026-04-26T14:40:14.899Z</time></trkpt><trkpt lat="45.3519367" lon="9.7544567"><ele>74.0</ele><time>2026-04-26T14:40:16.899Z</time></trkpt><trkpt lat="45.35195" lon="9.7545817"><ele>74.0</ele><time>2026-04-26T14:40:18.899Z</time></trkpt><trkpt lat="45.3519683" lon="9.7547167"><ele>74.0</ele><time>2026-04-26T14:40:20.899Z</time></trkpt><trkpt lat="45.3519833" lon="9.7548533"><ele>74.0</ele><time>2026-04-26T14:40:22.9Z</time></trkpt><trkpt lat="45.3519933" lon="9.7549933"><ele>74.0</ele><time>2026-04-26T14:40:24.899Z</time></trkpt><trkpt lat="45.3519933" lon="9.7551267"><ele>74.0</ele><time>2026-04-26T14:40:26.899Z</time></trkpt><trkpt lat="45.3519817" lon="9.755265"><ele>73.8</ele><time>2026-04-26T14:40:28.899Z</time></trkpt><trkpt lat="45.3519767" lon="9.75541"><ele>73.60000000000001</ele><time>2026-04-26T14:40:30.9Z</time></trkpt><trkpt lat="45.3519833" lon="9.7555483"><ele>73.4</ele><time>2026-04-26T14:40:32.899Z</time></trkpt><trkpt lat="45.3519833" lon="9.75568"><ele>73.2</ele><time>2026-04-26T14:40:34.899Z</time></trkpt><trkpt lat="45.3519717" lon="9.7558233"><ele>73.0</ele><time>2026-04-26T14:40:36.899Z</time></trkpt><trkpt lat="45.3519583" lon="9.7559617"><ele>72.4</ele><time>2026-04-26T14:40:38.899Z</time></trkpt><trkpt lat="45.3519367" lon="9.7561017"><ele>71.8</ele><time>2026-04-26T14:40:40.899Z</time></trkpt><trkpt lat="45.351905" lon="9.756255"><ele>71.2</ele><time>2026-04-26T14:40:42.899Z</time></trkpt><trkpt lat="45.35187" lon="9.7564067"><ele>70.6</ele><time>2026-04-26T14:40:44.899Z</time></trkpt><trkpt lat="45.351815" lon="9.75655"><ele>70.0</ele><time>2026-04-26T14:40:46.899Z</time></trkpt><trkpt lat="45.3517633" lon="9.75669"><ele>70.0</ele><time>2026-04-26T14:40:48.899Z</time></trkpt><trkpt lat="45.3517017" lon="9.75683"><ele>70.0</ele><time>2026-04-26T14:40:50.899Z</time></trkpt><trkpt lat="45.351645" lon="9.7569683"><ele>70.0</ele><time>2026-04-26T14:40:52.899Z</time></trkpt><trkpt lat="45.351595" lon="9.7571033"><ele>70.0</ele><time>2026-04-26T14:40:54.899Z</time></trkpt><trkpt lat="45.3515417" lon="9.75724"><ele>70.0</ele><time>2026-04-26T14:40:56.899Z</time></trkpt><trkpt lat="45.3515033" lon="9.7573767"><ele>70.0</ele><time>2026-04-26T14:40:58.899Z</time></trkpt><trkpt lat="45.3514617" lon="9.7575017"><ele>70.0</ele><time>2026-04-26T14:41:00.899Z</time></trkpt><trkpt lat="45.351425" lon="9.7576433"><ele>70.0</ele><time>2026-04-26T14:41:02.899Z</time></trkpt><trkpt lat="45.3513917" lon="9.7577767"><ele>70.0</ele><time>2026-04-26T14:41:04.899Z</time></trkpt><trkpt lat="45.3513733" lon="9.7579283"><ele>70.0</ele><time>2026-04-26T14:41:06.9Z</time></trkpt><trkpt lat="45.3513517" lon="9.7580883"><ele>70.0</ele><time>2026-04-26T14:41:08.899Z</time></trkpt><trkpt lat="45.3513283" lon="9.7582433"><ele>70.0</ele><time>2026-04-26T14:41:10.899Z</time></trkpt><trkpt lat="45.3513233" lon="9.7583933"><ele>70.0</ele><time>2026-04-26T14:41:12.899Z</time></trkpt><trkpt lat="45.351315" lon="9.7585533"><ele>70.0</ele><time>2026-04-26T14:41:14.899Z</time></trkpt><trkpt lat="45.3513" lon="9.7587167"><ele>70.0</ele><time>2026-04-26T14:41:16.899Z</time></trkpt><trkpt lat="45.3512867" lon="9.75887"><ele>70.0</ele><time>2026-04-26T14:41:18.899Z</time></trkpt><trkpt lat="45.3512783" lon="9.75902"><ele>70.0</ele><time>2026-04-26T14:41:20.899Z</time></trkpt><trkpt lat="45.3512683" lon="9.7591783"><ele>70.0</ele><time>2026-04-26T14:41:22.899Z</time></trkpt><trkpt lat="45.3512583" lon="9.7593317"><ele>70.0</ele><time>2026-04-26T14:41:24.899Z</time></trkpt><trkpt lat="45.3512467" lon="9.7595"><ele>70.0</ele><time>2026-04-26T14:41:26.899Z</time></trkpt><trkpt lat="45.351245" lon="9.7596583"><ele>70.2</ele><time>2026-04-26T14:41:28.899Z</time></trkpt><trkpt lat="45.3512383" lon="9.7598067"><ele>70.4</ele><time>2026-04-26T14:41:30.899Z</time></trkpt><trkpt lat="45.3512367" lon="9.7599567"><ele>70.6</ele><time>2026-04-26T14:41:32.899Z</time></trkpt><trkpt lat="45.3512333" lon="9.760115"><ele>70.8</ele><time>2026-04-26T14:41:34.899Z</time></trkpt><trkpt lat="45.3512283" lon="9.76026"><ele>71.0</ele><time>2026-04-26T14:41:36.9Z</time></trkpt><trkpt lat="45.3512367" lon="9.7603983"><ele>71.0</ele><time>2026-04-26T14:41:38.9Z</time></trkpt><trkpt lat="45.3512417" lon="9.760545"><ele>71.0</ele><time>2026-04-26T14:41:40.899Z</time></trkpt><trkpt lat="45.35124" lon="9.7606933"><ele>71.0</ele><time>2026-04-26T14:41:42.899Z</time></trkpt><trkpt lat="45.3512433" lon="9.7608433"><ele>71.0</ele><time>2026-04-26T14:41:44.899Z</time></trkpt><trkpt lat="45.3512567" lon="9.7610067"><ele>71.0</ele><time>2026-04-26T14:41:46.899Z</time></trkpt><trkpt lat="45.351275" lon="9.761175"><ele>70.5</ele><time>2026-04-26T14:41:48.899Z</time></trkpt><trkpt lat="45.35129" lon="9.7613333"><ele>70.0</ele><time>2026-04-26T14:41:50.899Z</time></trkpt><trkpt lat="45.351305" lon="9.7614983"><ele>69.5</ele><time>2026-04-26T14:41:52.899Z</time></trkpt><trkpt lat="45.3513283" lon="9.7616667"><ele>69.0</ele><time>2026-04-26T14:41:54.9Z</time></trkpt><trkpt lat="45.35135" lon="9.76182"><ele>69.4</ele><time>2026-04-26T14:41:56.899Z</time></trkpt><trkpt lat="45.35136" lon="9.7619783"><ele>69.80000000000001</ele><time>2026-04-26T14:41:58.899Z</time></trkpt><trkpt lat="45.3513633" lon="9.7621333"><ele>70.19999999999999</ele><time>2026-04-26T14:42:00.899Z</time></trkpt><trkpt lat="45.3513633" lon="9.7622717"><ele>70.6</ele><time>2026-04-26T14:42:02.899Z</time></trkpt><trkpt lat="45.3513617" lon="9.7624167"><ele>71.0</ele><time>2026-04-26T14:42:04.898Z</time></trkpt><trkpt lat="45.351355" lon="9.762565"><ele>70.6</ele><time>2026-04-26T14:42:06.898Z</time></trkpt><trkpt lat="45.3513467" lon="9.7627217"><ele>70.19999999999999</ele><time>2026-04-26T14:42:08.899Z</time></trkpt><trkpt lat="45.351335" lon="9.7628767"><ele>69.80000000000001</ele><time>2026-04-26T14:42:10.898Z</time></trkpt><trkpt lat="45.3513283" lon="9.7630233"><ele>69.4</ele><time>2026-04-26T14:42:12.898Z</time></trkpt><trkpt lat="45.3513217" lon="9.76318"><ele>69.0</ele><time>2026-04-26T14:42:14.899Z</time></trkpt><trkpt lat="45.3513217" lon="9.763335"><ele>69.0</ele><time>2026-04-26T14:42:16.898Z</time></trkpt><trkpt lat="45.3513083" lon="9.76349"><ele>69.0</ele><time>2026-04-26T14:42:18.898Z</time></trkpt><trkpt lat="45.351305" lon="9.7636467"><ele>69.0</ele><time>2026-04-26T14:42:20.898Z</time></trkpt><trkpt lat="45.3513" lon="9.7637917"><ele>69.0</ele><time>2026-04-26T14:42:22.898Z</time></trkpt><trkpt lat="45.3512933" lon="9.76393"><ele>69.0</ele><time>2026-04-26T14:42:24.898Z</time></trkpt><trkpt lat="45.3512717" lon="9.764055"><ele>69.0</ele><time>2026-04-26T14:42:26.898Z</time></trkpt><trkpt lat="45.3511867" lon="9.764125"><ele>69.0</ele><time>2026-04-26T14:42:28.898Z</time></trkpt><trkpt lat="45.35109" lon="9.76414"><ele>69.0</ele><time>2026-04-26T14:42:30.899Z</time></trkpt><trkpt lat="45.3509983" lon="9.7641433"><ele>69.0</ele><time>2026-04-26T14:42:32.898Z</time></trkpt><trkpt lat="45.3509" lon="9.7641433"><ele>69.0</ele><time>2026-04-26T14:42:34.898Z</time></trkpt><trkpt lat="45.3508" lon="9.7641417"><ele>69.0</ele><time>2026-04-26T14:42:36.898Z</time></trkpt><trkpt lat="45.3506983" lon="9.7641433"><ele>69.0</ele><time>2026-04-26T14:42:38.898Z</time></trkpt><trkpt lat="45.3505917" lon="9.76415"><ele>69.0</ele><time>2026-04-26T14:42:40.898Z</time></trkpt><trkpt lat="45.350485" lon="9.7641583"><ele>69.0</ele><time>2026-04-26T14:42:42.898Z</time></trkpt><trkpt lat="45.350375" lon="9.7641667"><ele>69.0</ele><time>2026-04-26T14:42:44.898Z</time></trkpt><trkpt lat="45.3502633" lon="9.764185"><ele>69.4</ele><time>2026-04-26T14:42:46.898Z</time></trkpt><trkpt lat="45.3501517" lon="9.7641917"><ele>69.80000000000001</ele><time>2026-04-26T14:42:48.899Z</time></trkpt><trkpt lat="45.3500517" lon="9.7641917"><ele>70.19999999999999</ele><time>2026-04-26T14:42:50.898Z</time></trkpt><trkpt lat="45.34995" lon="9.76419"><ele>70.6</ele><time>2026-04-26T14:42:52.898Z</time></trkpt><trkpt lat="45.3498483" lon="9.7641667"><ele>71.0</ele><time>2026-04-26T14:42:54.898Z</time></trkpt><trkpt lat="45.3497417" lon="9.7641417"><ele>70.8</ele><time>2026-04-26T14:42:56.898Z</time></trkpt><trkpt lat="45.3496317" lon="9.7641267"><ele>70.6</ele><time>2026-04-26T14:42:58.898Z</time></trkpt><trkpt lat="45.349525" lon="9.7641033"><ele>70.4</ele><time>2026-04-26T14:43:00.898Z</time></trkpt><trkpt lat="45.3494117" lon="9.7640767"><ele>70.2</ele><time>2026-04-26T14:43:02.898Z</time></trkpt><trkpt lat="45.3492983" lon="9.764055"><ele>70.0</ele><time>2026-04-26T14:43:04.898Z</time></trkpt><trkpt lat="45.3491867" lon="9.76403"><ele>70.0</ele><time>2026-04-26T14:43:06.898Z</time></trkpt><trkpt lat="45.3490717" lon="9.7640017"><ele>70.0</ele><time>2026-04-26T14:43:08.898Z</time></trkpt><trkpt lat="45.34896" lon="9.7639717"><ele>70.0</ele><time>2026-04-26T14:43:10.899Z</time></trkpt><trkpt lat="45.3488483" lon="9.7639467"><ele>70.0</ele><time>2026-04-26T14:43:12.898Z</time></trkpt><trkpt lat="45.34873" lon="9.763925"><ele>70.16666666666666</ele><time>2026-04-26T14:43:14.898Z</time></trkpt><trkpt lat="45.348665" lon="9.7639167"><ele>70.33333333333333</ele><time>2026-04-26T14:43:15.898Z</time></trkpt><trkpt lat="45.3485517" lon="9.7639333"><ele>70.5</ele><time>2026-04-26T14:43:17.898Z</time></trkpt><trkpt lat="45.3484867" lon="9.76402"><ele>70.66666666666667</ele><time>2026-04-26T14:43:19.898Z</time></trkpt><trkpt lat="45.348495" lon="9.7641383"><ele>70.83333333333334</ele><time>2026-04-26T14:43:21.898Z</time></trkpt><trkpt lat="45.34851" lon="9.7642583"><ele>71.0</ele><time>2026-04-26T14:43:23.898Z</time></trkpt><trkpt lat="45.348515" lon="9.764375"><ele>70.6</ele><time>2026-04-26T14:43:25.898Z</time></trkpt><trkpt lat="45.34852" lon="9.7645067"><ele>70.19999999999999</ele><time>2026-04-26T14:43:27.898Z</time></trkpt><trkpt lat="45.34852" lon="9.7646383"><ele>69.80000000000001</ele><time>2026-04-26T14:43:29.898Z</time></trkpt><trkpt lat="45.348525" lon="9.764765"><ele>69.4</ele><time>2026-04-26T14:43:31.898Z</time></trkpt><trkpt lat="45.348535" lon="9.7649017"><ele>69.0</ele><time>2026-04-26T14:43:33.898Z</time></trkpt><trkpt lat="45.3485383" lon="9.7650483"><ele>69.4</ele><time>2026-04-26T14:43:35.898Z</time></trkpt><trkpt lat="45.3485483" lon="9.7651983"><ele>69.80000000000001</ele><time>2026-04-26T14:43:37.898Z</time></trkpt><trkpt lat="45.3485533" lon="9.7653433"><ele>70.19999999999999</ele><time>2026-04-26T14:43:39.898Z</time></trkpt><trkpt lat="45.3485617" lon="9.7654867"><ele>70.6</ele><time>2026-04-26T14:43:41.898Z</time></trkpt><trkpt lat="45.348565" lon="9.7656317"><ele>71.0</ele><time>2026-04-26T14:43:43.898Z</time></trkpt><trkpt lat="45.3485717" lon="9.7657767"><ele>71.0</ele><time>2026-04-26T14:43:45.898Z</time></trkpt><trkpt lat="45.3485788" lon="9.7659285"><ele>71.0</ele><time>2026-04-26T14:43:47.898Z</time></trkpt><trkpt lat="45.3485893" lon="9.7660798"><ele>71.0</ele><time>2026-04-26T14:43:49.898Z</time></trkpt><trkpt lat="45.3485983" lon="9.7662347"><ele>71.0</ele><time>2026-04-26T14:43:51.898Z</time></trkpt><trkpt lat="45.3486037" lon="9.7663923"><ele>71.0</ele><time>2026-04-26T14:43:53.898Z</time></trkpt><trkpt lat="45.3486066" lon="9.7665493"><ele>70.75</ele><time>2026-04-26T14:43:55.898Z</time></trkpt><trkpt lat="45.3486083" lon="9.766712"><ele>70.5</ele><time>2026-04-26T14:43:57.898Z</time></trkpt><trkpt lat="45.3486131" lon="9.7668684"><ele>70.25</ele><time>2026-04-26T14:43:59.898Z</time></trkpt><trkpt lat="45.3486196" lon="9.7670321"><ele>70.0</ele><time>2026-04-26T14:44:01.898Z</time></trkpt><trkpt lat="45.3486224" lon="9.7671978"><ele>69.75</ele><time>2026-04-26T14:44:03.898Z</time></trkpt><trkpt lat="45.3486308" lon="9.7673689"><ele>69.5</ele><time>2026-04-26T14:44:05.898Z</time></trkpt><trkpt lat="45.3486385" lon="9.7675345"><ele>69.25</ele><time>2026-04-26T14:44:07.898Z</time></trkpt><trkpt lat="45.3486453" lon="9.767706"><ele>69.0</ele><time>2026-04-26T14:44:09.898Z</time></trkpt><trkpt lat="45.3486526" lon="9.7678739"><ele>69.0</ele><time>2026-04-26T14:44:11.898Z</time></trkpt><trkpt lat="45.3486612" lon="9.7680384"><ele>69.0</ele><time>2026-04-26T14:44:13.898Z</time></trkpt><trkpt lat="45.3486695" lon="9.768205"><ele>69.0</ele><time>2026-04-26T14:44:15.898Z</time></trkpt><trkpt lat="45.3486757" lon="9.768359"><ele>69.0</ele><time>2026-04-26T14:44:17.898Z</time></trkpt><trkpt lat="45.3486746" lon="9.7684927"><ele>69.0</ele><time>2026-04-26T14:44:19.898Z</time></trkpt><trkpt lat="45.3486383" lon="9.7685983"><ele>69.5</ele><time>2026-04-26T14:44:21.898Z</time></trkpt><trkpt lat="45.3485617" lon="9.7686433"><ele>70.0</ele><time>2026-04-26T14:44:23.898Z</time></trkpt><trkpt lat="45.348485" lon="9.7686483"><ele>70.5</ele><time>2026-04-26T14:44:25.898Z</time></trkpt><trkpt lat="45.348415" lon="9.768645"><ele>71.0</ele><time>2026-04-26T14:44:27.898Z</time></trkpt><trkpt lat="45.34835" lon="9.768665"><ele>71.5</ele><time>2026-04-26T14:44:29.899Z</time></trkpt><trkpt lat="45.34829" lon="9.7687283"><ele>72.0</ele><time>2026-04-26T14:44:31.898Z</time></trkpt><trkpt lat="45.34828" lon="9.76884"><ele>72.0</ele><time>2026-04-26T14:44:33.898Z</time></trkpt><trkpt lat="45.348285" lon="9.7689617"><ele>72.0</ele><time>2026-04-26T14:44:35.898Z</time></trkpt><trkpt lat="45.3482933" lon="9.7690967"><ele>72.0</ele><time>2026-04-26T14:44:37.898Z</time></trkpt><trkpt lat="45.3483067" lon="9.769235"><ele>72.0</ele><time>2026-04-26T14:44:39.898Z</time></trkpt><trkpt lat="45.348315" lon="9.7693717"><ele>72.0</ele><time>2026-04-26T14:44:41.898Z</time></trkpt><trkpt lat="45.348295" lon="9.7694967"><ele>71.6</ele><time>2026-04-26T14:44:43.899Z</time></trkpt><trkpt lat="45.348285" lon="9.7696367"><ele>71.2</ele><time>2026-04-26T14:44:45.898Z</time></trkpt><trkpt lat="45.3482933" lon="9.7697667"><ele>70.8</ele><time>2026-04-26T14:44:47.898Z</time></trkpt><trkpt lat="45.3482933" lon="9.769895"><ele>70.4</ele><time>2026-04-26T14:44:49.898Z</time></trkpt><trkpt lat="45.3483133" lon="9.7700117"><ele>70.0</ele><time>2026-04-26T14:44:51.898Z</time></trkpt><trkpt lat="45.3483167" lon="9.7701317"><ele>69.8</ele><time>2026-04-26T14:44:53.898Z</time></trkpt><trkpt lat="45.3483233" lon="9.7702683"><ele>69.6</ele><time>2026-04-26T14:44:55.898Z</time></trkpt><trkpt lat="45.348335" lon="9.7704083"><ele>69.4</ele><time>2026-04-26T14:44:57.898Z</time></trkpt><trkpt lat="45.3483433" lon="9.7705417"><ele>69.2</ele><time>2026-04-26T14:44:59.898Z</time></trkpt><trkpt lat="45.3483633" lon="9.77068"><ele>69.0</ele><time>2026-04-26T14:45:01.898Z</time></trkpt><trkpt lat="45.348375" lon="9.770815"><ele>69.0</ele><time>2026-04-26T14:45:03.898Z</time></trkpt><trkpt lat="45.3483867" lon="9.7709517"><ele>69.0</ele><time>2026-04-26T14:45:05.898Z</time></trkpt><trkpt lat="45.3484117" lon="9.771075"><ele>69.0</ele><time>2026-04-26T14:45:07.898Z</time></trkpt><trkpt lat="45.34844" lon="9.7711933"><ele>69.0</ele><time>2026-04-26T14:45:09.898Z</time></trkpt><trkpt lat="45.3484767" lon="9.771315"><ele>69.0</ele><time>2026-04-26T14:45:11.898Z</time></trkpt><trkpt lat="45.348505" lon="9.7714433"><ele>69.0</ele><time>2026-04-26T14:45:13.898Z</time></trkpt><trkpt lat="45.3485367" lon="9.771575"><ele>69.0</ele><time>2026-04-26T14:45:15.898Z</time></trkpt><trkpt lat="45.34857" lon="9.7717133"><ele>69.0</ele><time>2026-04-26T14:45:17.898Z</time></trkpt><trkpt lat="45.3486033" lon="9.7718533"><ele>69.0</ele><time>2026-04-26T14:45:19.898Z</time></trkpt><trkpt lat="45.3486383" lon="9.7719967"><ele>69.0</ele><time>2026-04-26T14:45:21.898Z</time></trkpt><trkpt lat="45.3486767" lon="9.7721283"><ele>69.0</ele><time>2026-04-26T14:45:23.898Z</time></trkpt><trkpt lat="45.3487267" lon="9.7722617"><ele>69.0</ele><time>2026-04-26T14:45:25.898Z</time></trkpt><trkpt lat="45.3487833" lon="9.77239"><ele>69.0</ele><time>2026-04-26T14:45:27.898Z</time></trkpt><trkpt lat="45.3488117" lon="9.7725267"><ele>69.0</ele><time>2026-04-26T14:45:29.898Z</time></trkpt><trkpt lat="45.348835" lon="9.77267"><ele>69.0</ele><time>2026-04-26T14:45:31.898Z</time></trkpt><trkpt lat="45.348855" lon="9.7728183"><ele>69.0</ele><time>2026-04-26T14:45:33.898Z</time></trkpt><trkpt lat="45.348875" lon="9.7729683"><ele>69.0</ele><time>2026-04-26T14:45:35.898Z</time></trkpt><trkpt lat="45.3489017" lon="9.7731233"><ele>69.0</ele><time>2026-04-26T14:45:37.898Z</time></trkpt><trkpt lat="45.3489283" lon="9.7732667"><ele>69.0</ele><time>2026-04-26T14:45:39.898Z</time></trkpt><trkpt lat="45.34895" lon="9.7734133"><ele>69.0</ele><time>2026-04-26T14:45:41.898Z</time></trkpt><trkpt lat="45.3489717" lon="9.7735567"><ele>69.0</ele><time>2026-04-26T14:45:43.898Z</time></trkpt><trkpt lat="45.34899" lon="9.773695"><ele>69.0</ele><time>2026-04-26T14:45:45.898Z</time></trkpt><trkpt lat="45.34902" lon="9.7738317"><ele>69.0</ele><time>2026-04-26T14:45:47.898Z</time></trkpt><trkpt lat="45.349045" lon="9.7739717"><ele>69.0</ele><time>2026-04-26T14:45:49.898Z</time></trkpt><trkpt lat="45.3490683" lon="9.7741133"><ele>69.0</ele><time>2026-04-26T14:45:51.898Z</time></trkpt><trkpt lat="45.3490917" lon="9.7742533"><ele>69.0</ele><time>2026-04-26T14:45:53.898Z</time></trkpt><trkpt lat="45.3491183" lon="9.7743983"><ele>69.0</ele><time>2026-04-26T14:45:55.898Z</time></trkpt><trkpt lat="45.3491467" lon="9.7745433"><ele>69.0</ele><time>2026-04-26T14:45:57.898Z</time></trkpt><trkpt lat="45.3491767" lon="9.7746883"><ele>69.0</ele><time>2026-04-26T14:45:59.898Z</time></trkpt><trkpt lat="45.3492067" lon="9.7748317"><ele>69.0</ele><time>2026-04-26T14:46:01.898Z</time></trkpt><trkpt lat="45.3492383" lon="9.7749733"><ele>69.0</ele><time>2026-04-26T14:46:03.898Z</time></trkpt><trkpt lat="45.34927" lon="9.775085"><ele>69.0</ele><time>2026-04-26T14:46:05.898Z</time></trkpt><trkpt lat="45.3493267" lon="9.7751517"><ele>69.0</ele><time>2026-04-26T14:46:07.898Z</time></trkpt><trkpt lat="45.3493983" lon="9.7751383"><ele>69.0</ele><time>2026-04-26T14:46:09.898Z</time></trkpt><trkpt lat="45.3494667" lon="9.775115"><ele>69.0</ele><time>2026-04-26T14:46:11.898Z</time></trkpt><trkpt lat="45.34953" lon="9.7750783"><ele>69.0</ele><time>2026-04-26T14:46:13.898Z</time></trkpt><trkpt lat="45.3496017" lon="9.7750383"><ele>69.0</ele><time>2026-04-26T14:46:15.897Z</time></trkpt><trkpt lat="45.349685" lon="9.7749967"><ele>69.5</ele><time>2026-04-26T14:46:17.897Z</time></trkpt><trkpt lat="45.3497667" lon="9.7749583"><ele>70.0</ele><time>2026-04-26T14:46:19.897Z</time></trkpt><trkpt lat="45.349855" lon="9.77493"><ele>70.5</ele><time>2026-04-26T14:46:21.897Z</time></trkpt><trkpt lat="45.34994" lon="9.7749083"><ele>71.0</ele><time>2026-04-26T14:46:23.897Z</time></trkpt><trkpt lat="45.3500167" lon="9.7748917"><ele>71.5</ele><time>2026-04-26T14:46:25.897Z</time></trkpt><trkpt lat="45.35009" lon="9.7748817"><ele>72.0</ele><time>2026-04-26T14:46:27.897Z</time></trkpt><trkpt lat="45.35016" lon="9.77486"><ele>72.0</ele><time>2026-04-26T14:46:29.897Z</time></trkpt><trkpt lat="45.350235" lon="9.77484"><ele>72.0</ele><time>2026-04-26T14:46:31.897Z</time></trkpt><trkpt lat="45.350315" lon="9.7748083"><ele>72.0</ele><time>2026-04-26T14:46:33.897Z</time></trkpt><trkpt lat="45.3504083" lon="9.774785"><ele>72.0</ele><time>2026-04-26T14:46:35.897Z</time></trkpt><trkpt lat="45.3505017" lon="9.77476"><ele>72.0</ele><time>2026-04-26T14:46:37.897Z</time></trkpt><trkpt lat="45.3505933" lon="9.7747383"><ele>72.0</ele><time>2026-04-26T14:46:39.897Z</time></trkpt><trkpt lat="45.3506867" lon="9.774715"><ele>71.8</ele><time>2026-04-26T14:46:41.897Z</time></trkpt><trkpt lat="45.3507783" lon="9.7746933"><ele>71.6</ele><time>2026-04-26T14:46:43.897Z</time></trkpt><trkpt lat="45.350875" lon="9.7746733"><ele>71.39999999999999</ele><time>2026-04-26T14:46:45.897Z</time></trkpt><trkpt lat="45.3509617" lon="9.77465"><ele>71.2</ele><time>2026-04-26T14:46:47.897Z</time></trkpt><trkpt lat="45.3510467" lon="9.7746267"><ele>71.0</ele><time>2026-04-26T14:46:49.897Z</time></trkpt><trkpt lat="45.35113" lon="9.774605"><ele>71.0</ele><time>2026-04-26T14:46:51.897Z</time></trkpt><trkpt lat="45.3512233" lon="9.77459"><ele>71.0</ele><time>2026-04-26T14:46:53.897Z</time></trkpt><trkpt lat="45.35132" lon="9.7745683"><ele>71.0</ele><time>2026-04-26T14:46:55.897Z</time></trkpt><trkpt lat="45.3514233" lon="9.7745483"><ele>71.0</ele><time>2026-04-26T14:46:57.897Z</time></trkpt><trkpt lat="45.3515183" lon="9.77453"><ele>71.0</ele><time>2026-04-26T14:46:59.898Z</time></trkpt><trkpt lat="45.3516117" lon="9.7745117"><ele>70.8</ele><time>2026-04-26T14:47:01.897Z</time></trkpt><trkpt lat="45.3517133" lon="9.7744967"><ele>70.6</ele><time>2026-04-26T14:47:03.897Z</time></trkpt><trkpt lat="45.3518233" lon="9.774475"><ele>70.4</ele><time>2026-04-26T14:47:05.897Z</time></trkpt><trkpt lat="45.3519317" lon="9.7744617"><ele>70.2</ele><time>2026-04-26T14:47:07.897Z</time></trkpt><trkpt lat="45.3520467" lon="9.7744417"><ele>70.0</ele><time>2026-04-26T14:47:09.897Z</time></trkpt><trkpt lat="45.3521683" lon="9.7744133"><ele>70.0</ele><time>2026-04-26T14:47:11.897Z</time></trkpt><trkpt lat="45.352285" lon="9.7743883"><ele>70.0</ele><time>2026-04-26T14:47:13.897Z</time></trkpt><trkpt lat="45.3523933" lon="9.7743667"><ele>70.0</ele><time>2026-04-26T14:47:15.897Z</time></trkpt><trkpt lat="45.352495" lon="9.774345"><ele>70.0</ele><time>2026-04-26T14:47:17.897Z</time></trkpt><trkpt lat="45.3526117" lon="9.7743183"><ele>70.0</ele><time>2026-04-26T14:47:19.897Z</time></trkpt><trkpt lat="45.35272" lon="9.7742933"><ele>70.0</ele><time>2026-04-26T14:47:21.897Z</time></trkpt><trkpt lat="45.35283" lon="9.7742767"><ele>70.0</ele><time>2026-04-26T14:47:23.897Z</time></trkpt><trkpt lat="45.352945" lon="9.77425"><ele>70.0</ele><time>2026-04-26T14:47:25.897Z</time></trkpt><trkpt lat="45.3530583" lon="9.7742317"><ele>70.0</ele><time>2026-04-26T14:47:27.898Z</time></trkpt><trkpt lat="45.353165" lon="9.7742217"><ele>70.0</ele><time>2026-04-26T14:47:29.898Z</time></trkpt><trkpt lat="45.3532583" lon="9.774245"><ele>70.16666666666666</ele><time>2026-04-26T14:47:31.897Z</time></trkpt><trkpt lat="45.3533233" lon="9.77434"><ele>70.33333333333333</ele><time>2026-04-26T14:47:33.897Z</time></trkpt><trkpt lat="45.3533717" lon="9.7744633"><ele>70.5</ele><time>2026-04-26T14:47:35.897Z</time></trkpt><trkpt lat="45.353395" lon="9.7745983"><ele>70.66666666666667</ele><time>2026-04-26T14:47:37.897Z</time></trkpt><trkpt lat="45.3534183" lon="9.77472"><ele>70.83333333333334</ele><time>2026-04-26T14:47:39.897Z</time></trkpt><trkpt lat="45.3534533" lon="9.7748"><ele>71.0</ele><time>2026-04-26T14:47:41.897Z</time></trkpt><trkpt lat="45.353535" lon="9.7748383"><ele>71.0</ele><time>2026-04-26T14:47:43.897Z</time></trkpt><trkpt lat="45.3536333" lon="9.7748333"><ele>71.0</ele><time>2026-04-26T14:47:45.897Z</time></trkpt><trkpt lat="45.3537283" lon="9.7748083"><ele>71.0</ele><time>2026-04-26T14:47:47.897Z</time></trkpt><trkpt lat="45.3538283" lon="9.7747867"><ele>71.0</ele><time>2026-04-26T14:47:49.897Z</time></trkpt><trkpt lat="45.3539267" lon="9.77477"><ele>71.0</ele><time>2026-04-26T14:47:51.897Z</time></trkpt><trkpt lat="45.3540317" lon="9.774755"><ele>71.2</ele><time>2026-04-26T14:47:53.897Z</time></trkpt><trkpt lat="45.354125" lon="9.7747183"><ele>71.39999999999999</ele><time>2026-04-26T14:47:55.897Z</time></trkpt><trkpt lat="45.3542167" lon="9.7746983"><ele>71.6</ele><time>2026-04-26T14:47:57.897Z</time></trkpt><trkpt lat="45.354305" lon="9.774695"><ele>71.8</ele><time>2026-04-26T14:47:59.897Z</time></trkpt><trkpt lat="45.3543983" lon="9.7746767"><ele>72.0</ele><time>2026-04-26T14:48:01.897Z</time></trkpt><trkpt lat="45.3544967" lon="9.77467"><ele>72.0</ele><time>2026-04-26T14:48:03.898Z</time></trkpt><trkpt lat="45.35459" lon="9.7746617"><ele>72.0</ele><time>2026-04-26T14:48:05.897Z</time></trkpt><trkpt lat="45.35468" lon="9.7746517"><ele>72.0</ele><time>2026-04-26T14:48:07.897Z</time></trkpt><trkpt lat="45.3547767" lon="9.7746517"><ele>72.0</ele><time>2026-04-26T14:48:09.897Z</time></trkpt><trkpt lat="45.354875" lon="9.7746467"><ele>72.0</ele><time>2026-04-26T14:48:11.897Z</time></trkpt><trkpt lat="45.3549733" lon="9.77464"><ele>71.8</ele><time>2026-04-26T14:48:13.897Z</time></trkpt><trkpt lat="45.355075" lon="9.7746433"><ele>71.6</ele><time>2026-04-26T14:48:15.897Z</time></trkpt><trkpt lat="45.3551783" lon="9.77465"><ele>71.39999999999999</ele><time>2026-04-26T14:48:17.897Z</time></trkpt><trkpt lat="45.3552783" lon="9.7746483"><ele>71.2</ele><time>2026-04-26T14:48:19.897Z</time></trkpt><trkpt lat="45.35538" lon="9.7746533"><ele>71.0</ele><time>2026-04-26T14:48:21.897Z</time></trkpt><trkpt lat="45.3554833" lon="9.774655"><ele>71.6</ele><time>2026-04-26T14:48:23.897Z</time></trkpt><trkpt lat="45.3555817" lon="9.7746483"><ele>72.19999999999999</ele><time>2026-04-26T14:48:25.898Z</time></trkpt><trkpt lat="45.35568" lon="9.7746483"><ele>72.80000000000001</ele><time>2026-04-26T14:48:27.897Z</time></trkpt><trkpt lat="45.35577" lon="9.7746467"><ele>73.4</ele><time>2026-04-26T14:48:29.897Z</time></trkpt><trkpt lat="45.3558533" lon="9.7746433"><ele>74.0</ele><time>2026-04-26T14:48:31.897Z</time></trkpt><trkpt lat="45.3559467" lon="9.77465"><ele>74.0</ele><time>2026-04-26T14:48:33.897Z</time></trkpt><trkpt lat="45.3560383" lon="9.7746467"><ele>74.0</ele><time>2026-04-26T14:48:35.897Z</time></trkpt><trkpt lat="45.35613" lon="9.7746483"><ele>74.0</ele><time>2026-04-26T14:48:37.897Z</time></trkpt><trkpt lat="45.356235" lon="9.7746417"><ele>74.0</ele><time>2026-04-26T14:48:39.897Z</time></trkpt><trkpt lat="45.3563317" lon="9.7746367"><ele>74.0</ele><time>2026-04-26T14:48:41.897Z</time></trkpt><trkpt lat="45.356425" lon="9.7746333"><ele>74.2</ele><time>2026-04-26T14:48:43.897Z</time></trkpt><trkpt lat="45.3565083" lon="9.774685"><ele>74.4</ele><time>2026-04-26T14:48:45.897Z</time></trkpt><trkpt lat="45.356535" lon="9.7748083"><ele>74.6</ele><time>2026-04-26T14:48:47.897Z</time></trkpt><trkpt lat="45.3565417" lon="9.7749333"><ele>74.8</ele><time>2026-04-26T14:48:49.897Z</time></trkpt><trkpt lat="45.35654" lon="9.77507"><ele>75.0</ele><time>2026-04-26T14:48:51.897Z</time></trkpt><trkpt lat="45.3565283" lon="9.7751983"><ele>74.6</ele><time>2026-04-26T14:48:53.897Z</time></trkpt><trkpt lat="45.3565133" lon="9.7753183"><ele>74.2</ele><time>2026-04-26T14:48:55.897Z</time></trkpt><trkpt lat="45.3564983" lon="9.7754517"><ele>73.8</ele><time>2026-04-26T14:48:57.897Z</time></trkpt><trkpt lat="45.3564867" lon="9.7755917"><ele>73.4</ele><time>2026-04-26T14:48:59.897Z</time></trkpt><trkpt lat="45.35644" lon="9.7757083"><ele>73.0</ele><time>2026-04-26T14:49:01.897Z</time></trkpt><trkpt lat="45.356395" lon="9.775815"><ele>73.0</ele><time>2026-04-26T14:49:03.897Z</time></trkpt><trkpt lat="45.3563667" lon="9.7759433"><ele>73.0</ele><time>2026-04-26T14:49:05.897Z</time></trkpt><trkpt lat="45.356375" lon="9.7760767"><ele>73.0</ele><time>2026-04-26T14:49:07.897Z</time></trkpt><trkpt lat="45.356335" lon="9.7761983"><ele>73.0</ele><time>2026-04-26T14:49:09.897Z</time></trkpt><trkpt lat="45.35627" lon="9.77632"><ele>73.0</ele><time>2026-04-26T14:49:11.897Z</time></trkpt><trkpt lat="45.3562017" lon="9.776445"><ele>73.0</ele><time>2026-04-26T14:49:13.898Z</time></trkpt><trkpt lat="45.356135" lon="9.7765783"><ele>73.0</ele><time>2026-04-26T14:49:15.897Z</time></trkpt><trkpt lat="45.3560683" lon="9.776705"><ele>73.0</ele><time>2026-04-26T14:49:17.897Z</time></trkpt><trkpt lat="45.3560067" lon="9.776845"><ele>73.0</ele><time>2026-04-26T14:49:19.898Z</time></trkpt><trkpt lat="45.3559417" lon="9.7769833"><ele>73.0</ele><time>2026-04-26T14:49:21.898Z</time></trkpt><trkpt lat="45.3558717" lon="9.7771217"><ele>73.0</ele><time>2026-04-26T14:49:23.897Z</time></trkpt><trkpt lat="45.3558033" lon="9.7772367"><ele>73.0</ele><time>2026-04-26T14:49:25.897Z</time></trkpt><trkpt lat="45.3557317" lon="9.77735"><ele>73.0</ele><time>2026-04-26T14:49:27.897Z</time></trkpt><trkpt lat="45.35566" lon="9.7774617"><ele>73.0</ele><time>2026-04-26T14:49:29.897Z</time></trkpt><trkpt lat="45.3556017" lon="9.7775583"><ele>73.0</ele><time>2026-04-26T14:49:31.897Z</time></trkpt><trkpt lat="45.35552" lon="9.7776117"><ele>73.0</ele><time>2026-04-26T14:49:33.897Z</time></trkpt><trkpt lat="45.3554317" lon="9.7776567"><ele>73.0</ele><time>2026-04-26T14:49:35.897Z</time></trkpt><trkpt lat="45.355365" lon="9.7777467"><ele>73.0</ele><time>2026-04-26T14:49:37.897Z</time></trkpt><trkpt lat="45.3553433" lon="9.77787"><ele>73.0</ele><time>2026-04-26T14:49:39.897Z</time></trkpt><trkpt lat="45.3553583" lon="9.7780133"><ele>73.0</ele><time>2026-04-26T14:49:41.897Z</time></trkpt><trkpt lat="45.355375" lon="9.7781667"><ele>73.0</ele><time>2026-04-26T14:49:43.897Z</time></trkpt><trkpt lat="45.355365" lon="9.7783133"><ele>73.0</ele><time>2026-04-26T14:49:45.897Z</time></trkpt><trkpt lat="45.3553517" lon="9.7784533"><ele>73.0</ele><time>2026-04-26T14:49:47.897Z</time></trkpt><trkpt lat="45.3553417" lon="9.7785867"><ele>73.0</ele><time>2026-04-26T14:49:49.897Z</time></trkpt><trkpt lat="45.3553467" lon="9.77871"><ele>73.0</ele><time>2026-04-26T14:49:51.897Z</time></trkpt><trkpt lat="45.35536" lon="9.7788383"><ele>73.0</ele><time>2026-04-26T14:49:53.897Z</time></trkpt><trkpt lat="45.3553817" lon="9.7789617"><ele>73.0</ele><time>2026-04-26T14:49:55.897Z</time></trkpt><trkpt lat="45.3554" lon="9.77908"><ele>73.0</ele><time>2026-04-26T14:49:57.897Z</time></trkpt><trkpt lat="45.3554133" lon="9.7792067"><ele>73.0</ele><time>2026-04-26T14:49:59.897Z</time></trkpt><trkpt lat="45.3554333" lon="9.77934"><ele>72.8</ele><time>2026-04-26T14:50:01.897Z</time></trkpt><trkpt lat="45.3554567" lon="9.7794767"><ele>72.6</ele><time>2026-04-26T14:50:03.897Z</time></trkpt><trkpt lat="45.35549" lon="9.7796083"><ele>72.4</ele><time>2026-04-26T14:50:05.897Z</time></trkpt><trkpt lat="45.355515" lon="9.7797433"><ele>72.2</ele><time>2026-04-26T14:50:07.897Z</time></trkpt><trkpt lat="45.3555283" lon="9.7798883"><ele>72.0</ele><time>2026-04-26T14:50:09.897Z</time></trkpt><trkpt lat="45.3555533" lon="9.7800167"><ele>72.0</ele><time>2026-04-26T14:50:11.897Z</time></trkpt><trkpt lat="45.3555683" lon="9.78013"><ele>72.0</ele><time>2026-04-26T14:50:13.897Z</time></trkpt><trkpt lat="45.3556017" lon="9.7802317"><ele>72.0</ele><time>2026-04-26T14:50:16.897Z</time></trkpt><trkpt lat="45.35562" lon="9.780335"><ele>72.0</ele><time>2026-04-26T14:50:20.896Z</time></trkpt><trkpt lat="45.3556283" lon="9.7804267"><ele>72.0</ele><time>2026-04-26T14:50:22.897Z</time></trkpt><trkpt lat="45.3556383" lon="9.780525"><ele>72.0</ele><time>2026-04-26T14:50:24.896Z</time></trkpt><trkpt lat="45.35566" lon="9.7806367"><ele>72.2</ele><time>2026-04-26T14:50:26.896Z</time></trkpt><trkpt lat="45.35569" lon="9.7807583"><ele>72.4</ele><time>2026-04-26T14:50:28.896Z</time></trkpt><trkpt lat="45.35571" lon="9.78089"><ele>72.6</ele><time>2026-04-26T14:50:30.896Z</time></trkpt><trkpt lat="45.3557367" lon="9.7810167"><ele>72.8</ele><time>2026-04-26T14:50:32.896Z</time></trkpt><trkpt lat="45.35576" lon="9.7811517"><ele>73.0</ele><time>2026-04-26T14:50:34.896Z</time></trkpt><trkpt lat="45.3557683" lon="9.781285"><ele>73.0</ele><time>2026-04-26T14:50:36.896Z</time></trkpt><trkpt lat="45.355795" lon="9.7814167"><ele>73.0</ele><time>2026-04-26T14:50:38.896Z</time></trkpt><trkpt lat="45.3558217" lon="9.7815567"><ele>73.0</ele><time>2026-04-26T14:50:40.896Z</time></trkpt><trkpt lat="45.3558383" lon="9.7816983"><ele>73.0</ele><time>2026-04-26T14:50:42.897Z</time></trkpt><trkpt lat="45.3558483" lon="9.7818417"><ele>73.0</ele><time>2026-04-26T14:50:44.896Z</time></trkpt><trkpt lat="45.3558517" lon="9.7819767"><ele>73.0</ele><time>2026-04-26T14:50:46.897Z</time></trkpt><trkpt lat="45.3558633" lon="9.78211"><ele>73.0</ele><time>2026-04-26T14:50:48.896Z</time></trkpt><trkpt lat="45.3558833" lon="9.7822433"><ele>73.0</ele><time>2026-04-26T14:50:50.896Z</time></trkpt><trkpt lat="45.3558983" lon="9.782375"><ele>73.0</ele><time>2026-04-26T14:50:52.896Z</time></trkpt><trkpt lat="45.35591" lon="9.78251"><ele>73.0</ele><time>2026-04-26T14:50:54.896Z</time></trkpt><trkpt lat="45.3559283" lon="9.7826433"><ele>73.0</ele><time>2026-04-26T14:50:56.896Z</time></trkpt><trkpt lat="45.355945" lon="9.7827733"><ele>73.0</ele><time>2026-04-26T14:50:58.896Z</time></trkpt><trkpt lat="45.3559717" lon="9.7829083"><ele>73.0</ele><time>2026-04-26T14:51:00.896Z</time></trkpt><trkpt lat="45.35599" lon="9.7830483"><ele>73.0</ele><time>2026-04-26T14:51:02.896Z</time></trkpt><trkpt lat="45.3560433" lon="9.783155"><ele>73.0</ele><time>2026-04-26T14:51:04.896Z</time></trkpt><trkpt lat="45.356135" lon="9.78316"><ele>73.0</ele><time>2026-04-26T14:51:06.896Z</time></trkpt><trkpt lat="45.3562283" lon="9.7831367"><ele>73.0</ele><time>2026-04-26T14:51:08.896Z</time></trkpt><trkpt lat="45.356335" lon="9.783115"><ele>73.0</ele><time>2026-04-26T14:51:10.896Z</time></trkpt><trkpt lat="45.3564433" lon="9.7830867"><ele>73.0</ele><time>2026-04-26T14:51:12.896Z</time></trkpt><trkpt lat="45.356545" lon="9.7830733"><ele>73.0</ele><time>2026-04-26T14:51:14.897Z</time></trkpt><trkpt lat="45.356645" lon="9.7830567"><ele>73.0</ele><time>2026-04-26T14:51:16.897Z</time></trkpt><trkpt lat="45.3567533" lon="9.7830183"><ele>73.0</ele><time>2026-04-26T14:51:18.896Z</time></trkpt><trkpt lat="45.3568633" lon="9.783005"><ele>73.0</ele><time>2026-04-26T14:51:20.896Z</time></trkpt><trkpt lat="45.3569567" lon="9.7829967"><ele>73.0</ele><time>2026-04-26T14:51:22.896Z</time></trkpt><trkpt lat="45.3570533" lon="9.7829933"><ele>73.0</ele><time>2026-04-26T14:51:24.896Z</time></trkpt><trkpt lat="45.3571567" lon="9.7829767"><ele>73.0</ele><time>2026-04-26T14:51:26.896Z</time></trkpt><trkpt lat="45.3572533" lon="9.782955"><ele>74.0</ele><time>2026-04-26T14:51:28.896Z</time></trkpt><trkpt lat="45.357355" lon="9.7829417"><ele>74.0</ele><time>2026-04-26T14:51:30.896Z</time></trkpt><trkpt lat="45.357455" lon="9.7829417"><ele>74.0</ele><time>2026-04-26T14:51:32.896Z</time></trkpt><trkpt lat="45.3575133" lon="9.7829817"><ele>74.0</ele><time>2026-04-26T14:51:34.896Z</time></trkpt></trkseg></trk></gpx>